<?xml version='1.0' encoding='UTF-8'?><gpx version="1.1" creator="JPX - https://github.com/jenetics/jpx" xmlns="http://www.topografix.com/GPX/1/1"><trk><trkseg><trkpt lat="45.6232645828727" lon="11.159360738780764"><ele>1143.0</ele><time>2026-04-25T11:43:57Z</time></trkpt><trkpt lat="45.623262990813274" lon="11.159492638058138"><ele>1143.0</ele><time>2026-04-25T11:44:41Z</time></trkpt><trkpt lat="45.62330266619343" lon="11.159604160848893"><ele>1143.0</ele><time>2026-04-25T11:44:43Z</time></trkpt><trkpt lat="45.6233598716714" lon="11.159749431520089"><ele>1143.0</ele><time>2026-04-25T11:44:45Z</time></trkpt><trkpt lat="45.62341755119924" lon="11.159890400117183"><ele>1143.0</ele><time>2026-04-25T11:44:47Z</time></trkpt><trkpt lat="45.62346284515363" lon="11.160029593260349"><ele>1141.25</ele><time>2026-04-25T11:44:49Z</time></trkpt><trkpt lat="45.6235157593345" lon="11.16016924778939"><ele>1139.5</ele><time>2026-04-25T11:44:51Z</time></trkpt><trkpt lat="45.623562607979366" lon="11.160320977160692"><ele>1137.75</ele><time>2026-04-25T11:44:53Z</time></trkpt><trkpt lat="45.62361015867829" lon="11.160476217063357"><ele>1136.0</ele><time>2026-04-25T11:44:55Z</time></trkpt><trkpt lat="45.62365474150974" lon="11.160630530348596"><ele>1134.3999999999999</ele><time>2026-04-25T11:44:57Z</time></trkpt><trkpt lat="45.62365950322809" lon="11.160776340069667"><ele>1132.8</ele><time>2026-04-25T11:44:59Z</time></trkpt><trkpt lat="45.62363467022761" lon="11.160909601382459"><ele>1131.1999999999998</ele><time>2026-04-25T11:45:01Z</time></trkpt><trkpt lat="45.623602552157415" lon="11.161011142748247"><ele>1129.6</ele><time>2026-04-25T11:45:03Z</time></trkpt><trkpt lat="45.62354830503555" lon="11.161103877353545"><ele>1128.0</ele><time>2026-04-25T11:45:05.001Z</time></trkpt><trkpt lat="45.62346139408402" lon="11.161062557182186"><ele>1128.0</ele><time>2026-04-25T11:45:07.001Z</time></trkpt><trkpt lat="45.62337260102924" lon="11.160970853499578"><ele>1128.0</ele><time>2026-04-25T11:45:09.001Z</time></trkpt><trkpt lat="45.62327345845738" lon="11.160891528009595"><ele>1128.0</ele><time>2026-04-25T11:45:11.001Z</time></trkpt><trkpt lat="45.623203938557296" lon="11.160848362565671"><ele>1128.0</ele><time>2026-04-25T11:45:12.001Z</time></trkpt><trkpt lat="45.62313248606881" lon="11.160794783954596"><ele>1128.0</ele><time>2026-04-25T11:45:13.001Z</time></trkpt><trkpt lat="45.62308053902316" lon="11.160719322488383"><ele>1129.3333333333333</ele><time>2026-04-25T11:45:14.001Z</time></trkpt><trkpt lat="45.62305957305627" lon="11.160622604528436"><ele>1130.6666666666667</ele><time>2026-04-25T11:45:15.001Z</time></trkpt><trkpt lat="45.62306907358948" lon="11.16051740380778"><ele>1132.0</ele><time>2026-04-25T11:45:16.001Z</time></trkpt><trkpt lat="45.62307297217802" lon="11.160414645001511"><ele>1133.3333333333335</ele><time>2026-04-25T11:45:17.001Z</time></trkpt><trkpt lat="45.62305544604401" lon="11.16030996469009"><ele>1134.6666666666667</ele><time>2026-04-25T11:45:18Z</time></trkpt><trkpt lat="45.623013201124905" lon="11.160203926536353"><ele>1136.0</ele><time>2026-04-25T11:45:19Z</time></trkpt><trkpt lat="45.62293454545027" lon="11.160133119676908"><ele>1136.0</ele><time>2026-04-25T11:45:20Z</time></trkpt><trkpt lat="45.62283366401216" lon="11.16010814260059"><ele>1136.0</ele><time>2026-04-25T11:45:21Z</time></trkpt><trkpt lat="45.62273873264922" lon="11.16013666358109"><ele>1136.0</ele><time>2026-04-25T11:45:22Z</time></trkpt><trkpt lat="45.6226310752881" lon="11.160160368992615"><ele>1136.0</ele><time>2026-04-25T11:45:23Z</time></trkpt><trkpt lat="45.62253027520586" lon="11.16016315735036"><ele>1136.0</ele><time>2026-04-25T11:45:24Z</time></trkpt><trkpt lat="45.62244084982727" lon="11.160155909776632"><ele>1133.8333333333335</ele><time>2026-04-25T11:45:25Z</time></trkpt><trkpt lat="45.62235896222346" lon="11.160151176977816"><ele>1131.6666666666667</ele><time>2026-04-25T11:45:26Z</time></trkpt><trkpt lat="45.622281822437515" lon="11.160128322580483"><ele>1129.5</ele><time>2026-04-25T11:45:27Z</time></trkpt><trkpt lat="45.622220442133454" lon="11.16007845856594"><ele>1127.3333333333333</ele><time>2026-04-25T11:45:28Z</time></trkpt><trkpt lat="45.62217743478793" lon="11.1599939922991"><ele>1125.1666666666665</ele><time>2026-04-25T11:45:29Z</time></trkpt><trkpt lat="45.62215445265865" lon="11.159884307641082"><ele>1123.0</ele><time>2026-04-25T11:45:30Z</time></trkpt><trkpt lat="45.622151171821194" lon="11.159761303762487"><ele>1123.0</ele><time>2026-04-25T11:45:31Z</time></trkpt><trkpt lat="45.62216227126005" lon="11.15963344245554"><ele>1123.0</ele><time>2026-04-25T11:45:32Z</time></trkpt><trkpt lat="45.62219008353164" lon="11.159511963603114"><ele>1123.0</ele><time>2026-04-25T11:45:33Z</time></trkpt><trkpt lat="45.622226046864434" lon="11.159410422734833"><ele>1123.0</ele><time>2026-04-25T11:45:34Z</time></trkpt><trkpt lat="45.62225813128897" lon="11.159322806381503"><ele>1123.0</ele><time>2026-04-25T11:45:35Z</time></trkpt><trkpt lat="45.62228643614714" lon="11.159236703591105"><ele>1123.0</ele><time>2026-04-25T11:45:36Z</time></trkpt><trkpt lat="45.62230588137045" lon="11.159147587325375"><ele>1124.8</ele><time>2026-04-25T11:45:37Z</time></trkpt><trkpt lat="45.62222932902729" lon="11.15900257821073"><ele>1126.6</ele><time>2026-04-25T11:45:39Z</time></trkpt><trkpt lat="45.62215530150512" lon="11.158969941638134"><ele>1128.4</ele><time>2026-04-25T11:45:40Z</time></trkpt><trkpt lat="45.62206767773648" lon="11.15896448305477"><ele>1130.2</ele><time>2026-04-25T11:45:41Z</time></trkpt><trkpt lat="45.62197591844882" lon="11.15894456785123"><ele>1132.0</ele><time>2026-04-25T11:45:42Z</time></trkpt><trkpt lat="45.62188661568245" lon="11.158915281210028"><ele>1128.6666666666665</ele><time>2026-04-25T11:45:43Z</time></trkpt><trkpt lat="45.62180121345172" lon="11.158891654299959"><ele>1125.3333333333333</ele><time>2026-04-25T11:45:44Z</time></trkpt><trkpt lat="45.621724261927156" lon="11.15890071867608"><ele>1122.0</ele><time>2026-04-25T11:45:45Z</time></trkpt><trkpt lat="45.621654514319836" lon="11.15894414262122"><ele>1118.6666666666667</ele><time>2026-04-25T11:45:46Z</time></trkpt><trkpt lat="45.62159078300749" lon="11.15899814564114"><ele>1115.3333333333335</ele><time>2026-04-25T11:45:47Z</time></trkpt><trkpt lat="45.621530831953365" lon="11.159067166657586"><ele>1112.0</ele><time>2026-04-25T11:45:48Z</time></trkpt><trkpt lat="45.62146515572862" lon="11.159155397045273"><ele>1110.2</ele><time>2026-04-25T11:45:49Z</time></trkpt><trkpt lat="45.62139723780414" lon="11.159195315991289"><ele>1108.4</ele><time>2026-04-25T11:45:50Z</time></trkpt><trkpt lat="45.62127796226313" lon="11.15920723095201"><ele>1106.6</ele><time>2026-04-25T11:45:52Z</time></trkpt><trkpt lat="45.621150528836644" lon="11.15921493940164"><ele>1104.8</ele><time>2026-04-25T11:45:54Z</time></trkpt><trkpt lat="45.62108539817149" lon="11.159283676121774"><ele>1103.0</ele><time>2026-04-25T11:45:55Z</time></trkpt><trkpt lat="45.62101730288977" lon="11.159391619836477"><ele>1100.4</ele><time>2026-04-25T11:45:56Z</time></trkpt><trkpt lat="45.620940343812364" lon="11.159513144440906"><ele>1097.8</ele><time>2026-04-25T11:45:57Z</time></trkpt><trkpt lat="45.62085793545516" lon="11.159623548133592"><ele>1095.2</ele><time>2026-04-25T11:45:58Z</time></trkpt><trkpt lat="45.62077540035558" lon="11.159716725544193"><ele>1092.6</ele><time>2026-04-25T11:45:59Z</time></trkpt><trkpt lat="45.62070777917735" lon="11.159788427305003"><ele>1090.0</ele><time>2026-04-25T11:46:00Z</time></trkpt><trkpt lat="45.62064573640062" lon="11.15984462635816"><ele>1089.4285714285716</ele><time>2026-04-25T11:46:01Z</time></trkpt><trkpt lat="45.620590660398186" lon="11.159891536422615"><ele>1088.857142857143</ele><time>2026-04-25T11:46:02Z</time></trkpt><trkpt lat="45.620532937065825" lon="11.159939902890466"><ele>1088.2857142857142</ele><time>2026-04-25T11:46:03Z</time></trkpt><trkpt lat="45.62047190113084" lon="11.159980111656175"><ele>1087.7142857142858</ele><time>2026-04-25T11:46:04Z</time></trkpt><trkpt lat="45.62040458988582" lon="11.160006477091988"><ele>1087.142857142857</ele><time>2026-04-25T11:46:05Z</time></trkpt><trkpt lat="45.62033169688938" lon="11.160018995275067"><ele>1086.5714285714287</ele><time>2026-04-25T11:46:06Z</time></trkpt><trkpt lat="45.6202547599866" lon="11.160018768087962"><ele>1086.0</ele><time>2026-04-25T11:46:07Z</time></trkpt><trkpt lat="45.62017849035118" lon="11.160010541251232"><ele>1086.0</ele><time>2026-04-25T11:46:08Z</time></trkpt><trkpt lat="45.62010059554793" lon="11.159995973129023"><ele>1086.0</ele><time>2026-04-25T11:46:09Z</time></trkpt><trkpt lat="45.62001764232193" lon="11.15997022951833"><ele>1086.0</ele><time>2026-04-25T11:46:10Z</time></trkpt><trkpt lat="45.619935515671244" lon="11.159931695950108"><ele>1086.0</ele><time>2026-04-25T11:46:11Z</time></trkpt><trkpt lat="45.61984878220539" lon="11.159884243323965"><ele>1086.0</ele><time>2026-04-25T11:46:12Z</time></trkpt><trkpt lat="45.61976247499305" lon="11.159832307754048"><ele>1086.0</ele><time>2026-04-25T11:46:13Z</time></trkpt><trkpt lat="45.619670736720664" lon="11.15977728793161"><ele>1084.0</ele><time>2026-04-25T11:46:14Z</time></trkpt><trkpt lat="45.61957459331219" lon="11.15972183889239"><ele>1082.0</ele><time>2026-04-25T11:46:15Z</time></trkpt><trkpt lat="45.61947597027437" lon="11.15966942316699"><ele>1080.0</ele><time>2026-04-25T11:46:16Z</time></trkpt><trkpt lat="45.619375799476636" lon="11.159617899569703"><ele>1078.0</ele><time>2026-04-25T11:46:17Z</time></trkpt><trkpt lat="45.61927298806137" lon="11.15956297770389"><ele>1076.0</ele><time>2026-04-25T11:46:18Z</time></trkpt><trkpt lat="45.619170264995084" lon="11.159498310745226"><ele>1076.0</ele><time>2026-04-25T11:46:19Z</time></trkpt><trkpt lat="45.61906807363702" lon="11.159422867915044"><ele>1076.0</ele><time>2026-04-25T11:46:20Z</time></trkpt><trkpt lat="45.61897755731013" lon="11.159350746737717"><ele>1076.0</ele><time>2026-04-25T11:46:21Z</time></trkpt><trkpt lat="45.618898523317476" lon="11.159271337045725"><ele>1076.0</ele><time>2026-04-25T11:46:22Z</time></trkpt><trkpt lat="45.618830098476685" lon="11.159173359759459"><ele>1076.0</ele><time>2026-04-25T11:46:23Z</time></trkpt><trkpt lat="45.618729236553385" lon="11.159122232877916"><ele>1074.75</ele><time>2026-04-25T11:46:24Z</time></trkpt><trkpt lat="45.61862982670801" lon="11.159050932746345"><ele>1073.5</ele><time>2026-04-25T11:46:25Z</time></trkpt><trkpt lat="45.618524603946824" lon="11.15898872258179"><ele>1072.25</ele><time>2026-04-25T11:46:26Z</time></trkpt><trkpt lat="45.61841292356466" lon="11.15891103524703"><ele>1071.0</ele><time>2026-04-25T11:46:27Z</time></trkpt><trkpt lat="45.618289020584925" lon="11.15889130291889"><ele>1071.0</ele><time>2026-04-25T11:46:28Z</time></trkpt><trkpt lat="45.61817343566882" lon="11.15885906538908"><ele>1071.0</ele><time>2026-04-25T11:46:29Z</time></trkpt><trkpt lat="45.618052653936864" lon="11.15883494276742"><ele>1071.0</ele><time>2026-04-25T11:46:30Z</time></trkpt><trkpt lat="45.61794082271953" lon="11.15877174260412"><ele>1071.0</ele><time>2026-04-25T11:46:31Z</time></trkpt><trkpt lat="45.61782658288041" lon="11.15872193438284"><ele>1074.0</ele><time>2026-04-25T11:46:32Z</time></trkpt><trkpt lat="45.61771595741941" lon="11.158660329401755"><ele>1077.0</ele><time>2026-04-25T11:46:33Z</time></trkpt><trkpt lat="45.61760585751166" lon="11.1585817928541"><ele>1080.0</ele><time>2026-04-25T11:46:34Z</time></trkpt><trkpt lat="45.617501438353464" lon="11.158493431367658"><ele>1083.0</ele><time>2026-04-25T11:46:35Z</time></trkpt><trkpt lat="45.617412102227576" lon="11.158402564131864"><ele>1083.0</ele><time>2026-04-25T11:46:36Z</time></trkpt><trkpt lat="45.617338445885004" lon="11.158320236780831"><ele>1083.0</ele><time>2026-04-25T11:46:37Z</time></trkpt><trkpt lat="45.61726073145198" lon="11.15822672646386"><ele>1083.0</ele><time>2026-04-25T11:46:38Z</time></trkpt><trkpt lat="45.617188307765744" lon="11.15812326764814"><ele>1083.0</ele><time>2026-04-25T11:46:39Z</time></trkpt><trkpt lat="45.617119610323904" lon="11.158019187523886"><ele>1083.0</ele><time>2026-04-25T11:46:40Z</time></trkpt><trkpt lat="45.61704738610531" lon="11.157914233790487"><ele>1081.8</ele><time>2026-04-25T11:46:41Z</time></trkpt><trkpt lat="45.616962758530526" lon="11.157830550793586"><ele>1080.6</ele><time>2026-04-25T11:46:42Z</time></trkpt><trkpt lat="45.61689272307317" lon="11.157737976708804"><ele>1079.4</ele><time>2026-04-25T11:46:43Z</time></trkpt><trkpt lat="45.61683140701522" lon="11.15763758908679"><ele>1078.2</ele><time>2026-04-25T11:46:44Z</time></trkpt><trkpt lat="45.616750791981225" lon="11.157565496169324"><ele>1077.0</ele><time>2026-04-25T11:46:45Z</time></trkpt><trkpt lat="45.61665986912707" lon="11.157515890359923"><ele>1077.0</ele><time>2026-04-25T11:46:46Z</time></trkpt><trkpt lat="45.61656452520376" lon="11.15749112260413"><ele>1077.0</ele><time>2026-04-25T11:46:47Z</time></trkpt><trkpt lat="45.616462989607896" lon="11.15747895704604"><ele>1077.0</ele><time>2026-04-25T11:46:48Z</time></trkpt><trkpt lat="45.61636193913154" lon="11.15744593383079"><ele>1077.0</ele><time>2026-04-25T11:46:49Z</time></trkpt><trkpt lat="45.616257377615206" lon="11.157409710406078"><ele>1077.0</ele><time>2026-04-25T11:46:50Z</time></trkpt><trkpt lat="45.61614761106904" lon="11.15738278568547"><ele>1075.0</ele><time>2026-04-25T11:46:51Z</time></trkpt><trkpt lat="45.61603856409518" lon="11.15737083298412"><ele>1073.0</ele><time>2026-04-25T11:46:52Z</time></trkpt><trkpt lat="45.615935443120435" lon="11.157364901493967"><ele>1071.0</ele><time>2026-04-25T11:46:53Z</time></trkpt><trkpt lat="45.61583621253419" lon="11.15734483170059"><ele>1069.0</ele><time>2026-04-25T11:46:54Z</time></trkpt><trkpt lat="45.615740115160726" lon="11.157381630528576"><ele>1067.0</ele><time>2026-04-25T11:46:55Z</time></trkpt><trkpt lat="45.61565427451554" lon="11.157456249518207"><ele>1067.0</ele><time>2026-04-25T11:46:56Z</time></trkpt><trkpt lat="45.615583419484736" lon="11.157558685929294"><ele>1067.0</ele><time>2026-04-25T11:46:57Z</time></trkpt><trkpt lat="45.61548758916741" lon="11.157592835909998"><ele>1067.0</ele><time>2026-04-25T11:46:58Z</time></trkpt><trkpt lat="45.61539591414619" lon="11.157629900482535"><ele>1067.0</ele><time>2026-04-25T11:46:59Z</time></trkpt><trkpt lat="45.61530335022929" lon="11.15765933779525"><ele>1067.0</ele><time>2026-04-25T11:47:00Z</time></trkpt><trkpt lat="45.61521546879082" lon="11.157683306091856"><ele>1065.6</ele><time>2026-04-25T11:47:01Z</time></trkpt><trkpt lat="45.61512319465765" lon="11.157699860782992"><ele>1064.2</ele><time>2026-04-25T11:47:02Z</time></trkpt><trkpt lat="45.61502698011375" lon="11.157698035064682"><ele>1062.8</ele><time>2026-04-25T11:47:03Z</time></trkpt><trkpt lat="45.61493282979221" lon="11.157713780327501"><ele>1061.4</ele><time>2026-04-25T11:47:04Z</time></trkpt><trkpt lat="45.614839923305034" lon="11.157720638821406"><ele>1060.0</ele><time>2026-04-25T11:47:05Z</time></trkpt><trkpt lat="45.614743202834305" lon="11.157723199577475"><ele>1060.0</ele><time>2026-04-25T11:47:06Z</time></trkpt><trkpt lat="45.61465977351491" lon="11.157724213851909"><ele>1060.0</ele><time>2026-04-25T11:47:07Z</time></trkpt><trkpt lat="45.61457420900638" lon="11.157745424350754"><ele>1060.0</ele><time>2026-04-25T11:47:08Z</time></trkpt><trkpt lat="45.614482231153204" lon="11.157743605828017"><ele>1060.0</ele><time>2026-04-25T11:47:09Z</time></trkpt><trkpt lat="45.614389211676325" lon="11.157750035231002"><ele>1060.0</ele><time>2026-04-25T11:47:10Z</time></trkpt><trkpt lat="45.614304484450166" lon="11.157761145402011"><ele>1060.0</ele><time>2026-04-25T11:47:11Z</time></trkpt><trkpt lat="45.614219749112955" lon="11.1577724620515"><ele>1058.0</ele><time>2026-04-25T11:47:12Z</time></trkpt><trkpt lat="45.614124905664" lon="11.15776799206824"><ele>1056.0</ele><time>2026-04-25T11:47:13Z</time></trkpt><trkpt lat="45.61403113966373" lon="11.157807419948382"><ele>1054.0</ele><time>2026-04-25T11:47:14Z</time></trkpt><trkpt lat="45.61394366352457" lon="11.157813465946859"><ele>1052.0</ele><time>2026-04-25T11:47:15Z</time></trkpt><trkpt lat="45.61385809812584" lon="11.157835609982689"><ele>1050.0</ele><time>2026-04-25T11:47:16Z</time></trkpt><trkpt lat="45.61376800875698" lon="11.157855547732805"><ele>1050.0</ele><time>2026-04-25T11:47:17Z</time></trkpt><trkpt lat="45.613675991274675" lon="11.157868917809726"><ele>1050.0</ele><time>2026-04-25T11:47:18Z</time></trkpt><trkpt lat="45.613588507778466" lon="11.157860210355143"><ele>1050.0</ele><time>2026-04-25T11:47:19Z</time></trkpt><trkpt lat="45.6134981616739" lon="11.15786764374876"><ele>1050.0</ele><time>2026-04-25T11:47:20Z</time></trkpt><trkpt lat="45.613410319475584" lon="11.157871425639819"><ele>1050.0</ele><time>2026-04-25T11:47:21Z</time></trkpt><trkpt lat="45.61332237112491" lon="11.15787149567035"><ele>1050.0</ele><time>2026-04-25T11:47:22Z</time></trkpt><trkpt lat="45.61323034310575" lon="11.157862783361047"><ele>1048.1666666666667</ele><time>2026-04-25T11:47:23Z</time></trkpt><trkpt lat="45.61315266472952" lon="11.157838119270473"><ele>1046.3333333333333</ele><time>2026-04-25T11:47:24Z</time></trkpt><trkpt lat="45.6130757389351" lon="11.1577911783074"><ele>1044.5</ele><time>2026-04-25T11:47:25Z</time></trkpt><trkpt lat="45.6130052120948" lon="11.15772386655312"><ele>1042.6666666666665</ele><time>2026-04-25T11:47:26Z</time></trkpt><trkpt lat="45.61293381916225" lon="11.157640181072026"><ele>1040.8333333333333</ele><time>2026-04-25T11:47:27Z</time></trkpt><trkpt lat="45.61285629743021" lon="11.157531922301155"><ele>1039.0</ele><time>2026-04-25T11:47:28Z</time></trkpt><trkpt lat="45.61278502467637" lon="11.157466820793475"><ele>1037.1666666666665</ele><time>2026-04-25T11:47:29Z</time></trkpt><trkpt lat="45.612733961795726" lon="11.15739432620198"><ele>1035.3333333333333</ele><time>2026-04-25T11:47:30Z</time></trkpt><trkpt lat="45.61267056581604" lon="11.157320754040763"><ele>1033.5</ele><time>2026-04-25T11:47:31Z</time></trkpt><trkpt lat="45.61259609062194" lon="11.157252155148553"><ele>1031.6666666666667</ele><time>2026-04-25T11:47:32Z</time></trkpt><trkpt lat="45.61251865611692" lon="11.157194289824297"><ele>1029.8333333333335</ele><time>2026-04-25T11:47:33Z</time></trkpt><trkpt lat="45.612436354249816" lon="11.157159398723357"><ele>1028.0</ele><time>2026-04-25T11:47:34Z</time></trkpt><trkpt lat="45.61234025613323" lon="11.157126082675234"><ele>1027.4</ele><time>2026-04-25T11:47:35Z</time></trkpt><trkpt lat="45.61224066437874" lon="11.157102636600975"><ele>1026.8</ele><time>2026-04-25T11:47:36Z</time></trkpt><trkpt lat="45.61212099424259" lon="11.157079447715928"><ele>1026.2</ele><time>2026-04-25T11:47:37Z</time></trkpt><trkpt lat="45.61202128786754" lon="11.157068308753521"><ele>1025.6</ele><time>2026-04-25T11:47:38Z</time></trkpt><trkpt lat="45.61191258049755" lon="11.15704989143118"><ele>1025.0</ele><time>2026-04-25T11:47:39Z</time></trkpt><trkpt lat="45.61180575656499" lon="11.15702595150371"><ele>1023.4</ele><time>2026-04-25T11:47:40Z</time></trkpt><trkpt lat="45.611706700615926" lon="11.15700492284086"><ele>1021.8</ele><time>2026-04-25T11:47:41Z</time></trkpt><trkpt lat="45.61161768367436" lon="11.15697332672691"><ele>1020.2</ele><time>2026-04-25T11:47:42Z</time></trkpt><trkpt lat="45.61153024202784" lon="11.156971934327022"><ele>1018.6</ele><time>2026-04-25T11:47:43Z</time></trkpt><trkpt lat="45.61144261839638" lon="11.15694455978394"><ele>1017.0</ele><time>2026-04-25T11:47:44Z</time></trkpt><trkpt lat="45.61135402448107" lon="11.156948350082304"><ele>1017.0</ele><time>2026-04-25T11:47:45Z</time></trkpt><trkpt lat="45.61126547189596" lon="11.156931759688474"><ele>1017.0</ele><time>2026-04-25T11:47:46Z</time></trkpt><trkpt lat="45.61118747905383" lon="11.156891220207875"><ele>1017.0</ele><time>2026-04-25T11:47:47Z</time></trkpt><trkpt lat="45.61110011734119" lon="11.156860042376803"><ele>1017.0</ele><time>2026-04-25T11:47:48Z</time></trkpt><trkpt lat="45.6110127590956" lon="11.156825006346459"><ele>1017.0</ele><time>2026-04-25T11:47:49Z</time></trkpt><trkpt lat="45.61092023405865" lon="11.156811273037642"><ele>1017.0</ele><time>2026-04-25T11:47:50Z</time></trkpt><trkpt lat="45.610831856783335" lon="11.15677446068246"><ele>1014.1666666666666</ele><time>2026-04-25T11:47:51Z</time></trkpt><trkpt lat="45.610745498953314" lon="11.156717494196002"><ele>1011.3333333333333</ele><time>2026-04-25T11:47:52Z</time></trkpt><trkpt lat="45.610659320295795" lon="11.15668168089667"><ele>1008.5</ele><time>2026-04-25T11:47:53Z</time></trkpt><trkpt lat="45.61057611378011" lon="11.156662579409607"><ele>1005.6666666666666</ele><time>2026-04-25T11:47:54Z</time></trkpt><trkpt lat="45.61049591273891" lon="11.156637041153948"><ele>1002.8333333333333</ele><time>2026-04-25T11:47:55Z</time></trkpt><trkpt lat="45.61041947803488" lon="11.156577066549678"><ele>1000.0</ele><time>2026-04-25T11:47:56Z</time></trkpt><trkpt lat="45.61033351746406" lon="11.156532253676156"><ele>994.6</ele><time>2026-04-25T11:47:57Z</time></trkpt><trkpt lat="45.6102505660266" lon="11.15648353405167"><ele>989.2</ele><time>2026-04-25T11:47:58Z</time></trkpt><trkpt lat="45.61015950449781" lon="11.15645783351133"><ele>983.8</ele><time>2026-04-25T11:47:59Z</time></trkpt><trkpt lat="45.61008285667911" lon="11.156415424110229"><ele>978.4</ele><time>2026-04-25T11:48:00Z</time></trkpt><trkpt lat="45.60998139955781" lon="11.156387088087351"><ele>973.0</ele><time>2026-04-25T11:48:01Z</time></trkpt><trkpt lat="45.60987876550194" lon="11.156358427466685"><ele>973.0</ele><time>2026-04-25T11:48:02Z</time></trkpt><trkpt lat="45.60978033903677" lon="11.15634730735681"><ele>973.0</ele><time>2026-04-25T11:48:03Z</time></trkpt><trkpt lat="45.60968819786106" lon="11.15632119493069"><ele>973.0</ele><time>2026-04-25T11:48:04Z</time></trkpt><trkpt lat="45.60961196870201" lon="11.156252515344804"><ele>973.0</ele><time>2026-04-25T11:48:05Z</time></trkpt><trkpt lat="45.609523621029474" lon="11.156224203597048"><ele>973.0</ele><time>2026-04-25T11:48:06Z</time></trkpt><trkpt lat="45.60943369217012" lon="11.156178883476507"><ele>971.6666666666666</ele><time>2026-04-25T11:48:07Z</time></trkpt><trkpt lat="45.60935332449358" lon="11.156138921008202"><ele>970.3333333333333</ele><time>2026-04-25T11:48:08Z</time></trkpt><trkpt lat="45.60928079035087" lon="11.156081462787192"><ele>969.0</ele><time>2026-04-25T11:48:09Z</time></trkpt><trkpt lat="45.60920863940624" lon="11.156026628629174"><ele>967.6666666666667</ele><time>2026-04-25T11:48:10Z</time></trkpt><trkpt lat="45.60914209046454" lon="11.155987293542873"><ele>966.3333333333334</ele><time>2026-04-25T11:48:11Z</time></trkpt><trkpt lat="45.609070284937616" lon="11.155972415131057"><ele>965.0</ele><time>2026-04-25T11:48:12Z</time></trkpt><trkpt lat="45.60895240612196" lon="11.15598804841642"><ele>965.0000000000001</ele><time>2026-04-25T11:48:14Z</time></trkpt><trkpt lat="45.60892384162044" lon="11.156075313044505"><ele>965.0</ele><time>2026-04-25T11:48:15Z</time></trkpt><trkpt lat="45.608936022597966" lon="11.156178926273835"><ele>965.0</ele><time>2026-04-25T11:48:16Z</time></trkpt><trkpt lat="45.60896720943272" lon="11.156366154954338"><ele>965.0</ele><time>2026-04-25T11:48:18Z</time></trkpt><trkpt lat="45.60901347485663" lon="11.156463094001133"><ele>965.0000000000001</ele><time>2026-04-25T11:48:19Z</time></trkpt><trkpt lat="45.60905996333857" lon="11.156548239819767"><ele>965.0</ele><time>2026-04-25T11:48:20Z</time></trkpt><trkpt lat="45.60910174078231" lon="11.156632458316285"><ele>964.8571428571429</ele><time>2026-04-25T11:48:21Z</time></trkpt><trkpt lat="45.60914186073321" lon="11.156710631320564"><ele>964.7142857142858</ele><time>2026-04-25T11:48:22Z</time></trkpt><trkpt lat="45.60918753288405" lon="11.156783478660966"><ele>964.5714285714287</ele><time>2026-04-25T11:48:23Z</time></trkpt><trkpt lat="45.609230181531" lon="11.156856627819163"><ele>964.4285714285714</ele><time>2026-04-25T11:48:24Z</time></trkpt><trkpt lat="45.60925762850919" lon="11.156943701437308"><ele>964.2857142857144</ele><time>2026-04-25T11:48:25Z</time></trkpt><trkpt lat="45.609300346576774" lon="11.157019808639536"><ele>964.1428571428572</ele><time>2026-04-25T11:48:26Z</time></trkpt><trkpt lat="45.6093335943859" lon="11.157110686955109"><ele>964.0</ele><time>2026-04-25T11:48:27Z</time></trkpt><trkpt lat="45.6093648486783" lon="11.157195476436911"><ele>963.9999999999999</ele><time>2026-04-25T11:48:28Z</time></trkpt><trkpt lat="45.60940623215289" lon="11.15728790585986"><ele>964.0</ele><time>2026-04-25T11:48:29Z</time></trkpt><trkpt lat="45.60944185581135" lon="11.15739036750714"><ele>964.0</ele><time>2026-04-25T11:48:30Z</time></trkpt><trkpt lat="45.60945628568567" lon="11.15750752997627"><ele>964.0</ele><time>2026-04-25T11:48:31Z</time></trkpt><trkpt lat="45.60950022703542" lon="11.157599097936512"><ele>963.9999999999999</ele><time>2026-04-25T11:48:32Z</time></trkpt><trkpt lat="45.60952271102472" lon="11.157710952360729"><ele>964.0</ele><time>2026-04-25T11:48:33Z</time></trkpt><trkpt lat="45.60959470042569" lon="11.157816995631382"><ele>964.8333333333333</ele><time>2026-04-25T11:48:34Z</time></trkpt><trkpt lat="45.609633058340414" lon="11.157928324012161"><ele>965.6666666666666</ele><time>2026-04-25T11:48:35Z</time></trkpt><trkpt lat="45.609697356824995" lon="11.15801462621159"><ele>966.5</ele><time>2026-04-25T11:48:36Z</time></trkpt><trkpt lat="45.60975324055585" lon="11.158090736973971"><ele>967.3333333333333</ele><time>2026-04-25T11:48:37Z</time></trkpt><trkpt lat="45.60979528598815" lon="11.158175202889787"><ele>968.1666666666666</ele><time>2026-04-25T11:48:38Z</time></trkpt><trkpt lat="45.609821087218585" lon="11.158276691036603"><ele>969.0</ele><time>2026-04-25T11:48:39Z</time></trkpt><trkpt lat="45.609835757928884" lon="11.15836477278974"><ele>966.0</ele><time>2026-04-25T11:48:40Z</time></trkpt><trkpt lat="45.60983096184711" lon="11.158464202925973"><ele>963.0000000000001</ele><time>2026-04-25T11:48:42Z</time></trkpt><trkpt lat="45.60973529704792" lon="11.158544688417155"><ele>960.0000000000001</ele><time>2026-04-25T11:48:44Z</time></trkpt><trkpt lat="45.60962269518625" lon="11.15858830455591"><ele>957.0</ele><time>2026-04-25T11:48:46Z</time></trkpt><trkpt lat="45.60953645586304" lon="11.15859810900905"><ele>954.0</ele><time>2026-04-25T11:48:47Z</time></trkpt><trkpt lat="45.60944520280481" lon="11.15851405578112"><ele>949.0</ele><time>2026-04-25T11:48:49Z</time></trkpt><trkpt lat="45.609370534110184" lon="11.158478564660257"><ele>944.0000000000001</ele><time>2026-04-25T11:48:50Z</time></trkpt><trkpt lat="45.60929686678705" lon="11.158444918274112"><ele>939.0000000000001</ele><time>2026-04-25T11:48:51Z</time></trkpt><trkpt lat="45.609233067126844" lon="11.158402611473303"><ele>934.0</ele><time>2026-04-25T11:48:52Z</time></trkpt><trkpt lat="45.60917761259529" lon="11.15835475228752"><ele>929.0</ele><time>2026-04-25T11:48:53Z</time></trkpt><trkpt lat="45.60902269737595" lon="11.158543621625448"><ele>929.0000000000001</ele><time>2026-04-25T11:48:56Z</time></trkpt><trkpt lat="45.60898513244268" lon="11.158642921164537"><ele>929.0</ele><time>2026-04-25T11:48:57Z</time></trkpt><trkpt lat="45.6089618269761" lon="11.158753440784265"><ele>929.0</ele><time>2026-04-25T11:48:58Z</time></trkpt><trkpt lat="45.6089216605774" lon="11.158897565797643"><ele>929.0</ele><time>2026-04-25T11:49:00Z</time></trkpt><trkpt lat="45.60889098459663" lon="11.158989331855254"><ele>929.0000000000001</ele><time>2026-04-25T11:49:02Z</time></trkpt><trkpt lat="45.60884795936772" lon="11.159101249002367"><ele>929.0</ele><time>2026-04-25T11:49:05Z</time></trkpt><trkpt lat="45.60881869007518" lon="11.159212503929547"><ele>929.6</ele><time>2026-04-25T11:49:07Z</time></trkpt><trkpt lat="45.608752813549295" lon="11.15932149483219"><ele>930.2</ele><time>2026-04-25T11:49:09Z</time></trkpt><trkpt lat="45.60869612141576" lon="11.159465923758036"><ele>930.8000000000001</ele><time>2026-04-25T11:49:11Z</time></trkpt><trkpt lat="45.6086588696915" lon="11.159566183032332"><ele>931.4000000000001</ele><time>2026-04-25T11:49:12Z</time></trkpt><trkpt lat="45.60862313945122" lon="11.159673923512248"><ele>932.0</ele><time>2026-04-25T11:49:13Z</time></trkpt><trkpt lat="45.608588250578855" lon="11.159794427447869"><ele>928.6</ele><time>2026-04-25T11:49:14Z</time></trkpt><trkpt lat="45.608554250106494" lon="11.159919580155833"><ele>925.2</ele><time>2026-04-25T11:49:15Z</time></trkpt><trkpt lat="45.60852012483083" lon="11.160045850706203"><ele>921.8</ele><time>2026-04-25T11:49:16Z</time></trkpt><trkpt lat="45.608488782972536" lon="11.160169057383918"><ele>918.4</ele><time>2026-04-25T11:49:17Z</time></trkpt><trkpt lat="45.60845092834442" lon="11.160294338654484"><ele>915.0</ele><time>2026-04-25T11:49:18Z</time></trkpt><trkpt lat="45.6084017734074" lon="11.16041165957278"><ele>915.0</ele><time>2026-04-25T11:49:19Z</time></trkpt><trkpt lat="45.60834347202577" lon="11.16051543633318"><ele>915.0</ele><time>2026-04-25T11:49:20Z</time></trkpt><trkpt lat="45.608283484203504" lon="11.160605244954823"><ele>915.0</ele><time>2026-04-25T11:49:21Z</time></trkpt><trkpt lat="45.608224965914836" lon="11.160688895078058"><ele>915.0</ele><time>2026-04-25T11:49:22Z</time></trkpt><trkpt lat="45.608169464339596" lon="11.160767658202204"><ele>915.0</ele><time>2026-04-25T11:49:23Z</time></trkpt><trkpt lat="45.60811139211049" lon="11.160844553686879"><ele>915.0</ele><time>2026-04-25T11:49:24Z</time></trkpt><trkpt lat="45.60801725042103" lon="11.160994894761355"><ele>916.0</ele><time>2026-04-25T11:49:26Z</time></trkpt><trkpt lat="45.60798023539415" lon="11.16110071714739"><ele>917.0</ele><time>2026-04-25T11:49:27Z</time></trkpt><trkpt lat="45.60795842130195" lon="11.161201290730633"><ele>918.0</ele><time>2026-04-25T11:49:28Z</time></trkpt><trkpt lat="45.607967570560334" lon="11.161302658649205"><ele>919.0</ele><time>2026-04-25T11:49:29Z</time></trkpt><trkpt lat="45.60799331685757" lon="11.16139014970196"><ele>920.0</ele><time>2026-04-25T11:49:30Z</time></trkpt><trkpt lat="45.60808680158075" lon="11.161457623644207"><ele>921.0</ele><time>2026-04-25T11:49:31Z</time></trkpt><trkpt lat="45.608218523625574" lon="11.161466071486258"><ele>921.0</ele><time>2026-04-25T11:49:32Z</time></trkpt><trkpt lat="45.60832504444035" lon="11.161468126135063"><ele>921.0</ele><time>2026-04-25T11:49:33Z</time></trkpt><trkpt lat="45.60842551794337" lon="11.161498877660383"><ele>921.0</ele><time>2026-04-25T11:49:34Z</time></trkpt><trkpt lat="45.60855720386128" lon="11.161490065774194"><ele>921.0</ele><time>2026-04-25T11:49:35Z</time></trkpt><trkpt lat="45.608673633125505" lon="11.161492850357824"><ele>920.0</ele><time>2026-04-25T11:49:36Z</time></trkpt><trkpt lat="45.60877983613336" lon="11.16151115776344"><ele>918.9999999999999</ele><time>2026-04-25T11:49:37Z</time></trkpt><trkpt lat="45.60886642758853" lon="11.16154465127002"><ele>917.9999999999999</ele><time>2026-04-25T11:49:38Z</time></trkpt><trkpt lat="45.608979874787195" lon="11.16155342941862"><ele>917.0</ele><time>2026-04-25T11:49:39Z</time></trkpt><trkpt lat="45.60909084146316" lon="11.161569728387725"><ele>916.0</ele><time>2026-04-25T11:49:40Z</time></trkpt><trkpt lat="45.60919830961495" lon="11.161608072110202"><ele>916.0</ele><time>2026-04-25T11:49:41Z</time></trkpt><trkpt lat="45.60930397718835" lon="11.161655941479006"><ele>915.9999999999999</ele><time>2026-04-25T11:49:42Z</time></trkpt><trkpt lat="45.60939106308264" lon="11.1617128682286"><ele>915.9999999999999</ele><time>2026-04-25T11:49:43Z</time></trkpt><trkpt lat="45.60948811025288" lon="11.161773653483953"><ele>916.0</ele><time>2026-04-25T11:49:44Z</time></trkpt><trkpt lat="45.60958192630818" lon="11.16184821961887"><ele>916.0</ele><time>2026-04-25T11:49:45Z</time></trkpt><trkpt lat="45.6096661433381" lon="11.161941290065242"><ele>914.0</ele><time>2026-04-25T11:49:46Z</time></trkpt><trkpt lat="45.609742022815276" lon="11.162053779599784"><ele>912.0</ele><time>2026-04-25T11:49:47Z</time></trkpt><trkpt lat="45.609812812490304" lon="11.162177647197101"><ele>910.0</ele><time>2026-04-25T11:49:48Z</time></trkpt><trkpt lat="45.60988660990075" lon="11.162314954493606"><ele>908.0</ele><time>2026-04-25T11:49:49Z</time></trkpt><trkpt lat="45.60996234981848" lon="11.162457078965"><ele>908.0</ele><time>2026-04-25T11:49:50Z</time></trkpt><trkpt lat="45.61003861389189" lon="11.162592337551283"><ele>908.0</ele><time>2026-04-25T11:49:51Z</time></trkpt><trkpt lat="45.610108869512615" lon="11.162713531780382"><ele>908.0</ele><time>2026-04-25T11:49:52Z</time></trkpt><trkpt lat="45.61018231784739" lon="11.162811460525276"><ele>908.0</ele><time>2026-04-25T11:49:53Z</time></trkpt><trkpt lat="45.61025160066232" lon="11.162911544233898"><ele>908.0</ele><time>2026-04-25T11:49:54Z</time></trkpt><trkpt lat="45.6103015025466" lon="11.163014070274677"><ele>908.0000000000001</ele><time>2026-04-25T11:49:55Z</time></trkpt><trkpt lat="45.610303841407564" lon="11.163129083482097"><ele>908.0</ele><time>2026-04-25T11:49:56Z</time></trkpt><trkpt lat="45.61029036673216" lon="11.163233623749228"><ele>908.0</ele><time>2026-04-25T11:49:57Z</time></trkpt><trkpt lat="45.61026300014259" lon="11.163347814076163"><ele>908.0</ele><time>2026-04-25T11:49:58Z</time></trkpt><trkpt lat="45.61023164257199" lon="11.163468524179144"><ele>908.0000000000001</ele><time>2026-04-25T11:49:59Z</time></trkpt><trkpt lat="45.610198948174535" lon="11.163593726065802"><ele>908.0</ele><time>2026-04-25T11:50:00Z</time></trkpt><trkpt lat="45.61018800745027" lon="11.163726725421608"><ele>906.1666666666667</ele><time>2026-04-25T11:50:01Z</time></trkpt><trkpt lat="45.610152674230974" lon="11.163859591315562"><ele>904.3333333333334</ele><time>2026-04-25T11:50:02Z</time></trkpt><trkpt lat="45.61011616680518" lon="11.16398537107717"><ele>902.5</ele><time>2026-04-25T11:50:03Z</time></trkpt><trkpt lat="45.61008025690044" lon="11.164095223338789"><ele>900.6666666666667</ele><time>2026-04-25T11:50:04Z</time></trkpt><trkpt lat="45.61005483423513" lon="11.164193668760932"><ele>898.8333333333334</ele><time>2026-04-25T11:50:05Z</time></trkpt><trkpt lat="45.61004077731111" lon="11.164294290008296"><ele>897.0</ele><time>2026-04-25T11:50:06Z</time></trkpt><trkpt lat="45.610090757147056" lon="11.164394174644132"><ele>897.0</ele><time>2026-04-25T11:50:07Z</time></trkpt><trkpt lat="45.610152189869105" lon="11.164512830235413"><ele>897.0</ele><time>2026-04-25T11:50:08Z</time></trkpt><trkpt lat="45.610215437295814" lon="11.164632006651605"><ele>897.0</ele><time>2026-04-25T11:50:09Z</time></trkpt><trkpt lat="45.610277975117086" lon="11.16475950226863"><ele>897.0</ele><time>2026-04-25T11:50:10Z</time></trkpt><trkpt lat="45.61033982826188" lon="11.164910961573575"><ele>897.0</ele><time>2026-04-25T11:50:11Z</time></trkpt><trkpt lat="45.61038996032533" lon="11.16508516739817"><ele>902.25</ele><time>2026-04-25T11:50:12Z</time></trkpt><trkpt lat="45.610397580556445" lon="11.165274629410352"><ele>907.5</ele><time>2026-04-25T11:50:13Z</time></trkpt><trkpt lat="45.61040542327385" lon="11.165460937396182"><ele>912.75</ele><time>2026-04-25T11:50:14Z</time></trkpt><trkpt lat="45.610440937539245" lon="11.165615205572765"><ele>918.0</ele><time>2026-04-25T11:50:15Z</time></trkpt><trkpt lat="45.61045719464732" lon="11.16576623123219"><ele>918.0</ele><time>2026-04-25T11:50:16Z</time></trkpt><trkpt lat="45.61046963557058" lon="11.165902908373333"><ele>918.0</ele><time>2026-04-25T11:50:17Z</time></trkpt><trkpt lat="45.61048911670354" lon="11.166033353524726"><ele>918.0</ele><time>2026-04-25T11:50:18Z</time></trkpt><trkpt lat="45.61052138228547" lon="11.16615208803052"><ele>918.0</ele><time>2026-04-25T11:50:19Z</time></trkpt><trkpt lat="45.6105591477035" lon="11.166263529410784"><ele>918.0</ele><time>2026-04-25T11:50:20Z</time></trkpt><trkpt lat="45.61061682326752" lon="11.166375037042052"><ele>918.0</ele><time>2026-04-25T11:50:21Z</time></trkpt><trkpt lat="45.61069570346265" lon="11.1664815504757"><ele>918.0</ele><time>2026-04-25T11:50:22Z</time></trkpt><trkpt lat="45.61078519087853" lon="11.166596583545834"><ele>918.0</ele><time>2026-04-25T11:50:23Z</time></trkpt><trkpt lat="45.610889371594446" lon="11.166721627333393"><ele>918.0</ele><time>2026-04-25T11:50:24Z</time></trkpt><trkpt lat="45.61098787494822" lon="11.16685806843802"><ele>921.5</ele><time>2026-04-25T11:50:25Z</time></trkpt><trkpt lat="45.611080431373054" lon="11.1669844680709"><ele>925.0</ele><time>2026-04-25T11:50:26Z</time></trkpt><trkpt lat="45.611195854140774" lon="11.167084864200778"><ele>928.5</ele><time>2026-04-25T11:50:27Z</time></trkpt><trkpt lat="45.611289217577415" lon="11.167190810883483"><ele>932.0</ele><time>2026-04-25T11:50:28Z</time></trkpt><trkpt lat="45.611413244023375" lon="11.167296794133174"><ele>922.25</ele><time>2026-04-25T11:50:29Z</time></trkpt><trkpt lat="45.6115370029477" lon="11.167404471133196"><ele>912.5</ele><time>2026-04-25T11:50:30Z</time></trkpt><trkpt lat="45.6116485332287" lon="11.167523707900642"><ele>902.75</ele><time>2026-04-25T11:50:31Z</time></trkpt><trkpt lat="45.61177307127749" lon="11.167602822381866"><ele>893.0</ele><time>2026-04-25T11:50:32Z</time></trkpt><trkpt lat="45.61189553914435" lon="11.167712956406465"><ele>897.75</ele><time>2026-04-25T11:50:33Z</time></trkpt><trkpt lat="45.6120266840585" lon="11.167782756790992"><ele>902.5</ele><time>2026-04-25T11:50:34Z</time></trkpt><trkpt lat="45.61213848826074" lon="11.167876848577706"><ele>907.25</ele><time>2026-04-25T11:50:35Z</time></trkpt><trkpt lat="45.61225896698153" lon="11.167953353337055"><ele>912.0</ele><time>2026-04-25T11:50:36Z</time></trkpt><trkpt lat="45.61237374299187" lon="11.168032248568217"><ele>912.0</ele><time>2026-04-25T11:50:37Z</time></trkpt><trkpt lat="45.61248832783399" lon="11.16810038595625"><ele>912.0</ele><time>2026-04-25T11:50:38Z</time></trkpt><trkpt lat="45.61259440795799" lon="11.168160415282198"><ele>912.0</ele><time>2026-04-25T11:50:39Z</time></trkpt><trkpt lat="45.61267560390841" lon="11.16822722931794"><ele>912.0</ele><time>2026-04-25T11:50:40Z</time></trkpt><trkpt lat="45.612741834278935" lon="11.168298695220772"><ele>912.0</ele><time>2026-04-25T11:50:41Z</time></trkpt><trkpt lat="45.61278769334062" lon="11.168392540363426"><ele>907.6666666666666</ele><time>2026-04-25T11:50:42Z</time></trkpt><trkpt lat="45.612778478534096" lon="11.168510445282248"><ele>903.3333333333333</ele><time>2026-04-25T11:50:43Z</time></trkpt><trkpt lat="45.612736584773145" lon="11.168585016333422"><ele>899.0</ele><time>2026-04-25T11:50:44Z</time></trkpt><trkpt lat="45.61265920755697" lon="11.168621425566657"><ele>894.6666666666666</ele><time>2026-04-25T11:50:45Z</time></trkpt><trkpt lat="45.61256937228393" lon="11.168634569644185"><ele>890.3333333333333</ele><time>2026-04-25T11:50:46Z</time></trkpt><trkpt lat="45.6124607013832" lon="11.168650556390492"><ele>886.0</ele><time>2026-04-25T11:50:47Z</time></trkpt><trkpt lat="45.61232039932601" lon="11.168651942065573"><ele>886.0</ele><time>2026-04-25T11:50:48Z</time></trkpt><trkpt lat="45.612180683875685" lon="11.168695024283899"><ele>886.0</ele><time>2026-04-25T11:50:49Z</time></trkpt><trkpt lat="45.61201696170644" lon="11.168761481461095"><ele>886.0</ele><time>2026-04-25T11:50:50Z</time></trkpt><trkpt lat="45.61185927099306" lon="11.168862924033885"><ele>884.6666666666666</ele><time>2026-04-25T11:50:51Z</time></trkpt><trkpt lat="45.611716662741635" lon="11.168974313560765"><ele>883.3333333333333</ele><time>2026-04-25T11:50:52Z</time></trkpt><trkpt lat="45.61159571570343" lon="11.169088456808968"><ele>882.0</ele><time>2026-04-25T11:50:53Z</time></trkpt><trkpt lat="45.611466201069646" lon="11.16919214180915"><ele>882.0</ele><time>2026-04-25T11:50:54Z</time></trkpt><trkpt lat="45.61131706186249" lon="11.169199290089999"><ele>882.0</ele><time>2026-04-25T11:50:55Z</time></trkpt><trkpt lat="45.61117774400458" lon="11.169191428704183"><ele>882.0</ele><time>2026-04-25T11:50:56Z</time></trkpt><trkpt lat="45.6110396768681" lon="11.169217006291085"><ele>882.0</ele><time>2026-04-25T11:50:57Z</time></trkpt><trkpt lat="45.61089572470358" lon="11.169242847544549"><ele>878.3333333333333</ele><time>2026-04-25T11:50:58Z</time></trkpt><trkpt lat="45.61074554272403" lon="11.16925800934288"><ele>874.6666666666666</ele><time>2026-04-25T11:50:59Z</time></trkpt><trkpt lat="45.61059147669041" lon="11.16929251380855"><ele>871.0</ele><time>2026-04-25T11:51:00Z</time></trkpt><trkpt lat="45.61044106866503" lon="11.169301998758334"><ele>869.3333333333333</ele><time>2026-04-25T11:51:01Z</time></trkpt><trkpt lat="45.61029000740995" lon="11.169349116829196"><ele>867.6666666666667</ele><time>2026-04-25T11:51:02Z</time></trkpt><trkpt lat="45.61013933062892" lon="11.16940722947817"><ele>866.0</ele><time>2026-04-25T11:51:03Z</time></trkpt><trkpt lat="45.610008064947316" lon="11.169479314822837"><ele>866.0</ele><time>2026-04-25T11:51:04Z</time></trkpt><trkpt lat="45.60987237660654" lon="11.169526417166033"><ele>866.0</ele><time>2026-04-25T11:51:05Z</time></trkpt><trkpt lat="45.60972955378079" lon="11.169560287750407"><ele>866.0</ele><time>2026-04-25T11:51:06Z</time></trkpt><trkpt lat="45.60957849172584" lon="11.16962546790799"><ele>866.0</ele><time>2026-04-25T11:51:07Z</time></trkpt><trkpt lat="45.60941956448107" lon="11.169727749253486"><ele>863.0</ele><time>2026-04-25T11:51:08Z</time></trkpt><trkpt lat="45.60925471089267" lon="11.16982439027186"><ele>860.0</ele><time>2026-04-25T11:51:09Z</time></trkpt><trkpt lat="45.609091561879296" lon="11.169932052117677"><ele>857.0</ele><time>2026-04-25T11:51:10Z</time></trkpt><trkpt lat="45.60893690626519" lon="11.17005624474945"><ele>862.6666666666667</ele><time>2026-04-25T11:51:11Z</time></trkpt><trkpt lat="45.60878579155047" lon="11.170179262301778"><ele>868.3333333333333</ele><time>2026-04-25T11:51:12Z</time></trkpt><trkpt lat="45.60862704242517" lon="11.170283412181504"><ele>874.0</ele><time>2026-04-25T11:51:13Z</time></trkpt><trkpt lat="45.60847961711449" lon="11.170398921662969"><ele>874.0</ele><time>2026-04-25T11:51:14Z</time></trkpt><trkpt lat="45.60833816999789" lon="11.170530411403313"><ele>874.0</ele><time>2026-04-25T11:51:15Z</time></trkpt><trkpt lat="45.60821978963763" lon="11.170695975431183"><ele>874.0</ele><time>2026-04-25T11:51:16Z</time></trkpt><trkpt lat="45.60810011249867" lon="11.17085768358984"><ele>879.75</ele><time>2026-04-25T11:51:17Z</time></trkpt><trkpt lat="45.60800369423529" lon="11.171017152072222"><ele>885.5</ele><time>2026-04-25T11:51:18Z</time></trkpt><trkpt lat="45.60791340113621" lon="11.171153472879736"><ele>891.25</ele><time>2026-04-25T11:51:19Z</time></trkpt><trkpt lat="45.60786339014002" lon="11.171314839367145"><ele>897.0</ele><time>2026-04-25T11:51:20Z</time></trkpt><trkpt lat="45.60786884420868" lon="11.171497915374838"><ele>899.5</ele><time>2026-04-25T11:51:21Z</time></trkpt><trkpt lat="45.60787216770542" lon="11.171695121524634"><ele>902.0</ele><time>2026-04-25T11:51:22Z</time></trkpt><trkpt lat="45.60788914661053" lon="11.171900421303487"><ele>904.5</ele><time>2026-04-25T11:51:23Z</time></trkpt><trkpt lat="45.60793605790189" lon="11.172105278030836"><ele>907.0</ele><time>2026-04-25T11:51:24Z</time></trkpt><trkpt lat="45.60798711651742" lon="11.17231104498886"><ele>905.3333333333333</ele><time>2026-04-25T11:51:25Z</time></trkpt><trkpt lat="45.60806466266168" lon="11.172500529235505"><ele>903.6666666666667</ele><time>2026-04-25T11:51:26Z</time></trkpt><trkpt lat="45.6080951011033" lon="11.17271250849715"><ele>902.0</ele><time>2026-04-25T11:51:27Z</time></trkpt><trkpt lat="45.60810254545977" lon="11.172937266482876"><ele>902.0</ele><time>2026-04-25T11:51:28Z</time></trkpt><trkpt lat="45.60810190473139" lon="11.173179876213206"><ele>902.0</ele><time>2026-04-25T11:51:29Z</time></trkpt><trkpt lat="45.60809854274551" lon="11.173418626438401"><ele>902.0</ele><time>2026-04-25T11:51:30Z</time></trkpt><trkpt lat="45.60808054541284" lon="11.173637266768207"><ele>902.25</ele><time>2026-04-25T11:51:31Z</time></trkpt><trkpt lat="45.60805952561208" lon="11.173843525232435"><ele>902.5</ele><time>2026-04-25T11:51:32Z</time></trkpt><trkpt lat="45.608057568990056" lon="11.17404989223797"><ele>902.75</ele><time>2026-04-25T11:51:33Z</time></trkpt><trkpt lat="45.608084876469256" lon="11.174257572446265"><ele>903.0</ele><time>2026-04-25T11:51:34Z</time></trkpt><trkpt lat="45.6081333830009" lon="11.174443359463526"><ele>900.5</ele><time>2026-04-25T11:51:35Z</time></trkpt><trkpt lat="45.608188609020026" lon="11.174610681006984"><ele>898.0</ele><time>2026-04-25T11:51:36Z</time></trkpt><trkpt lat="45.608264443512105" lon="11.174737638890125"><ele>895.5</ele><time>2026-04-25T11:51:37Z</time></trkpt><trkpt lat="45.60836263261473" lon="11.174818048787987"><ele>893.0</ele><time>2026-04-25T11:51:38Z</time></trkpt><trkpt lat="45.608480544288454" lon="11.17488015091277"><ele>891.0</ele><time>2026-04-25T11:51:39Z</time></trkpt><trkpt lat="45.6086294942357" lon="11.17489345756763"><ele>889.0</ele><time>2026-04-25T11:51:40Z</time></trkpt><trkpt lat="45.60878340028211" lon="11.174926937981645"><ele>887.0</ele><time>2026-04-25T11:51:41Z</time></trkpt><trkpt lat="45.608920598640516" lon="11.174963693784589"><ele>885.0</ele><time>2026-04-25T11:51:42Z</time></trkpt><trkpt lat="45.60905268133467" lon="11.174998852390365"><ele>885.0</ele><time>2026-04-25T11:51:43Z</time></trkpt><trkpt lat="45.60917351240245" lon="11.175052083693796"><ele>885.0</ele><time>2026-04-25T11:51:44Z</time></trkpt><trkpt lat="45.60929352329591" lon="11.175070797337204"><ele>885.0</ele><time>2026-04-25T11:51:45Z</time></trkpt><trkpt lat="45.609380835316664" lon="11.175146232259175"><ele>885.0</ele><time>2026-04-25T11:51:46Z</time></trkpt><trkpt lat="45.60942686612226" lon="11.175248608990948"><ele>885.0</ele><time>2026-04-25T11:51:47Z</time></trkpt><trkpt lat="45.609438398540405" lon="11.17537096431215"><ele>885.0</ele><time>2026-04-25T11:51:48Z</time></trkpt><trkpt lat="45.60940398868695" lon="11.175489170157197"><ele>885.0</ele><time>2026-04-25T11:51:49Z</time></trkpt><trkpt lat="45.60932004951666" lon="11.175584149880395"><ele>885.0</ele><time>2026-04-25T11:51:50Z</time></trkpt><trkpt lat="45.60924298386484" lon="11.175690622575145"><ele>885.0</ele><time>2026-04-25T11:51:51Z</time></trkpt><trkpt lat="45.609171308129966" lon="11.17579167904223"><ele>885.0</ele><time>2026-04-25T11:51:52Z</time></trkpt><trkpt lat="45.60911435264108" lon="11.175901045985023"><ele>884.0</ele><time>2026-04-25T11:51:53Z</time></trkpt><trkpt lat="45.6090506022741" lon="11.175989758791186"><ele>883.0</ele><time>2026-04-25T11:51:54Z</time></trkpt><trkpt lat="45.6089864305201" lon="11.176068677032543"><ele>882.0</ele><time>2026-04-25T11:51:55Z</time></trkpt><trkpt lat="45.60894481173461" lon="11.176169736323013"><ele>881.0</ele><time>2026-04-25T11:51:56Z</time></trkpt><trkpt lat="45.608919503877246" lon="11.17625934096368"><ele>880.0</ele><time>2026-04-25T11:51:58Z</time></trkpt><trkpt lat="45.60889922498482" lon="11.176078512883896"><ele>880.0</ele><time>2026-04-25T11:52:01Z</time></trkpt><trkpt lat="45.60892956932985" lon="11.175957011656124"><ele>880.0</ele><time>2026-04-25T11:52:02Z</time></trkpt><trkpt lat="45.60892896441329" lon="11.175812218124728"><ele>880.0</ele><time>2026-04-25T11:52:03Z</time></trkpt><trkpt lat="45.60889963456063" lon="11.175659244870344"><ele>880.0</ele><time>2026-04-25T11:52:04Z</time></trkpt><trkpt lat="45.608824250624636" lon="11.175550211018777"><ele>880.0</ele><time>2026-04-25T11:52:05Z</time></trkpt><trkpt lat="45.60872768294946" lon="11.175488202300308"><ele>879.2</ele><time>2026-04-25T11:52:06Z</time></trkpt><trkpt lat="45.60862470829664" lon="11.175454388780597"><ele>878.4</ele><time>2026-04-25T11:52:07Z</time></trkpt><trkpt lat="45.60853948568211" lon="11.175500653933538"><ele>877.5999999999999</ele><time>2026-04-25T11:52:08Z</time></trkpt><trkpt lat="45.60845164615819" lon="11.175570050679088"><ele>876.8</ele><time>2026-04-25T11:52:09Z</time></trkpt><trkpt lat="45.60835187508999" lon="11.175610371451185"><ele>876.0</ele><time>2026-04-25T11:52:10Z</time></trkpt><trkpt lat="45.60825889282747" lon="11.175624869340938"><ele>876.0</ele><time>2026-04-25T11:52:11Z</time></trkpt><trkpt lat="45.60816992378891" lon="11.175622842142555"><ele>876.0</ele><time>2026-04-25T11:52:12Z</time></trkpt><trkpt lat="45.60809881490092" lon="11.175601474262303"><ele>876.0</ele><time>2026-04-25T11:52:13Z</time></trkpt><trkpt lat="45.60800023822144" lon="11.175695803370608"><ele>876.0</ele><time>2026-04-25T11:52:15Z</time></trkpt><trkpt lat="45.60800774285644" lon="11.175798550410473"><ele>876.0</ele><time>2026-04-25T11:52:16Z</time></trkpt><trkpt lat="45.60804903414182" lon="11.17589097270127"><ele>876.0</ele><time>2026-04-25T11:52:17Z</time></trkpt><trkpt lat="45.60813263643022" lon="11.175969884620711"><ele>872.5</ele><time>2026-04-25T11:52:18Z</time></trkpt><trkpt lat="45.608228349459566" lon="11.176053871179114"><ele>869.0</ele><time>2026-04-25T11:52:19Z</time></trkpt><trkpt lat="45.6083067752867" lon="11.176178125046436"><ele>865.5</ele><time>2026-04-25T11:52:20Z</time></trkpt><trkpt lat="45.608362657570694" lon="11.176337371294187"><ele>862.0</ele><time>2026-04-25T11:52:21Z</time></trkpt><trkpt lat="45.608383944566874" lon="11.176508337071425"><ele>861.0</ele><time>2026-04-25T11:52:22Z</time></trkpt><trkpt lat="45.608386585780046" lon="11.176663082419077"><ele>860.0</ele><time>2026-04-25T11:52:23Z</time></trkpt><trkpt lat="45.6083681194125" lon="11.17680341252424"><ele>859.0</ele><time>2026-04-25T11:52:24Z</time></trkpt><trkpt lat="45.60831396885579" lon="11.17691762085901"><ele>858.0</ele><time>2026-04-25T11:52:25Z</time></trkpt><trkpt lat="45.60823215916633" lon="11.176965185965836"><ele>857.0</ele><time>2026-04-25T11:52:26Z</time></trkpt><trkpt lat="45.608148296736516" lon="11.177022193344655"><ele>857.0</ele><time>2026-04-25T11:52:27Z</time></trkpt><trkpt lat="45.60804776227117" lon="11.176900565012176"><ele>857.0</ele><time>2026-04-25T11:52:28Z</time></trkpt><trkpt lat="45.607955834853634" lon="11.176780887004782"><ele>857.0</ele><time>2026-04-25T11:52:29Z</time></trkpt><trkpt lat="45.60783434461482" lon="11.176656712167281"><ele>857.0</ele><time>2026-04-25T11:52:30Z</time></trkpt><trkpt lat="45.60771524441608" lon="11.176531265975177"><ele>854.5</ele><time>2026-04-25T11:52:31Z</time></trkpt><trkpt lat="45.607586285118245" lon="11.17639811800716"><ele>852.0</ele><time>2026-04-25T11:52:32Z</time></trkpt><trkpt lat="45.60749294086307" lon="11.176298335542066"><ele>849.5</ele><time>2026-04-25T11:52:33Z</time></trkpt><trkpt lat="45.60742279764523" lon="11.17618677788247"><ele>847.0</ele><time>2026-04-25T11:52:34Z</time></trkpt><trkpt lat="45.60735919267912" lon="11.175973379975593"><ele>847.0</ele><time>2026-04-25T11:52:35Z</time></trkpt><trkpt lat="45.60732484958375" lon="11.17578819902675"><ele>847.0</ele><time>2026-04-25T11:52:36Z</time></trkpt><trkpt lat="45.60729955404065" lon="11.175609063985357"><ele>847.0</ele><time>2026-04-25T11:52:37Z</time></trkpt><trkpt lat="45.60729674246637" lon="11.175416911388885"><ele>847.0</ele><time>2026-04-25T11:52:38Z</time></trkpt><trkpt lat="45.60720453953854" lon="11.17523964527832"><ele>849.0</ele><time>2026-04-25T11:52:40Z</time></trkpt><trkpt lat="45.607136567615505" lon="11.175114137775502"><ele>851.0</ele><time>2026-04-25T11:52:41Z</time></trkpt><trkpt lat="45.60706001194572" lon="11.174906427538978"><ele>853.0</ele><time>2026-04-25T11:52:42Z</time></trkpt><trkpt lat="45.60699743682786" lon="11.174751329299657"><ele>855.0</ele><time>2026-04-25T11:52:43Z</time></trkpt><trkpt lat="45.606919323859024" lon="11.174578728290829"><ele>848.5</ele><time>2026-04-25T11:52:44Z</time></trkpt><trkpt lat="45.60681450536438" lon="11.174450454193554"><ele>842.0</ele><time>2026-04-25T11:52:45Z</time></trkpt><trkpt lat="45.606726036457744" lon="11.174361964917834"><ele>835.5</ele><time>2026-04-25T11:52:46Z</time></trkpt><trkpt lat="45.60665635967764" lon="11.174264427178384"><ele>829.0</ele><time>2026-04-25T11:52:47Z</time></trkpt><trkpt lat="45.60658772451833" lon="11.174136411808583"><ele>828.4000000000001</ele><time>2026-04-25T11:52:48Z</time></trkpt><trkpt lat="45.60654417186707" lon="11.174009533461037"><ele>827.8</ele><time>2026-04-25T11:52:49Z</time></trkpt><trkpt lat="45.60655216911761" lon="11.17387929419558"><ele>827.2</ele><time>2026-04-25T11:52:50Z</time></trkpt><trkpt lat="45.60660038931932" lon="11.173730687991501"><ele>826.5999999999999</ele><time>2026-04-25T11:52:51Z</time></trkpt><trkpt lat="45.606581258693495" lon="11.173532630074192"><ele>826.0</ele><time>2026-04-25T11:52:52Z</time></trkpt><trkpt lat="45.60657109956775" lon="11.17333986001652"><ele>825.5</ele><time>2026-04-25T11:52:53Z</time></trkpt><trkpt lat="45.60656130067581" lon="11.173141920301017"><ele>825.0</ele><time>2026-04-25T11:52:54Z</time></trkpt><trkpt lat="45.6065711567362" lon="11.172958083182001"><ele>824.5</ele><time>2026-04-25T11:52:55Z</time></trkpt><trkpt lat="45.60658515747527" lon="11.172783837194084"><ele>824.0</ele><time>2026-04-25T11:52:56Z</time></trkpt><trkpt lat="45.60661221943231" lon="11.1726357867454"><ele>824.0000000000001</ele><time>2026-04-25T11:52:57Z</time></trkpt><trkpt lat="45.60665480982968" lon="11.172535586412964"><ele>824.0</ele><time>2026-04-25T11:52:58Z</time></trkpt><trkpt lat="45.60668168976717" lon="11.172437135447575"><ele>824.0</ele><time>2026-04-25T11:52:59Z</time></trkpt><trkpt lat="45.60667738206681" lon="11.17234009627593"><ele>824.0</ele><time>2026-04-25T11:53:00Z</time></trkpt><trkpt lat="45.6066018427757" lon="11.172243074524173"><ele>824.0000000000001</ele><time>2026-04-25T11:53:02Z</time></trkpt><trkpt lat="45.60652362949885" lon="11.172306296825743"><ele>824.0</ele><time>2026-04-25T11:53:03Z</time></trkpt><trkpt lat="45.606511542890615" lon="11.172474195663865"><ele>824.0</ele><time>2026-04-25T11:53:04Z</time></trkpt><trkpt lat="45.60648819376727" lon="11.172615823467249"><ele>824.0</ele><time>2026-04-25T11:53:05Z</time></trkpt><trkpt lat="45.606469572726894" lon="11.17277543369499"><ele>824.0</ele><time>2026-04-25T11:53:06Z</time></trkpt><trkpt lat="45.606449698100455" lon="11.172947688130117"><ele>824.0</ele><time>2026-04-25T11:53:07Z</time></trkpt><trkpt lat="45.60642631049138" lon="11.173121903563574"><ele>824.4000000000001</ele><time>2026-04-25T11:53:08Z</time></trkpt><trkpt lat="45.606379954827844" lon="11.173273272694374"><ele>824.8</ele><time>2026-04-25T11:53:09Z</time></trkpt><trkpt lat="45.60635985149254" lon="11.173428201803354"><ele>825.2</ele><time>2026-04-25T11:53:10Z</time></trkpt><trkpt lat="45.606358624679004" lon="11.17355211551801"><ele>825.5999999999999</ele><time>2026-04-25T11:53:11Z</time></trkpt><trkpt lat="45.606331783975776" lon="11.173669491821599"><ele>826.0</ele><time>2026-04-25T11:53:13Z</time></trkpt><trkpt lat="45.60626426539296" lon="11.173559328848018"><ele>826.0</ele><time>2026-04-25T11:53:15Z</time></trkpt><trkpt lat="45.60626314477469" lon="11.173433533370561"><ele>826.0</ele><time>2026-04-25T11:53:16Z</time></trkpt><trkpt lat="45.60627906844353" lon="11.173271712482723"><ele>826.0</ele><time>2026-04-25T11:53:17Z</time></trkpt><trkpt lat="45.60631057382481" lon="11.173078072464051"><ele>826.0</ele><time>2026-04-25T11:53:18Z</time></trkpt><trkpt lat="45.606323363190924" lon="11.172874064622832"><ele>826.25</ele><time>2026-04-25T11:53:19Z</time></trkpt><trkpt lat="45.60633905392231" lon="11.17268336725536"><ele>826.5</ele><time>2026-04-25T11:53:20Z</time></trkpt><trkpt lat="45.60635195455844" lon="11.172494736679194"><ele>826.75</ele><time>2026-04-25T11:53:21Z</time></trkpt><trkpt lat="45.606334441513035" lon="11.172310588317233"><ele>827.0</ele><time>2026-04-25T11:53:22Z</time></trkpt><trkpt lat="45.60628094244608" lon="11.172134204402424"><ele>827.0</ele><time>2026-04-25T11:53:23Z</time></trkpt><trkpt lat="45.60622011639141" lon="11.171966606329653"><ele>827.0</ele><time>2026-04-25T11:53:24Z</time></trkpt><trkpt lat="45.6061601459178" lon="11.171799440457853"><ele>827.0</ele><time>2026-04-25T11:53:25Z</time></trkpt><trkpt lat="45.606135704319904" lon="11.171626401852745"><ele>827.0</ele><time>2026-04-25T11:53:26Z</time></trkpt><trkpt lat="45.60616029163922" lon="11.17144215170752"><ele>827.25</ele><time>2026-04-25T11:53:27Z</time></trkpt><trkpt lat="45.60616478956679" lon="11.171242914245568"><ele>827.5</ele><time>2026-04-25T11:53:28Z</time></trkpt><trkpt lat="45.60615566393696" lon="11.171036010095095"><ele>827.75</ele><time>2026-04-25T11:53:29Z</time></trkpt><trkpt lat="45.6061545455631" lon="11.170832188942931"><ele>828.0</ele><time>2026-04-25T11:53:30Z</time></trkpt><trkpt lat="45.606155820149574" lon="11.170628045696946"><ele>812.0</ele><time>2026-04-25T11:53:31Z</time></trkpt><trkpt lat="45.60615343054276" lon="11.170433997408503"><ele>796.0</ele><time>2026-04-25T11:53:32Z</time></trkpt><trkpt lat="45.60614499223153" lon="11.170239133903426"><ele>780.0</ele><time>2026-04-25T11:53:33Z</time></trkpt><trkpt lat="45.60614468944607" lon="11.17005412803013"><ele>764.0</ele><time>2026-04-25T11:53:34Z</time></trkpt><trkpt lat="45.60616015208939" lon="11.169881289054056"><ele>768.75</ele><time>2026-04-25T11:53:35Z</time></trkpt><trkpt lat="45.606208337799615" lon="11.169725760504054"><ele>773.5</ele><time>2026-04-25T11:53:36Z</time></trkpt><trkpt lat="45.60628924462572" lon="11.16959123853649"><ele>778.25</ele><time>2026-04-25T11:53:37Z</time></trkpt><trkpt lat="45.6063966664103" lon="11.169470933528164"><ele>783.0</ele><time>2026-04-25T11:53:38Z</time></trkpt><trkpt lat="45.606523884702604" lon="11.169338752254525"><ele>783.0</ele><time>2026-04-25T11:53:39Z</time></trkpt><trkpt lat="45.60664979588956" lon="11.169182012541654"><ele>783.0</ele><time>2026-04-25T11:53:40Z</time></trkpt><trkpt lat="45.606791713419625" lon="11.169027966161915"><ele>783.0</ele><time>2026-04-25T11:53:41Z</time></trkpt><trkpt lat="45.60692744982904" lon="11.168844477679606"><ele>781.0</ele><time>2026-04-25T11:53:42Z</time></trkpt><trkpt lat="45.6070613925479" lon="11.168650471506444"><ele>779.0</ele><time>2026-04-25T11:53:43Z</time></trkpt><trkpt lat="45.60720568193157" lon="11.168478340812454"><ele>777.0</ele><time>2026-04-25T11:53:44Z</time></trkpt><trkpt lat="45.60732750256335" lon="11.168298534225649"><ele>766.3333333333334</ele><time>2026-04-25T11:53:45Z</time></trkpt><trkpt lat="45.607452385886006" lon="11.168137428885622"><ele>755.6666666666667</ele><time>2026-04-25T11:53:46Z</time></trkpt><trkpt lat="45.60758571808734" lon="11.168010605612228"><ele>745.0</ele><time>2026-04-25T11:53:47Z</time></trkpt><trkpt lat="45.60770704437707" lon="11.16786829209827"><ele>751.75</ele><time>2026-04-25T11:53:48Z</time></trkpt><trkpt lat="45.607839541700066" lon="11.16775260843993"><ele>758.5</ele><time>2026-04-25T11:53:49Z</time></trkpt><trkpt lat="45.60795843468665" lon="11.167638098365625"><ele>765.25</ele><time>2026-04-25T11:53:50Z</time></trkpt><trkpt lat="45.60809067359847" lon="11.16758842390265"><ele>772.0</ele><time>2026-04-25T11:53:51Z</time></trkpt><trkpt lat="45.608204965759526" lon="11.167538527390185"><ele>772.0</ele><time>2026-04-25T11:53:52Z</time></trkpt><trkpt lat="45.60831172294954" lon="11.167466823966473"><ele>772.0</ele><time>2026-04-25T11:53:53Z</time></trkpt><trkpt lat="45.608387328846895" lon="11.167429037773339"><ele>772.0</ele><time>2026-04-25T11:53:54Z</time></trkpt><trkpt lat="45.60845305427207" lon="11.167345097511406"><ele>772.0</ele><time>2026-04-25T11:53:55Z</time></trkpt><trkpt lat="45.608476218168846" lon="11.167216899967748"><ele>772.0</ele><time>2026-04-25T11:53:56Z</time></trkpt><trkpt lat="45.60844573285938" lon="11.167081042574603"><ele>771.75</ele><time>2026-04-25T11:53:57Z</time></trkpt><trkpt lat="45.60832525467161" lon="11.16699446359509"><ele>771.5</ele><time>2026-04-25T11:53:58Z</time></trkpt><trkpt lat="45.60821205454308" lon="11.166926399402032"><ele>771.25</ele><time>2026-04-25T11:53:59Z</time></trkpt><trkpt lat="45.608090655368834" lon="11.166854563748528"><ele>771.0</ele><time>2026-04-25T11:54:00Z</time></trkpt><trkpt lat="45.607963607107564" lon="11.166727869107518"><ele>770.3333333333333</ele><time>2026-04-25T11:54:01Z</time></trkpt><trkpt lat="45.60782466578485" lon="11.166602797184625"><ele>769.6666666666666</ele><time>2026-04-25T11:54:02Z</time></trkpt><trkpt lat="45.60768332408878" lon="11.166522323589705"><ele>769.0</ele><time>2026-04-25T11:54:03Z</time></trkpt><trkpt lat="45.607555031044775" lon="11.16643706693739"><ele>769.0</ele><time>2026-04-25T11:54:04Z</time></trkpt><trkpt lat="45.60743334060681" lon="11.166360404751375"><ele>769.0</ele><time>2026-04-25T11:54:05Z</time></trkpt><trkpt lat="45.607301121330416" lon="11.166282320354652"><ele>769.0</ele><time>2026-04-25T11:54:06Z</time></trkpt><trkpt lat="45.60718736697562" lon="11.166186809024175"><ele>769.0</ele><time>2026-04-25T11:54:07Z</time></trkpt><trkpt lat="45.607106709741295" lon="11.166033583676327"><ele>769.0</ele><time>2026-04-25T11:54:08Z</time></trkpt><trkpt lat="45.60703340581236" lon="11.165909497492354"><ele>769.0</ele><time>2026-04-25T11:54:09Z</time></trkpt><trkpt lat="45.606959206419454" lon="11.165807696828963"><ele>769.0</ele><time>2026-04-25T11:54:10Z</time></trkpt><trkpt lat="45.606883742381974" lon="11.165788498703408"><ele>769.0</ele><time>2026-04-25T11:54:11Z</time></trkpt><trkpt lat="45.606811961593586" lon="11.165821808497908"><ele>769.0</ele><time>2026-04-25T11:54:12Z</time></trkpt><trkpt lat="45.60674556825087" lon="11.1659058822823"><ele>766.0</ele><time>2026-04-25T11:54:13Z</time></trkpt><trkpt lat="45.6066784024639" lon="11.16603073137569"><ele>763.0</ele><time>2026-04-25T11:54:14Z</time></trkpt><trkpt lat="45.60660174916751" lon="11.16619324109187"><ele>760.0</ele><time>2026-04-25T11:54:15Z</time></trkpt><trkpt lat="45.606493525326236" lon="11.166321546678253"><ele>757.0</ele><time>2026-04-25T11:54:16Z</time></trkpt><trkpt lat="45.60638884493262" lon="11.166463132636457"><ele>755.0</ele><time>2026-04-25T11:54:17Z</time></trkpt><trkpt lat="45.606263502452755" lon="11.166566029371687"><ele>753.0</ele><time>2026-04-25T11:54:18Z</time></trkpt><trkpt lat="45.60613610225701" lon="11.166677008260722"><ele>751.0</ele><time>2026-04-25T11:54:19Z</time></trkpt><trkpt lat="45.606013022794706" lon="11.166787619817498"><ele>749.0</ele><time>2026-04-25T11:54:20Z</time></trkpt><trkpt lat="45.60589435726315" lon="11.166884373568482"><ele>749.0</ele><time>2026-04-25T11:54:21Z</time></trkpt><trkpt lat="45.6057826699703" lon="11.167002948485534"><ele>749.0</ele><time>2026-04-25T11:54:22Z</time></trkpt><trkpt lat="45.6056657733513" lon="11.167118016330448"><ele>749.0</ele><time>2026-04-25T11:54:23Z</time></trkpt><trkpt lat="45.60554115646443" lon="11.167200125631071"><ele>749.0</ele><time>2026-04-25T11:54:24Z</time></trkpt><trkpt lat="45.60542265082032" lon="11.167279411154245"><ele>747.5</ele><time>2026-04-25T11:54:25Z</time></trkpt><trkpt lat="45.60529379068302" lon="11.167311914885246"><ele>746.0</ele><time>2026-04-25T11:54:26Z</time></trkpt><trkpt lat="45.605162768649684" lon="11.167345063172416"><ele>744.5</ele><time>2026-04-25T11:54:27Z</time></trkpt><trkpt lat="45.60503255246584" lon="11.167373431110152"><ele>743.0</ele><time>2026-04-25T11:54:28Z</time></trkpt><trkpt lat="45.60492824843994" lon="11.16736187113541"><ele>743.0</ele><time>2026-04-25T11:54:29Z</time></trkpt><trkpt lat="45.604830006484235" lon="11.167278628749994"><ele>743.0</ele><time>2026-04-25T11:54:30Z</time></trkpt><trkpt lat="45.604777554654355" lon="11.16711468123641"><ele>743.0</ele><time>2026-04-25T11:54:31Z</time></trkpt><trkpt lat="45.60467636418582" lon="11.166967823713847"><ele>743.0</ele><time>2026-04-25T11:54:32Z</time></trkpt><trkpt lat="45.60457675186598" lon="11.166797999660888"><ele>734.25</ele><time>2026-04-25T11:54:33Z</time></trkpt><trkpt lat="45.60447295767492" lon="11.16663385596926"><ele>725.5</ele><time>2026-04-25T11:54:34Z</time></trkpt><trkpt lat="45.60437472300885" lon="11.166482567781536"><ele>716.75</ele><time>2026-04-25T11:54:35Z</time></trkpt><trkpt lat="45.60429925076789" lon="11.16633587333945"><ele>708.0</ele><time>2026-04-25T11:54:36Z</time></trkpt><trkpt lat="45.60424888755385" lon="11.166171456536159"><ele>708.0</ele><time>2026-04-25T11:54:37Z</time></trkpt><trkpt lat="45.604207604217265" lon="11.16598320564272"><ele>708.0</ele><time>2026-04-25T11:54:38Z</time></trkpt><trkpt lat="45.60416671448984" lon="11.16581856854936"><ele>708.0</ele><time>2026-04-25T11:54:39Z</time></trkpt><trkpt lat="45.60409380517939" lon="11.165649990172444"><ele>708.0</ele><time>2026-04-25T11:54:40Z</time></trkpt><trkpt lat="45.6040146653106" lon="11.165517976006685"><ele>711.0</ele><time>2026-04-25T11:54:41Z</time></trkpt><trkpt lat="45.603930441309174" lon="11.165406047466613"><ele>714.0</ele><time>2026-04-25T11:54:42Z</time></trkpt><trkpt lat="45.60384555920356" lon="11.165292815557262"><ele>717.0</ele><time>2026-04-25T11:54:43Z</time></trkpt><trkpt lat="45.60378046206008" lon="11.16516599837311"><ele>720.0</ele><time>2026-04-25T11:54:44Z</time></trkpt><trkpt lat="45.603758585221804" lon="11.165002717326004"><ele>724.0</ele><time>2026-04-25T11:54:45Z</time></trkpt><trkpt lat="45.60375907942581" lon="11.16482882758008"><ele>728.0</ele><time>2026-04-25T11:54:46Z</time></trkpt><trkpt lat="45.60371113960887" lon="11.164644985402834"><ele>732.0</ele><time>2026-04-25T11:54:47Z</time></trkpt><trkpt lat="45.6036573050159" lon="11.164461882262747"><ele>736.0</ele><time>2026-04-25T11:54:48Z</time></trkpt><trkpt lat="45.60361154676659" lon="11.16427297971189"><ele>727.25</ele><time>2026-04-25T11:54:49Z</time></trkpt><trkpt lat="45.60356665738998" lon="11.16409268113819"><ele>718.5</ele><time>2026-04-25T11:54:50Z</time></trkpt><trkpt lat="45.60352121780615" lon="11.163921923553147"><ele>709.75</ele><time>2026-04-25T11:54:51Z</time></trkpt><trkpt lat="45.603453225373386" lon="11.163786984228189"><ele>701.0</ele><time>2026-04-25T11:54:52Z</time></trkpt><trkpt lat="45.60336437545227" lon="11.163636965984916"><ele>701.0</ele><time>2026-04-25T11:54:53Z</time></trkpt><trkpt lat="45.60327725107803" lon="11.163531803760705"><ele>701.0</ele><time>2026-04-25T11:54:54Z</time></trkpt><trkpt lat="45.603216448998026" lon="11.163420899499664"><ele>701.0</ele><time>2026-04-25T11:54:55Z</time></trkpt><trkpt lat="45.603183971538044" lon="11.163334540169577"><ele>701.0</ele><time>2026-04-25T11:54:56Z</time></trkpt><trkpt lat="45.603109671391486" lon="11.163308324242061"><ele>701.0</ele><time>2026-04-25T11:54:57Z</time></trkpt><trkpt lat="45.60304127981975" lon="11.163460975943893"><ele>701.0</ele><time>2026-04-25T11:54:59Z</time></trkpt><trkpt lat="45.603116831008414" lon="11.16360363211256"><ele>701.0</ele><time>2026-04-25T11:55:00Z</time></trkpt><trkpt lat="45.6032094280903" lon="11.163725042510004"><ele>701.0</ele><time>2026-04-25T11:55:01Z</time></trkpt><trkpt lat="45.60329102017227" lon="11.163891418575313"><ele>701.0</ele><time>2026-04-25T11:55:02Z</time></trkpt><trkpt lat="45.603352075477396" lon="11.164078788536408"><ele>695.0</ele><time>2026-04-25T11:55:03Z</time></trkpt><trkpt lat="45.60337928082179" lon="11.164276724833387"><ele>689.0</ele><time>2026-04-25T11:55:04Z</time></trkpt><trkpt lat="45.60340358670775" lon="11.164451280418826"><ele>683.0</ele><time>2026-04-25T11:55:05Z</time></trkpt><trkpt lat="45.60342744112481" lon="11.164634259649956"><ele>677.0</ele><time>2026-04-25T11:55:06Z</time></trkpt><trkpt lat="45.603436056302726" lon="11.164822003079909"><ele>674.8</ele><time>2026-04-25T11:55:07Z</time></trkpt><trkpt lat="45.60343769691296" lon="11.164988625859701"><ele>672.6</ele><time>2026-04-25T11:55:08Z</time></trkpt><trkpt lat="45.60342324114927" lon="11.165121760719444"><ele>670.4</ele><time>2026-04-25T11:55:09Z</time></trkpt><trkpt lat="45.60343791257184" lon="11.16521971554049"><ele>668.1999999999999</ele><time>2026-04-25T11:55:10Z</time></trkpt><trkpt lat="45.603364283755525" lon="11.16530194943841"><ele>666.0</ele><time>2026-04-25T11:55:12Z</time></trkpt><trkpt lat="45.603297667011354" lon="11.165180909586994"><ele>666.0</ele><time>2026-04-25T11:55:14Z</time></trkpt><trkpt lat="45.60333559802101" lon="11.165066058662898"><ele>666.0</ele><time>2026-04-25T11:55:15Z</time></trkpt><trkpt lat="45.603312824538335" lon="11.16490619908325"><ele>666.0</ele><time>2026-04-25T11:55:16Z</time></trkpt><trkpt lat="45.6032695698844" lon="11.164666516498512"><ele>666.0</ele><time>2026-04-25T11:55:17Z</time></trkpt><trkpt lat="45.60319119038395" lon="11.164417178166472"><ele>669.6666666666666</ele><time>2026-04-25T11:55:18Z</time></trkpt><trkpt lat="45.603111578582165" lon="11.164140028905884"><ele>673.3333333333333</ele><time>2026-04-25T11:55:19Z</time></trkpt><trkpt lat="45.602972941502536" lon="11.16389619356727"><ele>677.0</ele><time>2026-04-25T11:55:20Z</time></trkpt><trkpt lat="45.60280989706142" lon="11.163684574477738"><ele>663.0</ele><time>2026-04-25T11:55:21Z</time></trkpt><trkpt lat="45.60269986412425" lon="11.163475287733444"><ele>649.0</ele><time>2026-04-25T11:55:22Z</time></trkpt><trkpt lat="45.60264132360237" lon="11.163260140595355"><ele>635.0</ele><time>2026-04-25T11:55:23Z</time></trkpt><trkpt lat="45.602720626580535" lon="11.16349493653707"><ele>635.0</ele><time>2026-04-25T11:55:24Z</time></trkpt><trkpt lat="45.602702408907724" lon="11.163356348579796"><ele>635.0</ele><time>2026-04-25T11:55:25Z</time></trkpt><trkpt lat="45.60270290381687" lon="11.163157028340274"><ele>635.0</ele><time>2026-04-25T11:55:26Z</time></trkpt><trkpt lat="45.60267241731448" lon="11.162992428922886"><ele>635.0</ele><time>2026-04-25T11:55:27Z</time></trkpt><trkpt lat="45.602665065755794" lon="11.162842912740526"><ele>636.6666666666666</ele><time>2026-04-25T11:55:28Z</time></trkpt><trkpt lat="45.6027187082525" lon="11.162741015293161"><ele>638.3333333333333</ele><time>2026-04-25T11:55:29Z</time></trkpt><trkpt lat="45.6027387521257" lon="11.162625817035062"><ele>640.0</ele><time>2026-04-25T11:55:30Z</time></trkpt><trkpt lat="45.602737265877764" lon="11.162534019466992"><ele>641.6666666666666</ele><time>2026-04-25T11:55:31Z</time></trkpt><trkpt lat="45.60267650347379" lon="11.162468375784304"><ele>643.3333333333334</ele><time>2026-04-25T11:55:32Z</time></trkpt><trkpt lat="45.602578447659866" lon="11.162524305027224"><ele>645.0</ele><time>2026-04-25T11:55:33Z</time></trkpt><trkpt lat="45.60255054255219" lon="11.162731381815677"><ele>645.0</ele><time>2026-04-25T11:55:34Z</time></trkpt><trkpt lat="45.60253012994314" lon="11.162941090904829"><ele>645.0</ele><time>2026-04-25T11:55:35Z</time></trkpt><trkpt lat="45.60252559797612" lon="11.163201875514439"><ele>645.0</ele><time>2026-04-25T11:55:36Z</time></trkpt><trkpt lat="45.60253985455313" lon="11.163449189882545"><ele>642.5</ele><time>2026-04-25T11:55:37Z</time></trkpt><trkpt lat="45.60252374868917" lon="11.163641715681239"><ele>640.0</ele><time>2026-04-25T11:55:38Z</time></trkpt><trkpt lat="45.60253999653737" lon="11.16381729397206"><ele>637.5</ele><time>2026-04-25T11:55:39Z</time></trkpt><trkpt lat="45.60262164270514" lon="11.163969212631208"><ele>635.0</ele><time>2026-04-25T11:55:40Z</time></trkpt><trkpt lat="45.602728178723765" lon="11.16412161627792"><ele>632.75</ele><time>2026-04-25T11:55:41Z</time></trkpt><trkpt lat="45.602792988278466" lon="11.164290835272597"><ele>630.5</ele><time>2026-04-25T11:55:42Z</time></trkpt><trkpt lat="45.60283516106695" lon="11.164483662771268"><ele>628.25</ele><time>2026-04-25T11:55:43Z</time></trkpt><trkpt lat="45.60285279518713" lon="11.164671025031684"><ele>626.0</ele><time>2026-04-25T11:55:44Z</time></trkpt><trkpt lat="45.602879333832604" lon="11.164835572484142"><ele>626.0</ele><time>2026-04-25T11:55:45Z</time></trkpt><trkpt lat="45.602915794740056" lon="11.164970697052334"><ele>626.0</ele><time>2026-04-25T11:55:46Z</time></trkpt><trkpt lat="45.60287743049051" lon="11.16511699976091"><ele>626.0</ele><time>2026-04-25T11:55:48Z</time></trkpt><trkpt lat="45.602781437525685" lon="11.165020999690643"><ele>626.0</ele><time>2026-04-25T11:55:50Z</time></trkpt><trkpt lat="45.60277006493344" lon="11.164875846078623"><ele>626.0</ele><time>2026-04-25T11:55:51Z</time></trkpt><trkpt lat="45.60272941599915" lon="11.164712459658242"><ele>626.0</ele><time>2026-04-25T11:55:52Z</time></trkpt><trkpt lat="45.60269578144843" lon="11.164511432270846"><ele>626.0</ele><time>2026-04-25T11:55:53Z</time></trkpt><trkpt lat="45.602640727018844" lon="11.164295351537472"><ele>626.0</ele><time>2026-04-25T11:55:54Z</time></trkpt><trkpt lat="45.60255310830171" lon="11.164097750729022"><ele>629.0</ele><time>2026-04-25T11:55:55Z</time></trkpt><trkpt lat="45.602438920455356" lon="11.163907815338158"><ele>632.0</ele><time>2026-04-25T11:55:56Z</time></trkpt><trkpt lat="45.60234990852237" lon="11.163685905225663"><ele>635.0</ele><time>2026-04-25T11:55:57Z</time></trkpt><trkpt lat="45.60228762252853" lon="11.163458394746316"><ele>635.0</ele><time>2026-04-25T11:55:58Z</time></trkpt><trkpt lat="45.60223712119247" lon="11.163222072414575"><ele>635.0</ele><time>2026-04-25T11:55:59Z</time></trkpt><trkpt lat="45.60222082637393" lon="11.162976577510467"><ele>635.0</ele><time>2026-04-25T11:56:00Z</time></trkpt><trkpt lat="45.60218457602168" lon="11.162724665036624"><ele>637.6666666666666</ele><time>2026-04-25T11:56:01Z</time></trkpt><trkpt lat="45.60216654579785" lon="11.162485100219211"><ele>640.3333333333334</ele><time>2026-04-25T11:56:02Z</time></trkpt><trkpt lat="45.60214033029328" lon="11.1622516873166"><ele>643.0</ele><time>2026-04-25T11:56:03Z</time></trkpt><trkpt lat="45.60210772094424" lon="11.162027994532078"><ele>643.0</ele><time>2026-04-25T11:56:04Z</time></trkpt><trkpt lat="45.60205221332321" lon="11.161827205910965"><ele>643.0</ele><time>2026-04-25T11:56:05Z</time></trkpt><trkpt lat="45.60198939708512" lon="11.16164275363454"><ele>643.0</ele><time>2026-04-25T11:56:06Z</time></trkpt><trkpt lat="45.60190610617868" lon="11.16149763039897"><ele>643.0</ele><time>2026-04-25T11:56:07Z</time></trkpt><trkpt lat="45.60180264424471" lon="11.161389502598464"><ele>637.75</ele><time>2026-04-25T11:56:08Z</time></trkpt><trkpt lat="45.601669620248934" lon="11.161328055888589"><ele>632.5</ele><time>2026-04-25T11:56:09Z</time></trkpt><trkpt lat="45.60152794260247" lon="11.161280522890548"><ele>627.25</ele><time>2026-04-25T11:56:10Z</time></trkpt><trkpt lat="45.60140604794499" lon="11.161188661241972"><ele>622.0</ele><time>2026-04-25T11:56:11Z</time></trkpt><trkpt lat="45.60132470305157" lon="11.161007366342874"><ele>622.0</ele><time>2026-04-25T11:56:12Z</time></trkpt><trkpt lat="45.601239901852495" lon="11.160811114919074"><ele>622.0</ele><time>2026-04-25T11:56:13Z</time></trkpt><trkpt lat="45.60111661144821" lon="11.160622582178696"><ele>622.0</ele><time>2026-04-25T11:56:14Z</time></trkpt><trkpt lat="45.60098064891211" lon="11.160457695933264"><ele>617.6666666666667</ele><time>2026-04-25T11:56:15Z</time></trkpt><trkpt lat="45.600834617186806" lon="11.160326086103765"><ele>613.3333333333334</ele><time>2026-04-25T11:56:16Z</time></trkpt><trkpt lat="45.600686372003835" lon="11.16023163321198"><ele>609.0</ele><time>2026-04-25T11:56:17Z</time></trkpt><trkpt lat="45.600556556921894" lon="11.160140865842891"><ele>609.0</ele><time>2026-04-25T11:56:18Z</time></trkpt><trkpt lat="45.60044636980209" lon="11.160028722295326"><ele>609.0</ele><time>2026-04-25T11:56:19Z</time></trkpt><trkpt lat="45.60035781852208" lon="11.15987294930326"><ele>609.0</ele><time>2026-04-25T11:56:20Z</time></trkpt><trkpt lat="45.60025670189229" lon="11.159746328227856"><ele>609.0</ele><time>2026-04-25T11:56:21Z</time></trkpt><trkpt lat="45.600172592374975" lon="11.159596678053708"><ele>607.25</ele><time>2026-04-25T11:56:22Z</time></trkpt><trkpt lat="45.60005271501243" lon="11.159486555215341"><ele>605.5</ele><time>2026-04-25T11:56:23Z</time></trkpt><trkpt lat="45.59994055303932" lon="11.159354935180493"><ele>603.75</ele><time>2026-04-25T11:56:24Z</time></trkpt><trkpt lat="45.59983067150543" lon="11.159221804633633"><ele>602.0</ele><time>2026-04-25T11:56:25Z</time></trkpt><trkpt lat="45.599709194726124" lon="11.15907970040791"><ele>597.0</ele><time>2026-04-25T11:56:26Z</time></trkpt><trkpt lat="45.599580888544224" lon="11.158949616345858"><ele>592.0</ele><time>2026-04-25T11:56:27Z</time></trkpt><trkpt lat="45.59947175341575" lon="11.158797611303875"><ele>587.0</ele><time>2026-04-25T11:56:28Z</time></trkpt><trkpt lat="45.599355248365384" lon="11.158654544547263"><ele>587.0</ele><time>2026-04-25T11:56:29Z</time></trkpt><trkpt lat="45.59925070329633" lon="11.158506262772875"><ele>587.0</ele><time>2026-04-25T11:56:30Z</time></trkpt><trkpt lat="45.599150389376156" lon="11.158346980328512"><ele>587.0</ele><time>2026-04-25T11:56:31Z</time></trkpt><trkpt lat="45.599053529111835" lon="11.158184029143092"><ele>587.0</ele><time>2026-04-25T11:56:32Z</time></trkpt><trkpt lat="45.59896555091749" lon="11.158015320569392"><ele>590.75</ele><time>2026-04-25T11:56:33Z</time></trkpt><trkpt lat="45.59887946642184" lon="11.15785643824528"><ele>594.5</ele><time>2026-04-25T11:56:34Z</time></trkpt><trkpt lat="45.59880286089225" lon="11.157699160145716"><ele>598.25</ele><time>2026-04-25T11:56:35Z</time></trkpt><trkpt lat="45.59874009478248" lon="11.15752619256123"><ele>602.0</ele><time>2026-04-25T11:56:36Z</time></trkpt><trkpt lat="45.59869462555249" lon="11.157346731321406"><ele>591.0</ele><time>2026-04-25T11:56:37Z</time></trkpt><trkpt lat="45.5986604865183" lon="11.157161230502266"><ele>580.0</ele><time>2026-04-25T11:56:38Z</time></trkpt><trkpt lat="45.598632298472715" lon="11.156960199498192"><ele>569.0</ele><time>2026-04-25T11:56:39Z</time></trkpt><trkpt lat="45.598607212686005" lon="11.156760008765321"><ele>558.0</ele><time>2026-04-25T11:56:40Z</time></trkpt><trkpt lat="45.59858317719917" lon="11.156547895592713"><ele>557.3333333333334</ele><time>2026-04-25T11:56:41Z</time></trkpt><trkpt lat="45.59855800246071" lon="11.156324800015573"><ele>556.6666666666667</ele><time>2026-04-25T11:56:42Z</time></trkpt><trkpt lat="45.59852553349687" lon="11.156112958383531"><ele>556.0</ele><time>2026-04-25T11:56:43Z</time></trkpt><trkpt lat="45.598468157192556" lon="11.155916325271006"><ele>556.0</ele><time>2026-04-25T11:56:44Z</time></trkpt><trkpt lat="45.598394966086005" lon="11.155729044142864"><ele>556.0</ele><time>2026-04-25T11:56:45Z</time></trkpt><trkpt lat="45.5983098128508" lon="11.15554896618358"><ele>556.0</ele><time>2026-04-25T11:56:46Z</time></trkpt><trkpt lat="45.59821299849624" lon="11.15538336468055"><ele>555.75</ele><time>2026-04-25T11:56:47Z</time></trkpt><trkpt lat="45.59811051162346" lon="11.155234217194586"><ele>555.5</ele><time>2026-04-25T11:56:48Z</time></trkpt><trkpt lat="45.59800631260203" lon="11.155088723025157"><ele>555.25</ele><time>2026-04-25T11:56:49Z</time></trkpt><trkpt lat="45.59790135575895" lon="11.154941899949582"><ele>555.0</ele><time>2026-04-25T11:56:50Z</time></trkpt><trkpt lat="45.597794502774065" lon="11.154793702931016"><ele>555.0</ele><time>2026-04-25T11:56:51Z</time></trkpt><trkpt lat="45.59768995787953" lon="11.154645211817105"><ele>555.0</ele><time>2026-04-25T11:56:52Z</time></trkpt><trkpt lat="45.59758368349448" lon="11.154502626243081"><ele>555.0</ele><time>2026-04-25T11:56:53Z</time></trkpt><trkpt lat="45.59748174809722" lon="11.154371805021938"><ele>555.0</ele><time>2026-04-25T11:56:54Z</time></trkpt><trkpt lat="45.597376572571726" lon="11.154241864389823"><ele>555.0</ele><time>2026-04-25T11:56:55Z</time></trkpt><trkpt lat="45.5972645855469" lon="11.154113894057376"><ele>555.0</ele><time>2026-04-25T11:56:56Z</time></trkpt><trkpt lat="45.59716053289399" lon="11.153992806811743"><ele>555.0</ele><time>2026-04-25T11:56:57Z</time></trkpt><trkpt lat="45.59706549180403" lon="11.153860739274851"><ele>555.0</ele><time>2026-04-25T11:56:58Z</time></trkpt><trkpt lat="45.596985777399496" lon="11.153706705021921"><ele>551.5</ele><time>2026-04-25T11:56:59Z</time></trkpt><trkpt lat="45.596883753548006" lon="11.153586447723132"><ele>548.0</ele><time>2026-04-25T11:57:00Z</time></trkpt><trkpt lat="45.596754209709225" lon="11.153522863867279"><ele>544.5</ele><time>2026-04-25T11:57:01Z</time></trkpt><trkpt lat="45.59663235940247" lon="11.15344782647677"><ele>541.0</ele><time>2026-04-25T11:57:02Z</time></trkpt><trkpt lat="45.59651245150211" lon="11.153375667553481"><ele>541.0</ele><time>2026-04-25T11:57:03Z</time></trkpt><trkpt lat="45.596412343416006" lon="11.153282944337219"><ele>541.0</ele><time>2026-04-25T11:57:04Z</time></trkpt><trkpt lat="45.596304017810034" lon="11.153191361913784"><ele>541.0</ele><time>2026-04-25T11:57:05Z</time></trkpt><trkpt lat="45.596233451601165" lon="11.153045542904701"><ele>541.0</ele><time>2026-04-25T11:57:06Z</time></trkpt><trkpt lat="45.596150755382396" lon="11.1529201579775"><ele>536.75</ele><time>2026-04-25T11:57:07Z</time></trkpt><trkpt lat="45.596085659725304" lon="11.15277930308065"><ele>532.5</ele><time>2026-04-25T11:57:08Z</time></trkpt><trkpt lat="45.5960261967885" lon="11.152621404797149"><ele>528.25</ele><time>2026-04-25T11:57:09Z</time></trkpt><trkpt lat="45.59595296909914" lon="11.15252017700827"><ele>524.0</ele><time>2026-04-25T11:57:10Z</time></trkpt><trkpt lat="45.59584846783476" lon="11.152461867549029"><ele>524.0</ele><time>2026-04-25T11:57:11Z</time></trkpt><trkpt lat="45.59573743300696" lon="11.152497663986965"><ele>524.0</ele><time>2026-04-25T11:57:12Z</time></trkpt><trkpt lat="45.595618360736005" lon="11.152537679660972"><ele>524.0</ele><time>2026-04-25T11:57:13Z</time></trkpt><trkpt lat="45.595498740166214" lon="11.152598216898749"><ele>524.0</ele><time>2026-04-25T11:57:14Z</time></trkpt><trkpt lat="45.595398538578635" lon="11.152652564573964"><ele>522.6</ele><time>2026-04-25T11:57:15Z</time></trkpt><trkpt lat="45.595305415123086" lon="11.152682912558209"><ele>521.2</ele><time>2026-04-25T11:57:16Z</time></trkpt><trkpt lat="45.595200135151956" lon="11.152689393964618"><ele>519.8000000000001</ele><time>2026-04-25T11:57:17Z</time></trkpt><trkpt lat="45.59510207733315" lon="11.152649092109819"><ele>518.4</ele><time>2026-04-25T11:57:18Z</time></trkpt><trkpt lat="45.59500050506262" lon="11.152623592198875"><ele>517.0</ele><time>2026-04-25T11:57:19Z</time></trkpt><trkpt lat="45.59490450448745" lon="11.152601385454755"><ele>517.0</ele><time>2026-04-25T11:57:20Z</time></trkpt><trkpt lat="45.59481188057161" lon="11.1525681401192"><ele>517.0</ele><time>2026-04-25T11:57:21Z</time></trkpt><trkpt lat="45.59471465594502" lon="11.15252660684166"><ele>517.0</ele><time>2026-04-25T11:57:22Z</time></trkpt><trkpt lat="45.59461164373182" lon="11.152496176996111"><ele>517.0</ele><time>2026-04-25T11:57:23Z</time></trkpt><trkpt lat="45.59451250800908" lon="11.15247194248929"><ele>517.0</ele><time>2026-04-25T11:57:24Z</time></trkpt><trkpt lat="45.59440924405042" lon="11.152437974845396"><ele>517.0</ele><time>2026-04-25T11:57:25Z</time></trkpt><trkpt lat="45.59430420945592" lon="11.152404988378024"><ele>517.0</ele><time>2026-04-25T11:57:26Z</time></trkpt><trkpt lat="45.59420311647989" lon="11.152382407621607"><ele>517.0</ele><time>2026-04-25T11:57:27Z</time></trkpt><trkpt lat="45.59410338669326" lon="11.152354090333704"><ele>517.0</ele><time>2026-04-25T11:57:28Z</time></trkpt><trkpt lat="45.59399961967414" lon="11.15232345712509"><ele>517.0</ele><time>2026-04-25T11:57:29Z</time></trkpt><trkpt lat="45.59390539303122" lon="11.152293888512903"><ele>515.6666666666667</ele><time>2026-04-25T11:57:30Z</time></trkpt><trkpt lat="45.59382213778869" lon="11.152262510991772"><ele>514.3333333333334</ele><time>2026-04-25T11:57:31Z</time></trkpt><trkpt lat="45.59374482609192" lon="11.152211974243894"><ele>513.0</ele><time>2026-04-25T11:57:32Z</time></trkpt><trkpt lat="45.5936901030824" lon="11.152158663975582"><ele>511.66666666666663</ele><time>2026-04-25T11:57:33Z</time></trkpt><trkpt lat="45.593635482773294" lon="11.152110786384014"><ele>510.3333333333333</ele><time>2026-04-25T11:57:36Z</time></trkpt><trkpt lat="45.59357156141003" lon="11.152071874599308"><ele>509.0</ele><time>2026-04-25T11:57:38Z</time></trkpt><trkpt lat="45.59341604603328" lon="11.152123590099123"><ele>508.25</ele><time>2026-04-25T11:57:40Z</time></trkpt><trkpt lat="45.59331876295107" lon="11.1521910653678"><ele>507.5</ele><time>2026-04-25T11:57:41Z</time></trkpt><trkpt lat="45.59319238162457" lon="11.15228465745742"><ele>506.75</ele><time>2026-04-25T11:57:42Z</time></trkpt><trkpt lat="45.59304790048242" lon="11.152384223007488"><ele>506.0</ele><time>2026-04-25T11:57:43Z</time></trkpt><trkpt lat="45.592894761603034" lon="11.152488813673372"><ele>506.66666666666663</ele><time>2026-04-25T11:57:44Z</time></trkpt><trkpt lat="45.59273130450756" lon="11.15259017483151"><ele>507.33333333333337</ele><time>2026-04-25T11:57:45Z</time></trkpt><trkpt lat="45.59256578300915" lon="11.152672961936407"><ele>508.0</ele><time>2026-04-25T11:57:46Z</time></trkpt><trkpt lat="45.59239752297105" lon="11.152753197975587"><ele>508.0</ele><time>2026-04-25T11:57:47Z</time></trkpt><trkpt lat="45.59224062603089" lon="11.152818907580174"><ele>508.0</ele><time>2026-04-25T11:57:48Z</time></trkpt><trkpt lat="45.59208390877547" lon="11.152885397010554"><ele>508.0</ele><time>2026-04-25T11:57:49Z</time></trkpt><trkpt lat="45.59192815098531" lon="11.152953359775276"><ele>507.0</ele><time>2026-04-25T11:57:50Z</time></trkpt><trkpt lat="45.59178115011201" lon="11.15301473158531"><ele>506.0</ele><time>2026-04-25T11:57:51Z</time></trkpt><trkpt lat="45.59163797107336" lon="11.153065947936845"><ele>505.0</ele><time>2026-04-25T11:57:52Z</time></trkpt><trkpt lat="45.59149713496481" lon="11.15311245425154"><ele>504.0</ele><time>2026-04-25T11:57:53Z</time></trkpt><trkpt lat="45.59135341794658" lon="11.15315685851527"><ele>503.33333333333337</ele><time>2026-04-25T11:57:54Z</time></trkpt><trkpt lat="45.591203757882305" lon="11.15320680476312"><ele>502.6666666666667</ele><time>2026-04-25T11:57:55Z</time></trkpt><trkpt lat="45.5910534916634" lon="11.1532552187322"><ele>502.0</ele><time>2026-04-25T11:57:56Z</time></trkpt><trkpt lat="45.59089851223739" lon="11.153306069166161"><ele>502.0</ele><time>2026-04-25T11:57:57Z</time></trkpt><trkpt lat="45.59075485358656" lon="11.153360310409647"><ele>502.0</ele><time>2026-04-25T11:57:58Z</time></trkpt><trkpt lat="45.590608528706056" lon="11.153428799706553"><ele>502.0</ele><time>2026-04-25T11:57:59Z</time></trkpt><trkpt lat="45.590473471755224" lon="11.153511073852243"><ele>502.0</ele><time>2026-04-25T11:58:00Z</time></trkpt><trkpt lat="45.59033475187817" lon="11.153610010664208"><ele>500.6666666666667</ele><time>2026-04-25T11:58:01Z</time></trkpt><trkpt lat="45.59019285449116" lon="11.1537263216484"><ele>499.33333333333337</ele><time>2026-04-25T11:58:02Z</time></trkpt><trkpt lat="45.590060340397244" lon="11.153826739112462"><ele>498.0</ele><time>2026-04-25T11:58:03Z</time></trkpt><trkpt lat="45.58992620494541" lon="11.153905132097533"><ele>498.0</ele><time>2026-04-25T11:58:04Z</time></trkpt><trkpt lat="45.58979104139408" lon="11.153960844878183"><ele>498.0</ele><time>2026-04-25T11:58:05Z</time></trkpt><trkpt lat="45.58964546104812" lon="11.153996007850205"><ele>498.0</ele><time>2026-04-25T11:58:06Z</time></trkpt><trkpt lat="45.58949763629549" lon="11.154008052907024"><ele>498.0</ele><time>2026-04-25T11:58:07Z</time></trkpt><trkpt lat="45.58936296261619" lon="11.153997405513648"><ele>498.0</ele><time>2026-04-25T11:58:08Z</time></trkpt><trkpt lat="45.58922554213533" lon="11.153981834673276"><ele>498.0</ele><time>2026-04-25T11:58:09Z</time></trkpt><trkpt lat="45.58908552472626" lon="11.153962487184325"><ele>498.0</ele><time>2026-04-25T11:58:10Z</time></trkpt><trkpt lat="45.58894476749194" lon="11.153946118921315"><ele>498.0</ele><time>2026-04-25T11:58:11Z</time></trkpt><trkpt lat="45.5887964694101" lon="11.153931250727013"><ele>497.66666666666663</ele><time>2026-04-25T11:58:12Z</time></trkpt><trkpt lat="45.58864650745297" lon="11.153920086888297"><ele>497.3333333333333</ele><time>2026-04-25T11:58:13Z</time></trkpt><trkpt lat="45.58849908180339" lon="11.153918110014725"><ele>497.0</ele><time>2026-04-25T11:58:14Z</time></trkpt><trkpt lat="45.58834719988557" lon="11.153927471355084"><ele>497.0</ele><time>2026-04-25T11:58:15Z</time></trkpt><trkpt lat="45.58818983187834" lon="11.153951750392284"><ele>497.0</ele><time>2026-04-25T11:58:16Z</time></trkpt><trkpt lat="45.58802960127406" lon="11.153983769292783"><ele>497.0</ele><time>2026-04-25T11:58:17Z</time></trkpt><trkpt lat="45.5878787493107" lon="11.154002863520562"><ele>498.0</ele><time>2026-04-25T11:58:18Z</time></trkpt><trkpt lat="45.587738263502835" lon="11.154054373388842"><ele>499.0</ele><time>2026-04-25T11:58:19Z</time></trkpt><trkpt lat="45.58759394175491" lon="11.15406518152933"><ele>500.0</ele><time>2026-04-25T11:58:20Z</time></trkpt><trkpt lat="45.58745350293383" lon="11.15406216565114"><ele>501.0</ele><time>2026-04-25T11:58:21Z</time></trkpt><trkpt lat="45.587312281437924" lon="11.154034069485528"><ele>499.0</ele><time>2026-04-25T11:58:22Z</time></trkpt><trkpt lat="45.58716991034718" lon="11.153980086849034"><ele>497.0</ele><time>2026-04-25T11:58:23Z</time></trkpt><trkpt lat="45.58703052091691" lon="11.153919950543024"><ele>495.0</ele><time>2026-04-25T11:58:24Z</time></trkpt><trkpt lat="45.58689785841616" lon="11.153860677955178"><ele>493.0</ele><time>2026-04-25T11:58:25Z</time></trkpt><trkpt lat="45.58675970189889" lon="11.153803222326562"><ele>493.0</ele><time>2026-04-25T11:58:26Z</time></trkpt><trkpt lat="45.586613277193976" lon="11.153741327532327"><ele>493.0</ele><time>2026-04-25T11:58:27Z</time></trkpt><trkpt lat="45.58646630849909" lon="11.153670319942828"><ele>493.0</ele><time>2026-04-25T11:58:28Z</time></trkpt><trkpt lat="45.58631673871694" lon="11.153596464707526"><ele>493.0</ele><time>2026-04-25T11:58:29Z</time></trkpt><trkpt lat="45.58616811586217" lon="11.15353015977732"><ele>493.0</ele><time>2026-04-25T11:58:30Z</time></trkpt><trkpt lat="45.586030312793255" lon="11.15347248258478"><ele>493.0</ele><time>2026-04-25T11:58:31Z</time></trkpt><trkpt lat="45.585893931833425" lon="11.15342470291658"><ele>493.0</ele><time>2026-04-25T11:58:32Z</time></trkpt><trkpt lat="45.58575134493417" lon="11.1533879322237"><ele>493.0</ele><time>2026-04-25T11:58:33Z</time></trkpt><trkpt lat="45.58560393742479" lon="11.153363884130354"><ele>493.0</ele><time>2026-04-25T11:58:34Z</time></trkpt><trkpt lat="45.58544726721023" lon="11.153338363542751"><ele>493.0</ele><time>2026-04-25T11:58:35Z</time></trkpt><trkpt lat="45.58531033745787" lon="11.153313369981452"><ele>493.0</ele><time>2026-04-25T11:58:36Z</time></trkpt><trkpt lat="45.58518798421167" lon="11.153266921109903"><ele>493.2</ele><time>2026-04-25T11:58:37Z</time></trkpt><trkpt lat="45.585078448241276" lon="11.153208052350378"><ele>493.4</ele><time>2026-04-25T11:58:38Z</time></trkpt><trkpt lat="45.58498224731342" lon="11.153147324727403"><ele>493.59999999999997</ele><time>2026-04-25T11:58:39Z</time></trkpt><trkpt lat="45.58489370649785" lon="11.153094367392727"><ele>493.79999999999995</ele><time>2026-04-25T11:58:40Z</time></trkpt><trkpt lat="45.58480907368278" lon="11.153036480093409"><ele>494.0</ele><time>2026-04-25T11:58:41Z</time></trkpt><trkpt lat="45.58473653577974" lon="11.152987524422096"><ele>493.49999999999994</ele><time>2026-04-25T11:58:42Z</time></trkpt><trkpt lat="45.58466630934336" lon="11.152937105176003"><ele>493.0</ele><time>2026-04-25T11:58:43Z</time></trkpt><trkpt lat="45.58460582056407" lon="11.152874194652744"><ele>492.5</ele><time>2026-04-25T11:58:44Z</time></trkpt><trkpt lat="45.58455366969734" lon="11.152801390218936"><ele>492.0</ele><time>2026-04-25T11:58:45Z</time></trkpt><trkpt lat="45.58450864630829" lon="11.152731004042218"><ele>491.49999999999994</ele><time>2026-04-25T11:58:46Z</time></trkpt><trkpt lat="45.58444486418986" lon="11.152576117223168"><ele>491.0</ele><time>2026-04-25T11:58:48Z</time></trkpt><trkpt lat="45.58442492166617" lon="11.152485565423307"><ele>490.66666666666663</ele><time>2026-04-25T11:58:49Z</time></trkpt><trkpt lat="45.584408321021755" lon="11.15239227205208"><ele>490.3333333333333</ele><time>2026-04-25T11:58:50Z</time></trkpt><trkpt lat="45.5843958820287" lon="11.152301961351338"><ele>490.0</ele><time>2026-04-25T11:58:51Z</time></trkpt><trkpt lat="45.58437985104135" lon="11.152175058581408"><ele>489.66666666666663</ele><time>2026-04-25T11:58:53Z</time></trkpt><trkpt lat="45.584486867382594" lon="11.152074019376297"><ele>489.3333333333333</ele><time>2026-04-25T11:58:57Z</time></trkpt><trkpt lat="45.58455242887975" lon="11.152071140158744"><ele>489.0</ele><time>2026-04-25T11:58:58Z</time></trkpt><trkpt lat="45.58465752469877" lon="11.152061172932752"><ele>488.79999999999995</ele><time>2026-04-25T11:59:00Z</time></trkpt><trkpt lat="45.584761992674984" lon="11.151987520339105"><ele>488.59999999999997</ele><time>2026-04-25T11:59:02Z</time></trkpt><trkpt lat="45.58485258744064" lon="11.151937981412244"><ele>488.4</ele><time>2026-04-25T11:59:04Z</time></trkpt><trkpt lat="45.5849629834005" lon="11.151914985586343"><ele>488.2</ele><time>2026-04-25T11:59:06Z</time></trkpt><trkpt lat="45.58507955870553" lon="11.151894022651277"><ele>488.0</ele><time>2026-04-25T11:59:08Z</time></trkpt><trkpt lat="45.58518593161426" lon="11.151923732575499"><ele>488.0</ele><time>2026-04-25T11:59:10Z</time></trkpt><trkpt lat="45.58526904375521" lon="11.151941345058885"><ele>487.99999999999994</ele><time>2026-04-25T11:59:12Z</time></trkpt><trkpt lat="45.58526232806936" lon="11.151750647912909"><ele>487.99999999999994</ele><time>2026-04-25T11:59:17Z</time></trkpt><trkpt lat="45.58520954785371" lon="11.15162485663021"><ele>488.0</ele><time>2026-04-25T11:59:19Z</time></trkpt><trkpt lat="45.58520777283628" lon="11.15150249043386"><ele>488.0</ele><time>2026-04-25T11:59:21Z</time></trkpt><trkpt lat="45.585246814607665" lon="11.151386292628523"><ele>489.8333333333333</ele><time>2026-04-25T11:59:23Z</time></trkpt><trkpt lat="45.585291458832096" lon="11.151277171038737"><ele>491.66666666666663</ele><time>2026-04-25T11:59:25Z</time></trkpt><trkpt lat="45.585346055430016" lon="11.15120731105084"><ele>493.5</ele><time>2026-04-25T11:59:27Z</time></trkpt><trkpt lat="45.58542689890505" lon="11.151211743376104"><ele>495.33333333333337</ele><time>2026-04-25T11:59:29Z</time></trkpt><trkpt lat="45.58550284200518" lon="11.151262825927352"><ele>497.1666666666667</ele><time>2026-04-25T11:59:31Z</time></trkpt><trkpt lat="45.58560408266287" lon="11.15124970321272"><ele>499.0</ele><time>2026-04-25T11:59:34Z</time></trkpt><trkpt lat="45.585703562079765" lon="11.151230316513383"><ele>500.6666666666667</ele><time>2026-04-25T11:59:36Z</time></trkpt><trkpt lat="45.58576753025315" lon="11.151202045439542"><ele>502.33333333333337</ele><time>2026-04-25T11:59:38Z</time></trkpt><trkpt lat="45.58580529526433" lon="11.151055407362698"><ele>504.0</ele><time>2026-04-25T11:59:41Z</time></trkpt><trkpt lat="45.5858672766727" lon="11.151017459588354"><ele>505.66666666666663</ele><time>2026-04-25T11:59:44Z</time></trkpt><trkpt lat="45.58596028749015" lon="11.151029667163737"><ele>507.3333333333333</ele><time>2026-04-25T11:59:47Z</time></trkpt><trkpt lat="45.58604243881622" lon="11.151002044640757"><ele>509.0</ele><time>2026-04-25T11:59:50Z</time></trkpt><trkpt lat="45.5861126277116" lon="11.150954426379279"><ele>508.99999999999994</ele><time>2026-04-25T12:04:49Z</time></trkpt><trkpt lat="45.58617707820413" lon="11.150977015436366"><ele>509.0</ele><time>2026-04-25T12:07:18Z</time></trkpt><trkpt lat="45.586245715993655" lon="11.15099284844476"><ele>509.0</ele><time>2026-04-25T12:07:19Z</time></trkpt><trkpt lat="45.58632029813297" lon="11.151011704121728"><ele>509.0</ele><time>2026-04-25T12:07:20Z</time></trkpt><trkpt lat="45.58639194439304" lon="11.151030850211535"><ele>508.99999999999994</ele><time>2026-04-25T12:07:21Z</time></trkpt><trkpt lat="45.58650670682092" lon="11.151060747635427"><ele>509.0</ele><time>2026-04-25T12:07:23Z</time></trkpt><trkpt lat="45.586572011044424" lon="11.15109154454454"><ele>510.4</ele><time>2026-04-25T12:07:24Z</time></trkpt><trkpt lat="45.58663963672081" lon="11.151111547275796"><ele>511.79999999999995</ele><time>2026-04-25T12:07:25Z</time></trkpt><trkpt lat="45.58670364030982" lon="11.15111925430124"><ele>513.2</ele><time>2026-04-25T12:07:26Z</time></trkpt><trkpt lat="45.58678586636687" lon="11.151108519948798"><ele>514.6</ele><time>2026-04-25T12:07:28Z</time></trkpt><trkpt lat="45.586890953023094" lon="11.151090480036533"><ele>516.0</ele><time>2026-04-25T12:07:30Z</time></trkpt><trkpt lat="45.58701266442055" lon="11.151022554783985"><ele>516.6666666666666</ele><time>2026-04-25T12:07:32Z</time></trkpt><trkpt lat="45.58712438048546" lon="11.15093847863922"><ele>517.3333333333334</ele><time>2026-04-25T12:07:34Z</time></trkpt><trkpt lat="45.587193085076116" lon="11.150916355764652"><ele>518.0</ele><time>2026-04-25T12:07:35Z</time></trkpt><trkpt lat="45.58729729416325" lon="11.150860890544843"><ele>518.6666666666667</ele><time>2026-04-25T12:07:37Z</time></trkpt><trkpt lat="45.58735201967318" lon="11.150792717432493"><ele>519.3333333333334</ele><time>2026-04-25T12:07:39Z</time></trkpt><trkpt lat="45.58738879505717" lon="11.15071240462923"><ele>520.0</ele><time>2026-04-25T12:07:41Z</time></trkpt><trkpt lat="45.58745343960393" lon="11.150702144731705"><ele>520.0</ele><time>2026-04-25T12:07:44Z</time></trkpt><trkpt lat="45.587563333946136" lon="11.150774294892242"><ele>520.0</ele><time>2026-04-25T12:07:47Z</time></trkpt><trkpt lat="45.58766599161414" lon="11.15077058630455"><ele>520.0</ele><time>2026-04-25T12:07:49Z</time></trkpt><trkpt lat="45.58777421292161" lon="11.150742713878628"><ele>520.0</ele><time>2026-04-25T12:07:51Z</time></trkpt><trkpt lat="45.58786645906533" lon="11.150735271306681"><ele>520.0</ele><time>2026-04-25T12:07:53Z</time></trkpt><trkpt lat="45.58796429137609" lon="11.15078714521586"><ele>521.5</ele><time>2026-04-25T12:07:55Z</time></trkpt><trkpt lat="45.58804504966569" lon="11.150796121830515"><ele>523.0</ele><time>2026-04-25T12:07:57Z</time></trkpt><trkpt lat="45.58814072669489" lon="11.150798460998642"><ele>524.5</ele><time>2026-04-25T12:07:59Z</time></trkpt><trkpt lat="45.58824134274571" lon="11.150800744985018"><ele>526.0</ele><time>2026-04-25T12:08:01Z</time></trkpt><trkpt lat="45.58831946150198" lon="11.150799828342736"><ele>527.5</ele><time>2026-04-25T12:08:02Z</time></trkpt><trkpt lat="45.588391771485746" lon="11.150783753519663"><ele>529.0</ele><time>2026-04-25T12:08:03Z</time></trkpt><trkpt lat="45.58845851761917" lon="11.150787599356466"><ele>529.0</ele><time>2026-04-25T12:08:04Z</time></trkpt><trkpt lat="45.588565705529106" lon="11.15077398084433"><ele>529.0</ele><time>2026-04-25T12:08:06Z</time></trkpt><trkpt lat="45.588678172402886" lon="11.150753268419061"><ele>529.0</ele><time>2026-04-25T12:08:08Z</time></trkpt><trkpt lat="45.58874643815257" lon="11.15073632836717"><ele>529.0</ele><time>2026-04-25T12:08:09Z</time></trkpt><trkpt lat="45.58881910619298" lon="11.150706925387503"><ele>529.0</ele><time>2026-04-25T12:08:10Z</time></trkpt><trkpt lat="45.58889153726982" lon="11.150683046845048"><ele>529.0</ele><time>2026-04-25T12:08:11Z</time></trkpt><trkpt lat="45.58896328267839" lon="11.150666364145552"><ele>532.3333333333334</ele><time>2026-04-25T12:08:12Z</time></trkpt><trkpt lat="45.589042471772444" lon="11.150641736720459"><ele>535.6666666666667</ele><time>2026-04-25T12:08:13Z</time></trkpt><trkpt lat="45.58912389352538" lon="11.150625934991272"><ele>539.0</ele><time>2026-04-25T12:08:14Z</time></trkpt><trkpt lat="45.589197269971436" lon="11.150595804758652"><ele>542.3333333333334</ele><time>2026-04-25T12:08:15Z</time></trkpt><trkpt lat="45.589259127014174" lon="11.150568362557161"><ele>545.6666666666666</ele><time>2026-04-25T12:08:16Z</time></trkpt><trkpt lat="45.58933503689297" lon="11.150514666869347"><ele>549.0</ele><time>2026-04-25T12:08:17Z</time></trkpt><trkpt lat="45.589404144765986" lon="11.150523286145688"><ele>549.0</ele><time>2026-04-25T12:08:18Z</time></trkpt><trkpt lat="45.5894645155724" lon="11.150492889988065"><ele>549.0</ele><time>2026-04-25T12:08:19Z</time></trkpt><trkpt lat="45.589554038512354" lon="11.150471489458665"><ele>549.0</ele><time>2026-04-25T12:08:20Z</time></trkpt><trkpt lat="45.58966447155762" lon="11.150414921470164"><ele>549.0</ele><time>2026-04-25T12:08:22Z</time></trkpt><trkpt lat="45.58972937859918" lon="11.150383517203634"><ele>549.0</ele><time>2026-04-25T12:08:23Z</time></trkpt><trkpt lat="45.58983424574559" lon="11.150323296193758"><ele>549.4</ele><time>2026-04-25T12:08:25Z</time></trkpt><trkpt lat="45.58992048390713" lon="11.150230150499642"><ele>549.8</ele><time>2026-04-25T12:08:27Z</time></trkpt><trkpt lat="45.58998156303668" lon="11.150200736663837"><ele>550.2</ele><time>2026-04-25T12:08:28Z</time></trkpt><trkpt lat="45.59012765371259" lon="11.150195487536383"><ele>550.6</ele><time>2026-04-25T12:08:30Z</time></trkpt><trkpt lat="45.590205548651674" lon="11.150188123815449"><ele>551.0</ele><time>2026-04-25T12:08:31Z</time></trkpt><trkpt lat="45.59029319994605" lon="11.149966604656159"><ele>550.6</ele><time>2026-04-25T12:08:32Z</time></trkpt><trkpt lat="45.590373993616254" lon="11.14997099973992"><ele>550.2</ele><time>2026-04-25T12:08:33Z</time></trkpt><trkpt lat="45.590484316889224" lon="11.149962408263669"><ele>549.8</ele><time>2026-04-25T12:08:35Z</time></trkpt><trkpt lat="45.590594391200675" lon="11.14993313148352"><ele>549.4</ele><time>2026-04-25T12:08:37Z</time></trkpt><trkpt lat="45.590689274292416" lon="11.14985945089367"><ele>549.0</ele><time>2026-04-25T12:08:39Z</time></trkpt><trkpt lat="45.59075706342645" lon="11.149793880213986"><ele>549.0</ele><time>2026-04-25T12:08:41Z</time></trkpt><trkpt lat="45.59070295324024" lon="11.149848108296304"><ele>549.0</ele><time>2026-04-25T12:08:46Z</time></trkpt><trkpt lat="45.59064608466785" lon="11.149887652547363"><ele>549.0</ele><time>2026-04-25T12:08:49Z</time></trkpt><trkpt lat="45.59049811441944" lon="11.149892741032064"><ele>549.0</ele><time>2026-04-25T12:08:51Z</time></trkpt><trkpt lat="45.59042665271902" lon="11.149911773451171"><ele>549.0</ele><time>2026-04-25T12:08:52Z</time></trkpt><trkpt lat="45.59035447058424" lon="11.149917896396436"><ele>549.0</ele><time>2026-04-25T12:08:53Z</time></trkpt><trkpt lat="45.59027324154021" lon="11.149910225577308"><ele>549.4</ele><time>2026-04-25T12:08:54Z</time></trkpt><trkpt lat="45.59017912580924" lon="11.149890484404498"><ele>549.8</ele><time>2026-04-25T12:08:55Z</time></trkpt><trkpt lat="45.59004456012439" lon="11.149866941935683"><ele>550.2</ele><time>2026-04-25T12:08:56Z</time></trkpt><trkpt lat="45.58994996836162" lon="11.149858166768738"><ele>550.6</ele><time>2026-04-25T12:08:57Z</time></trkpt><trkpt lat="45.58984979606752" lon="11.149881274085082"><ele>551.0</ele><time>2026-04-25T12:08:58Z</time></trkpt><trkpt lat="45.58975974592693" lon="11.149959636953989"><ele>551.0</ele><time>2026-04-25T12:08:59Z</time></trkpt><trkpt lat="45.58967814787667" lon="11.150058973317863"><ele>551.0</ele><time>2026-04-25T12:09:00Z</time></trkpt><trkpt lat="45.589578515133724" lon="11.150108661434231"><ele>551.0</ele><time>2026-04-25T12:09:01Z</time></trkpt><trkpt lat="45.589464480718874" lon="11.150132434793427"><ele>551.0</ele><time>2026-04-25T12:09:02Z</time></trkpt><trkpt lat="45.58934668692472" lon="11.150138088422114"><ele>551.0</ele><time>2026-04-25T12:09:03Z</time></trkpt><trkpt lat="45.58922472510652" lon="11.150132216723819"><ele>550.5</ele><time>2026-04-25T12:09:04Z</time></trkpt><trkpt lat="45.58910160121941" lon="11.150139172738767"><ele>550.0</ele><time>2026-04-25T12:09:05Z</time></trkpt><trkpt lat="45.588974042385864" lon="11.150130124343775"><ele>549.5</ele><time>2026-04-25T12:09:06Z</time></trkpt><trkpt lat="45.588843161701384" lon="11.150147931548723"><ele>549.0</ele><time>2026-04-25T12:09:07Z</time></trkpt><trkpt lat="45.58874004511627" lon="11.150186145363032"><ele>549.0</ele><time>2026-04-25T12:09:08Z</time></trkpt><trkpt lat="45.588641203467944" lon="11.150170234874684"><ele>549.0</ele><time>2026-04-25T12:09:09Z</time></trkpt><trkpt lat="45.588546501029235" lon="11.150134982201124"><ele>549.0</ele><time>2026-04-25T12:09:10Z</time></trkpt><trkpt lat="45.58845249749364" lon="11.15008081238095"><ele>549.0</ele><time>2026-04-25T12:09:11Z</time></trkpt><trkpt lat="45.58838852104031" lon="11.149954857431892"><ele>549.0</ele><time>2026-04-25T12:09:12Z</time></trkpt><trkpt lat="45.588304954437305" lon="11.14986343116048"><ele>549.8</ele><time>2026-04-25T12:09:13Z</time></trkpt><trkpt lat="45.58820877797323" lon="11.149808140681778"><ele>550.5999999999999</ele><time>2026-04-25T12:09:14Z</time></trkpt><trkpt lat="45.58810828899689" lon="11.149752276480548"><ele>551.4</ele><time>2026-04-25T12:09:15Z</time></trkpt><trkpt lat="45.588002203483924" lon="11.14970549420755"><ele>552.1999999999999</ele><time>2026-04-25T12:09:16Z</time></trkpt><trkpt lat="45.5878998777651" lon="11.149672901606724"><ele>553.0</ele><time>2026-04-25T12:09:17Z</time></trkpt><trkpt lat="45.587789461603286" lon="11.1496556036204"><ele>553.0</ele><time>2026-04-25T12:09:18Z</time></trkpt><trkpt lat="45.58767777032996" lon="11.149668951684731"><ele>553.0</ele><time>2026-04-25T12:09:19Z</time></trkpt><trkpt lat="45.587574454351525" lon="11.14969332319719"><ele>553.0</ele><time>2026-04-25T12:09:20Z</time></trkpt><trkpt lat="45.58748293668103" lon="11.149740598480816"><ele>553.0</ele><time>2026-04-25T12:09:21Z</time></trkpt><trkpt lat="45.58740140121079" lon="11.149808892772356"><ele>553.0</ele><time>2026-04-25T12:09:22Z</time></trkpt><trkpt lat="45.587333029934506" lon="11.149911923379774"><ele>551.6</ele><time>2026-04-25T12:09:23Z</time></trkpt><trkpt lat="45.5872570598372" lon="11.150003345626706"><ele>550.1999999999999</ele><time>2026-04-25T12:09:24Z</time></trkpt><trkpt lat="45.587180925621524" lon="11.150071360191479"><ele>548.8</ele><time>2026-04-25T12:09:25Z</time></trkpt><trkpt lat="45.58708217686509" lon="11.150102791519284"><ele>547.4</ele><time>2026-04-25T12:09:26Z</time></trkpt><trkpt lat="45.58696929530725" lon="11.15011280741442"><ele>546.0</ele><time>2026-04-25T12:09:27Z</time></trkpt><trkpt lat="45.58684596480166" lon="11.150144009111727"><ele>546.0</ele><time>2026-04-25T12:09:28Z</time></trkpt><trkpt lat="45.586713896139635" lon="11.150152074876075"><ele>546.0</ele><time>2026-04-25T12:09:29Z</time></trkpt><trkpt lat="45.58658529911551" lon="11.150130017757713"><ele>546.0</ele><time>2026-04-25T12:09:30Z</time></trkpt><trkpt lat="45.586454298705114" lon="11.150106158229233"><ele>546.0</ele><time>2026-04-25T12:09:31Z</time></trkpt><trkpt lat="45.58632217003955" lon="11.150061962061633"><ele>546.0</ele><time>2026-04-25T12:09:32Z</time></trkpt><trkpt lat="45.58618953309778" lon="11.150034569181635"><ele>546.0</ele><time>2026-04-25T12:09:33Z</time></trkpt><trkpt lat="45.58606069890028" lon="11.150016543455472"><ele>546.0</ele><time>2026-04-25T12:09:34Z</time></trkpt><trkpt lat="45.58593203807101" lon="11.149980057502603"><ele>546.0</ele><time>2026-04-25T12:09:35Z</time></trkpt><trkpt lat="45.585809907107105" lon="11.14995720275149"><ele>545.4</ele><time>2026-04-25T12:09:36Z</time></trkpt><trkpt lat="45.58569405365887" lon="11.149905487868734"><ele>544.8</ele><time>2026-04-25T12:09:37Z</time></trkpt><trkpt lat="45.58559201375651" lon="11.14984993617816"><ele>544.1999999999999</ele><time>2026-04-25T12:09:38Z</time></trkpt><trkpt lat="45.58549218708342" lon="11.14981486450318"><ele>543.6</ele><time>2026-04-25T12:09:39Z</time></trkpt><trkpt lat="45.585398494091606" lon="11.14979186113995"><ele>543.0</ele><time>2026-04-25T12:09:40Z</time></trkpt><trkpt lat="45.5853370041436" lon="11.149753191537462"><ele>541.0</ele><time>2026-04-25T12:09:41Z</time></trkpt><trkpt lat="45.58530163901794" lon="11.149574816569679"><ele>539.0</ele><time>2026-04-25T12:09:43Z</time></trkpt><trkpt lat="45.585307167696676" lon="11.149452264796222"><ele>537.0</ele><time>2026-04-25T12:09:44Z</time></trkpt><trkpt lat="45.5853122206685" lon="11.149314118288416"><ele>535.0</ele><time>2026-04-25T12:09:45Z</time></trkpt><trkpt lat="45.58531367154955" lon="11.149179245836734"><ele>533.0</ele><time>2026-04-25T12:09:46Z</time></trkpt><trkpt lat="45.58531829299699" lon="11.149059860802929"><ele>533.3333333333333</ele><time>2026-04-25T12:09:47Z</time></trkpt><trkpt lat="45.585335644682054" lon="11.148969099777922"><ele>533.6666666666666</ele><time>2026-04-25T12:09:48Z</time></trkpt><trkpt lat="45.585401884918255" lon="11.148937201403731"><ele>534.0</ele><time>2026-04-25T12:09:49Z</time></trkpt><trkpt lat="45.58545253950327" lon="11.148871626109868"><ele>534.3333333333334</ele><time>2026-04-25T12:09:50Z</time></trkpt><trkpt lat="45.58549035370057" lon="11.148754778035968"><ele>534.6666666666667</ele><time>2026-04-25T12:09:51Z</time></trkpt><trkpt lat="45.58550396596062" lon="11.1486447331385"><ele>535.0</ele><time>2026-04-25T12:09:52Z</time></trkpt><trkpt lat="45.58549711274572" lon="11.148533524775116"><ele>535.0</ele><time>2026-04-25T12:09:53Z</time></trkpt><trkpt lat="45.58547659854336" lon="11.148442167625912"><ele>535.0</ele><time>2026-04-25T12:09:54Z</time></trkpt><trkpt lat="45.58543552921462" lon="11.148373436502057"><ele>535.0</ele><time>2026-04-25T12:09:55Z</time></trkpt><trkpt lat="45.58537610857242" lon="11.148305558458192"><ele>535.0</ele><time>2026-04-25T12:09:56Z</time></trkpt><trkpt lat="45.5852891679628" lon="11.148218436397244"><ele>535.0</ele><time>2026-04-25T12:09:57Z</time></trkpt><trkpt lat="45.58522497681044" lon="11.148125097265732"><ele>535.0</ele><time>2026-04-25T12:09:58Z</time></trkpt><trkpt lat="45.58521402732528" lon="11.14800533402333"><ele>537.8333333333334</ele><time>2026-04-25T12:09:59Z</time></trkpt><trkpt lat="45.58516745531617" lon="11.147886957896274"><ele>540.6666666666667</ele><time>2026-04-25T12:10:00Z</time></trkpt><trkpt lat="45.58510137786459" lon="11.147770694099727"><ele>543.5</ele><time>2026-04-25T12:10:01Z</time></trkpt><trkpt lat="45.58506841244267" lon="11.14764244496099"><ele>546.3333333333334</ele><time>2026-04-25T12:10:02Z</time></trkpt><trkpt lat="45.585041423203826" lon="11.14754096911514"><ele>549.1666666666666</ele><time>2026-04-25T12:10:03Z</time></trkpt><trkpt lat="45.585015266463515" lon="11.147457821529086"><ele>552.0</ele><time>2026-04-25T12:10:04Z</time></trkpt><trkpt lat="45.585004414193044" lon="11.147354920275307"><ele>557.5</ele><time>2026-04-25T12:10:05Z</time></trkpt><trkpt lat="45.58500863386376" lon="11.147178468379659"><ele>563.0</ele><time>2026-04-25T12:10:07Z</time></trkpt><trkpt lat="45.58498958139619" lon="11.146988009461406"><ele>568.5</ele><time>2026-04-25T12:10:09Z</time></trkpt><trkpt lat="45.584873211654354" lon="11.14689898506783"><ele>574.0</ele><time>2026-04-25T12:10:11Z</time></trkpt><trkpt lat="45.584789856845006" lon="11.146983055021105"><ele>574.0</ele><time>2026-04-25T12:10:12Z</time></trkpt><trkpt lat="45.58471431526373" lon="11.146984550365813"><ele>574.0</ele><time>2026-04-25T12:10:13Z</time></trkpt><trkpt lat="45.584637985713215" lon="11.146899881880893"><ele>574.0</ele><time>2026-04-25T12:10:15Z</time></trkpt><trkpt lat="45.58460912817762" lon="11.146817014240803"><ele>574.0</ele><time>2026-04-25T12:10:16Z</time></trkpt><trkpt lat="45.58455279397071" lon="11.146743943348401"><ele>574.0</ele><time>2026-04-25T12:10:17Z</time></trkpt><trkpt lat="45.58446723992242" lon="11.14669379163779"><ele>574.0</ele><time>2026-04-25T12:10:18Z</time></trkpt><trkpt lat="45.584387210271636" lon="11.146649081586716"><ele>572.6</ele><time>2026-04-25T12:10:19Z</time></trkpt><trkpt lat="45.58431191567933" lon="11.146605396881553"><ele>571.2</ele><time>2026-04-25T12:10:20Z</time></trkpt><trkpt lat="45.584213036632185" lon="11.146654500981201"><ele>569.8000000000001</ele><time>2026-04-25T12:10:21Z</time></trkpt><trkpt lat="45.58409984465818" lon="11.14664848961949"><ele>568.4</ele><time>2026-04-25T12:10:22Z</time></trkpt><trkpt lat="45.583986948728054" lon="11.146662429450744"><ele>567.0</ele><time>2026-04-25T12:10:23Z</time></trkpt><trkpt lat="45.58389141489523" lon="11.1466742993365"><ele>567.0</ele><time>2026-04-25T12:10:24Z</time></trkpt><trkpt lat="45.583807990130225" lon="11.14668091341277"><ele>567.0</ele><time>2026-04-25T12:10:25Z</time></trkpt><trkpt lat="45.583730458926794" lon="11.146697821177447"><ele>567.0</ele><time>2026-04-25T12:10:26Z</time></trkpt><trkpt lat="45.583664642998926" lon="11.146705880342301"><ele>567.0</ele><time>2026-04-25T12:10:27Z</time></trkpt><trkpt lat="45.583586901101086" lon="11.14683777947404"><ele>567.0</ele><time>2026-04-25T12:10:29Z</time></trkpt><trkpt lat="45.58356418060394" lon="11.146965989462167"><ele>567.0</ele><time>2026-04-25T12:10:30Z</time></trkpt><trkpt lat="45.58353210761759" lon="11.147099755787776"><ele>567.0</ele><time>2026-04-25T12:10:31Z</time></trkpt><trkpt lat="45.583485175954294" lon="11.147216495060453"><ele>567.0</ele><time>2026-04-25T12:10:32Z</time></trkpt><trkpt lat="45.583421557666526" lon="11.147299214609331"><ele>567.0</ele><time>2026-04-25T12:10:33Z</time></trkpt><trkpt lat="45.583345354177524" lon="11.147420299730868"><ele>567.0</ele><time>2026-04-25T12:10:34Z</time></trkpt><trkpt lat="45.58323443679237" lon="11.147521637308008"><ele>567.0</ele><time>2026-04-25T12:10:35Z</time></trkpt><trkpt lat="45.58311721528504" lon="11.147605817091172"><ele>560.75</ele><time>2026-04-25T12:10:36Z</time></trkpt><trkpt lat="45.58299790751604" lon="11.147664900286884"><ele>554.5</ele><time>2026-04-25T12:10:37Z</time></trkpt><trkpt lat="45.58288396178775" lon="11.147670507707893"><ele>548.25</ele><time>2026-04-25T12:10:38Z</time></trkpt><trkpt lat="45.582776257792254" lon="11.147708415877517"><ele>542.0</ele><time>2026-04-25T12:10:39Z</time></trkpt><trkpt lat="45.58266052771534" lon="11.147696217974183"><ele>542.0</ele><time>2026-04-25T12:10:40Z</time></trkpt><trkpt lat="45.58253970960696" lon="11.1477155263688"><ele>542.0</ele><time>2026-04-25T12:10:41Z</time></trkpt><trkpt lat="45.58240476444968" lon="11.147720276448112"><ele>542.0</ele><time>2026-04-25T12:10:42Z</time></trkpt><trkpt lat="45.58228077390751" lon="11.147715467891096"><ele>542.0</ele><time>2026-04-25T12:10:43Z</time></trkpt><trkpt lat="45.582160501135164" lon="11.147712226256228"><ele>542.0</ele><time>2026-04-25T12:10:44Z</time></trkpt><trkpt lat="45.58204533113216" lon="11.147706298370752"><ele>542.0</ele><time>2026-04-25T12:10:45Z</time></trkpt><trkpt lat="45.581937496094845" lon="11.147710153994682"><ele>542.0</ele><time>2026-04-25T12:10:46Z</time></trkpt><trkpt lat="45.5818382161342" lon="11.147700861715485"><ele>542.0</ele><time>2026-04-25T12:10:47Z</time></trkpt><trkpt lat="45.58173618483063" lon="11.147692393278643"><ele>542.0</ele><time>2026-04-25T12:10:48Z</time></trkpt><trkpt lat="45.581635642770586" lon="11.147672558822011"><ele>541.4</ele><time>2026-04-25T12:10:49Z</time></trkpt><trkpt lat="45.581540820717706" lon="11.147649318631618"><ele>540.8000000000001</ele><time>2026-04-25T12:10:50Z</time></trkpt><trkpt lat="45.581448823860065" lon="11.147629810688999"><ele>540.2</ele><time>2026-04-25T12:10:51Z</time></trkpt><trkpt lat="45.58135277046874" lon="11.147607456516058"><ele>539.6</ele><time>2026-04-25T12:10:52Z</time></trkpt><trkpt lat="45.58125854482078" lon="11.1475809371456"><ele>539.0</ele><time>2026-04-25T12:10:53Z</time></trkpt><trkpt lat="45.581168495906326" lon="11.147550483992955"><ele>537.1666666666666</ele><time>2026-04-25T12:10:54Z</time></trkpt><trkpt lat="45.58107745941214" lon="11.147544816267455"><ele>535.3333333333333</ele><time>2026-04-25T12:10:55Z</time></trkpt><trkpt lat="45.58098890695184" lon="11.147582893704058"><ele>533.5</ele><time>2026-04-25T12:10:56Z</time></trkpt><trkpt lat="45.58091227500164" lon="11.147615843350405"><ele>531.6666666666666</ele><time>2026-04-25T12:10:57Z</time></trkpt><trkpt lat="45.58082866858489" lon="11.147640073261252"><ele>529.8333333333334</ele><time>2026-04-25T12:10:58Z</time></trkpt><trkpt lat="45.58075741117861" lon="11.14768894945545"><ele>528.0</ele><time>2026-04-25T12:10:59Z</time></trkpt><trkpt lat="45.58068870310175" lon="11.147759804509453"><ele>528.0</ele><time>2026-04-25T12:11:00Z</time></trkpt><trkpt lat="45.5806342805269" lon="11.14784676322933"><ele>528.0</ele><time>2026-04-25T12:11:01Z</time></trkpt><trkpt lat="45.58058788421615" lon="11.147915771749808"><ele>528.0</ele><time>2026-04-25T12:11:02Z</time></trkpt><trkpt lat="45.58050975024572" lon="11.147930654264904"><ele>528.0</ele><time>2026-04-25T12:11:04Z</time></trkpt><trkpt lat="45.580405600912364" lon="11.147807287243412"><ele>528.0</ele><time>2026-04-25T12:11:06Z</time></trkpt><trkpt lat="45.58030264470529" lon="11.14770331404781"><ele>527.8</ele><time>2026-04-25T12:11:07Z</time></trkpt><trkpt lat="45.5802035947492" lon="11.147615213271253"><ele>527.5999999999999</ele><time>2026-04-25T12:11:08Z</time></trkpt><trkpt lat="45.58013344075024" lon="11.147542330895059"><ele>527.4000000000001</ele><time>2026-04-25T12:11:09Z</time></trkpt><trkpt lat="45.58007511590676" lon="11.147419852704333"><ele>527.2</ele><time>2026-04-25T12:11:10Z</time></trkpt><trkpt lat="45.58000603865235" lon="11.147331804018958"><ele>527.0</ele><time>2026-04-25T12:11:11Z</time></trkpt><trkpt lat="45.579932829132844" lon="11.147256893370221"><ele>527.0</ele><time>2026-04-25T12:11:12Z</time></trkpt><trkpt lat="45.57985256043694" lon="11.147207453031793"><ele>527.0</ele><time>2026-04-25T12:11:13Z</time></trkpt><trkpt lat="45.57978641111533" lon="11.147156799630045"><ele>527.0</ele><time>2026-04-25T12:11:14Z</time></trkpt><trkpt lat="45.57970784921353" lon="11.147118181297285"><ele>527.0</ele><time>2026-04-25T12:11:15Z</time></trkpt><trkpt lat="45.5796076199497" lon="11.147085413545609"><ele>527.0</ele><time>2026-04-25T12:11:16Z</time></trkpt><trkpt lat="45.57949582599157" lon="11.147028788149399"><ele>527.4</ele><time>2026-04-25T12:11:17Z</time></trkpt><trkpt lat="45.579394655069294" lon="11.147017730777337"><ele>527.8000000000001</ele><time>2026-04-25T12:11:18Z</time></trkpt><trkpt lat="45.57931272665538" lon="11.147013058933982"><ele>528.2</ele><time>2026-04-25T12:11:19Z</time></trkpt><trkpt lat="45.5792250936713" lon="11.147031669359878"><ele>528.6</ele><time>2026-04-25T12:11:20Z</time></trkpt><trkpt lat="45.57911976351345" lon="11.147075587189423"><ele>529.0</ele><time>2026-04-25T12:11:21Z</time></trkpt><trkpt lat="45.57899148686484" lon="11.147130219470247"><ele>529.0</ele><time>2026-04-25T12:11:22Z</time></trkpt><trkpt lat="45.578898534900055" lon="11.147153949290212"><ele>529.0</ele><time>2026-04-25T12:11:23Z</time></trkpt><trkpt lat="45.57882672343303" lon="11.147167206285545"><ele>529.0</ele><time>2026-04-25T12:11:24Z</time></trkpt><trkpt lat="45.578549466769125" lon="11.14739289302749"><ele>526.8</ele><time>2026-04-25T12:11:26Z</time></trkpt><trkpt lat="45.57846307042355" lon="11.147490032971405"><ele>524.5999999999999</ele><time>2026-04-25T12:11:27Z</time></trkpt><trkpt lat="45.5783856154192" lon="11.147599765425948"><ele>522.4</ele><time>2026-04-25T12:11:28Z</time></trkpt><trkpt lat="45.57832250355659" lon="11.147705356801408"><ele>520.1999999999999</ele><time>2026-04-25T12:11:29Z</time></trkpt><trkpt lat="45.57826310578182" lon="11.147815346622439"><ele>518.0</ele><time>2026-04-25T12:11:30Z</time></trkpt><trkpt lat="45.57820594702687" lon="11.14789115248985"><ele>518.0</ele><time>2026-04-25T12:11:31Z</time></trkpt><trkpt lat="45.57813582977805" lon="11.147925374154996"><ele>518.0</ele><time>2026-04-25T12:11:32Z</time></trkpt><trkpt lat="45.57805565278838" lon="11.147877764564791"><ele>518.0</ele><time>2026-04-25T12:11:33Z</time></trkpt><trkpt lat="45.577951057007446" lon="11.147889092357692"><ele>518.0</ele><time>2026-04-25T12:11:34Z</time></trkpt><trkpt lat="45.57783625944112" lon="11.147915998332305"><ele>518.0</ele><time>2026-04-25T12:11:35Z</time></trkpt><trkpt lat="45.577709139688444" lon="11.1479516317983"><ele>518.0</ele><time>2026-04-25T12:11:36Z</time></trkpt><trkpt lat="45.57756674928041" lon="11.147995751967144"><ele>518.0</ele><time>2026-04-25T12:11:37Z</time></trkpt><trkpt lat="45.57743241717663" lon="11.14803740014644"><ele>518.0</ele><time>2026-04-25T12:11:38Z</time></trkpt><trkpt lat="45.577315123307656" lon="11.148067531583123"><ele>518.0</ele><time>2026-04-25T12:11:39Z</time></trkpt><trkpt lat="45.577200247810865" lon="11.148084488509536"><ele>518.0</ele><time>2026-04-25T12:11:40Z</time></trkpt><trkpt lat="45.577108669773445" lon="11.148071621882748"><ele>518.0</ele><time>2026-04-25T12:11:41Z</time></trkpt><trkpt lat="45.57702158362647" lon="11.148042168363302"><ele>518.0</ele><time>2026-04-25T12:11:42Z</time></trkpt><trkpt lat="45.57693023535163" lon="11.14800092315191"><ele>518.0</ele><time>2026-04-25T12:11:43Z</time></trkpt><trkpt lat="45.57682629489415" lon="11.147951424356453"><ele>518.0</ele><time>2026-04-25T12:11:44Z</time></trkpt><trkpt lat="45.576724447876025" lon="11.14790583822536"><ele>516.1999999999999</ele><time>2026-04-25T12:11:45Z</time></trkpt><trkpt lat="45.57661249749707" lon="11.14790635228246"><ele>514.4</ele><time>2026-04-25T12:11:46Z</time></trkpt><trkpt lat="45.576524195659374" lon="11.147879354097363"><ele>512.5999999999999</ele><time>2026-04-25T12:11:47Z</time></trkpt><trkpt lat="45.576415078335486" lon="11.147911143692081"><ele>510.79999999999995</ele><time>2026-04-25T12:11:48Z</time></trkpt><trkpt lat="45.576305766965696" lon="11.147951907004725"><ele>509.0</ele><time>2026-04-25T12:11:49Z</time></trkpt><trkpt lat="45.576168922860525" lon="11.147980914519428"><ele>508.79999999999995</ele><time>2026-04-25T12:11:50Z</time></trkpt><trkpt lat="45.57605969588966" lon="11.147997567077448"><ele>508.59999999999997</ele><time>2026-04-25T12:11:51Z</time></trkpt><trkpt lat="45.575949372313936" lon="11.148003669422025"><ele>508.4</ele><time>2026-04-25T12:11:52Z</time></trkpt><trkpt lat="45.57584397780489" lon="11.148039287780287"><ele>508.2</ele><time>2026-04-25T12:11:53Z</time></trkpt><trkpt lat="45.57573272838382" lon="11.148098117784105"><ele>508.0</ele><time>2026-04-25T12:11:54Z</time></trkpt><trkpt lat="45.57561640916968" lon="11.148163274487159"><ele>505.79999999999995</ele><time>2026-04-25T12:11:55Z</time></trkpt><trkpt lat="45.57552292558842" lon="11.148229645975194"><ele>503.59999999999997</ele><time>2026-04-25T12:11:56Z</time></trkpt><trkpt lat="45.57543382464028" lon="11.148280112529829"><ele>501.40000000000003</ele><time>2026-04-25T12:11:57Z</time></trkpt><trkpt lat="45.57534921768078" lon="11.148291584426806"><ele>499.20000000000005</ele><time>2026-04-25T12:11:58Z</time></trkpt><trkpt lat="45.575260568006094" lon="11.148278446785364"><ele>497.0</ele><time>2026-04-25T12:11:59Z</time></trkpt><trkpt lat="45.575153218683425" lon="11.14823257953055"><ele>497.0</ele><time>2026-04-25T12:12:00Z</time></trkpt><trkpt lat="45.57503070518589" lon="11.148184041252605"><ele>497.0</ele><time>2026-04-25T12:12:01Z</time></trkpt><trkpt lat="45.57490649607934" lon="11.148167928627744"><ele>497.0</ele><time>2026-04-25T12:12:02Z</time></trkpt><trkpt lat="45.57478926637298" lon="11.148194199352423"><ele>497.0</ele><time>2026-04-25T12:12:03Z</time></trkpt><trkpt lat="45.574678854939556" lon="11.148239989273993"><ele>497.0</ele><time>2026-04-25T12:12:04Z</time></trkpt><trkpt lat="45.57456041082478" lon="11.148291534742533"><ele>497.0</ele><time>2026-04-25T12:12:05Z</time></trkpt><trkpt lat="45.5744323491537" lon="11.148312333259327"><ele>497.0</ele><time>2026-04-25T12:12:06Z</time></trkpt><trkpt lat="45.574303230803224" lon="11.148361420953721"><ele>497.0</ele><time>2026-04-25T12:12:07Z</time></trkpt><trkpt lat="45.57420092318907" lon="11.148387030238036"><ele>497.49999999999994</ele><time>2026-04-25T12:12:08Z</time></trkpt><trkpt lat="45.57412767054384" lon="11.148392277378766"><ele>498.0</ele><time>2026-04-25T12:12:09Z</time></trkpt><trkpt lat="45.57405028180788" lon="11.148287721743447"><ele>498.5</ele><time>2026-04-25T12:12:11Z</time></trkpt><trkpt lat="45.57407760626828" lon="11.148192033340212"><ele>499.0</ele><time>2026-04-25T12:12:12Z</time></trkpt><trkpt lat="45.574090206826625" lon="11.148088644989482"><ele>499.49999999999994</ele><time>2026-04-25T12:12:13Z</time></trkpt><trkpt lat="45.57409772987753" lon="11.14794561990256"><ele>500.0</ele><time>2026-04-25T12:12:14Z</time></trkpt><trkpt lat="45.574092917758875" lon="11.147777238305943"><ele>500.25</ele><time>2026-04-25T12:12:15Z</time></trkpt><trkpt lat="45.57410017070132" lon="11.147590941848714"><ele>500.5</ele><time>2026-04-25T12:12:16Z</time></trkpt><trkpt lat="45.574102066186995" lon="11.147399585982239"><ele>500.75</ele><time>2026-04-25T12:12:17Z</time></trkpt><trkpt lat="45.57411313506588" lon="11.147199876327013"><ele>501.0</ele><time>2026-04-25T12:12:18Z</time></trkpt><trkpt lat="45.574113935739085" lon="11.146999006211246"><ele>500.25</ele><time>2026-04-25T12:12:19Z</time></trkpt><trkpt lat="45.57412290065654" lon="11.14678571884261"><ele>499.5</ele><time>2026-04-25T12:12:20Z</time></trkpt><trkpt lat="45.57412950174286" lon="11.146592013425634"><ele>498.75</ele><time>2026-04-25T12:12:21Z</time></trkpt><trkpt lat="45.57413405627397" lon="11.146431147937477"><ele>498.0</ele><time>2026-04-25T12:12:22Z</time></trkpt><trkpt lat="45.574136568204786" lon="11.146299901894967"><ele>500.2</ele><time>2026-04-25T12:12:23Z</time></trkpt><trkpt lat="45.57413828792438" lon="11.14620199645579"><ele>502.4</ele><time>2026-04-25T12:12:24Z</time></trkpt><trkpt lat="45.574100192070944" lon="11.146088687405973"><ele>504.59999999999997</ele><time>2026-04-25T12:12:26Z</time></trkpt><trkpt lat="45.57397594712369" lon="11.146064015648706"><ele>506.79999999999995</ele><time>2026-04-25T12:12:28Z</time></trkpt><trkpt lat="45.57388361189528" lon="11.146087650385242"><ele>509.0</ele><time>2026-04-25T12:12:29Z</time></trkpt><trkpt lat="45.57378469666119" lon="11.146082105540328"><ele>508.99999999999994</ele><time>2026-04-25T12:12:30Z</time></trkpt><trkpt lat="45.57371664994853" lon="11.145994015038148"><ele>509.0</ele><time>2026-04-25T12:12:31Z</time></trkpt><trkpt lat="45.573645891812895" lon="11.14589863352156"><ele>509.0</ele><time>2026-04-25T12:12:32Z</time></trkpt><trkpt lat="45.573602766167866" lon="11.145777777890974"><ele>509.0</ele><time>2026-04-25T12:12:33Z</time></trkpt><trkpt lat="45.573555171598954" lon="11.145707201087834"><ele>508.99999999999994</ele><time>2026-04-25T12:12:34Z</time></trkpt><trkpt lat="45.57349314920359" lon="11.14565461744219"><ele>509.0</ele><time>2026-04-25T12:12:35Z</time></trkpt><trkpt lat="45.57342417373326" lon="11.14559525289912"><ele>507.75</ele><time>2026-04-25T12:12:37Z</time></trkpt><trkpt lat="45.5732844989129" lon="11.145691261746823"><ele>506.5</ele><time>2026-04-25T12:12:39Z</time></trkpt><trkpt lat="45.573178448221974" lon="11.14577158843923"><ele>505.25</ele><time>2026-04-25T12:12:40Z</time></trkpt><trkpt lat="45.57306273656456" lon="11.14586341233415"><ele>504.0</ele><time>2026-04-25T12:12:41Z</time></trkpt><trkpt lat="45.57295020443897" lon="11.145936500693928"><ele>503.3333333333333</ele><time>2026-04-25T12:12:42Z</time></trkpt><trkpt lat="45.572850745176126" lon="11.146001949311216"><ele>502.66666666666663</ele><time>2026-04-25T12:12:43Z</time></trkpt><trkpt lat="45.57276516224878" lon="11.146062668233968"><ele>502.0</ele><time>2026-04-25T12:12:44Z</time></trkpt><trkpt lat="45.57268734065306" lon="11.146123809480784"><ele>501.3333333333333</ele><time>2026-04-25T12:12:45Z</time></trkpt><trkpt lat="45.57261122127371" lon="11.146176887249064"><ele>500.66666666666663</ele><time>2026-04-25T12:12:46Z</time></trkpt><trkpt lat="45.572545040662284" lon="11.146191871643392"><ele>500.0</ele><time>2026-04-25T12:12:47Z</time></trkpt><trkpt lat="45.57244784808295" lon="11.146074155024278"><ele>499.99999999999994</ele><time>2026-04-25T12:12:49Z</time></trkpt><trkpt lat="45.57246504528195" lon="11.145920141474564"><ele>500.0</ele><time>2026-04-25T12:12:50Z</time></trkpt><trkpt lat="45.57244000054808" lon="11.14579618144142"><ele>500.0</ele><time>2026-04-25T12:12:51Z</time></trkpt><trkpt lat="45.572409678269594" lon="11.145701134487693"><ele>500.0</ele><time>2026-04-25T12:12:52Z</time></trkpt><trkpt lat="45.57234433332276" lon="11.145643773079309"><ele>499.99999999999994</ele><time>2026-04-25T12:12:53Z</time></trkpt><trkpt lat="45.57225913476138" lon="11.145661148695893"><ele>500.0</ele><time>2026-04-25T12:12:54Z</time></trkpt><trkpt lat="45.57220252506403" lon="11.145724817829311"><ele>500.0</ele><time>2026-04-25T12:12:55Z</time></trkpt><trkpt lat="45.572156422105515" lon="11.145853627316187"><ele>500.0</ele><time>2026-04-25T12:12:56Z</time></trkpt><trkpt lat="45.57212127206642" lon="11.146007555767893"><ele>500.0</ele><time>2026-04-25T12:12:57Z</time></trkpt><trkpt lat="45.57206553985855" lon="11.146174708057332"><ele>500.0</ele><time>2026-04-25T12:12:58Z</time></trkpt><trkpt lat="45.57198162567662" lon="11.14630164669331"><ele>500.4</ele><time>2026-04-25T12:12:59Z</time></trkpt><trkpt lat="45.571920904890916" lon="11.146445664391399"><ele>500.8</ele><time>2026-04-25T12:13:00Z</time></trkpt><trkpt lat="45.57186102360615" lon="11.1465664077151"><ele>501.20000000000005</ele><time>2026-04-25T12:13:01Z</time></trkpt><trkpt lat="45.57182347585611" lon="11.146694198686037"><ele>501.6</ele><time>2026-04-25T12:13:02Z</time></trkpt><trkpt lat="45.57177447953799" lon="11.146823268129985"><ele>502.0</ele><time>2026-04-25T12:13:03Z</time></trkpt><trkpt lat="45.571712715908085" lon="11.146941281983226"><ele>502.0</ele><time>2026-04-25T12:13:04Z</time></trkpt><trkpt lat="45.57163425356948" lon="11.147022619607702"><ele>502.00000000000006</ele><time>2026-04-25T12:13:05Z</time></trkpt><trkpt lat="45.571531096232455" lon="11.147078383077833"><ele>502.00000000000006</ele><time>2026-04-25T12:13:06Z</time></trkpt><trkpt lat="45.57142277818855" lon="11.147139843653843"><ele>502.0</ele><time>2026-04-25T12:13:07Z</time></trkpt><trkpt lat="45.571325096735706" lon="11.147196014192946"><ele>502.0</ele><time>2026-04-25T12:13:08Z</time></trkpt><trkpt lat="45.57123623868414" lon="11.147246747503395"><ele>504.0</ele><time>2026-04-25T12:13:09Z</time></trkpt><trkpt lat="45.57116322388132" lon="11.147338851542443"><ele>506.0</ele><time>2026-04-25T12:13:10Z</time></trkpt><trkpt lat="45.57110803099713" lon="11.147471215657687"><ele>508.0</ele><time>2026-04-25T12:13:11Z</time></trkpt><trkpt lat="45.57107446346044" lon="11.147635017350703"><ele>510.0</ele><time>2026-04-25T12:13:12Z</time></trkpt><trkpt lat="45.57105288767423" lon="11.147817219374202"><ele>505.25</ele><time>2026-04-25T12:13:13Z</time></trkpt><trkpt lat="45.57103206938034" lon="11.147992785689208"><ele>500.5</ele><time>2026-04-25T12:13:14Z</time></trkpt><trkpt lat="45.57102917916663" lon="11.1481625020997"><ele>495.75</ele><time>2026-04-25T12:13:15Z</time></trkpt><trkpt lat="45.57100987956641" lon="11.148317962525155"><ele>491.0</ele><time>2026-04-25T12:13:16Z</time></trkpt><trkpt lat="45.57097617378537" lon="11.148449697030209"><ele>490.0</ele><time>2026-04-25T12:13:17Z</time></trkpt><trkpt lat="45.57093571849288" lon="11.148552538819015"><ele>489.0</ele><time>2026-04-25T12:13:18Z</time></trkpt><trkpt lat="45.570835336391355" lon="11.148586248725413"><ele>488.0</ele><time>2026-04-25T12:13:19Z</time></trkpt><trkpt lat="45.57071410252378" lon="11.148633865035109"><ele>487.0</ele><time>2026-04-25T12:13:20Z</time></trkpt><trkpt lat="45.57060692863101" lon="11.14865082165027"><ele>486.0</ele><time>2026-04-25T12:13:21Z</time></trkpt><trkpt lat="45.57048705120486" lon="11.148677305528867"><ele>486.25</ele><time>2026-04-25T12:13:22Z</time></trkpt><trkpt lat="45.57035047185899" lon="11.148685495252048"><ele>486.5</ele><time>2026-04-25T12:13:23Z</time></trkpt><trkpt lat="45.57020046146367" lon="11.148689687198388"><ele>486.75</ele><time>2026-04-25T12:13:24Z</time></trkpt><trkpt lat="45.57004559294891" lon="11.148714024312529"><ele>487.0</ele><time>2026-04-25T12:13:25Z</time></trkpt><trkpt lat="45.56989287472407" lon="11.148745681474065"><ele>487.0</ele><time>2026-04-25T12:13:26Z</time></trkpt><trkpt lat="45.56975893102946" lon="11.148776563148969"><ele>487.0</ele><time>2026-04-25T12:13:27Z</time></trkpt><trkpt lat="45.569628249710654" lon="11.148808476352464"><ele>487.0</ele><time>2026-04-25T12:13:28Z</time></trkpt><trkpt lat="45.56949178494636" lon="11.148821530747673"><ele>487.0</ele><time>2026-04-25T12:13:29Z</time></trkpt><trkpt lat="45.569363586298266" lon="11.14879538853185"><ele>486.25</ele><time>2026-04-25T12:13:30Z</time></trkpt><trkpt lat="45.5692360949042" lon="11.148757173795083"><ele>485.5</ele><time>2026-04-25T12:13:31Z</time></trkpt><trkpt lat="45.56911616995278" lon="11.148693631906255"><ele>484.75</ele><time>2026-04-25T12:13:32Z</time></trkpt><trkpt lat="45.56898436171397" lon="11.148641772570366"><ele>484.0</ele><time>2026-04-25T12:13:33Z</time></trkpt><trkpt lat="45.568847103777884" lon="11.148603611405207"><ele>484.0</ele><time>2026-04-25T12:13:34Z</time></trkpt><trkpt lat="45.56871409731507" lon="11.14858121706315"><ele>484.0</ele><time>2026-04-25T12:13:35Z</time></trkpt><trkpt lat="45.56858334452746" lon="11.148575163060757"><ele>484.0</ele><time>2026-04-25T12:13:36Z</time></trkpt><trkpt lat="45.5684577642375" lon="11.148567221377508"><ele>484.0</ele><time>2026-04-25T12:13:37Z</time></trkpt><trkpt lat="45.568329444799026" lon="11.148569691485447"><ele>483.25</ele><time>2026-04-25T12:13:38Z</time></trkpt><trkpt lat="45.56820414507804" lon="11.148594565217268"><ele>482.5</ele><time>2026-04-25T12:13:39Z</time></trkpt><trkpt lat="45.568080483321936" lon="11.148657018809658"><ele>481.75</ele><time>2026-04-25T12:13:40Z</time></trkpt><trkpt lat="45.567958327111846" lon="11.148742965942796"><ele>481.0</ele><time>2026-04-25T12:13:41Z</time></trkpt><trkpt lat="45.567827966382524" lon="11.148827150597205"><ele>480.25</ele><time>2026-04-25T12:13:42Z</time></trkpt><trkpt lat="45.567699836285726" lon="11.148898148608769"><ele>479.5</ele><time>2026-04-25T12:13:43Z</time></trkpt><trkpt lat="45.56757075253813" lon="11.148952368292782"><ele>478.75</ele><time>2026-04-25T12:13:44Z</time></trkpt><trkpt lat="45.56744088125274" lon="11.148991540323426"><ele>478.0</ele><time>2026-04-25T12:13:45Z</time></trkpt><trkpt lat="45.56732052179675" lon="11.149030559510077"><ele>476.25</ele><time>2026-04-25T12:13:46Z</time></trkpt><trkpt lat="45.56720241444173" lon="11.149076507332095"><ele>474.5</ele><time>2026-04-25T12:13:47Z</time></trkpt><trkpt lat="45.56709279514731" lon="11.14912383014799"><ele>472.75</ele><time>2026-04-25T12:13:48Z</time></trkpt><trkpt lat="45.5669898379822" lon="11.14918349814971"><ele>471.0</ele><time>2026-04-25T12:13:49Z</time></trkpt><trkpt lat="45.56688965971672" lon="11.149258041050969"><ele>471.0</ele><time>2026-04-25T12:13:50Z</time></trkpt><trkpt lat="45.56678978619047" lon="11.149355486664726"><ele>471.0</ele><time>2026-04-25T12:13:51Z</time></trkpt><trkpt lat="45.56669901564206" lon="11.149477288266377"><ele>471.0</ele><time>2026-04-25T12:13:52Z</time></trkpt><trkpt lat="45.56660797333828" lon="11.149594714472332"><ele>471.0</ele><time>2026-04-25T12:13:53Z</time></trkpt><trkpt lat="45.56651223024967" lon="11.149703158110178"><ele>471.0</ele><time>2026-04-25T12:13:54Z</time></trkpt><trkpt lat="45.566416878798215" lon="11.149810655117737"><ele>471.0</ele><time>2026-04-25T12:13:55Z</time></trkpt><trkpt lat="45.56630240377674" lon="11.149903528891622"><ele>471.0</ele><time>2026-04-25T12:13:56Z</time></trkpt><trkpt lat="45.56618963396219" lon="11.14998569784836"><ele>471.0</ele><time>2026-04-25T12:13:57Z</time></trkpt><trkpt lat="45.56607759959077" lon="11.150075238996855"><ele>469.6</ele><time>2026-04-25T12:13:58Z</time></trkpt><trkpt lat="45.56598447330394" lon="11.150168904422292"><ele>468.20000000000005</ele><time>2026-04-25T12:13:59Z</time></trkpt><trkpt lat="45.56590079502807" lon="11.150263491526259"><ele>466.79999999999995</ele><time>2026-04-25T12:14:00Z</time></trkpt><trkpt lat="45.565818265828256" lon="11.150354821636522"><ele>465.4</ele><time>2026-04-25T12:14:01Z</time></trkpt><trkpt lat="45.56575661345958" lon="11.150447626004297"><ele>464.0</ele><time>2026-04-25T12:14:02Z</time></trkpt><trkpt lat="45.56571591305771" lon="11.150569054425093"><ele>462.25</ele><time>2026-04-25T12:14:03Z</time></trkpt><trkpt lat="45.56568733157472" lon="11.15071512159576"><ele>460.5</ele><time>2026-04-25T12:14:04Z</time></trkpt><trkpt lat="45.56566586867786" lon="11.150876487708368"><ele>458.75</ele><time>2026-04-25T12:14:05Z</time></trkpt><trkpt lat="45.565651298912975" lon="11.151044982904049"><ele>457.0</ele><time>2026-04-25T12:14:06Z</time></trkpt><trkpt lat="45.56563980247823" lon="11.15122410349636"><ele>457.0</ele><time>2026-04-25T12:14:07Z</time></trkpt><trkpt lat="45.56564224627783" lon="11.15140271655085"><ele>457.0</ele><time>2026-04-25T12:14:08Z</time></trkpt><trkpt lat="45.565667088234996" lon="11.151575249576595"><ele>457.0</ele><time>2026-04-25T12:14:09Z</time></trkpt><trkpt lat="45.565708570090585" lon="11.151737511512524"><ele>457.0</ele><time>2026-04-25T12:14:10Z</time></trkpt><trkpt lat="45.56576151131695" lon="11.151869787126776"><ele>455.8</ele><time>2026-04-25T12:14:11Z</time></trkpt><trkpt lat="45.56581290532459" lon="11.151970591933967"><ele>454.6</ele><time>2026-04-25T12:14:12Z</time></trkpt><trkpt lat="45.565845630166265" lon="11.152114465864255"><ele>453.40000000000003</ele><time>2026-04-25T12:14:14Z</time></trkpt><trkpt lat="45.565753116551676" lon="11.152185046578252"><ele>452.20000000000005</ele><time>2026-04-25T12:14:16Z</time></trkpt><trkpt lat="45.565644228082526" lon="11.152176887091732"><ele>451.0</ele><time>2026-04-25T12:14:17Z</time></trkpt><trkpt lat="45.565491058285474" lon="11.152183281874482"><ele>450.33333333333337</ele><time>2026-04-25T12:14:18Z</time></trkpt><trkpt lat="45.56531311642546" lon="11.152182043043112"><ele>449.66666666666663</ele><time>2026-04-25T12:14:19Z</time></trkpt><trkpt lat="45.56511245013999" lon="11.15217339456381"><ele>449.0</ele><time>2026-04-25T12:14:20Z</time></trkpt><trkpt lat="45.56492617876897" lon="11.152170958873999"><ele>449.0</ele><time>2026-04-25T12:14:21Z</time></trkpt><trkpt lat="45.56474109855784" lon="11.152163509161506"><ele>449.0</ele><time>2026-04-25T12:14:22Z</time></trkpt><trkpt lat="45.564562399068436" lon="11.152156078988385"><ele>449.0</ele><time>2026-04-25T12:14:23Z</time></trkpt><trkpt lat="45.56437881321394" lon="11.152153424991958"><ele>448.3333333333333</ele><time>2026-04-25T12:14:24Z</time></trkpt><trkpt lat="45.56419420650111" lon="11.152148694582875"><ele>447.66666666666663</ele><time>2026-04-25T12:14:25Z</time></trkpt><trkpt lat="45.56400906937562" lon="11.152143421226286"><ele>447.0</ele><time>2026-04-25T12:14:26Z</time></trkpt><trkpt lat="45.56382093892162" lon="11.152114563011096"><ele>448.0</ele><time>2026-04-25T12:14:27Z</time></trkpt><trkpt lat="45.56363468304165" lon="11.152108441849641"><ele>449.0</ele><time>2026-04-25T12:14:28Z</time></trkpt><trkpt lat="45.56344884295857" lon="11.1521255888604"><ele>450.0</ele><time>2026-04-25T12:14:29Z</time></trkpt><trkpt lat="45.563263726887776" lon="11.15211386966472"><ele>450.0</ele><time>2026-04-25T12:14:30Z</time></trkpt><trkpt lat="45.56307523067303" lon="11.15210872391523"><ele>450.0</ele><time>2026-04-25T12:14:31Z</time></trkpt><trkpt lat="45.56288494120928" lon="11.152101224429027"><ele>450.0</ele><time>2026-04-25T12:14:32Z</time></trkpt><trkpt lat="45.56269472318809" lon="11.152095261192477"><ele>448.66666666666663</ele><time>2026-04-25T12:14:33Z</time></trkpt><trkpt lat="45.5625020142515" lon="11.15208489930307"><ele>447.3333333333333</ele><time>2026-04-25T12:14:34Z</time></trkpt><trkpt lat="45.562309107761195" lon="11.152076680970328"><ele>446.0</ele><time>2026-04-25T12:14:35Z</time></trkpt><trkpt lat="45.562116806380956" lon="11.152069832620246"><ele>445.3333333333333</ele><time>2026-04-25T12:14:36Z</time></trkpt><trkpt lat="45.56194017840177" lon="11.152056711473499"><ele>444.66666666666663</ele><time>2026-04-25T12:14:37Z</time></trkpt><trkpt lat="45.56177103164796" lon="11.15205149233674"><ele>444.0</ele><time>2026-04-25T12:14:38Z</time></trkpt><trkpt lat="45.56161393006628" lon="11.1520468538663"><ele>444.0</ele><time>2026-04-25T12:14:39Z</time></trkpt><trkpt lat="45.56145414222219" lon="11.152046405285216"><ele>444.0</ele><time>2026-04-25T12:14:40Z</time></trkpt><trkpt lat="45.561297253647275" lon="11.152039029506257"><ele>444.0</ele><time>2026-04-25T12:14:41Z</time></trkpt><trkpt lat="45.56114553897337" lon="11.152030139452387"><ele>445.0</ele><time>2026-04-25T12:14:42Z</time></trkpt><trkpt lat="45.56099401023814" lon="11.152026033998137"><ele>446.0</ele><time>2026-04-25T12:14:43Z</time></trkpt><trkpt lat="45.560832598634065" lon="11.15202546162487"><ele>447.0</ele><time>2026-04-25T12:14:44Z</time></trkpt><trkpt lat="45.56066572765945" lon="11.1520219685242"><ele>447.0</ele><time>2026-04-25T12:14:45Z</time></trkpt><trkpt lat="45.56049330208933" lon="11.152014065865744"><ele>447.0</ele><time>2026-04-25T12:14:46Z</time></trkpt><trkpt lat="45.560324758705306" lon="11.152004922827192"><ele>447.0</ele><time>2026-04-25T12:14:47Z</time></trkpt><trkpt lat="45.56016493865232" lon="11.151996060397913"><ele>446.33333333333337</ele><time>2026-04-25T12:14:48Z</time></trkpt><trkpt lat="45.560005818827385" lon="11.15199411298889"><ele>445.6666666666667</ele><time>2026-04-25T12:14:49Z</time></trkpt><trkpt lat="45.559840467578844" lon="11.151995936366966"><ele>445.0</ele><time>2026-04-25T12:14:50Z</time></trkpt><trkpt lat="45.55971018906506" lon="11.151989178111233"><ele>445.0</ele><time>2026-04-25T12:14:51Z</time></trkpt><trkpt lat="45.559595981523636" lon="11.151961491096788"><ele>445.0</ele><time>2026-04-25T12:14:52Z</time></trkpt><trkpt lat="45.55950084263258" lon="11.151953488987662"><ele>445.0</ele><time>2026-04-25T12:14:53Z</time></trkpt><trkpt lat="45.55942031733776" lon="11.151984284022628"><ele>445.0</ele><time>2026-04-25T12:14:54Z</time></trkpt><trkpt lat="45.559204746157604" lon="11.151919843529837"><ele>444.75</ele><time>2026-04-25T12:14:55Z</time></trkpt><trkpt lat="45.55908677548395" lon="11.151761933921017"><ele>444.5</ele><time>2026-04-25T12:14:56Z</time></trkpt><trkpt lat="45.5590153522613" lon="11.151626157490444"><ele>444.25</ele><time>2026-04-25T12:14:57Z</time></trkpt><trkpt lat="45.55893083692542" lon="11.151469075476735"><ele>444.0</ele><time>2026-04-25T12:14:58Z</time></trkpt><trkpt lat="45.55884193866707" lon="11.151303779536072"><ele>444.4</ele><time>2026-04-25T12:14:59Z</time></trkpt><trkpt lat="45.558751754220644" lon="11.151128140389535"><ele>444.79999999999995</ele><time>2026-04-25T12:15:00Z</time></trkpt><trkpt lat="45.55867562966813" lon="11.150986618115109"><ele>445.20000000000005</ele><time>2026-04-25T12:15:01Z</time></trkpt><trkpt lat="45.558612687487475" lon="11.150879903381165"><ele>445.6</ele><time>2026-04-25T12:15:02Z</time></trkpt><trkpt lat="45.5585627135505" lon="11.150803686335294"><ele>446.0</ele><time>2026-04-25T12:15:03Z</time></trkpt><trkpt lat="45.558466394481236" lon="11.15067588406951"><ele>446.0</ele><time>2026-04-25T12:15:05Z</time></trkpt><trkpt lat="45.558319552481905" lon="11.150877765700459"><ele>446.0</ele><time>2026-04-25T12:15:06Z</time></trkpt><trkpt lat="45.5582171102522" lon="11.1509092510486"><ele>446.0</ele><time>2026-04-25T12:15:07Z</time></trkpt><trkpt lat="45.558118132382944" lon="11.150979793199259"><ele>446.0</ele><time>2026-04-25T12:15:08Z</time></trkpt><trkpt lat="45.558001028831164" lon="11.15103809857587"><ele>446.0</ele><time>2026-04-25T12:15:09Z</time></trkpt><trkpt lat="45.557871409357325" lon="11.151088227799873"><ele>446.0</ele><time>2026-04-25T12:15:10Z</time></trkpt><trkpt lat="45.557733673411555" lon="11.151128117868133"><ele>446.0</ele><time>2026-04-25T12:15:11Z</time></trkpt><trkpt lat="45.55760629957833" lon="11.15114260927781"><ele>446.0</ele><time>2026-04-25T12:15:12Z</time></trkpt><trkpt lat="45.557471908586464" lon="11.151156001598002"><ele>445.5</ele><time>2026-04-25T12:15:13Z</time></trkpt><trkpt lat="45.557341089077156" lon="11.151173133967829"><ele>445.0</ele><time>2026-04-25T12:15:14Z</time></trkpt><trkpt lat="45.557202760401616" lon="11.151177355478382"><ele>444.5</ele><time>2026-04-25T12:15:15Z</time></trkpt><trkpt lat="45.55707959042334" lon="11.151195957204639"><ele>444.0</ele><time>2026-04-25T12:15:16Z</time></trkpt><trkpt lat="45.55696285838226" lon="11.151185743772238"><ele>443.0</ele><time>2026-04-25T12:15:17Z</time></trkpt><trkpt lat="45.55684485028877" lon="11.15118367481035"><ele>442.0</ele><time>2026-04-25T12:15:18Z</time></trkpt><trkpt lat="45.556730758105616" lon="11.15116027874194"><ele>441.0</ele><time>2026-04-25T12:15:19Z</time></trkpt><trkpt lat="45.55664821118778" lon="11.151133895530299"><ele>440.0</ele><time>2026-04-25T12:15:20Z</time></trkpt><trkpt lat="45.55657055830551" lon="11.151106356305501"><ele>439.0</ele><time>2026-04-25T12:15:21Z</time></trkpt><trkpt lat="45.556478347394986" lon="11.151087398680275"><ele>439.0</ele><time>2026-04-25T12:15:22Z</time></trkpt><trkpt lat="45.556374762794825" lon="11.151052762529423"><ele>439.0</ele><time>2026-04-25T12:15:23Z</time></trkpt><trkpt lat="45.556274607961235" lon="11.151013061009536"><ele>439.0</ele><time>2026-04-25T12:15:24Z</time></trkpt><trkpt lat="45.556159454377855" lon="11.150981793570153"><ele>439.0</ele><time>2026-04-25T12:15:25Z</time></trkpt><trkpt lat="45.55603519266294" lon="11.15095712182343"><ele>438.0</ele><time>2026-04-25T12:15:26Z</time></trkpt><trkpt lat="45.555904751672955" lon="11.150923524013093"><ele>437.0</ele><time>2026-04-25T12:15:27Z</time></trkpt><trkpt lat="45.55577927325203" lon="11.150887460741814"><ele>436.0</ele><time>2026-04-25T12:15:28Z</time></trkpt><trkpt lat="45.555654470536844" lon="11.150845373485675"><ele>435.0</ele><time>2026-04-25T12:15:29Z</time></trkpt><trkpt lat="45.55552846635711" lon="11.150812807940023"><ele>435.0</ele><time>2026-04-25T12:15:30Z</time></trkpt><trkpt lat="45.55540940051624" lon="11.1507867519004"><ele>435.0</ele><time>2026-04-25T12:15:31Z</time></trkpt><trkpt lat="45.55529788944545" lon="11.15077774711325"><ele>435.0</ele><time>2026-04-25T12:15:32Z</time></trkpt><trkpt lat="45.55518340343412" lon="11.150788306864024"><ele>435.0</ele><time>2026-04-25T12:15:33Z</time></trkpt><trkpt lat="45.55504481024898" lon="11.150812282033618"><ele>433.33333333333337</ele><time>2026-04-25T12:15:34Z</time></trkpt><trkpt lat="45.55489326729437" lon="11.15084957418555"><ele>431.6666666666667</ele><time>2026-04-25T12:15:35Z</time></trkpt><trkpt lat="45.55474488851528" lon="11.150888681955447"><ele>430.0</ele><time>2026-04-25T12:15:36Z</time></trkpt><trkpt lat="45.554597219639554" lon="11.150928972323848"><ele>430.0</ele><time>2026-04-25T12:15:37Z</time></trkpt><trkpt lat="45.55446395233186" lon="11.150979575593103"><ele>430.0</ele><time>2026-04-25T12:15:38Z</time></trkpt><trkpt lat="45.5543354885651" lon="11.151035091551165"><ele>430.0</ele><time>2026-04-25T12:15:39Z</time></trkpt><trkpt lat="45.55421775836095" lon="11.151080692056073"><ele>430.0</ele><time>2026-04-25T12:15:40Z</time></trkpt><trkpt lat="45.554104134040415" lon="11.151108813974949"><ele>430.0</ele><time>2026-04-25T12:15:41Z</time></trkpt><trkpt lat="45.553995585092515" lon="11.151122243427977"><ele>430.0</ele><time>2026-04-25T12:15:42Z</time></trkpt><trkpt lat="45.55388383158076" lon="11.151113995120935"><ele>430.0</ele><time>2026-04-25T12:15:43Z</time></trkpt><trkpt lat="45.55376879275948" lon="11.15108623921664"><ele>430.0</ele><time>2026-04-25T12:15:44Z</time></trkpt><trkpt lat="45.553653959284325" lon="11.151056409852215"><ele>429.50000000000006</ele><time>2026-04-25T12:15:45Z</time></trkpt><trkpt lat="45.55356282185342" lon="11.151032739059161"><ele>429.0</ele><time>2026-04-25T12:15:46Z</time></trkpt><trkpt lat="45.55347572775509" lon="11.151015853370563"><ele>428.5</ele><time>2026-04-25T12:15:47Z</time></trkpt><trkpt lat="45.55340657531606" lon="11.15101415016068"><ele>428.0</ele><time>2026-04-25T12:15:48Z</time></trkpt><trkpt lat="45.55333538620432" lon="11.15103919393744"><ele>427.50000000000006</ele><time>2026-04-25T12:15:49Z</time></trkpt><trkpt lat="45.55325737566665" lon="11.151097661508853"><ele>427.0</ele><time>2026-04-25T12:15:50Z</time></trkpt><trkpt lat="45.55317287596335" lon="11.15117360202517"><ele>427.0</ele><time>2026-04-25T12:15:51Z</time></trkpt><trkpt lat="45.55309207046763" lon="11.151273757166356"><ele>427.0</ele><time>2026-04-25T12:15:52Z</time></trkpt><trkpt lat="45.553010465616495" lon="11.151396905926266"><ele>427.0</ele><time>2026-04-25T12:15:53Z</time></trkpt><trkpt lat="45.55292008271013" lon="11.151495503354786"><ele>427.0</ele><time>2026-04-25T12:15:54Z</time></trkpt><trkpt lat="45.552816706747315" lon="11.151564333631022"><ele>425.6</ele><time>2026-04-25T12:15:55Z</time></trkpt><trkpt lat="45.55271922778996" lon="11.15161930494365"><ele>424.20000000000005</ele><time>2026-04-25T12:15:56Z</time></trkpt><trkpt lat="45.55261285868657" lon="11.151665402049034"><ele>422.8</ele><time>2026-04-25T12:15:57Z</time></trkpt><trkpt lat="45.552513547953936" lon="11.151692295415035"><ele>421.4</ele><time>2026-04-25T12:15:58Z</time></trkpt><trkpt lat="45.55240721880727" lon="11.151699933827347"><ele>420.0</ele><time>2026-04-25T12:15:59Z</time></trkpt><trkpt lat="45.552283658417785" lon="11.151705835211798"><ele>420.0</ele><time>2026-04-25T12:16:00Z</time></trkpt><trkpt lat="45.552164735987894" lon="11.151724879727754"><ele>420.0</ele><time>2026-04-25T12:16:01Z</time></trkpt><trkpt lat="45.55206713048968" lon="11.151746372759446"><ele>420.0</ele><time>2026-04-25T12:16:02Z</time></trkpt><trkpt lat="45.55199738918974" lon="11.151775240799841"><ele>420.0</ele><time>2026-04-25T12:16:03Z</time></trkpt><trkpt lat="45.551891296089565" lon="11.151838646357302"><ele>420.0</ele><time>2026-04-25T12:16:05Z</time></trkpt><trkpt lat="45.551799639457215" lon="11.1518857479568"><ele>419.5</ele><time>2026-04-25T12:16:07Z</time></trkpt><trkpt lat="45.55171448010376" lon="11.151924480627061"><ele>419.0</ele><time>2026-04-25T12:16:09Z</time></trkpt><trkpt lat="45.55163214320857" lon="11.151944497217055"><ele>418.5</ele><time>2026-04-25T12:16:11Z</time></trkpt><trkpt lat="45.55153070950012" lon="11.151948561554057"><ele>418.0</ele><time>2026-04-25T12:16:13Z</time></trkpt><trkpt lat="45.551451133293675" lon="11.15193631559272"><ele>417.5</ele><time>2026-04-25T12:16:14Z</time></trkpt><trkpt lat="45.55135884277846" lon="11.151905572625926"><ele>417.0</ele><time>2026-04-25T12:16:15Z</time></trkpt><trkpt lat="45.55125862944487" lon="11.151845692737215"><ele>416.25</ele><time>2026-04-25T12:16:16Z</time></trkpt><trkpt lat="45.551164232699044" lon="11.151785737271146"><ele>415.5</ele><time>2026-04-25T12:16:17Z</time></trkpt><trkpt lat="45.55107239585785" lon="11.151694227085509"><ele>414.75</ele><time>2026-04-25T12:16:18Z</time></trkpt><trkpt lat="45.55096669272014" lon="11.151624138052641"><ele>414.0</ele><time>2026-04-25T12:16:19Z</time></trkpt><trkpt lat="45.550853920733935" lon="11.151573569034703"><ele>414.0</ele><time>2026-04-25T12:16:20Z</time></trkpt><trkpt lat="45.55074279266645" lon="11.151530590999874"><ele>414.0</ele><time>2026-04-25T12:16:21Z</time></trkpt><trkpt lat="45.55064612567027" lon="11.151493156871279"><ele>414.0</ele><time>2026-04-25T12:16:22Z</time></trkpt><trkpt lat="45.550571626527486" lon="11.151461678853464"><ele>414.0</ele><time>2026-04-25T12:16:23Z</time></trkpt><trkpt lat="45.550478384267" lon="11.15146304641199"><ele>414.0</ele><time>2026-04-25T12:16:25Z</time></trkpt><trkpt lat="45.55040342417928" lon="11.151541350359693"><ele>413.3333333333333</ele><time>2026-04-25T12:16:27Z</time></trkpt><trkpt lat="45.55036038084854" lon="11.15160962094158"><ele>412.66666666666663</ele><time>2026-04-25T12:16:28Z</time></trkpt><trkpt lat="45.55030243507176" lon="11.151701551788511"><ele>412.0</ele><time>2026-04-25T12:16:29Z</time></trkpt><trkpt lat="45.55022734019545" lon="11.151800220202619"><ele>411.3333333333333</ele><time>2026-04-25T12:16:30Z</time></trkpt><trkpt lat="45.5501698729134" lon="11.151893122962491"><ele>410.66666666666663</ele><time>2026-04-25T12:16:31Z</time></trkpt><trkpt lat="45.55010753517195" lon="11.151998267470594"><ele>410.0</ele><time>2026-04-25T12:16:32Z</time></trkpt><trkpt lat="45.55004415390641" lon="11.1521118416598"><ele>410.0</ele><time>2026-04-25T12:16:33Z</time></trkpt><trkpt lat="45.54999067748553" lon="11.152212580173957"><ele>410.0</ele><time>2026-04-25T12:16:34Z</time></trkpt><trkpt lat="45.54994390185299" lon="11.152293346338858"><ele>410.0</ele><time>2026-04-25T12:16:35Z</time></trkpt><trkpt lat="45.54988159348791" lon="11.152408766450264"><ele>410.0</ele><time>2026-04-25T12:16:37Z</time></trkpt><trkpt lat="45.54982702012837" lon="11.152555808025706"><ele>410.0</ele><time>2026-04-25T12:16:39Z</time></trkpt><trkpt lat="45.54980529759107" lon="11.152686619806465"><ele>409.2857142857143</ele><time>2026-04-25T12:16:41Z</time></trkpt><trkpt lat="45.549791974968606" lon="11.15277612497099"><ele>408.57142857142856</ele><time>2026-04-25T12:16:42Z</time></trkpt><trkpt lat="45.5497823284159" lon="11.152869934104311"><ele>407.85714285714283</ele><time>2026-04-25T12:16:43Z</time></trkpt><trkpt lat="45.54975954087285" lon="11.152964737109727"><ele>407.1428571428571</ele><time>2026-04-25T12:16:44Z</time></trkpt><trkpt lat="45.549728876085325" lon="11.153050438716866"><ele>406.42857142857144</ele><time>2026-04-25T12:16:45Z</time></trkpt><trkpt lat="45.54969638094392" lon="11.153141680240049"><ele>405.71428571428567</ele><time>2026-04-25T12:16:46Z</time></trkpt><trkpt lat="45.54965836393984" lon="11.153243533515043"><ele>405.0</ele><time>2026-04-25T12:16:47Z</time></trkpt><trkpt lat="45.5496258490977" lon="11.15334025477029"><ele>404.8333333333333</ele><time>2026-04-25T12:16:48Z</time></trkpt><trkpt lat="45.54959090765545" lon="11.153444762508284"><ele>404.66666666666663</ele><time>2026-04-25T12:16:49Z</time></trkpt><trkpt lat="45.549553187760026" lon="11.153538610169019"><ele>404.5</ele><time>2026-04-25T12:16:50Z</time></trkpt><trkpt lat="45.5495082495676" lon="11.153613289353506"><ele>404.3333333333333</ele><time>2026-04-25T12:16:51Z</time></trkpt><trkpt lat="45.54941551716757" lon="11.153712948509696"><ele>404.16666666666663</ele><time>2026-04-25T12:16:53Z</time></trkpt><trkpt lat="45.5493564169072" lon="11.153785685331473"><ele>404.0</ele><time>2026-04-25T12:16:54Z</time></trkpt><trkpt lat="45.54924444791143" lon="11.15384119939013"><ele>403.75</ele><time>2026-04-25T12:16:56Z</time></trkpt><trkpt lat="45.54912834493386" lon="11.153850521589211"><ele>403.5</ele><time>2026-04-25T12:16:58Z</time></trkpt><trkpt lat="45.54901371167896" lon="11.153811943302498"><ele>403.25</ele><time>2026-04-25T12:17:00Z</time></trkpt><trkpt lat="45.54888407693277" lon="11.153786334721202"><ele>403.0</ele><time>2026-04-25T12:17:02Z</time></trkpt><trkpt lat="45.548789993587164" lon="11.153770329166187"><ele>402.59999999999997</ele><time>2026-04-25T12:17:03Z</time></trkpt><trkpt lat="45.54868998938355" lon="11.153754999873186"><ele>402.2</ele><time>2026-04-25T12:17:04Z</time></trkpt><trkpt lat="45.54858658970944" lon="11.153735624110272"><ele>401.8</ele><time>2026-04-25T12:17:05Z</time></trkpt><trkpt lat="45.54848867316893" lon="11.15370641758694"><ele>401.4</ele><time>2026-04-25T12:17:06Z</time></trkpt><trkpt lat="45.54838843471288" lon="11.153675083785059"><ele>401.0</ele><time>2026-04-25T12:17:07Z</time></trkpt><trkpt lat="45.548275074927105" lon="11.15364775222601"><ele>401.0</ele><time>2026-04-25T12:17:08Z</time></trkpt><trkpt lat="45.548159554757575" lon="11.15362334436149"><ele>401.0</ele><time>2026-04-25T12:17:09Z</time></trkpt><trkpt lat="45.54803897581706" lon="11.153592309946285"><ele>401.0</ele><time>2026-04-25T12:17:10Z</time></trkpt><trkpt lat="45.54792087727418" lon="11.153559498736493"><ele>401.0</ele><time>2026-04-25T12:17:11Z</time></trkpt><trkpt lat="45.547799140363345" lon="11.153522873454751"><ele>400.75</ele><time>2026-04-25T12:17:12Z</time></trkpt><trkpt lat="45.547667379159385" lon="11.15349734269341"><ele>400.5</ele><time>2026-04-25T12:17:13Z</time></trkpt><trkpt lat="45.54753006728766" lon="11.153476646977694"><ele>400.25</ele><time>2026-04-25T12:17:14Z</time></trkpt><trkpt lat="45.54740154349352" lon="11.153434703698112"><ele>400.0</ele><time>2026-04-25T12:17:15Z</time></trkpt><trkpt lat="45.54727577789397" lon="11.153400336520633"><ele>400.00000000000006</ele><time>2026-04-25T12:17:16Z</time></trkpt><trkpt lat="45.5471693934081" lon="11.153368456677002"><ele>400.0</ele><time>2026-04-25T12:17:17Z</time></trkpt><trkpt lat="45.54708267783355" lon="11.153333550040472"><ele>400.0</ele><time>2026-04-25T12:17:18Z</time></trkpt><trkpt lat="45.54700721406311" lon="11.153292935344798"><ele>400.0</ele><time>2026-04-25T12:17:19Z</time></trkpt><trkpt lat="45.54693145359309" lon="11.153247090679743"><ele>400.00000000000006</ele><time>2026-04-25T12:17:20Z</time></trkpt><trkpt lat="45.54686852902708" lon="11.153178518866323"><ele>400.0</ele><time>2026-04-25T12:17:21Z</time></trkpt><trkpt lat="45.54679889155652" lon="11.153072511870688"><ele>400.00000000000006</ele><time>2026-04-25T12:17:22Z</time></trkpt><trkpt lat="45.546726565133824" lon="11.152967331705538"><ele>400.0</ele><time>2026-04-25T12:17:23Z</time></trkpt><trkpt lat="45.54665133071661" lon="11.152876198389015"><ele>400.0</ele><time>2026-04-25T12:17:24Z</time></trkpt><trkpt lat="45.546584776133805" lon="11.152800972436287"><ele>400.0</ele><time>2026-04-25T12:17:25Z</time></trkpt><trkpt lat="45.546548717574716" lon="11.152725937958191"><ele>400.00000000000006</ele><time>2026-04-25T12:17:26Z</time></trkpt><trkpt lat="45.54649221430868" lon="11.152629381964093"><ele>400.0</ele><time>2026-04-25T12:17:31Z</time></trkpt><trkpt lat="45.54626510635068" lon="11.152707411336513"><ele>399.6666666666667</ele><time>2026-04-25T12:17:34Z</time></trkpt><trkpt lat="45.5461953012293" lon="11.152691027456019"><ele>399.33333333333337</ele><time>2026-04-25T12:17:36Z</time></trkpt><trkpt lat="45.54612835241457" lon="11.152724494999298"><ele>399.0</ele><time>2026-04-25T12:17:38Z</time></trkpt><trkpt lat="45.54601195363078" lon="11.152764506718384"><ele>398.66666666666663</ele><time>2026-04-25T12:17:40Z</time></trkpt><trkpt lat="45.54590578147399" lon="11.152769923861234"><ele>398.3333333333333</ele><time>2026-04-25T12:17:42Z</time></trkpt><trkpt lat="45.545827938907195" lon="11.15279237693517"><ele>398.0</ele><time>2026-04-25T12:17:44Z</time></trkpt><trkpt lat="45.545759192584796" lon="11.15280554823111"><ele>398.0</ele><time>2026-04-25T12:17:46Z</time></trkpt><trkpt lat="45.545647584572244" lon="11.152779135414434"><ele>398.0</ele><time>2026-04-25T12:17:48Z</time></trkpt><trkpt lat="45.54552193944229" lon="11.152811005702794"><ele>398.0</ele><time>2026-04-25T12:17:50Z</time></trkpt><trkpt lat="45.54539302863441" lon="11.152824926312922"><ele>398.0</ele><time>2026-04-25T12:17:52Z</time></trkpt><trkpt lat="45.54527104285249" lon="11.152784114536772"><ele>397.3333333333333</ele><time>2026-04-25T12:17:54Z</time></trkpt><trkpt lat="45.54520725060851" lon="11.152765655659644"><ele>396.66666666666663</ele><time>2026-04-25T12:17:55Z</time></trkpt><trkpt lat="45.545131921520245" lon="11.152769337536764"><ele>396.0</ele><time>2026-04-25T12:17:56Z</time></trkpt><trkpt lat="45.54505154980846" lon="11.152773349477382"><ele>395.33333333333337</ele><time>2026-04-25T12:17:57Z</time></trkpt><trkpt lat="45.54497496171209" lon="11.152776586427994"><ele>394.6666666666667</ele><time>2026-04-25T12:17:58Z</time></trkpt><trkpt lat="45.54490905799388" lon="11.152802307026208"><ele>394.0</ele><time>2026-04-25T12:17:59Z</time></trkpt><trkpt lat="45.54480329910728" lon="11.152808256321203"><ele>394.00000000000006</ele><time>2026-04-25T12:18:01Z</time></trkpt><trkpt lat="45.54471607348047" lon="11.152777764651923"><ele>394.0</ele><time>2026-04-25T12:18:04Z</time></trkpt><trkpt lat="45.544649554639165" lon="11.152753860393721"><ele>394.0</ele><time>2026-04-25T12:18:08Z</time></trkpt><trkpt lat="45.54456785390162" lon="11.152797778659599"><ele>394.0</ele><time>2026-04-25T12:18:10Z</time></trkpt><trkpt lat="45.54450297016908" lon="11.152814414220037"><ele>394.00000000000006</ele><time>2026-04-25T12:18:11Z</time></trkpt><trkpt lat="45.544443203495106" lon="11.152848438481145"><ele>394.0</ele><time>2026-04-25T12:18:12Z</time></trkpt><trkpt lat="45.54429782480781" lon="11.152918599853136"><ele>393.5</ele><time>2026-04-25T12:18:14Z</time></trkpt><trkpt lat="45.54408853375009" lon="11.152990855421807"><ele>393.0</ele><time>2026-04-25T12:18:15Z</time></trkpt><trkpt lat="45.5439966048112" lon="11.153014412717432"><ele>392.5</ele><time>2026-04-25T12:18:16Z</time></trkpt><trkpt lat="45.54391644151132" lon="11.153022981978305"><ele>392.0</ele><time>2026-04-25T12:18:17Z</time></trkpt><trkpt lat="45.543838105092426" lon="11.153023773634448"><ele>391.99999999999994</ele><time>2026-04-25T12:18:18Z</time></trkpt><trkpt lat="45.54375801522949" lon="11.153025266581912"><ele>392.0</ele><time>2026-04-25T12:18:19Z</time></trkpt><trkpt lat="45.54368161529054" lon="11.153042252848321"><ele>392.0</ele><time>2026-04-25T12:18:20Z</time></trkpt><trkpt lat="45.543607073149786" lon="11.153077032136416"><ele>392.0</ele><time>2026-04-25T12:18:22Z</time></trkpt><trkpt lat="45.54354442749736" lon="11.153162244864308"><ele>391.99999999999994</ele><time>2026-04-25T12:18:25Z</time></trkpt><trkpt lat="45.5435291953395" lon="11.15328828320445"><ele>392.0</ele><time>2026-04-25T12:18:27Z</time></trkpt><trkpt lat="45.54348536687167" lon="11.153381069507342"><ele>391.49999999999994</ele><time>2026-04-25T12:18:30Z</time></trkpt><trkpt lat="45.54339268891122" lon="11.15340793294758"><ele>391.0</ele><time>2026-04-25T12:18:33Z</time></trkpt><trkpt lat="45.54332963111627" lon="11.153439489265827"><ele>390.5</ele><time>2026-04-25T12:18:35Z</time></trkpt><trkpt lat="45.543238543942195" lon="11.153451619253666"><ele>390.0</ele><time>2026-04-25T12:18:38Z</time></trkpt><trkpt lat="45.54313695541605" lon="11.153422275065425"><ele>389.49999999999994</ele><time>2026-04-25T12:18:40Z</time></trkpt><trkpt lat="45.543071631067114" lon="11.153411240112568"><ele>389.0</ele><time>2026-04-25T12:18:41Z</time></trkpt><trkpt lat="45.543001527356815" lon="11.153422855874522"><ele>388.2</ele><time>2026-04-25T12:18:42Z</time></trkpt><trkpt lat="45.54287839774367" lon="11.153462958012822"><ele>387.4</ele><time>2026-04-25T12:18:44Z</time></trkpt><trkpt lat="45.54278925415778" lon="11.153477872564556"><ele>386.6</ele><time>2026-04-25T12:18:46Z</time></trkpt><trkpt lat="45.542714908013515" lon="11.153486708291052"><ele>385.8</ele><time>2026-04-25T12:18:47Z</time></trkpt><trkpt lat="45.5426090622057" lon="11.153564006490935"><ele>385.0</ele><time>2026-04-25T12:18:49Z</time></trkpt><trkpt lat="45.542543457709705" lon="11.153606942226187"><ele>385.00000000000006</ele><time>2026-04-25T12:18:50Z</time></trkpt><trkpt lat="45.542470326618314" lon="11.153675548344827"><ele>385.0</ele><time>2026-04-25T12:18:51Z</time></trkpt><trkpt lat="45.542407207062794" lon="11.153699559672622"><ele>385.0</ele><time>2026-04-25T12:18:52Z</time></trkpt><trkpt lat="45.54228341282112" lon="11.15371508590786"><ele>385.0</ele><time>2026-04-25T12:18:54Z</time></trkpt><trkpt lat="45.54221766860884" lon="11.153713553149752"><ele>385.00000000000006</ele><time>2026-04-25T12:18:55Z</time></trkpt><trkpt lat="45.54215409232859" lon="11.153710784462085"><ele>385.0</ele><time>2026-04-25T12:18:56Z</time></trkpt><trkpt lat="45.54208276635103" lon="11.153692781900707"><ele>384.6666666666667</ele><time>2026-04-25T12:18:57Z</time></trkpt><trkpt lat="45.54200594782778" lon="11.153674534138888"><ele>384.33333333333337</ele><time>2026-04-25T12:18:58Z</time></trkpt><trkpt lat="45.54192086950245" lon="11.15365818154493"><ele>384.0</ele><time>2026-04-25T12:18:59Z</time></trkpt><trkpt lat="45.54184022662492" lon="11.153645428057636"><ele>383.6666666666667</ele><time>2026-04-25T12:19:00Z</time></trkpt><trkpt lat="45.541754281695134" lon="11.153625377378157"><ele>383.33333333333337</ele><time>2026-04-25T12:19:01Z</time></trkpt><trkpt lat="45.54167518998187" lon="11.153616042076367"><ele>383.0</ele><time>2026-04-25T12:19:02Z</time></trkpt><trkpt lat="45.54159852718597" lon="11.153604678413778"><ele>383.0</ele><time>2026-04-25T12:19:03Z</time></trkpt><trkpt lat="45.54152256973343" lon="11.153597439778743"><ele>383.0</ele><time>2026-04-25T12:19:04Z</time></trkpt><trkpt lat="45.54143923747631" lon="11.153589138667346"><ele>383.0</ele><time>2026-04-25T12:19:05Z</time></trkpt><trkpt lat="45.54136210985165" lon="11.15358610400052"><ele>383.0</ele><time>2026-04-25T12:19:06Z</time></trkpt><trkpt lat="45.54127700054545" lon="11.153594114106468"><ele>383.0</ele><time>2026-04-25T12:19:07Z</time></trkpt><trkpt lat="45.541197860597116" lon="11.153588801885002"><ele>383.0</ele><time>2026-04-25T12:19:08Z</time></trkpt><trkpt lat="45.54109834418609" lon="11.153566219770251"><ele>382.6666666666667</ele><time>2026-04-25T12:19:09Z</time></trkpt><trkpt lat="45.54099872482702" lon="11.153561728402682"><ele>382.33333333333337</ele><time>2026-04-25T12:19:10Z</time></trkpt><trkpt lat="45.54091536611618" lon="11.153559517544087"><ele>382.0</ele><time>2026-04-25T12:19:11Z</time></trkpt><trkpt lat="45.54084017418631" lon="11.153566479021126"><ele>381.6666666666667</ele><time>2026-04-25T12:19:12Z</time></trkpt><trkpt lat="45.5407735216428" lon="11.153571182920995"><ele>381.3333333333333</ele><time>2026-04-25T12:19:13Z</time></trkpt><trkpt lat="45.540700598589495" lon="11.153572953334551"><ele>381.0</ele><time>2026-04-25T12:19:14Z</time></trkpt><trkpt lat="45.54062069253848" lon="11.15357255963557"><ele>381.0</ele><time>2026-04-25T12:19:16Z</time></trkpt><trkpt lat="45.5405652718783" lon="11.153618002102625"><ele>381.0</ele><time>2026-04-25T12:19:29Z</time></trkpt><trkpt lat="45.54047752674616" lon="11.153658002827854"><ele>381.0</ele><time>2026-04-25T12:19:31Z</time></trkpt><trkpt lat="45.54039266200827" lon="11.153688712899088"><ele>381.0</ele><time>2026-04-25T12:19:33Z</time></trkpt><trkpt lat="45.540318930175715" lon="11.153713414038823"><ele>381.0</ele><time>2026-04-25T12:19:35Z</time></trkpt><trkpt lat="45.54023037711801" lon="11.153723876273352"><ele>381.0</ele><time>2026-04-25T12:19:37Z</time></trkpt><trkpt lat="45.54014101861209" lon="11.153740061623894"><ele>380.5</ele><time>2026-04-25T12:19:39Z</time></trkpt><trkpt lat="45.54005365251414" lon="11.153764753876125"><ele>380.0</ele><time>2026-04-25T12:19:41Z</time></trkpt><trkpt lat="45.53997787767959" lon="11.1537753827145"><ele>379.5</ele><time>2026-04-25T12:19:43Z</time></trkpt><trkpt lat="45.53990124244972" lon="11.153786212160506"><ele>379.0</ele><time>2026-04-25T12:19:45Z</time></trkpt><trkpt lat="45.539833229355956" lon="11.153771094614507"><ele>378.5</ele><time>2026-04-25T12:19:47Z</time></trkpt><trkpt lat="45.53975032379141" lon="11.153767769994776"><ele>378.0</ele><time>2026-04-25T12:19:49Z</time></trkpt><trkpt lat="45.539632446608536" lon="11.153752218282337"><ele>378.0</ele><time>2026-04-25T12:19:51Z</time></trkpt><trkpt lat="45.53956842371958" lon="11.153748149750923"><ele>378.0</ele><time>2026-04-25T12:19:52Z</time></trkpt><trkpt lat="45.53950242878062" lon="11.153750218349163"><ele>378.0</ele><time>2026-04-25T12:19:53Z</time></trkpt><trkpt lat="45.539386175064934" lon="11.15380801278481"><ele>378.0</ele><time>2026-04-25T12:19:55Z</time></trkpt><trkpt lat="45.53932406962907" lon="11.153853527076862"><ele>378.0</ele><time>2026-04-25T12:19:56Z</time></trkpt><trkpt lat="45.539266925584556" lon="11.153894221426107"><ele>378.0</ele><time>2026-04-25T12:19:57Z</time></trkpt><trkpt lat="45.53919393085965" lon="11.153935691869457"><ele>378.2857142857143</ele><time>2026-04-25T12:19:58Z</time></trkpt><trkpt lat="45.539116160196734" lon="11.153983709681636"><ele>378.57142857142856</ele><time>2026-04-25T12:19:59Z</time></trkpt><trkpt lat="45.53904573347692" lon="11.154021927364854"><ele>378.8571428571429</ele><time>2026-04-25T12:20:00Z</time></trkpt><trkpt lat="45.53897995089386" lon="11.154046329116184"><ele>379.1428571428571</ele><time>2026-04-25T12:20:01Z</time></trkpt><trkpt lat="45.538924409136435" lon="11.154090152503493"><ele>379.42857142857144</ele><time>2026-04-25T12:20:02Z</time></trkpt><trkpt lat="45.538852425499215" lon="11.154134734794306"><ele>379.7142857142857</ele><time>2026-04-25T12:20:04Z</time></trkpt><trkpt lat="45.53877720831885" lon="11.15414228088359"><ele>380.0</ele><time>2026-04-25T12:20:06Z</time></trkpt><trkpt lat="45.53868502455034" lon="11.154137065864129"><ele>379.42857142857144</ele><time>2026-04-25T12:20:08Z</time></trkpt><trkpt lat="45.53862239150593" lon="11.15412129089935"><ele>378.8571428571429</ele><time>2026-04-25T12:20:09Z</time></trkpt><trkpt lat="45.53855482966365" lon="11.154110561229636"><ele>378.2857142857143</ele><time>2026-04-25T12:20:10Z</time></trkpt><trkpt lat="45.53847252823566" lon="11.154123547167433"><ele>377.7142857142857</ele><time>2026-04-25T12:20:11Z</time></trkpt><trkpt lat="45.53839877058522" lon="11.154113768927559"><ele>377.1428571428571</ele><time>2026-04-25T12:20:12Z</time></trkpt><trkpt lat="45.53831999286074" lon="11.154110474835797"><ele>376.57142857142856</ele><time>2026-04-25T12:20:13Z</time></trkpt><trkpt lat="45.53824662283473" lon="11.154126546895595"><ele>376.0</ele><time>2026-04-25T12:20:14Z</time></trkpt><trkpt lat="45.5381398935205" lon="11.154156304962976"><ele>376.0</ele><time>2026-04-25T12:20:16Z</time></trkpt><trkpt lat="45.538020420808245" lon="11.154151059920945"><ele>376.0</ele><time>2026-04-25T12:20:18Z</time></trkpt><trkpt lat="45.53793668070269" lon="11.154132528735195"><ele>376.0</ele><time>2026-04-25T12:20:20Z</time></trkpt><trkpt lat="45.53787345602218" lon="11.153953780626018"><ele>376.0</ele><time>2026-04-25T12:20:22Z</time></trkpt><trkpt lat="45.53781063515279" lon="11.153856888014518"><ele>376.0</ele><time>2026-04-25T12:20:23Z</time></trkpt><trkpt lat="45.53777632242443" lon="11.153704721772902"><ele>375.5</ele><time>2026-04-25T12:20:24Z</time></trkpt><trkpt lat="45.53770101410892" lon="11.153564863983378"><ele>375.0</ele><time>2026-04-25T12:20:25Z</time></trkpt><trkpt lat="45.53764007208652" lon="11.153408156381946"><ele>374.5</ele><time>2026-04-25T12:20:26Z</time></trkpt><trkpt lat="45.53758683224306" lon="11.153281284157554"><ele>374.0</ele><time>2026-04-25T12:20:27Z</time></trkpt><trkpt lat="45.5375292199803" lon="11.153149074983327"><ele>375.0</ele><time>2026-04-25T12:20:28Z</time></trkpt><trkpt lat="45.53742687806045" lon="11.153045336537698"><ele>376.0</ele><time>2026-04-25T12:20:29Z</time></trkpt><trkpt lat="45.537341213048535" lon="11.15296664282552"><ele>377.0</ele><time>2026-04-25T12:20:30Z</time></trkpt><trkpt lat="45.53727626724875" lon="11.15286287818208"><ele>378.0</ele><time>2026-04-25T12:20:31Z</time></trkpt><trkpt lat="45.53721119636828" lon="11.152761485844518"><ele>379.0</ele><time>2026-04-25T12:20:32Z</time></trkpt><trkpt lat="45.537132863884835" lon="11.15267227430823"><ele>379.0</ele><time>2026-04-25T12:20:33Z</time></trkpt><trkpt lat="45.53708350687318" lon="11.15256670989767"><ele>379.0</ele><time>2026-04-25T12:20:34Z</time></trkpt><trkpt lat="45.53701838734945" lon="11.152438217112303"><ele>379.0</ele><time>2026-04-25T12:20:35Z</time></trkpt><trkpt lat="45.53696916605137" lon="11.152326888089236"><ele>379.0</ele><time>2026-04-25T12:20:36Z</time></trkpt><trkpt lat="45.536914193758726" lon="11.152206615313014"><ele>379.0</ele><time>2026-04-25T12:20:37Z</time></trkpt><trkpt lat="45.53684317131329" lon="11.152091691291082"><ele>380.2</ele><time>2026-04-25T12:20:38Z</time></trkpt><trkpt lat="45.53679586177126" lon="11.151953734468373"><ele>381.4</ele><time>2026-04-25T12:20:39Z</time></trkpt><trkpt lat="45.53672807085116" lon="11.151850790854548"><ele>382.6</ele><time>2026-04-25T12:20:40Z</time></trkpt><trkpt lat="45.53669021032368" lon="11.15172828673257"><ele>383.8</ele><time>2026-04-25T12:20:41Z</time></trkpt><trkpt lat="45.53664259207889" lon="11.151608716793813"><ele>385.0</ele><time>2026-04-25T12:20:42Z</time></trkpt><trkpt lat="45.536599864422534" lon="11.15148265595702"><ele>387.8</ele><time>2026-04-25T12:20:43Z</time></trkpt><trkpt lat="45.53656002964359" lon="11.151355314678918"><ele>390.6</ele><time>2026-04-25T12:20:44Z</time></trkpt><trkpt lat="45.5365194995688" lon="11.151227911165346"><ele>393.4</ele><time>2026-04-25T12:20:45Z</time></trkpt><trkpt lat="45.536461273872696" lon="11.15111646474781"><ele>396.2</ele><time>2026-04-25T12:20:46Z</time></trkpt><trkpt lat="45.53637484462838" lon="11.151016210059723"><ele>399.0</ele><time>2026-04-25T12:20:47Z</time></trkpt><trkpt lat="45.536257416651715" lon="11.150970488184283"><ele>394.75</ele><time>2026-04-25T12:20:48Z</time></trkpt><trkpt lat="45.53613306744975" lon="11.150940347586841"><ele>390.5</ele><time>2026-04-25T12:20:49Z</time></trkpt><trkpt lat="45.5359903573979" lon="11.150931005663235"><ele>386.25</ele><time>2026-04-25T12:20:50Z</time></trkpt><trkpt lat="45.53584546234523" lon="11.150937746524505"><ele>382.0</ele><time>2026-04-25T12:20:51Z</time></trkpt><trkpt lat="45.53569730059902" lon="11.150953723013705"><ele>382.0</ele><time>2026-04-25T12:20:52Z</time></trkpt><trkpt lat="45.535547099298086" lon="11.150979896044465"><ele>382.0</ele><time>2026-04-25T12:20:53Z</time></trkpt><trkpt lat="45.53539715846295" lon="11.151012472670319"><ele>382.0</ele><time>2026-04-25T12:20:54Z</time></trkpt><trkpt lat="45.53524686868666" lon="11.151007670079341"><ele>382.0</ele><time>2026-04-25T12:20:55Z</time></trkpt><trkpt lat="45.535105909692774" lon="11.151045166850134"><ele>382.0</ele><time>2026-04-25T12:20:56Z</time></trkpt><trkpt lat="45.53496701569274" lon="11.151054107997114"><ele>382.0</ele><time>2026-04-25T12:20:57Z</time></trkpt><trkpt lat="45.53483244211067" lon="11.151030346661166"><ele>382.0</ele><time>2026-04-25T12:20:58Z</time></trkpt><trkpt lat="45.53471020781461" lon="11.15103652480843"><ele>382.0</ele><time>2026-04-25T12:20:59Z</time></trkpt><trkpt lat="45.5345926699238" lon="11.151077486323928"><ele>382.0</ele><time>2026-04-25T12:21:00Z</time></trkpt><trkpt lat="45.534482765768935" lon="11.151079280963083"><ele>382.0</ele><time>2026-04-25T12:21:01Z</time></trkpt><trkpt lat="45.534363054418705" lon="11.151095756854753"><ele>382.0</ele><time>2026-04-25T12:21:02Z</time></trkpt><trkpt lat="45.534250380394916" lon="11.151111550862305"><ele>381.5</ele><time>2026-04-25T12:21:03Z</time></trkpt><trkpt lat="45.534146684630805" lon="11.151109913526094"><ele>381.0</ele><time>2026-04-25T12:21:04Z</time></trkpt><trkpt lat="45.53404236827786" lon="11.151093709083717"><ele>380.5</ele><time>2026-04-25T12:21:05Z</time></trkpt><trkpt lat="45.5339240175562" lon="11.151057402426064"><ele>380.0</ele><time>2026-04-25T12:21:06Z</time></trkpt><trkpt lat="45.53380385179902" lon="11.151013431511323"><ele>380.25</ele><time>2026-04-25T12:21:07Z</time></trkpt><trkpt lat="45.5336812797206" lon="11.150963900254176"><ele>380.5</ele><time>2026-04-25T12:21:08Z</time></trkpt><trkpt lat="45.533577135733395" lon="11.150904666690261"><ele>380.75</ele><time>2026-04-25T12:21:09Z</time></trkpt><trkpt lat="45.53347635470938" lon="11.150857876400003"><ele>381.0</ele><time>2026-04-25T12:21:10Z</time></trkpt><trkpt lat="45.53337138533069" lon="11.150834222407985"><ele>381.0</ele><time>2026-04-25T12:21:11Z</time></trkpt><trkpt lat="45.53325438061745" lon="11.150849017734163"><ele>381.0</ele><time>2026-04-25T12:21:12Z</time></trkpt><trkpt lat="45.53313306804462" lon="11.150871232286173"><ele>381.0</ele><time>2026-04-25T12:21:13Z</time></trkpt><trkpt lat="45.53302268062962" lon="11.150903934007157"><ele>381.0</ele><time>2026-04-25T12:21:14Z</time></trkpt><trkpt lat="45.53290496643892" lon="11.150922277606929"><ele>383.0</ele><time>2026-04-25T12:21:15Z</time></trkpt><trkpt lat="45.532780741227434" lon="11.150959114510327"><ele>385.0</ele><time>2026-04-25T12:21:16Z</time></trkpt><trkpt lat="45.532655295896554" lon="11.151003215306293"><ele>387.0</ele><time>2026-04-25T12:21:17Z</time></trkpt><trkpt lat="45.532526264568794" lon="11.151043994031987"><ele>389.0</ele><time>2026-04-25T12:21:18Z</time></trkpt><trkpt lat="45.53238568336266" lon="11.151088974875805"><ele>389.0</ele><time>2026-04-25T12:21:19Z</time></trkpt><trkpt lat="45.53224240977367" lon="11.151131959653844"><ele>389.0</ele><time>2026-04-25T12:21:20Z</time></trkpt><trkpt lat="45.532092961097206" lon="11.15117726020447"><ele>389.0</ele><time>2026-04-25T12:21:21Z</time></trkpt><trkpt lat="45.53194222734017" lon="11.151225530808542"><ele>388.66666666666663</ele><time>2026-04-25T12:21:22Z</time></trkpt><trkpt lat="45.53177136071526" lon="11.151276796282046"><ele>388.33333333333337</ele><time>2026-04-25T12:21:23Z</time></trkpt><trkpt lat="45.53160403385731" lon="11.151327742147364"><ele>388.0</ele><time>2026-04-25T12:21:24Z</time></trkpt><trkpt lat="45.53143786760777" lon="11.151378412702359"><ele>388.0</ele><time>2026-04-25T12:21:25Z</time></trkpt><trkpt lat="45.53127363253591" lon="11.151427708530253"><ele>388.0</ele><time>2026-04-25T12:21:26Z</time></trkpt><trkpt lat="45.53111019315692" lon="11.151481441104568"><ele>388.0</ele><time>2026-04-25T12:21:27Z</time></trkpt><trkpt lat="45.530948904649634" lon="11.151532005188582"><ele>381.0</ele><time>2026-04-25T12:21:28Z</time></trkpt><trkpt lat="45.53078665033069" lon="11.151570852872588"><ele>374.0</ele><time>2026-04-25T12:21:29Z</time></trkpt><trkpt lat="45.53062133499414" lon="11.151599015497542"><ele>367.0</ele><time>2026-04-25T12:21:30Z</time></trkpt><trkpt lat="45.530446787870154" lon="11.151608997126795"><ele>365.3333333333333</ele><time>2026-04-25T12:21:31Z</time></trkpt><trkpt lat="45.530273931884764" lon="11.151613444289856"><ele>363.6666666666667</ele><time>2026-04-25T12:21:32Z</time></trkpt><trkpt lat="45.530094346072374" lon="11.151632539760964"><ele>362.0</ele><time>2026-04-25T12:21:33Z</time></trkpt><trkpt lat="45.5299120821016" lon="11.1516682161571"><ele>362.0</ele><time>2026-04-25T12:21:34Z</time></trkpt><trkpt lat="45.52972641609727" lon="11.151713050192678"><ele>362.0</ele><time>2026-04-25T12:21:35Z</time></trkpt><trkpt lat="45.52954337901298" lon="11.151757169967"><ele>362.0</ele><time>2026-04-25T12:21:36Z</time></trkpt><trkpt lat="45.529356853648636" lon="11.151805713758444"><ele>362.0</ele><time>2026-04-25T12:21:37Z</time></trkpt><trkpt lat="45.5291822944396" lon="11.151845741989264"><ele>362.0</ele><time>2026-04-25T12:21:38Z</time></trkpt><trkpt lat="45.52901847762425" lon="11.151878319819875"><ele>362.0</ele><time>2026-04-25T12:21:39Z</time></trkpt><trkpt lat="45.52886825249053" lon="11.151894745151541"><ele>362.0</ele><time>2026-04-25T12:21:40Z</time></trkpt><trkpt lat="45.52873332790037" lon="11.151918875648672"><ele>362.0</ele><time>2026-04-25T12:21:41Z</time></trkpt><trkpt lat="45.52861166276441" lon="11.151955339936135"><ele>362.0</ele><time>2026-04-25T12:21:42Z</time></trkpt><trkpt lat="45.52846321419351" lon="11.15200549508855"><ele>362.0</ele><time>2026-04-25T12:21:43Z</time></trkpt><trkpt lat="45.52832244762745" lon="11.152063796620151"><ele>361.75</ele><time>2026-04-25T12:21:44Z</time></trkpt><trkpt lat="45.528168373229555" lon="11.152132087702784"><ele>361.5</ele><time>2026-04-25T12:21:45Z</time></trkpt><trkpt lat="45.528043756737034" lon="11.152187656505449"><ele>361.25</ele><time>2026-04-25T12:21:46Z</time></trkpt><trkpt lat="45.527902846558064" lon="11.152274481220978"><ele>361.0</ele><time>2026-04-25T12:21:47Z</time></trkpt><trkpt lat="45.52776396722745" lon="11.152363304199886"><ele>359.0</ele><time>2026-04-25T12:21:48Z</time></trkpt><trkpt lat="45.52762711947966" lon="11.152452640222032"><ele>357.0</ele><time>2026-04-25T12:21:49Z</time></trkpt><trkpt lat="45.52747099740142" lon="11.152566703425574"><ele>355.0</ele><time>2026-04-25T12:21:50Z</time></trkpt><trkpt lat="45.52729283845066" lon="11.152686116330196"><ele>355.0</ele><time>2026-04-25T12:21:51Z</time></trkpt><trkpt lat="45.52714071171324" lon="11.152806741485355"><ele>355.0</ele><time>2026-04-25T12:21:52Z</time></trkpt><trkpt lat="45.527004382383815" lon="11.152921252648252"><ele>355.0</ele><time>2026-04-25T12:21:53Z</time></trkpt><trkpt lat="45.52687319104261" lon="11.153028725520823"><ele>354.75</ele><time>2026-04-25T12:21:54Z</time></trkpt><trkpt lat="45.52674450212472" lon="11.15312169744925"><ele>354.5</ele><time>2026-04-25T12:21:55Z</time></trkpt><trkpt lat="45.52660367046829" lon="11.15319575358887"><ele>354.25</ele><time>2026-04-25T12:21:56Z</time></trkpt><trkpt lat="45.52646394914624" lon="11.153233116490863"><ele>354.0</ele><time>2026-04-25T12:21:57Z</time></trkpt><trkpt lat="45.52634727443268" lon="11.153269112686187"><ele>353.75</ele><time>2026-04-25T12:21:58Z</time></trkpt><trkpt lat="45.52625013913589" lon="11.153316874357728"><ele>353.5</ele><time>2026-04-25T12:21:59Z</time></trkpt><trkpt lat="45.52613470276826" lon="11.153357198151642"><ele>353.25</ele><time>2026-04-25T12:22:00Z</time></trkpt><trkpt lat="45.526009706001304" lon="11.153372250947553"><ele>353.0</ele><time>2026-04-25T12:22:01Z</time></trkpt><trkpt lat="45.52590533291911" lon="11.15338087038731"><ele>352.0</ele><time>2026-04-25T12:22:02Z</time></trkpt><trkpt lat="45.52576302379986" lon="11.153432812992865"><ele>351.0</ele><time>2026-04-25T12:22:03Z</time></trkpt><trkpt lat="45.52561919307306" lon="11.15346455830862"><ele>350.0</ele><time>2026-04-25T12:22:04Z</time></trkpt><trkpt lat="45.525461760025756" lon="11.153491176857143"><ele>349.33333333333337</ele><time>2026-04-25T12:22:05Z</time></trkpt><trkpt lat="45.52530410803689" lon="11.153526500277804"><ele>348.6666666666667</ele><time>2026-04-25T12:22:06Z</time></trkpt><trkpt lat="45.525132636843686" lon="11.153565264433336"><ele>348.0</ele><time>2026-04-25T12:22:07Z</time></trkpt><trkpt lat="45.52494663598666" lon="11.153605976762686"><ele>348.0</ele><time>2026-04-25T12:22:08Z</time></trkpt><trkpt lat="45.52476647050805" lon="11.153629877151609"><ele>348.0</ele><time>2026-04-25T12:22:09Z</time></trkpt><trkpt lat="45.5246124710059" lon="11.153666644405188"><ele>348.0</ele><time>2026-04-25T12:22:10Z</time></trkpt><trkpt lat="45.52446756345449" lon="11.153697810824498"><ele>347.25</ele><time>2026-04-25T12:22:11Z</time></trkpt><trkpt lat="45.52433430616473" lon="11.153754037720212"><ele>346.5</ele><time>2026-04-25T12:22:12Z</time></trkpt><trkpt lat="45.524185624322584" lon="11.15379441023021"><ele>345.75</ele><time>2026-04-25T12:22:13Z</time></trkpt><trkpt lat="45.52403627220604" lon="11.153841824270271"><ele>345.0</ele><time>2026-04-25T12:22:14Z</time></trkpt><trkpt lat="45.52391638290456" lon="11.15388969702302"><ele>345.0</ele><time>2026-04-25T12:22:15Z</time></trkpt><trkpt lat="45.52378132976134" lon="11.153936314723484"><ele>345.0</ele><time>2026-04-25T12:22:16Z</time></trkpt><trkpt lat="45.52365938098433" lon="11.15396344658423"><ele>345.0</ele><time>2026-04-25T12:22:17Z</time></trkpt><trkpt lat="45.52353353723241" lon="11.15397151493443"><ele>345.0</ele><time>2026-04-25T12:22:18Z</time></trkpt><trkpt lat="45.52339934604373" lon="11.154000896218474"><ele>344.6666666666667</ele><time>2026-04-25T12:22:19Z</time></trkpt><trkpt lat="45.5233110127317" lon="11.15406184387986"><ele>344.3333333333333</ele><time>2026-04-25T12:22:20Z</time></trkpt><trkpt lat="45.5232308156915" lon="11.154129366040126"><ele>344.0</ele><time>2026-04-25T12:22:21Z</time></trkpt><trkpt lat="45.52314433574574" lon="11.154175983769463"><ele>343.66666666666663</ele><time>2026-04-25T12:22:22Z</time></trkpt><trkpt lat="45.52307476457584" lon="11.154251426516185"><ele>343.3333333333333</ele><time>2026-04-25T12:22:23Z</time></trkpt><trkpt lat="45.522997792203896" lon="11.15425105135504"><ele>343.0</ele><time>2026-04-25T12:22:24Z</time></trkpt><trkpt lat="45.5229108600556" lon="11.154278024210015"><ele>344.0</ele><time>2026-04-25T12:22:25Z</time></trkpt><trkpt lat="45.52283565892822" lon="11.15438314353017"><ele>345.0</ele><time>2026-04-25T12:22:26Z</time></trkpt><trkpt lat="45.52274450795502" lon="11.154450196821385"><ele>346.0</ele><time>2026-04-25T12:22:27Z</time></trkpt><trkpt lat="45.52265281419227" lon="11.154534000737167"><ele>347.0</ele><time>2026-04-25T12:22:28Z</time></trkpt><trkpt lat="45.522554362830036" lon="11.154620821486056"><ele>348.0</ele><time>2026-04-25T12:22:29Z</time></trkpt><trkpt lat="45.52245407482565" lon="11.154700564526435"><ele>348.0</ele><time>2026-04-25T12:22:30Z</time></trkpt><trkpt lat="45.52234900913748" lon="11.154793086486332"><ele>348.0</ele><time>2026-04-25T12:22:31Z</time></trkpt><trkpt lat="45.522236692442206" lon="11.154889984950477"><ele>348.0</ele><time>2026-04-25T12:22:32Z</time></trkpt><trkpt lat="45.52211762186194" lon="11.15499329250145"><ele>348.0</ele><time>2026-04-25T12:22:33Z</time></trkpt><trkpt lat="45.522000142477346" lon="11.155095583268166"><ele>346.0</ele><time>2026-04-25T12:22:34Z</time></trkpt><trkpt lat="45.521884014357994" lon="11.155189366245892"><ele>344.0</ele><time>2026-04-25T12:22:35Z</time></trkpt><trkpt lat="45.52177111535663" lon="11.155281580466461"><ele>342.0</ele><time>2026-04-25T12:22:36Z</time></trkpt><trkpt lat="45.521656158298576" lon="11.1553743854731"><ele>340.0</ele><time>2026-04-25T12:22:37Z</time></trkpt><trkpt lat="45.52154453842213" lon="11.155455426409672"><ele>340.0</ele><time>2026-04-25T12:22:38Z</time></trkpt><trkpt lat="45.52143341493572" lon="11.155542301596284"><ele>340.0</ele><time>2026-04-25T12:22:39Z</time></trkpt><trkpt lat="45.5213325890588" lon="11.155618817429492"><ele>340.0</ele><time>2026-04-25T12:22:40Z</time></trkpt><trkpt lat="45.5212397260683" lon="11.155690850067655"><ele>340.0</ele><time>2026-04-25T12:22:41Z</time></trkpt><trkpt lat="45.52116866857384" lon="11.1557488889522"><ele>340.0</ele><time>2026-04-25T12:22:42Z</time></trkpt><trkpt lat="45.52112284684024" lon="11.155811775144826"><ele>339.2</ele><time>2026-04-25T12:22:43Z</time></trkpt><trkpt lat="45.521094211796644" lon="11.155899284284184"><ele>338.4</ele><time>2026-04-25T12:22:44Z</time></trkpt><trkpt lat="45.52107678854301" lon="11.156031230797467"><ele>337.6</ele><time>2026-04-25T12:22:45Z</time></trkpt><trkpt lat="45.52105731188598" lon="11.156184976005616"><ele>336.8</ele><time>2026-04-25T12:22:46Z</time></trkpt><trkpt lat="45.52104224021892" lon="11.15635001149611"><ele>336.0</ele><time>2026-04-25T12:22:47Z</time></trkpt><trkpt lat="45.521025636074306" lon="11.156514564413946"><ele>335.75</ele><time>2026-04-25T12:22:48Z</time></trkpt><trkpt lat="45.521014768815895" lon="11.15667775594183"><ele>335.5</ele><time>2026-04-25T12:22:49Z</time></trkpt><trkpt lat="45.5210066753715" lon="11.15684454248842"><ele>335.25</ele><time>2026-04-25T12:22:50Z</time></trkpt><trkpt lat="45.52099792452311" lon="11.15702477012455"><ele>335.0</ele><time>2026-04-25T12:22:51Z</time></trkpt><trkpt lat="45.52098790178358" lon="11.157191838592567"><ele>335.0</ele><time>2026-04-25T12:22:52Z</time></trkpt><trkpt lat="45.520976063040116" lon="11.157338346558104"><ele>335.0</ele><time>2026-04-25T12:22:53Z</time></trkpt><trkpt lat="45.52096567150143" lon="11.157465773787653"><ele>335.0</ele><time>2026-04-25T12:22:54Z</time></trkpt><trkpt lat="45.52095974520933" lon="11.1575674082772"><ele>335.0</ele><time>2026-04-25T12:22:55Z</time></trkpt><trkpt lat="45.52094671060356" lon="11.157692001462229"><ele>335.0</ele><time>2026-04-25T12:22:57Z</time></trkpt><trkpt lat="45.52094217578774" lon="11.157808299535775"><ele>335.0</ele><time>2026-04-25T12:22:59Z</time></trkpt><trkpt lat="45.520838972981906" lon="11.15786203169184"><ele>334.0</ele><time>2026-04-25T12:23:00Z</time></trkpt><trkpt lat="45.52075531620619" lon="11.15796126965425"><ele>333.0</ele><time>2026-04-25T12:23:02Z</time></trkpt><trkpt lat="45.520651301651185" lon="11.15801752099508"><ele>332.0</ele><time>2026-04-25T12:23:04Z</time></trkpt><trkpt lat="45.520526204551295" lon="11.158018121017966"><ele>331.0</ele><time>2026-04-25T12:23:06Z</time></trkpt><trkpt lat="45.520419071901024" lon="11.158036984171638"><ele>330.6</ele><time>2026-04-25T12:23:07Z</time></trkpt><trkpt lat="45.520303706801215" lon="11.158088477801986"><ele>330.20000000000005</ele><time>2026-04-25T12:23:08Z</time></trkpt><trkpt lat="45.52019676794917" lon="11.15811827977492"><ele>329.79999999999995</ele><time>2026-04-25T12:23:09Z</time></trkpt><trkpt lat="45.520097065565224" lon="11.158147434941839"><ele>329.4</ele><time>2026-04-25T12:23:10Z</time></trkpt><trkpt lat="45.52001325082605" lon="11.15815540509335"><ele>329.0</ele><time>2026-04-25T12:23:11Z</time></trkpt><trkpt lat="45.51989526975391" lon="11.158166776100694"><ele>329.0</ele><time>2026-04-25T12:23:13Z</time></trkpt><trkpt lat="45.519802339630125" lon="11.158175240340233"><ele>329.0</ele><time>2026-04-25T12:23:15Z</time></trkpt><trkpt lat="45.51968331180519" lon="11.158191070798454"><ele>329.0</ele><time>2026-04-25T12:23:17Z</time></trkpt><trkpt lat="45.51934905659774" lon="11.158315576668555"><ele>327.75</ele><time>2026-04-25T12:23:18Z</time></trkpt><trkpt lat="45.51922941369939" lon="11.15834930662769"><ele>326.5</ele><time>2026-04-25T12:23:19Z</time></trkpt><trkpt lat="45.519106740263666" lon="11.158383141817973"><ele>325.25</ele><time>2026-04-25T12:23:20Z</time></trkpt><trkpt lat="45.51898448410076" lon="11.158417109430832"><ele>324.0</ele><time>2026-04-25T12:23:21Z</time></trkpt><trkpt lat="45.518859044029746" lon="11.15844437041017"><ele>324.0</ele><time>2026-04-25T12:23:22Z</time></trkpt><trkpt lat="45.51874218902311" lon="11.15847550554385"><ele>324.0</ele><time>2026-04-25T12:23:23Z</time></trkpt><trkpt lat="45.51862329365078" lon="11.158508633014053"><ele>324.0</ele><time>2026-04-25T12:23:24Z</time></trkpt><trkpt lat="45.51850888636061" lon="11.158542666592874"><ele>324.0</ele><time>2026-04-25T12:23:25Z</time></trkpt><trkpt lat="45.51839731400581" lon="11.15857161993242"><ele>323.5</ele><time>2026-04-25T12:23:26Z</time></trkpt><trkpt lat="45.518281326853874" lon="11.158601746581722"><ele>323.0</ele><time>2026-04-25T12:23:27Z</time></trkpt><trkpt lat="45.51816239861726" lon="11.158631562280636"><ele>322.5</ele><time>2026-04-25T12:23:28Z</time></trkpt><trkpt lat="45.51804488822751" lon="11.158666952276954"><ele>322.0</ele><time>2026-04-25T12:23:29Z</time></trkpt><trkpt lat="45.517916258356465" lon="11.158701672909439"><ele>321.25</ele><time>2026-04-25T12:23:30Z</time></trkpt><trkpt lat="45.517780414987385" lon="11.158737861768316"><ele>320.5</ele><time>2026-04-25T12:23:31Z</time></trkpt><trkpt lat="45.517645290951315" lon="11.158772531867855"><ele>319.75</ele><time>2026-04-25T12:23:32Z</time></trkpt><trkpt lat="45.51751309040848" lon="11.158809885230399"><ele>319.0</ele><time>2026-04-25T12:23:33Z</time></trkpt><trkpt lat="45.517386830401" lon="11.158845985425108"><ele>319.0</ele><time>2026-04-25T12:23:34Z</time></trkpt><trkpt lat="45.51726534118488" lon="11.158882905496164"><ele>319.0</ele><time>2026-04-25T12:23:35Z</time></trkpt><trkpt lat="45.5171547401825" lon="11.158913270922374"><ele>319.0</ele><time>2026-04-25T12:23:36Z</time></trkpt><trkpt lat="45.5170316748468" lon="11.158943545123416"><ele>319.0</ele><time>2026-04-25T12:23:37Z</time></trkpt><trkpt lat="45.51690456196088" lon="11.158981601581074"><ele>319.0</ele><time>2026-04-25T12:23:38Z</time></trkpt><trkpt lat="45.51677033164375" lon="11.159015772970564"><ele>319.0</ele><time>2026-04-25T12:23:39Z</time></trkpt><trkpt lat="45.51662844299706" lon="11.159050372812994"><ele>319.0</ele><time>2026-04-25T12:23:40Z</time></trkpt><trkpt lat="45.51648549668053" lon="11.159095409467623"><ele>319.0</ele><time>2026-04-25T12:23:41Z</time></trkpt><trkpt lat="45.51635706134607" lon="11.159135293501379"><ele>318.59999999999997</ele><time>2026-04-25T12:23:42Z</time></trkpt><trkpt lat="45.516250967969015" lon="11.159158587641814"><ele>318.2</ele><time>2026-04-25T12:23:43Z</time></trkpt><trkpt lat="45.516154810388144" lon="11.159173050959891"><ele>317.79999999999995</ele><time>2026-04-25T12:23:44Z</time></trkpt><trkpt lat="45.51605042600763" lon="11.15920430812479"><ele>317.4</ele><time>2026-04-25T12:23:45Z</time></trkpt><trkpt lat="45.515943578862476" lon="11.159228062171763"><ele>317.0</ele><time>2026-04-25T12:23:46Z</time></trkpt><trkpt lat="45.51583017027047" lon="11.159269705338454"><ele>316.8</ele><time>2026-04-25T12:23:47Z</time></trkpt><trkpt lat="45.51571928573156" lon="11.159300875972784"><ele>316.6</ele><time>2026-04-25T12:23:48Z</time></trkpt><trkpt lat="45.51561348544203" lon="11.159320494586861"><ele>316.40000000000003</ele><time>2026-04-25T12:23:49Z</time></trkpt><trkpt lat="45.515501358805956" lon="11.159342099491205"><ele>316.2</ele><time>2026-04-25T12:23:50Z</time></trkpt><trkpt lat="45.51539161648787" lon="11.159377812766706"><ele>316.0</ele><time>2026-04-25T12:23:51Z</time></trkpt><trkpt lat="45.515284057103315" lon="11.159404264407803"><ele>315.25</ele><time>2026-04-25T12:23:52Z</time></trkpt><trkpt lat="45.51517409156771" lon="11.15943295525845"><ele>314.5</ele><time>2026-04-25T12:23:53Z</time></trkpt><trkpt lat="45.51504405711854" lon="11.15946739348767"><ele>313.75</ele><time>2026-04-25T12:23:54Z</time></trkpt><trkpt lat="45.51489469007909" lon="11.159515466497586"><ele>313.0</ele><time>2026-04-25T12:23:55Z</time></trkpt><trkpt lat="45.51474740725946" lon="11.159559590746209"><ele>313.0</ele><time>2026-04-25T12:23:56Z</time></trkpt><trkpt lat="45.5146165525549" lon="11.159591417974557"><ele>313.0</ele><time>2026-04-25T12:23:57Z</time></trkpt><trkpt lat="45.51448591856345" lon="11.15962625179917"><ele>313.0</ele><time>2026-04-25T12:23:58Z</time></trkpt><trkpt lat="45.51434867956147" lon="11.159652314960125"><ele>313.0</ele><time>2026-04-25T12:23:59Z</time></trkpt><trkpt lat="45.51422597772394" lon="11.15967461228414"><ele>312.5</ele><time>2026-04-25T12:24:00Z</time></trkpt><trkpt lat="45.51409955923817" lon="11.15971396277653"><ele>312.0</ele><time>2026-04-25T12:24:01Z</time></trkpt><trkpt lat="45.513982694338594" lon="11.159740812712188"><ele>311.5</ele><time>2026-04-25T12:24:02Z</time></trkpt><trkpt lat="45.51384272773384" lon="11.15979935826806"><ele>311.0</ele><time>2026-04-25T12:24:03Z</time></trkpt><trkpt lat="45.513690232369335" lon="11.15984000897219"><ele>310.0</ele><time>2026-04-25T12:24:04Z</time></trkpt><trkpt lat="45.51352881951181" lon="11.15988390415616"><ele>309.0</ele><time>2026-04-25T12:24:05Z</time></trkpt><trkpt lat="45.51338333160169" lon="11.159932540976708"><ele>308.0</ele><time>2026-04-25T12:24:06Z</time></trkpt><trkpt lat="45.51324033256796" lon="11.15998498048759"><ele>308.0</ele><time>2026-04-25T12:24:07Z</time></trkpt><trkpt lat="45.51310137419702" lon="11.160038213877067"><ele>308.0</ele><time>2026-04-25T12:24:08Z</time></trkpt><trkpt lat="45.512960975535485" lon="11.160102979623776"><ele>308.0</ele><time>2026-04-25T12:24:09Z</time></trkpt><trkpt lat="45.51280556950334" lon="11.160169192529777"><ele>307.6666666666667</ele><time>2026-04-25T12:24:10Z</time></trkpt><trkpt lat="45.51264064990018" lon="11.160250963289517"><ele>307.3333333333333</ele><time>2026-04-25T12:24:11Z</time></trkpt><trkpt lat="45.51247566294107" lon="11.160338794113883"><ele>307.0</ele><time>2026-04-25T12:24:12Z</time></trkpt><trkpt lat="45.51231870720744" lon="11.160415874862386"><ele>307.0</ele><time>2026-04-25T12:24:13Z</time></trkpt><trkpt lat="45.51217200878143" lon="11.160484095300525"><ele>307.0</ele><time>2026-04-25T12:24:14Z</time></trkpt><trkpt lat="45.512034205238805" lon="11.160544960138965"><ele>307.0</ele><time>2026-04-25T12:24:15Z</time></trkpt><trkpt lat="45.51190044048139" lon="11.160605148983047"><ele>307.0</ele><time>2026-04-25T12:24:16Z</time></trkpt><trkpt lat="45.51177547682567" lon="11.160668633511396"><ele>306.8</ele><time>2026-04-25T12:24:17Z</time></trkpt><trkpt lat="45.511661750938565" lon="11.160718716199147"><ele>306.6</ele><time>2026-04-25T12:24:18Z</time></trkpt><trkpt lat="45.511555798496325" lon="11.16071268327401"><ele>306.40000000000003</ele><time>2026-04-25T12:24:19Z</time></trkpt><trkpt lat="45.511460888298416" lon="11.160709943874382"><ele>306.2</ele><time>2026-04-25T12:24:20Z</time></trkpt><trkpt lat="45.51138155607215" lon="11.16069572665228"><ele>306.0</ele><time>2026-04-25T12:24:21Z</time></trkpt><trkpt lat="45.5113028239377" lon="11.16067642540618"><ele>305.3333333333333</ele><time>2026-04-25T12:24:22Z</time></trkpt><trkpt lat="45.511204973230456" lon="11.160711188217476"><ele>304.6666666666667</ele><time>2026-04-25T12:24:24Z</time></trkpt><trkpt lat="45.511154285239286" lon="11.160824587798697"><ele>304.0</ele><time>2026-04-25T12:24:26Z</time></trkpt><trkpt lat="45.5111203683747" lon="11.160912967348134"><ele>303.33333333333337</ele><time>2026-04-25T12:24:27Z</time></trkpt><trkpt lat="45.51106937195756" lon="11.160972010639954"><ele>302.6666666666667</ele><time>2026-04-25T12:24:28Z</time></trkpt><trkpt lat="45.510977031202415" lon="11.161016821848557"><ele>302.0</ele><time>2026-04-25T12:24:30Z</time></trkpt><trkpt lat="45.51083921309113" lon="11.161066966254987"><ele>302.0</ele><time>2026-04-25T12:24:32Z</time></trkpt><trkpt lat="45.51074102369157" lon="11.161100413156925"><ele>302.0</ele><time>2026-04-25T12:24:33Z</time></trkpt><trkpt lat="45.51064019552417" lon="11.16113549006653"><ele>302.0</ele><time>2026-04-25T12:24:34Z</time></trkpt><trkpt lat="45.51051852469074" lon="11.161194282127049"><ele>302.0</ele><time>2026-04-25T12:24:35Z</time></trkpt><trkpt lat="45.510391990353824" lon="11.161195900879274"><ele>301.25</ele><time>2026-04-25T12:24:36Z</time></trkpt><trkpt lat="45.51026797863836" lon="11.161207520541323"><ele>300.5</ele><time>2026-04-25T12:24:37Z</time></trkpt><trkpt lat="45.51014973899079" lon="11.161233562483767"><ele>299.75</ele><time>2026-04-25T12:24:38Z</time></trkpt><trkpt lat="45.51001813137541" lon="11.161236062982475"><ele>299.0</ele><time>2026-04-25T12:24:39Z</time></trkpt><trkpt lat="45.50988188025984" lon="11.161238653699549"><ele>299.0</ele><time>2026-04-25T12:24:40Z</time></trkpt><trkpt lat="45.50975292556793" lon="11.161258889738551"><ele>299.0</ele><time>2026-04-25T12:24:41Z</time></trkpt><trkpt lat="45.50961919315321" lon="11.161274301783422"><ele>299.0</ele><time>2026-04-25T12:24:42Z</time></trkpt><trkpt lat="45.509501184091405" lon="11.161285569548344"><ele>299.0</ele><time>2026-04-25T12:24:43Z</time></trkpt><trkpt lat="45.50939998239162" lon="11.161291476340697"><ele>298.4</ele><time>2026-04-25T12:24:44Z</time></trkpt><trkpt lat="45.50930784618603" lon="11.161289039083504"><ele>297.79999999999995</ele><time>2026-04-25T12:24:45Z</time></trkpt><trkpt lat="45.50921261741118" lon="11.161297286940517"><ele>297.20000000000005</ele><time>2026-04-25T12:24:46Z</time></trkpt><trkpt lat="45.50912520519764" lon="11.161311010270529"><ele>296.6</ele><time>2026-04-25T12:24:47Z</time></trkpt><trkpt lat="45.50903894041734" lon="11.161314388354958"><ele>296.0</ele><time>2026-04-25T12:24:48Z</time></trkpt><trkpt lat="45.508940473125115" lon="11.161325279553848"><ele>296.0</ele><time>2026-04-25T12:24:49Z</time></trkpt><trkpt lat="45.50885179398198" lon="11.16134567234017"><ele>296.0</ele><time>2026-04-25T12:24:50Z</time></trkpt><trkpt lat="45.508757963291636" lon="11.16136003488509"><ele>296.0</ele><time>2026-04-25T12:24:51Z</time></trkpt><trkpt lat="45.508663202231055" lon="11.161370875966025"><ele>296.0</ele><time>2026-04-25T12:24:52Z</time></trkpt><trkpt lat="45.50855384340898" lon="11.161381388480917"><ele>296.0</ele><time>2026-04-25T12:24:53Z</time></trkpt><trkpt lat="45.50844699571057" lon="11.161395524024321"><ele>293.8</ele><time>2026-04-25T12:24:54Z</time></trkpt><trkpt lat="45.5083348850033" lon="11.161413518676685"><ele>291.6</ele><time>2026-04-25T12:24:55Z</time></trkpt><trkpt lat="45.50822386722743" lon="11.161427127250011"><ele>289.4</ele><time>2026-04-25T12:24:56Z</time></trkpt><trkpt lat="45.508111163088024" lon="11.161440724480299"><ele>287.2</ele><time>2026-04-25T12:24:57Z</time></trkpt><trkpt lat="45.50800188119184" lon="11.161450108764562"><ele>285.0</ele><time>2026-04-25T12:24:58Z</time></trkpt><trkpt lat="45.50790409052145" lon="11.161463908003029"><ele>284.8</ele><time>2026-04-25T12:24:59Z</time></trkpt><trkpt lat="45.50779885482377" lon="11.161474140816305"><ele>284.6</ele><time>2026-04-25T12:25:00Z</time></trkpt><trkpt lat="45.50769174904496" lon="11.161461212263529"><ele>284.4</ele><time>2026-04-25T12:25:01Z</time></trkpt><trkpt lat="45.507588938599156" lon="11.161471539467804"><ele>284.2</ele><time>2026-04-25T12:25:02Z</time></trkpt><trkpt lat="45.50749405102329" lon="11.16147991028991"><ele>284.0</ele><time>2026-04-25T12:25:03Z</time></trkpt><trkpt lat="45.50740980537194" lon="11.161479942544073"><ele>284.0</ele><time>2026-04-25T12:25:04Z</time></trkpt><trkpt lat="45.507341000548315" lon="11.161441691613241"><ele>284.0</ele><time>2026-04-25T12:25:05Z</time></trkpt><trkpt lat="45.5072844348985" lon="11.161383944269984"><ele>284.0</ele><time>2026-04-25T12:25:06Z</time></trkpt><trkpt lat="45.50725887700741" lon="11.161296990277277"><ele>284.0</ele><time>2026-04-25T12:25:07Z</time></trkpt><trkpt lat="45.507188063527714" lon="11.161193338935176"><ele>284.0</ele><time>2026-04-25T12:25:09Z</time></trkpt><trkpt lat="45.50711688291165" lon="11.161166935311218"><ele>284.0</ele><time>2026-04-25T12:25:11Z</time></trkpt><trkpt lat="45.5070413101705" lon="11.161141665925152"><ele>284.8</ele><time>2026-04-25T12:25:13Z</time></trkpt><trkpt lat="45.506909230401384" lon="11.161339185678845"><ele>285.59999999999997</ele><time>2026-04-25T12:25:14Z</time></trkpt><trkpt lat="45.50684943847238" lon="11.161444619713158"><ele>286.4</ele><time>2026-04-25T12:25:15Z</time></trkpt><trkpt lat="45.5067949024482" lon="11.161522438086637"><ele>287.2</ele><time>2026-04-25T12:25:16Z</time></trkpt><trkpt lat="45.50672944947078" lon="11.161565417661397"><ele>288.0</ele><time>2026-04-25T12:25:17Z</time></trkpt><trkpt lat="45.506591064724304" lon="11.161563849925807"><ele>288.0</ele><time>2026-04-25T12:25:19Z</time></trkpt><trkpt lat="45.50650034854766" lon="11.161594895706934"><ele>288.0</ele><time>2026-04-25T12:25:20Z</time></trkpt><trkpt lat="45.50638201431041" lon="11.16158569888792"><ele>288.0</ele><time>2026-04-25T12:25:21Z</time></trkpt><trkpt lat="45.50625571083407" lon="11.161585744363524"><ele>288.0</ele><time>2026-04-25T12:25:22Z</time></trkpt><trkpt lat="45.50612504047362" lon="11.161595901554"><ele>287.4</ele><time>2026-04-25T12:25:23Z</time></trkpt><trkpt lat="45.50600900507432" lon="11.161590618176266"><ele>286.8</ele><time>2026-04-25T12:25:24Z</time></trkpt><trkpt lat="45.50592066316417" lon="11.16161151674287"><ele>286.2</ele><time>2026-04-25T12:25:25Z</time></trkpt><trkpt lat="45.5058431269745" lon="11.161635027331457"><ele>285.6</ele><time>2026-04-25T12:25:26Z</time></trkpt><trkpt lat="45.505746238012755" lon="11.161661844164515"><ele>285.0</ele><time>2026-04-25T12:25:28Z</time></trkpt><trkpt lat="45.50582526758396" lon="11.161643343038332"><ele>285.0</ele><time>2026-04-25T12:25:46Z</time></trkpt><trkpt lat="45.505845763972616" lon="11.16180576278308"><ele>285.0</ele><time>2026-04-25T12:25:47Z</time></trkpt><trkpt lat="45.505854183819274" lon="11.161932340657946"><ele>285.0</ele><time>2026-04-25T12:25:49Z</time></trkpt><trkpt lat="45.505855217038295" lon="11.162026241140882"><ele>285.0</ele><time>2026-04-25T12:25:50Z</time></trkpt><trkpt lat="45.505910264323504" lon="11.162146995617244"><ele>285.0</ele><time>2026-04-25T12:25:52Z</time></trkpt><trkpt lat="45.50596234936619" lon="11.162247118354362"><ele>285.0</ele><time>2026-04-25T12:25:54Z</time></trkpt><trkpt lat="45.50595275697236" lon="11.162346774655978"><ele>285.0</ele><time>2026-04-25T12:25:56Z</time></trkpt><trkpt lat="45.50594574726723" lon="11.162477809548857"><ele>285.0</ele><time>2026-04-25T12:25:58Z</time></trkpt><trkpt lat="45.505938594095355" lon="11.162649580410193"><ele>285.0</ele><time>2026-04-25T12:26:00Z</time></trkpt><trkpt lat="45.50595590477275" lon="11.162752142266203"><ele>285.0</ele><time>2026-04-25T12:26:03Z</time></trkpt><trkpt lat="45.50596694031312" lon="11.162891556475957"><ele>285.0</ele><time>2026-04-25T12:26:06Z</time></trkpt><trkpt lat="45.50594855235611" lon="11.16299150778446"><ele>285.0</ele><time>2026-04-25T12:26:08Z</time></trkpt><trkpt lat="45.50591786166131" lon="11.163091083700525"><ele>285.0</ele><time>2026-04-25T12:26:10Z</time></trkpt><trkpt lat="45.50591089829887" lon="11.163203480301174"><ele>285.0</ele><time>2026-04-25T12:26:12Z</time></trkpt><trkpt lat="45.50588544885989" lon="11.1632956114469"><ele>285.0</ele><time>2026-04-25T12:26:15Z</time></trkpt><trkpt lat="45.50579006001187" lon="11.16327073817727"><ele>285.0</ele><time>2026-04-25T12:26:18Z</time></trkpt><trkpt lat="45.505701671838324" lon="11.163291092276713"><ele>285.0</ele><time>2026-04-25T12:26:20Z</time></trkpt><trkpt lat="45.50558397985799" lon="11.163282363792518"><ele>285.0</ele><time>2026-04-25T12:26:22Z</time></trkpt><trkpt lat="45.5054998107452" lon="11.163277506543018"><ele>285.0</ele><time>2026-04-25T12:26:24Z</time></trkpt><trkpt lat="45.505398037785824" lon="11.163298382792618"><ele>285.0</ele><time>2026-04-25T12:26:26Z</time></trkpt><trkpt lat="45.505304884337" lon="11.163330251744078"><ele>285.0</ele><time>2026-04-25T12:26:28Z</time></trkpt><trkpt lat="45.505210638238" lon="11.16333716573807"><ele>284.2</ele><time>2026-04-25T12:26:30Z</time></trkpt><trkpt lat="45.5050904147301" lon="11.163380213783379"><ele>283.4</ele><time>2026-04-25T12:26:33Z</time></trkpt><trkpt lat="45.50500291964165" lon="11.16341221044257"><ele>282.6</ele><time>2026-04-25T12:26:35Z</time></trkpt><trkpt lat="45.50492422003969" lon="11.163423724739728"><ele>281.8</ele><time>2026-04-25T12:26:37Z</time></trkpt><trkpt lat="45.50485754403256" lon="11.163442061269569"><ele>281.0</ele><time>2026-04-25T12:26:38Z</time></trkpt><trkpt lat="45.5047827152746" lon="11.163611536295734"><ele>281.0</ele><time>2026-04-25T12:26:39Z</time></trkpt><trkpt lat="45.50470009173225" lon="11.163625768427233"><ele>281.0</ele><time>2026-04-25T12:26:40Z</time></trkpt><trkpt lat="45.5046153053443" lon="11.163642271598142"><ele>281.0</ele><time>2026-04-25T12:26:41Z</time></trkpt><trkpt lat="45.50453308665761" lon="11.16365883339849"><ele>281.0</ele><time>2026-04-25T12:26:42Z</time></trkpt><trkpt lat="45.50445033583598" lon="11.163675502168408"><ele>281.0</ele><time>2026-04-25T12:26:43Z</time></trkpt><trkpt lat="45.50438373322498" lon="11.163688917700183"><ele>281.0</ele><time>2026-04-25T12:26:44Z</time></trkpt><trkpt lat="45.50430998619121" lon="11.163703772306745"><ele>280.83333333333337</ele><time>2026-04-25T12:26:45Z</time></trkpt><trkpt lat="45.50423889839148" lon="11.163718091274344"><ele>280.6666666666667</ele><time>2026-04-25T12:26:46Z</time></trkpt><trkpt lat="45.504149289995105" lon="11.163601485237624"><ele>280.5</ele><time>2026-04-25T12:26:47Z</time></trkpt><trkpt lat="45.50407671677471" lon="11.163604455715989"><ele>280.3333333333333</ele><time>2026-04-25T12:26:48Z</time></trkpt><trkpt lat="45.50400812122811" lon="11.163605415451082"><ele>280.16666666666663</ele><time>2026-04-25T12:26:49Z</time></trkpt><trkpt lat="45.503941291603255" lon="11.163613619203378"><ele>280.0</ele><time>2026-04-25T12:26:50Z</time></trkpt><trkpt lat="45.50381294604081" lon="11.163658651136924"><ele>279.0</ele><time>2026-04-25T12:26:52Z</time></trkpt><trkpt lat="45.50373451252176" lon="11.163685081217709"><ele>278.0</ele><time>2026-04-25T12:26:53Z</time></trkpt><trkpt lat="45.503650500058804" lon="11.163695446978423"><ele>277.0</ele><time>2026-04-25T12:26:54Z</time></trkpt><trkpt lat="45.50356727385499" lon="11.163722765305547"><ele>276.0</ele><time>2026-04-25T12:26:55Z</time></trkpt><trkpt lat="45.50346613093904" lon="11.163734848560281"><ele>275.0</ele><time>2026-04-25T12:26:56Z</time></trkpt><trkpt lat="45.50335941894363" lon="11.163746253395903"><ele>275.0</ele><time>2026-04-25T12:26:57Z</time></trkpt><trkpt lat="45.503267560794654" lon="11.163751001577166"><ele>275.0</ele><time>2026-04-25T12:26:58Z</time></trkpt><trkpt lat="45.50317373214034" lon="11.163739458238007"><ele>275.0</ele><time>2026-04-25T12:26:59Z</time></trkpt><trkpt lat="45.50308901374084" lon="11.163738041571644"><ele>275.0</ele><time>2026-04-25T12:27:00Z</time></trkpt><trkpt lat="45.503008640577384" lon="11.163745057109116"><ele>275.0</ele><time>2026-04-25T12:27:01Z</time></trkpt><trkpt lat="45.50292531524628" lon="11.163762887575015"><ele>275.0</ele><time>2026-04-25T12:27:02Z</time></trkpt><trkpt lat="45.50283521634518" lon="11.163791799994156"><ele>274.5</ele><time>2026-04-25T12:27:03Z</time></trkpt><trkpt lat="45.50274077445745" lon="11.163820107562788"><ele>274.0</ele><time>2026-04-25T12:27:04Z</time></trkpt><trkpt lat="45.502651453772856" lon="11.163839680827877"><ele>273.5</ele><time>2026-04-25T12:27:05Z</time></trkpt><trkpt lat="45.50257225704774" lon="11.1638540405518"><ele>273.0</ele><time>2026-04-25T12:27:06Z</time></trkpt><trkpt lat="45.502485669589234" lon="11.163875597756444"><ele>272.5</ele><time>2026-04-25T12:27:07Z</time></trkpt><trkpt lat="45.502394745464734" lon="11.163896999094861"><ele>272.0</ele><time>2026-04-25T12:27:08Z</time></trkpt><trkpt lat="45.502322072833614" lon="11.163907758742075"><ele>272.0</ele><time>2026-04-25T12:27:09Z</time></trkpt><trkpt lat="45.502247775693114" lon="11.163927135687779"><ele>272.0</ele><time>2026-04-25T12:27:10Z</time></trkpt><trkpt lat="45.50219004681072" lon="11.163997011852741"><ele>272.0</ele><time>2026-04-25T12:27:12Z</time></trkpt><trkpt lat="45.5022604864833" lon="11.1640659440766"><ele>272.0</ele><time>2026-04-25T12:27:14Z</time></trkpt><trkpt lat="45.502343032894885" lon="11.164060291177524"><ele>272.0</ele><time>2026-04-25T12:27:15Z</time></trkpt><trkpt lat="45.50245433681206" lon="11.164078383211889"><ele>272.0</ele><time>2026-04-25T12:27:16Z</time></trkpt><trkpt lat="45.50259428177395" lon="11.164085919244666"><ele>272.0</ele><time>2026-04-25T12:27:17Z</time></trkpt><trkpt lat="45.50276070781115" lon="11.164127928644605"><ele>272.0</ele><time>2026-04-25T12:27:18Z</time></trkpt><trkpt lat="45.50131086131529" lon="11.164076166817972"><ele>271.0</ele><time>2026-04-25T12:27:19Z</time></trkpt><trkpt lat="45.50118752696953" lon="11.16408340318307"><ele>270.0</ele><time>2026-04-25T12:27:20Z</time></trkpt><trkpt lat="45.50107589972627" lon="11.164094739651947"><ele>269.0</ele><time>2026-04-25T12:27:21Z</time></trkpt><trkpt lat="45.50095094186364" lon="11.164122780246444"><ele>268.0</ele><time>2026-04-25T12:27:22Z</time></trkpt><trkpt lat="45.50083622352051" lon="11.16414226439196"><ele>268.0</ele><time>2026-04-25T12:27:23Z</time></trkpt><trkpt lat="45.50071973672192" lon="11.16417522088225"><ele>268.0</ele><time>2026-04-25T12:27:24Z</time></trkpt><trkpt lat="45.50060348290028" lon="11.164202435134376"><ele>268.0</ele><time>2026-04-25T12:27:25Z</time></trkpt><trkpt lat="45.50048046820071" lon="11.164224770343022"><ele>268.0</ele><time>2026-04-25T12:27:26Z</time></trkpt><trkpt lat="45.50038436510393" lon="11.164233107992601"><ele>267.8333333333333</ele><time>2026-04-25T12:27:27Z</time></trkpt><trkpt lat="45.50030191648592" lon="11.164247037087947"><ele>267.66666666666663</ele><time>2026-04-25T12:27:28Z</time></trkpt><trkpt lat="45.500229554662546" lon="11.16425739069049"><ele>267.5</ele><time>2026-04-25T12:27:29Z</time></trkpt><trkpt lat="45.5001476429792" lon="11.16427149555003"><ele>267.3333333333333</ele><time>2026-04-25T12:27:30Z</time></trkpt><trkpt lat="45.50007830328825" lon="11.16430740885909"><ele>267.1666666666667</ele><time>2026-04-25T12:27:31Z</time></trkpt><trkpt lat="45.500008800895955" lon="11.164347902547904"><ele>267.0</ele><time>2026-04-25T12:27:32Z</time></trkpt><trkpt lat="45.49996828372473" lon="11.16443768642402"><ele>267.0</ele><time>2026-04-25T12:27:35Z</time></trkpt><trkpt lat="45.49994568928649" lon="11.164570791959486"><ele>267.0</ele><time>2026-04-25T12:27:38Z</time></trkpt><trkpt lat="45.499864421557454" lon="11.164597404972316"><ele>267.0</ele><time>2026-04-25T12:27:40Z</time></trkpt><trkpt lat="45.499783667636315" lon="11.16438837253989"><ele>267.0</ele><time>2026-04-25T12:27:41Z</time></trkpt><trkpt lat="45.499718490604934" lon="11.164441417629538"><ele>267.0</ele><time>2026-04-25T12:27:42Z</time></trkpt><trkpt lat="45.499649273224556" lon="11.16442501893587"><ele>266.5</ele><time>2026-04-25T12:27:43Z</time></trkpt><trkpt lat="45.499571662565316" lon="11.164417514999165"><ele>266.0</ele><time>2026-04-25T12:27:44Z</time></trkpt><trkpt lat="45.49949442780321" lon="11.164418892759471"><ele>265.5</ele><time>2026-04-25T12:27:45Z</time></trkpt><trkpt lat="45.49941424183282" lon="11.164429240784715"><ele>265.0</ele><time>2026-04-25T12:27:46Z</time></trkpt><trkpt lat="45.49932612036277" lon="11.164437874372407"><ele>264.5</ele><time>2026-04-25T12:27:47Z</time></trkpt><trkpt lat="45.49922650573452" lon="11.164485177265982"><ele>264.0</ele><time>2026-04-25T12:27:48Z</time></trkpt><trkpt lat="45.4991236153779" lon="11.164497438018797"><ele>264.0</ele><time>2026-04-25T12:27:49Z</time></trkpt><trkpt lat="45.49901684720484" lon="11.16451574636597"><ele>264.0</ele><time>2026-04-25T12:27:50Z</time></trkpt><trkpt lat="45.498909489383585" lon="11.16454020955012"><ele>264.0</ele><time>2026-04-25T12:27:51Z</time></trkpt><trkpt lat="45.49878325671351" lon="11.164557465345244"><ele>264.0</ele><time>2026-04-25T12:27:52Z</time></trkpt><trkpt lat="45.498669333312556" lon="11.164553231121383"><ele>263.59999999999997</ele><time>2026-04-25T12:27:53Z</time></trkpt><trkpt lat="45.498579148037884" lon="11.164553639541346"><ele>263.2</ele><time>2026-04-25T12:27:54Z</time></trkpt><trkpt lat="45.49849554508817" lon="11.16458092455657"><ele>262.79999999999995</ele><time>2026-04-25T12:27:55Z</time></trkpt><trkpt lat="45.49839741881002" lon="11.16459487712506"><ele>262.4</ele><time>2026-04-25T12:27:56Z</time></trkpt><trkpt lat="45.49829673889958" lon="11.164626556725672"><ele>262.0</ele><time>2026-04-25T12:27:57Z</time></trkpt><trkpt lat="45.498182448636996" lon="11.164647708360777"><ele>262.0</ele><time>2026-04-25T12:27:58Z</time></trkpt><trkpt lat="45.49806661499336" lon="11.164662479208245"><ele>262.0</ele><time>2026-04-25T12:27:59Z</time></trkpt><trkpt lat="45.49794554705625" lon="11.164698621885645"><ele>262.0</ele><time>2026-04-25T12:28:00Z</time></trkpt><trkpt lat="45.49782997752145" lon="11.164692240085932"><ele>262.0</ele><time>2026-04-25T12:28:01Z</time></trkpt><trkpt lat="45.49770969735667" lon="11.16470768402015"><ele>260.75</ele><time>2026-04-25T12:28:02Z</time></trkpt><trkpt lat="45.497593499213046" lon="11.164745447289283"><ele>259.5</ele><time>2026-04-25T12:28:03Z</time></trkpt><trkpt lat="45.497460068388264" lon="11.164771069306589"><ele>258.25</ele><time>2026-04-25T12:28:04Z</time></trkpt><trkpt lat="45.497306354768064" lon="11.164791351539513"><ele>257.0</ele><time>2026-04-25T12:28:05Z</time></trkpt><trkpt lat="45.497157768071936" lon="11.164783385177829"><ele>256.0</ele><time>2026-04-25T12:28:06Z</time></trkpt><trkpt lat="45.49700441107884" lon="11.16479286569688"><ele>255.0</ele><time>2026-04-25T12:28:07Z</time></trkpt><trkpt lat="45.496853982878015" lon="11.164800573206808"><ele>254.0</ele><time>2026-04-25T12:28:08Z</time></trkpt><trkpt lat="45.49669847098297" lon="11.164808541180232"><ele>254.0</ele><time>2026-04-25T12:28:09Z</time></trkpt><trkpt lat="45.496546462061495" lon="11.164816329674425"><ele>254.0</ele><time>2026-04-25T12:28:10Z</time></trkpt><trkpt lat="45.49640146387641" lon="11.164823758971506"><ele>254.0</ele><time>2026-04-25T12:28:11Z</time></trkpt><trkpt lat="45.49626182784241" lon="11.16484897894603"><ele>254.0</ele><time>2026-04-25T12:28:12Z</time></trkpt><trkpt lat="45.49612431294872" lon="11.164855892156456"><ele>253.75</ele><time>2026-04-25T12:28:13Z</time></trkpt><trkpt lat="45.495984928202546" lon="11.164851251757852"><ele>253.5</ele><time>2026-04-25T12:28:14Z</time></trkpt><trkpt lat="45.49583780392409" lon="11.164866904959656"><ele>253.25</ele><time>2026-04-25T12:28:15Z</time></trkpt><trkpt lat="45.495695299477475" lon="11.164906437831673"><ele>253.0</ele><time>2026-04-25T12:28:16Z</time></trkpt><trkpt lat="45.495553537256825" lon="11.164919175637694"><ele>253.0</ele><time>2026-04-25T12:28:17Z</time></trkpt><trkpt lat="45.495420743979984" lon="11.164938594389064"><ele>253.0</ele><time>2026-04-25T12:28:18Z</time></trkpt><trkpt lat="45.49529174668592" lon="11.164964919983566"><ele>253.0</ele><time>2026-04-25T12:28:19Z</time></trkpt><trkpt lat="45.49515902280854" lon="11.164973249299457"><ele>253.0</ele><time>2026-04-25T12:28:20Z</time></trkpt><trkpt lat="45.49504268558599" lon="11.164989196021919"><ele>252.25</ele><time>2026-04-25T12:28:21Z</time></trkpt><trkpt lat="45.49492534669941" lon="11.165003145583663"><ele>251.5</ele><time>2026-04-25T12:28:22Z</time></trkpt><trkpt lat="45.494786090654856" lon="11.165038545320302"><ele>250.75</ele><time>2026-04-25T12:28:23Z</time></trkpt><trkpt lat="45.49464462570883" lon="11.165071106770544"><ele>250.0</ele><time>2026-04-25T12:28:24Z</time></trkpt><trkpt lat="45.4945080627044" lon="11.165107836130648"><ele>249.5</ele><time>2026-04-25T12:28:25Z</time></trkpt><trkpt lat="45.49438101288468" lon="11.165143520256422"><ele>249.0</ele><time>2026-04-25T12:28:26Z</time></trkpt><trkpt lat="45.4942606631623" lon="11.165181064647998"><ele>248.5</ele><time>2026-04-25T12:28:27Z</time></trkpt><trkpt lat="45.49415103981203" lon="11.165207577973966"><ele>248.0</ele><time>2026-04-25T12:28:28Z</time></trkpt><trkpt lat="45.4940483055203" lon="11.165208513996046"><ele>248.00000000000003</ele><time>2026-04-25T12:28:29Z</time></trkpt><trkpt lat="45.493961698649336" lon="11.165251593827774"><ele>248.0</ele><time>2026-04-25T12:28:30Z</time></trkpt><trkpt lat="45.49388448155653" lon="11.165245379420847"><ele>248.0</ele><time>2026-04-25T12:28:31Z</time></trkpt><trkpt lat="45.49381893739272" lon="11.165260191772889"><ele>248.0</ele><time>2026-04-25T12:28:32Z</time></trkpt><trkpt lat="45.493738449654394" lon="11.165278381219958"><ele>248.00000000000003</ele><time>2026-04-25T12:28:33Z</time></trkpt><trkpt lat="45.49363595892356" lon="11.165302619643674"><ele>248.0</ele><time>2026-04-25T12:28:34Z</time></trkpt><trkpt lat="45.49352154703629" lon="11.16532945874993"><ele>247.25</ele><time>2026-04-25T12:28:35Z</time></trkpt><trkpt lat="45.49341020587439" lon="11.165349364343543"><ele>246.5</ele><time>2026-04-25T12:28:36Z</time></trkpt><trkpt lat="45.493298340886305" lon="11.165366538987875"><ele>245.75</ele><time>2026-04-25T12:28:37Z</time></trkpt><trkpt lat="45.493192312926716" lon="11.16540560207583"><ele>245.0</ele><time>2026-04-25T12:28:38Z</time></trkpt><trkpt lat="45.4930762027812" lon="11.165430956679005"><ele>245.00000000000003</ele><time>2026-04-25T12:28:39Z</time></trkpt><trkpt lat="45.49297639777065" lon="11.165456359041285"><ele>245.0</ele><time>2026-04-25T12:28:40Z</time></trkpt><trkpt lat="45.49288995444017" lon="11.165476339678992"><ele>245.0</ele><time>2026-04-25T12:28:41Z</time></trkpt><trkpt lat="45.49281371041446" lon="11.165497733140986"><ele>245.0</ele><time>2026-04-25T12:28:42Z</time></trkpt><trkpt lat="45.49274288771415" lon="11.165513621658201"><ele>245.00000000000003</ele><time>2026-04-25T12:28:43Z</time></trkpt><trkpt lat="45.492670440085064" lon="11.165528927614226"><ele>245.0</ele><time>2026-04-25T12:28:44Z</time></trkpt><trkpt lat="45.49259632478566" lon="11.165561526285876"><ele>244.6</ele><time>2026-04-25T12:28:45Z</time></trkpt><trkpt lat="45.49251519698455" lon="11.165562298391045"><ele>244.2</ele><time>2026-04-25T12:28:46Z</time></trkpt><trkpt lat="45.492449130764335" lon="11.16557881807734"><ele>243.8</ele><time>2026-04-25T12:28:47Z</time></trkpt><trkpt lat="45.492384590164484" lon="11.16558377777763"><ele>243.4</ele><time>2026-04-25T12:28:50Z</time></trkpt><trkpt lat="45.49225812033716" lon="11.165614916098914"><ele>243.0</ele><time>2026-04-25T12:28:52Z</time></trkpt><trkpt lat="45.492131643566395" lon="11.165634774987861"><ele>242.75</ele><time>2026-04-25T12:28:53Z</time></trkpt><trkpt lat="45.49198017979476" lon="11.165675168997742"><ele>242.5</ele><time>2026-04-25T12:28:54Z</time></trkpt><trkpt lat="45.49183797403546" lon="11.16571818447233"><ele>242.25</ele><time>2026-04-25T12:28:55Z</time></trkpt><trkpt lat="45.49170123412002" lon="11.165754578986784"><ele>242.0</ele><time>2026-04-25T12:28:56Z</time></trkpt><trkpt lat="45.491547166510536" lon="11.165790207477425"><ele>242.0</ele><time>2026-04-25T12:28:57Z</time></trkpt><trkpt lat="45.49140594387799" lon="11.165824802767446"><ele>242.0</ele><time>2026-04-25T12:28:58Z</time></trkpt><trkpt lat="45.49126840964817" lon="11.165853277907331"><ele>242.0</ele><time>2026-04-25T12:28:59Z</time></trkpt><trkpt lat="45.49112658305665" lon="11.165884457305909"><ele>242.0</ele><time>2026-04-25T12:29:00Z</time></trkpt><trkpt lat="45.490978810907094" lon="11.165914169309605"><ele>241.25</ele><time>2026-04-25T12:29:01Z</time></trkpt><trkpt lat="45.49082757886485" lon="11.165947423858091"><ele>240.5</ele><time>2026-04-25T12:29:02Z</time></trkpt><trkpt lat="45.49069406493154" lon="11.165987578657804"><ele>239.75</ele><time>2026-04-25T12:29:03Z</time></trkpt><trkpt lat="45.490571420679345" lon="11.166030418566027"><ele>239.0</ele><time>2026-04-25T12:29:04Z</time></trkpt><trkpt lat="45.49045524637705" lon="11.166073678355218"><ele>238.50000000000003</ele><time>2026-04-25T12:29:05Z</time></trkpt><trkpt lat="45.49035850573064" lon="11.166096758141414"><ele>238.0</ele><time>2026-04-25T12:29:06Z</time></trkpt><trkpt lat="45.49027792984156" lon="11.166112615106721"><ele>237.5</ele><time>2026-04-25T12:29:07Z</time></trkpt><trkpt lat="45.49020178290951" lon="11.166126033139578"><ele>237.0</ele><time>2026-04-25T12:29:08Z</time></trkpt><trkpt lat="45.49013611392045" lon="11.166142135113093"><ele>236.50000000000003</ele><time>2026-04-25T12:29:09Z</time></trkpt><trkpt lat="45.490021568708244" lon="11.166176024418359"><ele>236.0</ele><time>2026-04-25T12:29:11Z</time></trkpt><trkpt lat="45.489891436040075" lon="11.16616748836351"><ele>236.0</ele><time>2026-04-25T12:29:13Z</time></trkpt><trkpt lat="45.48981434395714" lon="11.1661867018361"><ele>236.00000000000003</ele><time>2026-04-25T12:29:14Z</time></trkpt><trkpt lat="45.48973481823779" lon="11.166232223343988"><ele>236.00000000000003</ele><time>2026-04-25T12:29:15Z</time></trkpt><trkpt lat="45.48965165152331" lon="11.166274438241572"><ele>236.0</ele><time>2026-04-25T12:29:16Z</time></trkpt><trkpt lat="45.48955265850635" lon="11.166280137922168"><ele>236.0</ele><time>2026-04-25T12:29:17Z</time></trkpt><trkpt lat="45.48944326598383" lon="11.166322647712212"><ele>235.0</ele><time>2026-04-25T12:29:18Z</time></trkpt><trkpt lat="45.489318907061616" lon="11.166354309490762"><ele>234.0</ele><time>2026-04-25T12:29:19Z</time></trkpt><trkpt lat="45.48918400077617" lon="11.166373743796429"><ele>233.0</ele><time>2026-04-25T12:29:20Z</time></trkpt><trkpt lat="45.48904650498013" lon="11.166415768005901"><ele>232.0</ele><time>2026-04-25T12:29:21Z</time></trkpt><trkpt lat="45.488901466234424" lon="11.16646539493307"><ele>232.0</ele><time>2026-04-25T12:29:22Z</time></trkpt><trkpt lat="45.488771135585544" lon="11.16650629881748"><ele>232.0</ele><time>2026-04-25T12:29:23Z</time></trkpt><trkpt lat="45.488660158725544" lon="11.166536893483306"><ele>232.0</ele><time>2026-04-25T12:29:24Z</time></trkpt><trkpt lat="45.48855904951201" lon="11.166561225930158"><ele>232.0</ele><time>2026-04-25T12:29:25Z</time></trkpt><trkpt lat="45.488469712881034" lon="11.166577869401115"><ele>232.0</ele><time>2026-04-25T12:29:26Z</time></trkpt><trkpt lat="45.48838849300968" lon="11.166585378493506"><ele>231.66666666666666</ele><time>2026-04-25T12:29:27Z</time></trkpt><trkpt lat="45.48831215448002" lon="11.166595583230428"><ele>231.33333333333331</ele><time>2026-04-25T12:29:28Z</time></trkpt><trkpt lat="45.48824829224138" lon="11.16660307386036"><ele>231.0</ele><time>2026-04-25T12:29:29Z</time></trkpt><trkpt lat="45.48813365043034" lon="11.166611198646882"><ele>230.66666666666669</ele><time>2026-04-25T12:29:31Z</time></trkpt><trkpt lat="45.48804410006358" lon="11.166612348483536"><ele>230.33333333333334</ele><time>2026-04-25T12:29:33Z</time></trkpt><trkpt lat="45.487975183728125" lon="11.166635922261253"><ele>230.0</ele><time>2026-04-25T12:29:44Z</time></trkpt><trkpt lat="45.4878804866667" lon="11.166674693280298"><ele>229.4</ele><time>2026-04-25T12:31:02Z</time></trkpt><trkpt lat="45.48781311614269" lon="11.166696106246688"><ele>228.8</ele><time>2026-04-25T12:31:03Z</time></trkpt><trkpt lat="45.48773315923673" lon="11.166712133302152"><ele>228.2</ele><time>2026-04-25T12:31:04Z</time></trkpt><trkpt lat="45.48763599330938" lon="11.166734167444085"><ele>227.6</ele><time>2026-04-25T12:31:05Z</time></trkpt><trkpt lat="45.48753573027593" lon="11.166761432372029"><ele>227.0</ele><time>2026-04-25T12:31:06Z</time></trkpt><trkpt lat="45.48743842532958" lon="11.166790577838595"><ele>227.0</ele><time>2026-04-25T12:31:07Z</time></trkpt><trkpt lat="45.48734498457107" lon="11.16681705161837"><ele>227.0</ele><time>2026-04-25T12:31:08Z</time></trkpt><trkpt lat="45.48724080378318" lon="11.166833232886143"><ele>227.0</ele><time>2026-04-25T12:31:09Z</time></trkpt><trkpt lat="45.48712620632492" lon="11.166829137184765"><ele>227.0</ele><time>2026-04-25T12:31:10Z</time></trkpt><trkpt lat="45.48700450001325" lon="11.166874924012461"><ele>227.0</ele><time>2026-04-25T12:31:11Z</time></trkpt><trkpt lat="45.4868911411438" lon="11.166908389475129"><ele>226.6</ele><time>2026-04-25T12:31:12Z</time></trkpt><trkpt lat="45.48678004221613" lon="11.166925059286848"><ele>226.2</ele><time>2026-04-25T12:31:13Z</time></trkpt><trkpt lat="45.486663552726185" lon="11.166948008600906"><ele>225.8</ele><time>2026-04-25T12:31:14Z</time></trkpt><trkpt lat="45.48656451834453" lon="11.16697811040019"><ele>225.4</ele><time>2026-04-25T12:31:15Z</time></trkpt><trkpt lat="45.48647344482118" lon="11.16698455562582"><ele>225.0</ele><time>2026-04-25T12:31:16Z</time></trkpt><trkpt lat="45.48636952331488" lon="11.167017700349923"><ele>225.0</ele><time>2026-04-25T12:31:17Z</time></trkpt><trkpt lat="45.486272999671925" lon="11.167048074753003"><ele>225.0</ele><time>2026-04-25T12:31:18Z</time></trkpt><trkpt lat="45.48615669503066" lon="11.167080335416191"><ele>225.0</ele><time>2026-04-25T12:31:19Z</time></trkpt><trkpt lat="45.48602248313643" lon="11.16710978997225"><ele>225.0</ele><time>2026-04-25T12:31:20Z</time></trkpt><trkpt lat="45.485875989676565" lon="11.167123575182831"><ele>224.5</ele><time>2026-04-25T12:31:21Z</time></trkpt><trkpt lat="45.48574626396154" lon="11.167131252996876"><ele>224.0</ele><time>2026-04-25T12:31:22Z</time></trkpt><trkpt lat="45.48561246531287" lon="11.167139493482876"><ele>223.5</ele><time>2026-04-25T12:31:23Z</time></trkpt><trkpt lat="45.48547236900055" lon="11.167148535229806"><ele>223.0</ele><time>2026-04-25T12:31:24Z</time></trkpt><trkpt lat="45.48533349112516" lon="11.167157496314122"><ele>222.0</ele><time>2026-04-25T12:31:25Z</time></trkpt><trkpt lat="45.48517679635505" lon="11.167183397317446"><ele>221.0</ele><time>2026-04-25T12:31:26Z</time></trkpt><trkpt lat="45.485014453754694" lon="11.167184781627684"><ele>220.0</ele><time>2026-04-25T12:31:27Z</time></trkpt><trkpt lat="45.484858080405" lon="11.167182085446587"><ele>220.0</ele><time>2026-04-25T12:31:28Z</time></trkpt><trkpt lat="45.484694510589186" lon="11.167173290963651"><ele>220.0</ele><time>2026-04-25T12:31:29Z</time></trkpt><trkpt lat="45.484534858246604" lon="11.167152619025275"><ele>220.0</ele><time>2026-04-25T12:31:30Z</time></trkpt><trkpt lat="45.48438233574746" lon="11.167128305843873"><ele>219.0</ele><time>2026-04-25T12:31:31Z</time></trkpt><trkpt lat="45.48422182725998" lon="11.167102587430794"><ele>218.0</ele><time>2026-04-25T12:31:32Z</time></trkpt><trkpt lat="45.484061025984055" lon="11.167085813708878"><ele>217.0</ele><time>2026-04-25T12:31:33Z</time></trkpt><trkpt lat="45.48390626733431" lon="11.167058788151559"><ele>216.33333333333331</ele><time>2026-04-25T12:31:34Z</time></trkpt><trkpt lat="45.483751499292325" lon="11.167031596502575"><ele>215.66666666666669</ele><time>2026-04-25T12:31:35Z</time></trkpt><trkpt lat="45.48360530102819" lon="11.166975075453246"><ele>215.0</ele><time>2026-04-25T12:31:36Z</time></trkpt><trkpt lat="45.48345789026265" lon="11.166925905893548"><ele>215.0</ele><time>2026-04-25T12:31:37Z</time></trkpt><trkpt lat="45.48331637781651" lon="11.166877961818697"><ele>215.0</ele><time>2026-04-25T12:31:38Z</time></trkpt><trkpt lat="45.483183246846735" lon="11.166840878074888"><ele>215.0</ele><time>2026-04-25T12:31:39Z</time></trkpt><trkpt lat="45.48306467791466" lon="11.166810679210323"><ele>215.0</ele><time>2026-04-25T12:31:40Z</time></trkpt><trkpt lat="45.482939869423646" lon="11.166778891151582"><ele>214.75</ele><time>2026-04-25T12:31:41Z</time></trkpt><trkpt lat="45.48280931443474" lon="11.166739987504576"><ele>214.5</ele><time>2026-04-25T12:31:42Z</time></trkpt><trkpt lat="45.482692053328144" lon="11.16669959838658"><ele>214.25</ele><time>2026-04-25T12:31:43Z</time></trkpt><trkpt lat="45.48256882028867" lon="11.166655422847535"><ele>214.0</ele><time>2026-04-25T12:31:44Z</time></trkpt><trkpt lat="45.48246646580544" lon="11.166616055991357"><ele>214.0</ele><time>2026-04-25T12:31:45Z</time></trkpt><trkpt lat="45.482375909942625" lon="11.16658238892697"><ele>213.99999999999997</ele><time>2026-04-25T12:31:46Z</time></trkpt><trkpt lat="45.48229078776515" lon="11.16657321243616"><ele>213.99999999999997</ele><time>2026-04-25T12:31:47Z</time></trkpt><trkpt lat="45.48219577254254" lon="11.166520768558648"><ele>214.0</ele><time>2026-04-25T12:31:48Z</time></trkpt><trkpt lat="45.482109180205576" lon="11.166467006122355"><ele>214.0</ele><time>2026-04-25T12:31:49Z</time></trkpt><trkpt lat="45.48202105251864" lon="11.16642558926524"><ele>213.33333333333331</ele><time>2026-04-25T12:31:50Z</time></trkpt><trkpt lat="45.48194994304863" lon="11.166396506446072"><ele>212.66666666666666</ele><time>2026-04-25T12:31:51Z</time></trkpt><trkpt lat="45.48189303563847" lon="11.16635744764866"><ele>212.0</ele><time>2026-04-25T12:31:52Z</time></trkpt><trkpt lat="45.4818093029636" lon="11.16632354182438"><ele>211.33333333333331</ele><time>2026-04-25T12:31:54Z</time></trkpt><trkpt lat="45.48169862067925" lon="11.166309415220415"><ele>210.66666666666666</ele><time>2026-04-25T12:31:57Z</time></trkpt><trkpt lat="45.48162608122233" lon="11.16628170008441"><ele>210.0</ele><time>2026-04-25T12:31:58Z</time></trkpt><trkpt lat="45.48154997489171" lon="11.166234522949171"><ele>210.0</ele><time>2026-04-25T12:32:00Z</time></trkpt><trkpt lat="45.48144385442977" lon="11.166167244766717"><ele>210.0</ele><time>2026-04-25T12:32:02Z</time></trkpt><trkpt lat="45.48134351102262" lon="11.166108298794292"><ele>210.0</ele><time>2026-04-25T12:32:03Z</time></trkpt><trkpt lat="45.48121428288709" lon="11.16604350684578"><ele>210.0</ele><time>2026-04-25T12:32:04Z</time></trkpt><trkpt lat="45.481068276719554" lon="11.165970877260046"><ele>210.0</ele><time>2026-04-25T12:32:05Z</time></trkpt><trkpt lat="45.48091509239724" lon="11.165894762587687"><ele>210.0</ele><time>2026-04-25T12:32:06Z</time></trkpt><trkpt lat="45.48075329688301" lon="11.165809809775027"><ele>210.0</ele><time>2026-04-25T12:32:07Z</time></trkpt><trkpt lat="45.48060624740147" lon="11.165732317610527"><ele>209.25</ele><time>2026-04-25T12:32:08Z</time></trkpt><trkpt lat="45.48045822537799" lon="11.165656529665293"><ele>208.5</ele><time>2026-04-25T12:32:09Z</time></trkpt><trkpt lat="45.48031699867698" lon="11.165581663548407"><ele>207.75</ele><time>2026-04-25T12:32:10Z</time></trkpt><trkpt lat="45.480190028712876" lon="11.165505668910376"><ele>207.0</ele><time>2026-04-25T12:32:11Z</time></trkpt><trkpt lat="45.48006497456644" lon="11.165449554983097"><ele>206.25</ele><time>2026-04-25T12:32:12Z</time></trkpt><trkpt lat="45.47995062112849" lon="11.165368557863705"><ele>205.5</ele><time>2026-04-25T12:32:13Z</time></trkpt><trkpt lat="45.479835293315034" lon="11.16529315526642"><ele>204.75</ele><time>2026-04-25T12:32:14Z</time></trkpt><trkpt lat="45.47972709241813" lon="11.16523106016121"><ele>204.0</ele><time>2026-04-25T12:32:15Z</time></trkpt><trkpt lat="45.47963152173936" lon="11.165175191321318"><ele>203.6</ele><time>2026-04-25T12:32:16Z</time></trkpt><trkpt lat="45.479547105828644" lon="11.165130354219569"><ele>203.2</ele><time>2026-04-25T12:32:17Z</time></trkpt><trkpt lat="45.47946442588756" lon="11.165092728248277"><ele>202.79999999999998</ele><time>2026-04-25T12:32:18Z</time></trkpt><trkpt lat="45.479389555812496" lon="11.165044786574924"><ele>202.39999999999998</ele><time>2026-04-25T12:32:19Z</time></trkpt><trkpt lat="45.47929580244032" lon="11.16496989294165"><ele>202.0</ele><time>2026-04-25T12:32:21Z</time></trkpt><trkpt lat="45.47895679654637" lon="11.164815216815805"><ele>201.6</ele><time>2026-04-25T12:32:24Z</time></trkpt><trkpt lat="45.478868194113716" lon="11.164776585144738"><ele>201.2</ele><time>2026-04-25T12:32:25Z</time></trkpt><trkpt lat="45.47877115205956" lon="11.164728659365926"><ele>200.8</ele><time>2026-04-25T12:32:26Z</time></trkpt><trkpt lat="45.4786778840572" lon="11.164678619949724"><ele>200.4</ele><time>2026-04-25T12:32:27Z</time></trkpt><trkpt lat="45.47858140888902" lon="11.164636324221318"><ele>200.0</ele><time>2026-04-25T12:32:28Z</time></trkpt><trkpt lat="45.4784742084368" lon="11.164575402718944"><ele>199.6</ele><time>2026-04-25T12:32:29Z</time></trkpt><trkpt lat="45.47835257332985" lon="11.164516830757442"><ele>199.2</ele><time>2026-04-25T12:32:30Z</time></trkpt><trkpt lat="45.478245685729235" lon="11.16446653497903"><ele>198.8</ele><time>2026-04-25T12:32:31Z</time></trkpt><trkpt lat="45.478157826987" lon="11.164412362651655"><ele>198.4</ele><time>2026-04-25T12:32:32Z</time></trkpt><trkpt lat="45.478088744108696" lon="11.164379336839605"><ele>198.0</ele><time>2026-04-25T12:32:33Z</time></trkpt><trkpt lat="45.477972262545244" lon="11.164318477535264"><ele>197.60000000000002</ele><time>2026-04-25T12:32:35Z</time></trkpt><trkpt lat="45.477905752695825" lon="11.164280991280778"><ele>197.20000000000002</ele><time>2026-04-25T12:32:36Z</time></trkpt><trkpt lat="45.47778980565003" lon="11.164234499102243"><ele>196.8</ele><time>2026-04-25T12:32:38Z</time></trkpt><trkpt lat="45.47768013493627" lon="11.164198813091685"><ele>196.4</ele><time>2026-04-25T12:32:40Z</time></trkpt><trkpt lat="45.47758687667389" lon="11.164172949113933"><ele>196.0</ele><time>2026-04-25T12:32:42Z</time></trkpt><trkpt lat="45.47747245834574" lon="11.164125369347248"><ele>196.0</ele><time>2026-04-25T12:32:44Z</time></trkpt><trkpt lat="45.477403514446976" lon="11.164106240158267"><ele>196.0</ele><time>2026-04-25T12:32:45Z</time></trkpt><trkpt lat="45.47733996150557" lon="11.16409954734166"><ele>196.0</ele><time>2026-04-25T12:32:46Z</time></trkpt><trkpt lat="45.47726692867863" lon="11.164089864182444"><ele>196.0</ele><time>2026-04-25T12:32:47Z</time></trkpt><trkpt lat="45.47717750297885" lon="11.164056850426071"><ele>196.0</ele><time>2026-04-25T12:32:48Z</time></trkpt><trkpt lat="45.47709908543517" lon="11.164034184450308"><ele>196.0</ele><time>2026-04-25T12:32:49Z</time></trkpt><trkpt lat="45.47703387342404" lon="11.164007420274586"><ele>196.0</ele><time>2026-04-25T12:32:50Z</time></trkpt><trkpt lat="45.47697385732383" lon="11.163977443637268"><ele>195.4</ele><time>2026-04-25T12:32:51Z</time></trkpt><trkpt lat="45.47683572622098" lon="11.163967477217119"><ele>194.8</ele><time>2026-04-25T12:32:53Z</time></trkpt><trkpt lat="45.476718400577944" lon="11.16390012236043"><ele>194.20000000000002</ele><time>2026-04-25T12:32:55Z</time></trkpt><trkpt lat="45.476637161439655" lon="11.163851179472758"><ele>193.60000000000002</ele><time>2026-04-25T12:32:56Z</time></trkpt><trkpt lat="45.47657511382849" lon="11.16381604937972"><ele>193.0</ele><time>2026-04-25T12:32:57Z</time></trkpt><trkpt lat="45.476503264921654" lon="11.163818125911657"><ele>193.0</ele><time>2026-04-25T12:32:58Z</time></trkpt><trkpt lat="45.476435987036474" lon="11.163802123698865"><ele>193.0</ele><time>2026-04-25T12:32:59Z</time></trkpt><trkpt lat="45.47635920747957" lon="11.163780365694793"><ele>193.0</ele><time>2026-04-25T12:33:00Z</time></trkpt><trkpt lat="45.47625386374556" lon="11.163754190172833"><ele>193.0</ele><time>2026-04-25T12:33:01Z</time></trkpt><trkpt lat="45.476144124204616" lon="11.163716162737654"><ele>193.0</ele><time>2026-04-25T12:33:02Z</time></trkpt><trkpt lat="45.47604150139801" lon="11.163691430239055"><ele>192.49999999999997</ele><time>2026-04-25T12:33:03Z</time></trkpt><trkpt lat="45.47597338645163" lon="11.163661499596042"><ele>192.0</ele><time>2026-04-25T12:33:04Z</time></trkpt><trkpt lat="45.475893338257464" lon="11.163620723401728"><ele>191.5</ele><time>2026-04-25T12:33:05Z</time></trkpt><trkpt lat="45.475811208943426" lon="11.16360334352009"><ele>191.0</ele><time>2026-04-25T12:33:06Z</time></trkpt><trkpt lat="45.47572355005204" lon="11.163559546997305"><ele>190.5</ele><time>2026-04-25T12:33:07Z</time></trkpt><trkpt lat="45.47563224861612" lon="11.1635357825256"><ele>190.0</ele><time>2026-04-25T12:33:08Z</time></trkpt><trkpt lat="45.47555102697361" lon="11.16349663719041"><ele>190.0</ele><time>2026-04-25T12:33:09Z</time></trkpt><trkpt lat="45.47548260692961" lon="11.163482775422745"><ele>190.0</ele><time>2026-04-25T12:33:10Z</time></trkpt><trkpt lat="45.47541507935428" lon="11.163475696721154"><ele>190.0</ele><time>2026-04-25T12:33:11Z</time></trkpt><trkpt lat="45.47535542853767" lon="11.16344324719418"><ele>190.0</ele><time>2026-04-25T12:33:12Z</time></trkpt><trkpt lat="45.475274894290806" lon="11.163381519076687"><ele>190.0</ele><time>2026-04-25T12:33:14Z</time></trkpt><trkpt lat="45.47519962659839" lon="11.163373119119246"><ele>190.0</ele><time>2026-04-25T12:33:15Z</time></trkpt><trkpt lat="45.47512270110926" lon="11.163368262645431"><ele>190.0</ele><time>2026-04-25T12:33:16Z</time></trkpt><trkpt lat="45.47502903865241" lon="11.163326760265173"><ele>189.66666666666669</ele><time>2026-04-25T12:33:17Z</time></trkpt><trkpt lat="45.47495427290014" lon="11.163313388682353"><ele>189.33333333333334</ele><time>2026-04-25T12:33:18Z</time></trkpt><trkpt lat="45.474886885364384" lon="11.163273146926683"><ele>189.0</ele><time>2026-04-25T12:33:19Z</time></trkpt><trkpt lat="45.47481665758412" lon="11.163258619132257"><ele>188.66666666666666</ele><time>2026-04-25T12:33:20Z</time></trkpt><trkpt lat="45.474685125495284" lon="11.1632388238196"><ele>188.33333333333331</ele><time>2026-04-25T12:33:22Z</time></trkpt><trkpt lat="45.4745958766578" lon="11.16323124675316"><ele>188.0</ele><time>2026-04-25T12:33:23Z</time></trkpt><trkpt lat="45.47451649485058" lon="11.163170863768338"><ele>187.66666666666666</ele><time>2026-04-25T12:33:24Z</time></trkpt><trkpt lat="45.474443095708125" lon="11.163136954649906"><ele>187.33333333333331</ele><time>2026-04-25T12:33:25Z</time></trkpt><trkpt lat="45.47436604844119" lon="11.1631052521076"><ele>187.0</ele><time>2026-04-25T12:33:26Z</time></trkpt><trkpt lat="45.474289621127376" lon="11.163082965719655"><ele>186.66666666666666</ele><time>2026-04-25T12:33:27Z</time></trkpt><trkpt lat="45.474207912233794" lon="11.163070866710273"><ele>186.33333333333334</ele><time>2026-04-25T12:33:28Z</time></trkpt><trkpt lat="45.47414441769676" lon="11.163073428802507"><ele>186.0</ele><time>2026-04-25T12:33:29Z</time></trkpt><trkpt lat="45.474037580310224" lon="11.163081106543533"><ele>186.0</ele><time>2026-04-25T12:33:31Z</time></trkpt><trkpt lat="45.47390840981733" lon="11.163064456517873"><ele>186.0</ele><time>2026-04-25T12:33:33Z</time></trkpt><trkpt lat="45.47381968555691" lon="11.163053414515117"><ele>186.0</ele><time>2026-04-25T12:33:35Z</time></trkpt><trkpt lat="45.47370979689767" lon="11.16310706187231"><ele>186.0</ele><time>2026-04-25T12:33:37Z</time></trkpt><trkpt lat="45.473589732691416" lon="11.16311919207841"><ele>185.60000000000002</ele><time>2026-04-25T12:33:39Z</time></trkpt><trkpt lat="45.47350072962532" lon="11.163130523670416"><ele>185.2</ele><time>2026-04-25T12:33:41Z</time></trkpt><trkpt lat="45.47343650258015" lon="11.163152547434539"><ele>184.8</ele><time>2026-04-25T12:33:42Z</time></trkpt><trkpt lat="45.47332735605321" lon="11.163179755710294"><ele>184.39999999999998</ele><time>2026-04-25T12:33:44Z</time></trkpt><trkpt lat="45.4731893668062" lon="11.16320694990814"><ele>184.0</ele><time>2026-04-25T12:33:46Z</time></trkpt><trkpt lat="45.4731113493629" lon="11.16324012515124"><ele>184.0</ele><time>2026-04-25T12:33:47Z</time></trkpt><trkpt lat="45.47303648446011" lon="11.163252302102299"><ele>184.0</ele><time>2026-04-25T12:33:48Z</time></trkpt><trkpt lat="45.47295842012015" lon="11.163270859288147"><ele>184.0</ele><time>2026-04-25T12:33:49Z</time></trkpt><trkpt lat="45.47287401658336" lon="11.163264147044963"><ele>184.0</ele><time>2026-04-25T12:33:50Z</time></trkpt><trkpt lat="45.47279108682439" lon="11.163276558749079"><ele>184.0</ele><time>2026-04-25T12:33:51Z</time></trkpt><trkpt lat="45.47267567696208" lon="11.163291475708688"><ele>184.0</ele><time>2026-04-25T12:33:53Z</time></trkpt><trkpt lat="45.47256843263568" lon="11.163318016520828"><ele>183.71428571428572</ele><time>2026-04-25T12:33:55Z</time></trkpt><trkpt lat="45.47250331469945" lon="11.163324023142378"><ele>183.42857142857142</ele><time>2026-04-25T12:33:56Z</time></trkpt><trkpt lat="45.47242960538333" lon="11.16335442888238"><ele>183.14285714285714</ele><time>2026-04-25T12:33:57Z</time></trkpt><trkpt lat="45.47235548661292" lon="11.163362962651352"><ele>182.85714285714286</ele><time>2026-04-25T12:33:58Z</time></trkpt><trkpt lat="45.47227747327409" lon="11.163372930954864"><ele>182.57142857142856</ele><time>2026-04-25T12:33:59Z</time></trkpt><trkpt lat="45.47220153242375" lon="11.163386065263635"><ele>182.28571428571428</ele><time>2026-04-25T12:34:00Z</time></trkpt><trkpt lat="45.47212969212415" lon="11.163396596715328"><ele>182.0</ele><time>2026-04-25T12:34:01Z</time></trkpt><trkpt lat="45.47206093440363" lon="11.163405011569477"><ele>181.66666666666666</ele><time>2026-04-25T12:34:02Z</time></trkpt><trkpt lat="45.471997767024284" lon="11.163416736128047"><ele>181.33333333333331</ele><time>2026-04-25T12:34:03Z</time></trkpt><trkpt lat="45.47188858964617" lon="11.163446547703622"><ele>181.0</ele><time>2026-04-25T12:34:05Z</time></trkpt><trkpt lat="45.47180819077168" lon="11.163438809402384"><ele>180.66666666666666</ele><time>2026-04-25T12:34:07Z</time></trkpt><trkpt lat="45.47174382022609" lon="11.163461417990657"><ele>180.33333333333334</ele><time>2026-04-25T12:34:09Z</time></trkpt><trkpt lat="45.47166252883969" lon="11.163487400526945"><ele>180.0</ele><time>2026-04-25T12:34:12Z</time></trkpt><trkpt lat="45.47159317293069" lon="11.163514268640762"><ele>180.0</ele><time>2026-04-25T12:34:23Z</time></trkpt><trkpt lat="45.471583088569915" lon="11.163683655092465"><ele>180.0</ele><time>2026-04-25T12:34:24Z</time></trkpt><trkpt lat="45.471554708774946" lon="11.163781816806043"><ele>180.0</ele><time>2026-04-25T12:34:26Z</time></trkpt><trkpt lat="45.4713974125033" lon="11.16379180180228"><ele>180.0</ele><time>2026-04-25T12:34:29Z</time></trkpt><trkpt lat="45.471319203402835" lon="11.16377922811898"><ele>180.0</ele><time>2026-04-25T12:34:30Z</time></trkpt><trkpt lat="45.47122987297292" lon="11.163769816407518"><ele>179.33333333333334</ele><time>2026-04-25T12:34:31Z</time></trkpt><trkpt lat="45.4711551818165" lon="11.163764073922865"><ele>178.66666666666666</ele><time>2026-04-25T12:34:32Z</time></trkpt><trkpt lat="45.47107899733297" lon="11.163755163181362"><ele>178.0</ele><time>2026-04-25T12:34:33Z</time></trkpt><trkpt lat="45.47100949147489" lon="11.163751598176335"><ele>177.33333333333331</ele><time>2026-04-25T12:34:34Z</time></trkpt><trkpt lat="45.47092851276308" lon="11.16375816363999"><ele>176.66666666666666</ele><time>2026-04-25T12:34:36Z</time></trkpt><trkpt lat="45.470892167966" lon="11.163885382614634"><ele>176.0</ele><time>2026-04-25T12:34:38Z</time></trkpt><trkpt lat="45.47089333937818" lon="11.164083528524754"><ele>176.0</ele><time>2026-04-25T12:34:40Z</time></trkpt><trkpt lat="45.470890514096105" lon="11.164219687120317"><ele>176.0</ele><time>2026-04-25T12:34:41Z</time></trkpt><trkpt lat="45.47088480026002" lon="11.164320903090342"><ele>176.0</ele><time>2026-04-25T12:34:42Z</time></trkpt><trkpt lat="45.47088129728691" lon="11.164412758597425"><ele>176.0</ele><time>2026-04-25T12:34:44Z</time></trkpt><trkpt lat="45.47083443458204" lon="11.164501858568496"><ele>176.0</ele><time>2026-04-25T12:34:48Z</time></trkpt><trkpt lat="45.47069351395796" lon="11.164490921590524"><ele>176.0</ele><time>2026-04-25T12:34:50Z</time></trkpt><trkpt lat="45.47061613258636" lon="11.16447840102932"><ele>176.0</ele><time>2026-04-25T12:34:51Z</time></trkpt><trkpt lat="45.4705428457244" lon="11.164481282999242"><ele>176.0</ele><time>2026-04-25T12:34:52Z</time></trkpt><trkpt lat="45.47047004101212" lon="11.164481204736994"><ele>176.0</ele><time>2026-04-25T12:34:53Z</time></trkpt><trkpt lat="45.47040055312346" lon="11.164469081946786"><ele>176.0</ele><time>2026-04-25T12:34:54Z</time></trkpt><trkpt lat="45.47032117174543" lon="11.164470361617278"><ele>176.0</ele><time>2026-04-25T12:34:55Z</time></trkpt><trkpt lat="45.47024239561371" lon="11.164471445512621"><ele>175.5</ele><time>2026-04-25T12:34:56Z</time></trkpt><trkpt lat="45.47015924518066" lon="11.164481047121457"><ele>175.0</ele><time>2026-04-25T12:34:57Z</time></trkpt><trkpt lat="45.470086766955745" lon="11.164481031609263"><ele>174.5</ele><time>2026-04-25T12:34:58Z</time></trkpt><trkpt lat="45.47001487110604" lon="11.164469787508748"><ele>174.0</ele><time>2026-04-25T12:34:59Z</time></trkpt><trkpt lat="45.46991846120783" lon="11.164467361869457"><ele>173.5</ele><time>2026-04-25T12:35:00Z</time></trkpt><trkpt lat="45.469836816002655" lon="11.164454407167758"><ele>173.0</ele><time>2026-04-25T12:35:01Z</time></trkpt><trkpt lat="45.469723115616695" lon="11.164476864661086"><ele>173.0</ele><time>2026-04-25T12:35:03Z</time></trkpt><trkpt lat="45.46964549412737" lon="11.16452640835968"><ele>173.0</ele><time>2026-04-25T12:35:06Z</time></trkpt><trkpt lat="45.46957042066177" lon="11.164455908489757"><ele>173.0</ele><time>2026-04-25T12:35:08Z</time></trkpt><trkpt lat="45.469486660829126" lon="11.16441758271389"><ele>173.0</ele><time>2026-04-25T12:35:10Z</time></trkpt><trkpt lat="45.46935944199477" lon="11.164401985780115"><ele>173.0</ele><time>2026-04-25T12:35:12Z</time></trkpt><trkpt lat="45.4692474759258" lon="11.16439400869979"><ele>172.0</ele><time>2026-04-25T12:35:13Z</time></trkpt><trkpt lat="45.469128346248695" lon="11.164404725292565"><ele>171.0</ele><time>2026-04-25T12:35:14Z</time></trkpt><trkpt lat="45.46900445397521" lon="11.164381076187016"><ele>170.0</ele><time>2026-04-25T12:35:15Z</time></trkpt><trkpt lat="45.4688808670753" lon="11.164362734978308"><ele>169.0</ele><time>2026-04-25T12:35:16Z</time></trkpt><trkpt lat="45.4687576447449" lon="11.164344805986547"><ele>168.75</ele><time>2026-04-25T12:35:17Z</time></trkpt><trkpt lat="45.468631559289705" lon="11.164324202506446"><ele>168.5</ele><time>2026-04-25T12:35:18Z</time></trkpt><trkpt lat="45.46850786361672" lon="11.164302737775675"><ele>168.25</ele><time>2026-04-25T12:35:19Z</time></trkpt><trkpt lat="45.468383428882426" lon="11.164283645725916"><ele>168.0</ele><time>2026-04-25T12:35:20Z</time></trkpt><trkpt lat="45.46825945167811" lon="11.16427725329205"><ele>168.0</ele><time>2026-04-25T12:35:21Z</time></trkpt><trkpt lat="45.468131991814246" lon="11.16423784056238"><ele>168.0</ele><time>2026-04-25T12:35:22Z</time></trkpt><trkpt lat="45.46800326171382" lon="11.164222321146402"><ele>168.0</ele><time>2026-04-25T12:35:23Z</time></trkpt><trkpt lat="45.46787168590767" lon="11.164223117304472"><ele>168.0</ele><time>2026-04-25T12:35:24Z</time></trkpt><trkpt lat="45.46773960988592" lon="11.164196447465043"><ele>167.25</ele><time>2026-04-25T12:35:25Z</time></trkpt><trkpt lat="45.46760557680098" lon="11.164179315932042"><ele>166.5</ele><time>2026-04-25T12:35:26Z</time></trkpt><trkpt lat="45.467473465541566" lon="11.164172487474765"><ele>165.75</ele><time>2026-04-25T12:35:27Z</time></trkpt><trkpt lat="45.467346516312894" lon="11.164175673390194"><ele>165.0</ele><time>2026-04-25T12:35:28Z</time></trkpt><trkpt lat="45.467222675402304" lon="11.164192063160241"><ele>164.25</ele><time>2026-04-25T12:35:29Z</time></trkpt><trkpt lat="45.46709706048713" lon="11.16420303194241"><ele>163.5</ele><time>2026-04-25T12:35:30Z</time></trkpt><trkpt lat="45.46696892613045" lon="11.164221849257045"><ele>162.75</ele><time>2026-04-25T12:35:31Z</time></trkpt><trkpt lat="45.46684123620279" lon="11.164229482707528"><ele>162.0</ele><time>2026-04-25T12:35:32Z</time></trkpt><trkpt lat="45.46671030757103" lon="11.164225150758519"><ele>162.0</ele><time>2026-04-25T12:35:33Z</time></trkpt><trkpt lat="45.466577133492905" lon="11.164204866184187"><ele>162.0</ele><time>2026-04-25T12:35:34Z</time></trkpt><trkpt lat="45.466445095766794" lon="11.164156643199178"><ele>162.0</ele><time>2026-04-25T12:35:35Z</time></trkpt><trkpt lat="45.46630709170079" lon="11.164088979446415"><ele>162.0</ele><time>2026-04-25T12:35:36Z</time></trkpt><trkpt lat="45.46616812707861" lon="11.164025806183442"><ele>161.5</ele><time>2026-04-25T12:35:37Z</time></trkpt><trkpt lat="45.466025558810514" lon="11.163973474383333"><ele>161.0</ele><time>2026-04-25T12:35:38Z</time></trkpt><trkpt lat="45.46588638745026" lon="11.16393592596998"><ele>160.5</ele><time>2026-04-25T12:35:39Z</time></trkpt><trkpt lat="45.46575692100229" lon="11.163910780503036"><ele>160.0</ele><time>2026-04-25T12:35:40Z</time></trkpt><trkpt lat="45.46563029809568" lon="11.163911722739849"><ele>160.0</ele><time>2026-04-25T12:35:41Z</time></trkpt><trkpt lat="45.46549182815187" lon="11.163919548287222"><ele>160.0</ele><time>2026-04-25T12:35:42Z</time></trkpt><trkpt lat="45.4653538471698" lon="11.163897874693493"><ele>160.0</ele><time>2026-04-25T12:35:43Z</time></trkpt><trkpt lat="45.465206167464764" lon="11.163899721774786"><ele>160.0</ele><time>2026-04-25T12:35:44Z</time></trkpt><trkpt lat="45.46505583726783" lon="11.163901602005593"><ele>159.33333333333334</ele><time>2026-04-25T12:35:45Z</time></trkpt><trkpt lat="45.46491158504593" lon="11.163916873898351"><ele>158.66666666666666</ele><time>2026-04-25T12:35:46Z</time></trkpt><trkpt lat="45.46475541268985" lon="11.16391708204924"><ele>158.0</ele><time>2026-04-25T12:35:47Z</time></trkpt><trkpt lat="45.46458853287162" lon="11.163911995533736"><ele>157.0</ele><time>2026-04-25T12:35:48Z</time></trkpt><trkpt lat="45.464421352872414" lon="11.163913183487415"><ele>156.0</ele><time>2026-04-25T12:35:49Z</time></trkpt><trkpt lat="45.464250974330064" lon="11.163915310730706"><ele>155.0</ele><time>2026-04-25T12:35:50Z</time></trkpt><trkpt lat="45.46407970351803" lon="11.163918580135697"><ele>155.0</ele><time>2026-04-25T12:35:51Z</time></trkpt><trkpt lat="45.46391096447427" lon="11.163922463910104"><ele>155.0</ele><time>2026-04-25T12:35:52Z</time></trkpt><trkpt lat="45.46373601749473" lon="11.163930646938713"><ele>155.0</ele><time>2026-04-25T12:35:53Z</time></trkpt><trkpt lat="45.46357363906839" lon="11.16392744216538"><ele>154.25</ele><time>2026-04-25T12:35:54Z</time></trkpt><trkpt lat="45.46341797988266" lon="11.163931791096509"><ele>153.5</ele><time>2026-04-25T12:35:55Z</time></trkpt><trkpt lat="45.463278725673085" lon="11.163925918944866"><ele>152.75</ele><time>2026-04-25T12:35:56Z</time></trkpt><trkpt lat="45.46314443465888" lon="11.163933493228061"><ele>152.0</ele><time>2026-04-25T12:35:57Z</time></trkpt><trkpt lat="45.4630226088905" lon="11.163938855498818"><ele>151.6</ele><time>2026-04-25T12:35:58Z</time></trkpt><trkpt lat="45.462924419640856" lon="11.163930923211845"><ele>151.2</ele><time>2026-04-25T12:35:59Z</time></trkpt><trkpt lat="45.46285544006711" lon="11.163934610846951"><ele>150.8</ele><time>2026-04-25T12:36:00Z</time></trkpt><trkpt lat="45.46277371606398" lon="11.163959776545475"><ele>150.4</ele><time>2026-04-25T12:36:02Z</time></trkpt><trkpt lat="45.46268244830052" lon="11.163956984514016"><ele>150.0</ele><time>2026-04-25T12:36:07Z</time></trkpt><trkpt lat="45.462560758482944" lon="11.163986857427847"><ele>150.0</ele><time>2026-04-25T12:36:09Z</time></trkpt><trkpt lat="45.46246500747681" lon="11.164020586424375"><ele>150.0</ele><time>2026-04-25T12:36:10Z</time></trkpt><trkpt lat="45.46235705319919" lon="11.164069150317681"><ele>150.0</ele><time>2026-04-25T12:36:11Z</time></trkpt><trkpt lat="45.46225350650142" lon="11.164109815793829"><ele>150.0</ele><time>2026-04-25T12:36:12Z</time></trkpt><trkpt lat="45.462138301309" lon="11.16416270716582"><ele>150.0</ele><time>2026-04-25T12:36:13Z</time></trkpt><trkpt lat="45.462013480790986" lon="11.164225465714392"><ele>149.25</ele><time>2026-04-25T12:36:14Z</time></trkpt><trkpt lat="45.461887118976925" lon="11.164302639455956"><ele>148.5</ele><time>2026-04-25T12:36:15Z</time></trkpt><trkpt lat="45.46176342123631" lon="11.164373405836166"><ele>147.75</ele><time>2026-04-25T12:36:16Z</time></trkpt><trkpt lat="45.46163404701618" lon="11.164439721755107"><ele>147.0</ele><time>2026-04-25T12:36:17Z</time></trkpt><trkpt lat="45.461504115998224" lon="11.164493014821792"><ele>147.0</ele><time>2026-04-25T12:36:18Z</time></trkpt><trkpt lat="45.461370636291576" lon="11.164537234539814"><ele>147.0</ele><time>2026-04-25T12:36:19Z</time></trkpt><trkpt lat="45.46122112567023" lon="11.16455624561124"><ele>147.0</ele><time>2026-04-25T12:36:20Z</time></trkpt><trkpt lat="45.46106385626711" lon="11.164546792221051"><ele>147.0</ele><time>2026-04-25T12:36:21Z</time></trkpt><trkpt lat="45.460901338683215" lon="11.164515583677549"><ele>146.66666666666666</ele><time>2026-04-25T12:36:22Z</time></trkpt><trkpt lat="45.46073069269173" lon="11.164460900512296"><ele>146.33333333333331</ele><time>2026-04-25T12:36:23Z</time></trkpt><trkpt lat="45.46056003093843" lon="11.164383708684346"><ele>146.0</ele><time>2026-04-25T12:36:24Z</time></trkpt><trkpt lat="45.460389145148866" lon="11.164303789845228"><ele>144.66666666666666</ele><time>2026-04-25T12:36:25Z</time></trkpt><trkpt lat="45.46021196381525" lon="11.164226683076821"><ele>143.33333333333334</ele><time>2026-04-25T12:36:26Z</time></trkpt><trkpt lat="45.460031204678465" lon="11.16415278312441"><ele>142.0</ele><time>2026-04-25T12:36:27Z</time></trkpt><trkpt lat="45.45985744629199" lon="11.164091659690577"><ele>142.0</ele><time>2026-04-25T12:36:28Z</time></trkpt><trkpt lat="45.459692245021785" lon="11.164033562081448"><ele>142.0</ele><time>2026-04-25T12:36:29Z</time></trkpt><trkpt lat="45.45952980265923" lon="11.163986226933307"><ele>142.0</ele><time>2026-04-25T12:36:30Z</time></trkpt><trkpt lat="45.45937311458543" lon="11.163942495404156"><ele>141.0</ele><time>2026-04-25T12:36:31Z</time></trkpt><trkpt lat="45.45921650074736" lon="11.163902206795"><ele>140.0</ele><time>2026-04-25T12:36:32Z</time></trkpt><trkpt lat="45.459059204373894" lon="11.163865402196693"><ele>139.0</ele><time>2026-04-25T12:36:33Z</time></trkpt><trkpt lat="45.45889984248814" lon="11.16382982454758"><ele>138.33333333333334</ele><time>2026-04-25T12:36:34Z</time></trkpt><trkpt lat="45.45874147011618" lon="11.163795362068598"><ele>137.66666666666666</ele><time>2026-04-25T12:36:35Z</time></trkpt><trkpt lat="45.45859015755547" lon="11.163761717265023"><ele>137.0</ele><time>2026-04-25T12:36:36Z</time></trkpt><trkpt lat="45.4584440719412" lon="11.16372769205447"><ele>137.0</ele><time>2026-04-25T12:36:37Z</time></trkpt><trkpt lat="45.45829969026516" lon="11.163695037188061"><ele>137.0</ele><time>2026-04-25T12:36:38Z</time></trkpt><trkpt lat="45.45815536724045" lon="11.16366347342668"><ele>137.0</ele><time>2026-04-25T12:36:39Z</time></trkpt><trkpt lat="45.45801418290969" lon="11.16363560740954"><ele>137.0</ele><time>2026-04-25T12:36:40Z</time></trkpt><trkpt lat="45.45787878014785" lon="11.163607252778824"><ele>136.5</ele><time>2026-04-25T12:36:41Z</time></trkpt><trkpt lat="45.45773500967294" lon="11.163572425191015"><ele>136.0</ele><time>2026-04-25T12:36:42Z</time></trkpt><trkpt lat="45.457596912264606" lon="11.163540492771105"><ele>135.5</ele><time>2026-04-25T12:36:43Z</time></trkpt><trkpt lat="45.45746579275734" lon="11.163514843834685"><ele>135.0</ele><time>2026-04-25T12:36:44Z</time></trkpt><trkpt lat="45.457338745621534" lon="11.163495050164046"><ele>135.0</ele><time>2026-04-25T12:36:45Z</time></trkpt><trkpt lat="45.457206019578294" lon="11.163475186407457"><ele>135.0</ele><time>2026-04-25T12:36:46Z</time></trkpt><trkpt lat="45.45710339105909" lon="11.163458392346007"><ele>135.0</ele><time>2026-04-25T12:36:47Z</time></trkpt><trkpt lat="45.457006110316726" lon="11.163468695493638"><ele>135.0</ele><time>2026-04-25T12:36:48Z</time></trkpt><trkpt lat="45.456908878413266" lon="11.163441222836408"><ele>135.0</ele><time>2026-04-25T12:36:49Z</time></trkpt><trkpt lat="45.456788348754685" lon="11.163456838069795"><ele>134.25</ele><time>2026-04-25T12:36:50Z</time></trkpt><trkpt lat="45.456665766519166" lon="11.163362780486876"><ele>133.5</ele><time>2026-04-25T12:36:51Z</time></trkpt><trkpt lat="45.45653282825876" lon="11.163315709329574"><ele>132.75</ele><time>2026-04-25T12:36:52Z</time></trkpt><trkpt lat="45.456378981836735" lon="11.163289554619228"><ele>132.0</ele><time>2026-04-25T12:36:53Z</time></trkpt><trkpt lat="45.45622242409296" lon="11.163265267997346"><ele>131.5</ele><time>2026-04-25T12:36:54Z</time></trkpt><trkpt lat="45.456072408493995" lon="11.16325394881092"><ele>131.0</ele><time>2026-04-25T12:36:55Z</time></trkpt><trkpt lat="45.45592725566934" lon="11.16324258769952"><ele>130.5</ele><time>2026-04-25T12:36:56Z</time></trkpt><trkpt lat="45.455780076837684" lon="11.163243298347172"><ele>130.0</ele><time>2026-04-25T12:36:57Z</time></trkpt><trkpt lat="45.455632892153" lon="11.163231561267356"><ele>130.0</ele><time>2026-04-25T12:36:58Z</time></trkpt><trkpt lat="45.4554818553643" lon="11.163216518942672"><ele>130.0</ele><time>2026-04-25T12:36:59Z</time></trkpt><trkpt lat="45.45533142949467" lon="11.163205168589961"><ele>130.0</ele><time>2026-04-25T12:37:00Z</time></trkpt><trkpt lat="45.45517287199792" lon="11.163194783000952"><ele>129.0</ele><time>2026-04-25T12:37:01Z</time></trkpt><trkpt lat="45.45501224630928" lon="11.163180585374278"><ele>128.0</ele><time>2026-04-25T12:37:02Z</time></trkpt><trkpt lat="45.454844670547644" lon="11.163162117891767"><ele>127.0</ele><time>2026-04-25T12:37:03Z</time></trkpt><trkpt lat="45.45467145215659" lon="11.163145743089341"><ele>126.33333333333334</ele><time>2026-04-25T12:37:04Z</time></trkpt><trkpt lat="45.45450084972848" lon="11.16313923412716"><ele>125.66666666666666</ele><time>2026-04-25T12:37:05Z</time></trkpt><trkpt lat="45.454334576144525" lon="11.163142415902753"><ele>125.0</ele><time>2026-04-25T12:37:06Z</time></trkpt><trkpt lat="45.45417597933559" lon="11.163148288983233"><ele>125.0</ele><time>2026-04-25T12:37:07Z</time></trkpt><trkpt lat="45.453999388175625" lon="11.163165401594357"><ele>125.0</ele><time>2026-04-25T12:37:08Z</time></trkpt><trkpt lat="45.45382353307247" lon="11.16318796591789"><ele>125.0</ele><time>2026-04-25T12:37:09Z</time></trkpt><trkpt lat="45.453647595367116" lon="11.163225197928053"><ele>124.5</ele><time>2026-04-25T12:37:11Z</time></trkpt><trkpt lat="45.453503655893805" lon="11.163261477020423"><ele>124.0</ele><time>2026-04-25T12:37:12Z</time></trkpt><trkpt lat="45.45335406151791" lon="11.163286225149557"><ele>123.5</ele><time>2026-04-25T12:37:13Z</time></trkpt><trkpt lat="45.453206487668055" lon="11.163240008894501"><ele>123.0</ele><time>2026-04-25T12:37:14Z</time></trkpt><trkpt lat="45.45305365118714" lon="11.163193440014018"><ele>122.33333333333334</ele><time>2026-04-25T12:37:15Z</time></trkpt><trkpt lat="45.45290943760005" lon="11.163134707766135"><ele>121.66666666666667</ele><time>2026-04-25T12:37:16Z</time></trkpt><trkpt lat="45.45276609754651" lon="11.163069825629858"><ele>121.0</ele><time>2026-04-25T12:37:17Z</time></trkpt><trkpt lat="45.452617391805205" lon="11.163023571451621"><ele>121.0</ele><time>2026-04-25T12:37:18Z</time></trkpt><trkpt lat="45.45247080395484" lon="11.16295248686743"><ele>121.0</ele><time>2026-04-25T12:37:19Z</time></trkpt><trkpt lat="45.45232939242548" lon="11.162886219161168"><ele>121.0</ele><time>2026-04-25T12:37:20Z</time></trkpt><trkpt lat="45.45220500726913" lon="11.16282314796701"><ele>121.0</ele><time>2026-04-25T12:37:21Z</time></trkpt><trkpt lat="45.452075655013424" lon="11.16275348716517"><ele>120.5</ele><time>2026-04-25T12:37:22Z</time></trkpt><trkpt lat="45.45195218625782" lon="11.162687918534717"><ele>120.0</ele><time>2026-04-25T12:37:23Z</time></trkpt><trkpt lat="45.451817523413396" lon="11.162630656419042"><ele>119.5</ele><time>2026-04-25T12:37:24Z</time></trkpt><trkpt lat="45.451680972574124" lon="11.1625608817449"><ele>119.0</ele><time>2026-04-25T12:37:25Z</time></trkpt><trkpt lat="45.451540240104734" lon="11.162480204371258"><ele>119.0</ele><time>2026-04-25T12:37:26Z</time></trkpt><trkpt lat="45.45139708257506" lon="11.162411437582984"><ele>119.0</ele><time>2026-04-25T12:37:27Z</time></trkpt><trkpt lat="45.45125168733317" lon="11.16235261456632"><ele>119.0</ele><time>2026-04-25T12:37:28Z</time></trkpt><trkpt lat="45.4511082606539" lon="11.162279614026023"><ele>118.0</ele><time>2026-04-25T12:37:29Z</time></trkpt><trkpt lat="45.450954444073815" lon="11.162201081321466"><ele>117.0</ele><time>2026-04-25T12:37:30Z</time></trkpt><trkpt lat="45.4508049053638" lon="11.162120454405926"><ele>116.0</ele><time>2026-04-25T12:37:31Z</time></trkpt><trkpt lat="45.45065337420337" lon="11.16204634122946"><ele>116.0</ele><time>2026-04-25T12:37:32Z</time></trkpt><trkpt lat="45.4504907865537" lon="11.161952471532317"><ele>116.0</ele><time>2026-04-25T12:37:33Z</time></trkpt><trkpt lat="45.4503353785981" lon="11.161870485099762"><ele>116.0</ele><time>2026-04-25T12:37:34Z</time></trkpt><trkpt lat="45.4501873430653" lon="11.161800564477486"><ele>115.0</ele><time>2026-04-25T12:37:35Z</time></trkpt><trkpt lat="45.45003386054019" lon="11.161750914295215"><ele>114.0</ele><time>2026-04-25T12:37:36Z</time></trkpt><trkpt lat="45.449880131729344" lon="11.161723310923879"><ele>113.0</ele><time>2026-04-25T12:37:37Z</time></trkpt><trkpt lat="45.44971284203309" lon="11.161713286223364"><ele>112.66666666666666</ele><time>2026-04-25T12:37:38Z</time></trkpt><trkpt lat="45.44954274263574" lon="11.161711875502645"><ele>112.33333333333334</ele><time>2026-04-25T12:37:39Z</time></trkpt><trkpt lat="45.449382916549986" lon="11.16170578208714"><ele>112.0</ele><time>2026-04-25T12:37:40Z</time></trkpt><trkpt lat="45.449225509943716" lon="11.16170235340179"><ele>112.0</ele><time>2026-04-25T12:37:41Z</time></trkpt><trkpt lat="45.44906648239276" lon="11.161690636701799"><ele>112.0</ele><time>2026-04-25T12:37:42Z</time></trkpt><trkpt lat="45.448903335029236" lon="11.161675725895478"><ele>112.0</ele><time>2026-04-25T12:37:43Z</time></trkpt><trkpt lat="45.448744512489185" lon="11.161659061739472"><ele>110.66666666666667</ele><time>2026-04-25T12:37:44Z</time></trkpt><trkpt lat="45.44857739150673" lon="11.161641739610499"><ele>109.33333333333334</ele><time>2026-04-25T12:37:45Z</time></trkpt><trkpt lat="45.44841712974157" lon="11.161621106624"><ele>108.0</ele><time>2026-04-25T12:37:46Z</time></trkpt><trkpt lat="45.44826228371443" lon="11.161603941332048"><ele>108.0</ele><time>2026-04-25T12:37:47Z</time></trkpt><trkpt lat="45.44812282922229" lon="11.161581073774753"><ele>108.0</ele><time>2026-04-25T12:37:48Z</time></trkpt><trkpt lat="45.44799043312524" lon="11.16155519845116"><ele>108.0</ele><time>2026-04-25T12:37:49Z</time></trkpt><trkpt lat="45.4478702169389" lon="11.161529167438527"><ele>108.0</ele><time>2026-04-25T12:37:50Z</time></trkpt><trkpt lat="45.4477562933606" lon="11.161499910388454"><ele>107.80000000000001</ele><time>2026-04-25T12:37:51Z</time></trkpt><trkpt lat="45.44764035720809" lon="11.161464587899344"><ele>107.60000000000001</ele><time>2026-04-25T12:37:52Z</time></trkpt><trkpt lat="45.447527929474646" lon="11.161435454691555"><ele>107.39999999999999</ele><time>2026-04-25T12:37:53Z</time></trkpt><trkpt lat="45.44742793632104" lon="11.161412195074513"><ele>107.19999999999999</ele><time>2026-04-25T12:37:54Z</time></trkpt><trkpt lat="45.44733307080115" lon="11.161392408832524"><ele>107.0</ele><time>2026-04-25T12:37:55Z</time></trkpt><trkpt lat="45.44724707479593" lon="11.161374621062564"><ele>106.99999999999999</ele><time>2026-04-25T12:37:56Z</time></trkpt><trkpt lat="45.447171940632636" lon="11.161332256303513"><ele>107.0</ele><time>2026-04-25T12:37:57Z</time></trkpt><trkpt lat="45.44712588096421" lon="11.161258805392922"><ele>107.0</ele><time>2026-04-25T12:37:58Z</time></trkpt><trkpt lat="45.447086931669986" lon="11.161172398365059"><ele>107.0</ele><time>2026-04-25T12:37:59Z</time></trkpt><trkpt lat="45.447093055039026" lon="11.16105704072409"><ele>106.99999999999999</ele><time>2026-04-25T12:38:00Z</time></trkpt><trkpt lat="45.447107771915555" lon="11.160958058670428"><ele>107.0</ele><time>2026-04-25T12:38:01Z</time></trkpt><trkpt lat="45.44711558690157" lon="11.160842573620936"><ele>106.66666666666666</ele><time>2026-04-25T12:38:02Z</time></trkpt><trkpt lat="45.447125051583676" lon="11.160744409915274"><ele>106.33333333333333</ele><time>2026-04-25T12:38:03Z</time></trkpt><trkpt lat="45.44713566717373" lon="11.160654688589734"><ele>106.0</ele><time>2026-04-25T12:38:04Z</time></trkpt><trkpt lat="45.44715111217531" lon="11.160505383610296"><ele>105.66666666666666</ele><time>2026-04-25T12:38:06Z</time></trkpt><trkpt lat="45.447245989237686" lon="11.160457190888563"><ele>105.33333333333333</ele><time>2026-04-25T12:38:08Z</time></trkpt><trkpt lat="45.44729764950662" lon="11.16032895599215"><ele>105.0</ele><time>2026-04-25T12:38:10Z</time></trkpt><trkpt lat="45.447271964580814" lon="11.16022686458087"><ele>105.0</ele><time>2026-04-25T12:38:11Z</time></trkpt><trkpt lat="45.44717064882463" lon="11.160163916084375"><ele>105.0</ele><time>2026-04-25T12:38:12Z</time></trkpt><trkpt lat="45.44709735912735" lon="11.160058528994254"><ele>105.0</ele><time>2026-04-25T12:38:13Z</time></trkpt><trkpt lat="45.44699588778544" lon="11.159980092145206"><ele>105.0</ele><time>2026-04-25T12:38:14Z</time></trkpt><trkpt lat="45.446896450326285" lon="11.159871746552966"><ele>104.25</ele><time>2026-04-25T12:38:15Z</time></trkpt><trkpt lat="45.446800915566016" lon="11.159757270166569"><ele>103.5</ele><time>2026-04-25T12:38:16Z</time></trkpt><trkpt lat="45.44670350642417" lon="11.159653157670508"><ele>102.75</ele><time>2026-04-25T12:38:17Z</time></trkpt><trkpt lat="45.44660158418947" lon="11.159548662387282"><ele>102.0</ele><time>2026-04-25T12:38:18Z</time></trkpt><trkpt lat="45.446507105369875" lon="11.159449792253685"><ele>102.0</ele><time>2026-04-25T12:38:19Z</time></trkpt><trkpt lat="45.44640759116958" lon="11.159350453006407"><ele>102.0</ele><time>2026-04-25T12:38:20Z</time></trkpt><trkpt lat="45.446300046438736" lon="11.159254078101835"><ele>102.0</ele><time>2026-04-25T12:38:21Z</time></trkpt><trkpt lat="45.44618954038508" lon="11.159159137786977"><ele>102.0</ele><time>2026-04-25T12:38:22Z</time></trkpt><trkpt lat="45.44607630735962" lon="11.15906824332353"><ele>101.25</ele><time>2026-04-25T12:38:23Z</time></trkpt><trkpt lat="45.44596108785473" lon="11.158972725446182"><ele>100.5</ele><time>2026-04-25T12:38:24Z</time></trkpt><trkpt lat="45.44584362455957" lon="11.158869708263268"><ele>99.75</ele><time>2026-04-25T12:38:25Z</time></trkpt><trkpt lat="45.4457219764687" lon="11.15875886163578"><ele>99.0</ele><time>2026-04-25T12:38:26Z</time></trkpt><trkpt lat="45.44559166970296" lon="11.158650218083622"><ele>97.66666666666667</ele><time>2026-04-25T12:38:27Z</time></trkpt><trkpt lat="45.445456452689115" lon="11.158551251685058"><ele>96.33333333333334</ele><time>2026-04-25T12:38:28Z</time></trkpt><trkpt lat="45.4453120698136" lon="11.158466415522867"><ele>95.0</ele><time>2026-04-25T12:38:29Z</time></trkpt><trkpt lat="45.445158797336695" lon="11.158397796867131"><ele>95.0</ele><time>2026-04-25T12:38:30Z</time></trkpt><trkpt lat="45.4450064387898" lon="11.158328356660068"><ele>95.0</ele><time>2026-04-25T12:38:31Z</time></trkpt><trkpt lat="45.44486391192151" lon="11.158263001994461"><ele>95.0</ele><time>2026-04-25T12:38:32Z</time></trkpt><trkpt lat="45.44472624699393" lon="11.1582027671673"><ele>94.33333333333334</ele><time>2026-04-25T12:38:33Z</time></trkpt><trkpt lat="45.44458547868027" lon="11.158135534904316"><ele>93.66666666666667</ele><time>2026-04-25T12:38:34Z</time></trkpt><trkpt lat="45.44444010603529" lon="11.15806542274083"><ele>93.0</ele><time>2026-04-25T12:38:35Z</time></trkpt><trkpt lat="45.44429514992088" lon="11.157996625219214"><ele>93.0</ele><time>2026-04-25T12:38:36Z</time></trkpt><trkpt lat="45.44415722499058" lon="11.157933789472127"><ele>93.0</ele><time>2026-04-25T12:38:37Z</time></trkpt><trkpt lat="45.4440349816855" lon="11.15787306938854"><ele>93.0</ele><time>2026-04-25T12:38:38Z</time></trkpt><trkpt lat="45.443910576360544" lon="11.157819339362225"><ele>93.0</ele><time>2026-04-25T12:38:39Z</time></trkpt><trkpt lat="45.44379063665213" lon="11.157763637832913"><ele>92.5</ele><time>2026-04-25T12:38:40Z</time></trkpt><trkpt lat="45.443671565578555" lon="11.157704993551645"><ele>92.0</ele><time>2026-04-25T12:38:41Z</time></trkpt><trkpt lat="45.44355731068465" lon="11.157649380102136"><ele>91.5</ele><time>2026-04-25T12:38:42Z</time></trkpt><trkpt lat="45.44345014386873" lon="11.157601007882572"><ele>91.0</ele><time>2026-04-25T12:38:43Z</time></trkpt><trkpt lat="45.443334721011986" lon="11.157550347767552"><ele>91.0</ele><time>2026-04-25T12:38:44Z</time></trkpt><trkpt lat="45.44322032181746" lon="11.157494167606771"><ele>91.0</ele><time>2026-04-25T12:38:45Z</time></trkpt><trkpt lat="45.443104100309384" lon="11.157429493784166"><ele>91.0</ele><time>2026-04-25T12:38:46Z</time></trkpt><trkpt lat="45.44299923830721" lon="11.15734936964546"><ele>91.0</ele><time>2026-04-25T12:38:47Z</time></trkpt><trkpt lat="45.442900728832754" lon="11.157255522775149"><ele>90.25</ele><time>2026-04-25T12:38:48Z</time></trkpt><trkpt lat="45.44281934116266" lon="11.157126800633211"><ele>89.5</ele><time>2026-04-25T12:38:49Z</time></trkpt><trkpt lat="45.44271998934069" lon="11.15702486444176"><ele>88.75</ele><time>2026-04-25T12:38:50Z</time></trkpt><trkpt lat="45.44263068722027" lon="11.156905550798358"><ele>88.0</ele><time>2026-04-25T12:38:51Z</time></trkpt><trkpt lat="45.442539577287135" lon="11.156782915091389"><ele>88.0</ele><time>2026-04-25T12:38:52Z</time></trkpt><trkpt lat="45.442441876904354" lon="11.156657639980166"><ele>88.0</ele><time>2026-04-25T12:38:53Z</time></trkpt><trkpt lat="45.44234642802646" lon="11.156526865597634"><ele>88.0</ele><time>2026-04-25T12:38:54Z</time></trkpt><trkpt lat="45.442250304751546" lon="11.156393693761737"><ele>88.0</ele><time>2026-04-25T12:38:55Z</time></trkpt><trkpt lat="45.442150817190225" lon="11.156265375483539"><ele>87.75</ele><time>2026-04-25T12:38:56Z</time></trkpt><trkpt lat="45.44205306052997" lon="11.156133137402689"><ele>87.5</ele><time>2026-04-25T12:38:57Z</time></trkpt><trkpt lat="45.44195117505302" lon="11.155998001117922"><ele>87.25</ele><time>2026-04-25T12:38:58Z</time></trkpt><trkpt lat="45.44184407820313" lon="11.155852565737826"><ele>87.0</ele><time>2026-04-25T12:38:59Z</time></trkpt><trkpt lat="45.44172125581094" lon="11.155683205889096"><ele>86.5</ele><time>2026-04-25T12:39:00Z</time></trkpt><trkpt lat="45.44161398318259" lon="11.15553450057132"><ele>86.0</ele><time>2026-04-25T12:39:01Z</time></trkpt><trkpt lat="45.441509653501114" lon="11.155385789056737"><ele>85.5</ele><time>2026-04-25T12:39:02Z</time></trkpt><trkpt lat="45.441399275022796" lon="11.155246783529984"><ele>85.0</ele><time>2026-04-25T12:39:03Z</time></trkpt><trkpt lat="45.4412723599136" lon="11.155115809580739"><ele>84.33333333333333</ele><time>2026-04-25T12:39:04Z</time></trkpt><trkpt lat="45.44112955754459" lon="11.154993710173622"><ele>83.66666666666667</ele><time>2026-04-25T12:39:05Z</time></trkpt><trkpt lat="45.44097960095352" lon="11.154885544311398"><ele>83.0</ele><time>2026-04-25T12:39:06Z</time></trkpt><trkpt lat="45.44083174460405" lon="11.154785710940374"><ele>82.33333333333334</ele><time>2026-04-25T12:39:07Z</time></trkpt><trkpt lat="45.440678331523124" lon="11.154683072892553"><ele>81.66666666666667</ele><time>2026-04-25T12:39:08Z</time></trkpt><trkpt lat="45.440538762464016" lon="11.154580174812642"><ele>81.0</ele><time>2026-04-25T12:39:09Z</time></trkpt><trkpt lat="45.44040087062856" lon="11.154465942765956"><ele>80.66666666666667</ele><time>2026-04-25T12:39:10Z</time></trkpt><trkpt lat="45.44025811274771" lon="11.154337904824805"><ele>80.33333333333334</ele><time>2026-04-25T12:39:11Z</time></trkpt><trkpt lat="45.44012574602921" lon="11.154210321432945"><ele>80.0</ele><time>2026-04-25T12:39:12Z</time></trkpt><trkpt lat="45.439988369529985" lon="11.15407594194954"><ele>80.0</ele><time>2026-04-25T12:39:13Z</time></trkpt><trkpt lat="45.439858323973986" lon="11.153938388860652"><ele>80.0</ele><time>2026-04-25T12:39:14Z</time></trkpt><trkpt lat="45.43973880563922" lon="11.153808144963643"><ele>80.0</ele><time>2026-04-25T12:39:15Z</time></trkpt><trkpt lat="45.439617489119684" lon="11.153667957852683"><ele>79.25</ele><time>2026-04-25T12:39:16Z</time></trkpt><trkpt lat="45.43949861449549" lon="11.15351746871477"><ele>78.5</ele><time>2026-04-25T12:39:17Z</time></trkpt><trkpt lat="45.43938499268168" lon="11.153363243086448"><ele>77.75</ele><time>2026-04-25T12:39:18Z</time></trkpt><trkpt lat="45.43928903001568" lon="11.15323432705058"><ele>77.0</ele><time>2026-04-25T12:39:19Z</time></trkpt><trkpt lat="45.439201622089854" lon="11.153119404384553"><ele>77.0</ele><time>2026-04-25T12:39:20Z</time></trkpt><trkpt lat="45.43911881198004" lon="11.15300497805331"><ele>77.0</ele><time>2026-04-25T12:39:21Z</time></trkpt><trkpt lat="45.43902472429421" lon="11.152882549715617"><ele>77.0</ele><time>2026-04-25T12:39:22Z</time></trkpt><trkpt lat="45.438926332729196" lon="11.152756163415967"><ele>77.0</ele><time>2026-04-25T12:39:23Z</time></trkpt><trkpt lat="45.43882279779175" lon="11.152617788251652"><ele>76.75</ele><time>2026-04-25T12:39:24Z</time></trkpt><trkpt lat="45.43872242546869" lon="11.152465701039944"><ele>76.5</ele><time>2026-04-25T12:39:25Z</time></trkpt><trkpt lat="45.43863389564547" lon="11.152305342592593"><ele>76.25</ele><time>2026-04-25T12:39:26Z</time></trkpt><trkpt lat="45.43855851646348" lon="11.152147558912413"><ele>76.0</ele><time>2026-04-25T12:39:27Z</time></trkpt><trkpt lat="45.43848406625322" lon="11.151976479664583"><ele>76.0</ele><time>2026-04-25T12:39:28Z</time></trkpt><trkpt lat="45.438409006064425" lon="11.151803221597271"><ele>76.0</ele><time>2026-04-25T12:39:29Z</time></trkpt><trkpt lat="45.43834169896557" lon="11.151650979771693"><ele>76.0</ele><time>2026-04-25T12:39:30Z</time></trkpt><trkpt lat="45.438278232471134" lon="11.151492204320812"><ele>76.0</ele><time>2026-04-25T12:39:31Z</time></trkpt><trkpt lat="45.43819419868236" lon="11.151310695970734"><ele>75.5</ele><time>2026-04-25T12:39:32Z</time></trkpt><trkpt lat="45.438120822742526" lon="11.151142787089936"><ele>75.0</ele><time>2026-04-25T12:39:33Z</time></trkpt><trkpt lat="45.4380608232356" lon="11.150996404436725"><ele>74.5</ele><time>2026-04-25T12:39:34Z</time></trkpt><trkpt lat="45.43799814188881" lon="11.150840446523056"><ele>74.0</ele><time>2026-04-25T12:39:35Z</time></trkpt><trkpt lat="45.43794072789427" lon="11.150688241043628"><ele>73.60000000000001</ele><time>2026-04-25T12:39:36Z</time></trkpt><trkpt lat="45.437886007589384" lon="11.150558885350735"><ele>73.2</ele><time>2026-04-25T12:39:37Z</time></trkpt><trkpt lat="45.43783555514551" lon="11.150436829008736"><ele>72.80000000000001</ele><time>2026-04-25T12:39:38Z</time></trkpt><trkpt lat="45.437780550621966" lon="11.150296514209048"><ele>72.4</ele><time>2026-04-25T12:39:39Z</time></trkpt><trkpt lat="45.43772517078875" lon="11.150151601998012"><ele>72.0</ele><time>2026-04-25T12:39:40Z</time></trkpt><trkpt lat="45.43766652262921" lon="11.150015070269433"><ele>72.0</ele><time>2026-04-25T12:39:41Z</time></trkpt><trkpt lat="45.43759702715925" lon="11.149882112376751"><ele>72.0</ele><time>2026-04-25T12:39:42Z</time></trkpt><trkpt lat="45.43751219288544" lon="11.149725334370553"><ele>72.0</ele><time>2026-04-25T12:39:43Z</time></trkpt><trkpt lat="45.43740599978892" lon="11.149522072120554"><ele>72.0</ele><time>2026-04-25T12:39:44Z</time></trkpt><trkpt lat="45.437314579544214" lon="11.149356638308014"><ele>71.33333333333333</ele><time>2026-04-25T12:39:45Z</time></trkpt><trkpt lat="45.43722259920855" lon="11.149192711088702"><ele>70.66666666666666</ele><time>2026-04-25T12:39:46Z</time></trkpt><trkpt lat="45.43712020408858" lon="11.149017583645781"><ele>70.0</ele><time>2026-04-25T12:39:47Z</time></trkpt><trkpt lat="45.437015284691086" lon="11.148840131718876"><ele>69.75</ele><time>2026-04-25T12:39:48Z</time></trkpt><trkpt lat="45.43690033733393" lon="11.148675727467124"><ele>69.5</ele><time>2026-04-25T12:39:49Z</time></trkpt><trkpt lat="45.43679694700361" lon="11.14853187716052"><ele>69.25</ele><time>2026-04-25T12:39:50Z</time></trkpt><trkpt lat="45.4366934079455" lon="11.148397941677523"><ele>69.0</ele><time>2026-04-25T12:39:51Z</time></trkpt><trkpt lat="45.43659370530305" lon="11.14826599869571"><ele>68.5</ele><time>2026-04-25T12:39:52Z</time></trkpt><trkpt lat="45.436489865965186" lon="11.14814216343936"><ele>68.0</ele><time>2026-04-25T12:39:53Z</time></trkpt><trkpt lat="45.43637578287288" lon="11.14802453697571"><ele>67.5</ele><time>2026-04-25T12:39:54Z</time></trkpt><trkpt lat="45.4362577224778" lon="11.147908284375587"><ele>67.0</ele><time>2026-04-25T12:39:55Z</time></trkpt><trkpt lat="45.43613424053649" lon="11.147804116647347"><ele>67.0</ele><time>2026-04-25T12:39:56Z</time></trkpt><trkpt lat="45.43601554371636" lon="11.14771258716456"><ele>67.0</ele><time>2026-04-25T12:39:57Z</time></trkpt><trkpt lat="45.43591042474945" lon="11.147625764564209"><ele>67.0</ele><time>2026-04-25T12:39:58Z</time></trkpt><trkpt lat="45.43579866243277" lon="11.147538368485552"><ele>67.0</ele><time>2026-04-25T12:39:59Z</time></trkpt><trkpt lat="45.43568806243751" lon="11.147452106857308"><ele>66.5</ele><time>2026-04-25T12:40:00Z</time></trkpt><trkpt lat="45.43557969501252" lon="11.147361886469314"><ele>66.0</ele><time>2026-04-25T12:40:01Z</time></trkpt><trkpt lat="45.43546990469416" lon="11.147272373132001"><ele>65.5</ele><time>2026-04-25T12:40:02Z</time></trkpt><trkpt lat="45.435349253824945" lon="11.147188776821762"><ele>65.0</ele><time>2026-04-25T12:40:03Z</time></trkpt><trkpt lat="45.43523837054866" lon="11.147112165354848"><ele>64.6</ele><time>2026-04-25T12:40:04Z</time></trkpt><trkpt lat="45.43514754892777" lon="11.147042622926126"><ele>64.2</ele><time>2026-04-25T12:40:05Z</time></trkpt><trkpt lat="45.43505608903018" lon="11.146976325230323"><ele>63.8</ele><time>2026-04-25T12:40:06Z</time></trkpt><trkpt lat="45.43496682681506" lon="11.14690549233911"><ele>63.4</ele><time>2026-04-25T12:40:07Z</time></trkpt><trkpt lat="45.43487349350006" lon="11.146837913566772"><ele>63.0</ele><time>2026-04-25T12:40:08Z</time></trkpt><trkpt lat="45.43477992242312" lon="11.146765957481184"><ele>63.0</ele><time>2026-04-25T12:40:09Z</time></trkpt><trkpt lat="45.43468730293903" lon="11.146693824121773"><ele>63.0</ele><time>2026-04-25T12:40:10Z</time></trkpt><trkpt lat="45.434586057669435" lon="11.146623482816638"><ele>63.0</ele><time>2026-04-25T12:40:11Z</time></trkpt><trkpt lat="45.43447759823125" lon="11.146545065415767"><ele>63.0</ele><time>2026-04-25T12:40:12Z</time></trkpt><trkpt lat="45.43436749085389" lon="11.146466474605653"><ele>62.5</ele><time>2026-04-25T12:40:13Z</time></trkpt><trkpt lat="45.43424145266962" lon="11.146385678307967"><ele>62.0</ele><time>2026-04-25T12:40:14Z</time></trkpt><trkpt lat="45.434112230919936" lon="11.146307375501808"><ele>61.5</ele><time>2026-04-25T12:40:15Z</time></trkpt><trkpt lat="45.433973050063784" lon="11.146227419362027"><ele>61.0</ele><time>2026-04-25T12:40:16Z</time></trkpt><trkpt lat="45.43383304055989" lon="11.146142276953498"><ele>61.0</ele><time>2026-04-25T12:40:17Z</time></trkpt><trkpt lat="45.433695982553324" lon="11.14605532057506"><ele>61.0</ele><time>2026-04-25T12:40:18Z</time></trkpt><trkpt lat="45.43356147195025" lon="11.145964465009273"><ele>61.0</ele><time>2026-04-25T12:40:19Z</time></trkpt><trkpt lat="45.433432239662" lon="11.145872617654193"><ele>61.0</ele><time>2026-04-25T12:40:20Z</time></trkpt><trkpt lat="45.43330038923067" lon="11.145779044076091"><ele>60.75</ele><time>2026-04-25T12:40:21Z</time></trkpt><trkpt lat="45.43317329243194" lon="11.145683234577511"><ele>60.5</ele><time>2026-04-25T12:40:22Z</time></trkpt><trkpt lat="45.43306401790173" lon="11.145590571156792"><ele>60.25</ele><time>2026-04-25T12:40:23Z</time></trkpt><trkpt lat="45.43295591080603" lon="11.145491798806027"><ele>60.0</ele><time>2026-04-25T12:40:24Z</time></trkpt><trkpt lat="45.43287185568912" lon="11.145399332720064"><ele>59.75</ele><time>2026-04-25T12:40:25Z</time></trkpt><trkpt lat="45.43278664574166" lon="11.145310716027758"><ele>59.5</ele><time>2026-04-25T12:40:26Z</time></trkpt><trkpt lat="45.43269522034165" lon="11.145235738753316"><ele>59.25</ele><time>2026-04-25T12:40:27Z</time></trkpt><trkpt lat="45.43262028667845" lon="11.145174281611196"><ele>59.0</ele><time>2026-04-25T12:40:28Z</time></trkpt><trkpt lat="45.43222763098654" lon="11.144931491761156"><ele>58.333333333333336</ele><time>2026-04-25T12:40:29Z</time></trkpt><trkpt lat="45.43208061968571" lon="11.144803054939484"><ele>57.66666666666667</ele><time>2026-04-25T12:40:30Z</time></trkpt><trkpt lat="45.43192987633124" lon="11.14467317667891"><ele>57.0</ele><time>2026-04-25T12:40:31Z</time></trkpt><trkpt lat="45.43177946262175" lon="11.144540095648317"><ele>57.0</ele><time>2026-04-25T12:40:32Z</time></trkpt><trkpt lat="45.43163051497864" lon="11.144416029472135"><ele>57.0</ele><time>2026-04-25T12:40:33Z</time></trkpt><trkpt lat="45.43148125235659" lon="11.14428761624773"><ele>57.0</ele><time>2026-04-25T12:40:34Z</time></trkpt><trkpt lat="45.43132494241459" lon="11.144156692690995"><ele>56.33333333333333</ele><time>2026-04-25T12:40:35Z</time></trkpt><trkpt lat="45.43117456135501" lon="11.144018927194434"><ele>55.666666666666664</ele><time>2026-04-25T12:40:36Z</time></trkpt><trkpt lat="45.431027972396095" lon="11.143899248752481"><ele>55.0</ele><time>2026-04-25T12:40:37Z</time></trkpt><trkpt lat="45.430878929351685" lon="11.143770217755035"><ele>55.0</ele><time>2026-04-25T12:40:38Z</time></trkpt><trkpt lat="45.430727631630596" lon="11.143643037338474"><ele>55.0</ele><time>2026-04-25T12:40:39Z</time></trkpt><trkpt lat="45.43057449133789" lon="11.143511156296883"><ele>55.0</ele><time>2026-04-25T12:40:40Z</time></trkpt><trkpt lat="45.430418847569015" lon="11.14337569038602"><ele>54.0</ele><time>2026-04-25T12:40:41Z</time></trkpt><trkpt lat="45.43026352543048" lon="11.143242483707942"><ele>53.0</ele><time>2026-04-25T12:40:42Z</time></trkpt><trkpt lat="45.43010401562922" lon="11.143112025184472"><ele>52.0</ele><time>2026-04-25T12:40:43Z</time></trkpt><trkpt lat="45.42994593519925" lon="11.142979805093537"><ele>52.0</ele><time>2026-04-25T12:40:44Z</time></trkpt><trkpt lat="45.42978630454168" lon="11.14284892530867"><ele>52.0</ele><time>2026-04-25T12:40:45Z</time></trkpt><trkpt lat="45.429628228917736" lon="11.142715183590516"><ele>52.0</ele><time>2026-04-25T12:40:46Z</time></trkpt><trkpt lat="45.429461165441126" lon="11.142583299069464"><ele>52.0</ele><time>2026-04-25T12:40:47Z</time></trkpt><trkpt lat="45.42930600730934" lon="11.142452224352292"><ele>52.0</ele><time>2026-04-25T12:40:48Z</time></trkpt><trkpt lat="45.42914447850762" lon="11.14232203253077"><ele>52.0</ele><time>2026-04-25T12:40:49Z</time></trkpt><trkpt lat="45.42900043099479" lon="11.142201527589027"><ele>51.666666666666664</ele><time>2026-04-25T12:40:50Z</time></trkpt><trkpt lat="45.42885998100508" lon="11.142070769984395"><ele>51.33333333333333</ele><time>2026-04-25T12:40:51Z</time></trkpt><trkpt lat="45.428722970517484" lon="11.141936398752474"><ele>51.0</ele><time>2026-04-25T12:40:52Z</time></trkpt><trkpt lat="45.428582168183056" lon="11.141790873345501"><ele>51.0</ele><time>2026-04-25T12:40:53Z</time></trkpt><trkpt lat="45.42844199002372" lon="11.141632848165198"><ele>51.0</ele><time>2026-04-25T12:40:54Z</time></trkpt><trkpt lat="45.42830382300513" lon="11.141478953961496"><ele>51.0</ele><time>2026-04-25T12:40:55Z</time></trkpt><trkpt lat="45.42816018499257" lon="11.1413361573957"><ele>51.0</ele><time>2026-04-25T12:40:56Z</time></trkpt><trkpt lat="45.428010473671065" lon="11.141203156193473"><ele>51.0</ele><time>2026-04-25T12:40:57Z</time></trkpt><trkpt lat="45.42786510303466" lon="11.141076692955442"><ele>51.0</ele><time>2026-04-25T12:40:58Z</time></trkpt><trkpt lat="45.42771927870355" lon="11.140953771065668"><ele>51.0</ele><time>2026-04-25T12:40:59Z</time></trkpt><trkpt lat="45.42756312370675" lon="11.14082377772596"><ele>51.0</ele><time>2026-04-25T12:41:00Z</time></trkpt><trkpt lat="45.42740671281918" lon="11.140689027462749"><ele>51.0</ele><time>2026-04-25T12:41:01Z</time></trkpt><trkpt lat="45.427256008530875" lon="11.140559640688126"><ele>51.0</ele><time>2026-04-25T12:41:02Z</time></trkpt><trkpt lat="45.42711022563815" lon="11.140434281015864"><ele>51.0</ele><time>2026-04-25T12:41:03Z</time></trkpt><trkpt lat="45.42697107130634" lon="11.140305526791638"><ele>51.0</ele><time>2026-04-25T12:41:04Z</time></trkpt><trkpt lat="45.426829368866535" lon="11.140176365172062"><ele>51.0</ele><time>2026-04-25T12:41:05Z</time></trkpt><trkpt lat="45.42669578252254" lon="11.140041123852738"><ele>51.0</ele><time>2026-04-25T12:41:06Z</time></trkpt><trkpt lat="45.42656057329732" lon="11.13991992480802"><ele>51.0</ele><time>2026-04-25T12:41:07Z</time></trkpt><trkpt lat="45.426433118301524" lon="11.139797032745163"><ele>51.0</ele><time>2026-04-25T12:41:08Z</time></trkpt><trkpt lat="45.42631195781123" lon="11.139677545811338"><ele>51.0</ele><time>2026-04-25T12:41:09Z</time></trkpt><trkpt lat="45.42620844624249" lon="11.13956125437322"><ele>51.0</ele><time>2026-04-25T12:41:10Z</time></trkpt><trkpt lat="45.42610362958314" lon="11.13944702078618"><ele>51.0</ele><time>2026-04-25T12:41:11Z</time></trkpt><trkpt lat="45.42599657379039" lon="11.139338583211108"><ele>50.5</ele><time>2026-04-25T12:41:12Z</time></trkpt><trkpt lat="45.42589067353936" lon="11.139234033574208"><ele>50.0</ele><time>2026-04-25T12:41:13Z</time></trkpt><trkpt lat="45.42578841789134" lon="11.139138205765992"><ele>49.5</ele><time>2026-04-25T12:41:14Z</time></trkpt><trkpt lat="45.42569581396729" lon="11.139050772107849"><ele>49.0</ele><time>2026-04-25T12:41:15Z</time></trkpt><trkpt lat="45.4256119143155" lon="11.138965771587008"><ele>48.99999999999999</ele><time>2026-04-25T12:41:16Z</time></trkpt><trkpt lat="45.425531953139824" lon="11.138878669834611"><ele>49.0</ele><time>2026-04-25T12:41:17Z</time></trkpt><trkpt lat="45.42546056992562" lon="11.138790400869684"><ele>49.0</ele><time>2026-04-25T12:41:18Z</time></trkpt><trkpt lat="45.4254016866712" lon="11.138718721241828"><ele>49.0</ele><time>2026-04-25T12:41:19Z</time></trkpt><trkpt lat="45.425340698963005" lon="11.13862600767093"><ele>48.99999999999999</ele><time>2026-04-25T12:41:21Z</time></trkpt><trkpt lat="45.425299426249744" lon="11.138539083663517"><ele>49.0</ele><time>2026-04-25T12:41:25Z</time></trkpt><trkpt lat="45.42522735784839" lon="11.138663550277899"><ele>49.0</ele><time>2026-04-25T12:41:29Z</time></trkpt><trkpt lat="45.42531622396634" lon="11.138761623097263"><ele>49.0</ele><time>2026-04-25T12:57:53Z</time></trkpt><trkpt lat="45.425413437156244" lon="11.138834795107233"><ele>49.0</ele><time>2026-04-25T12:57:54Z</time></trkpt><trkpt lat="45.425505564778604" lon="11.13891943005556"><ele>49.0</ele><time>2026-04-25T12:57:55Z</time></trkpt><trkpt lat="45.425616979435496" lon="11.139035566517697"><ele>49.0</ele><time>2026-04-25T12:57:56Z</time></trkpt><trkpt lat="45.42574366416159" lon="11.139161326293213"><ele>49.0</ele><time>2026-04-25T12:57:57Z</time></trkpt><trkpt lat="45.425850656505084" lon="11.139264662571364"><ele>49.0</ele><time>2026-04-25T12:57:58Z</time></trkpt><trkpt lat="45.42594516233239" lon="11.139356653879828"><ele>49.0</ele><time>2026-04-25T12:57:59Z</time></trkpt><trkpt lat="45.42604406295039" lon="11.139454794022527"><ele>49.0</ele><time>2026-04-25T12:58:00Z</time></trkpt><trkpt lat="45.426155083393006" lon="11.139565381015409"><ele>49.0</ele><time>2026-04-25T12:58:01Z</time></trkpt><trkpt lat="45.4262706590633" lon="11.139684940545651"><ele>49.0</ele><time>2026-04-25T12:58:02Z</time></trkpt><trkpt lat="45.426392685444625" lon="11.139808205685576"><ele>49.0</ele><time>2026-04-25T12:58:03Z</time></trkpt><trkpt lat="45.4265365337011" lon="11.13995375246077"><ele>49.666666666666664</ele><time>2026-04-25T12:58:04Z</time></trkpt><trkpt lat="45.426689408076705" lon="11.140104404255839"><ele>50.33333333333333</ele><time>2026-04-25T12:58:05Z</time></trkpt><trkpt lat="45.426849055510225" lon="11.140247713248156"><ele>51.0</ele><time>2026-04-25T12:58:06Z</time></trkpt><trkpt lat="45.42701323219321" lon="11.140394430338423"><ele>51.0</ele><time>2026-04-25T12:58:07Z</time></trkpt><trkpt lat="45.42717815352824" lon="11.14054343654834"><ele>51.0</ele><time>2026-04-25T12:58:08Z</time></trkpt><trkpt lat="45.42733907656985" lon="11.14068473799339"><ele>51.0</ele><time>2026-04-25T12:58:09Z</time></trkpt><trkpt lat="45.4275010181195" lon="11.140824264900857"><ele>51.0</ele><time>2026-04-25T12:58:10Z</time></trkpt><trkpt lat="45.42766824855358" lon="11.140964116668998"><ele>51.0</ele><time>2026-04-25T12:58:11Z</time></trkpt><trkpt lat="45.42782927909358" lon="11.14110416083572"><ele>51.0</ele><time>2026-04-25T12:58:12Z</time></trkpt><trkpt lat="45.42798685635469" lon="11.141246345247918"><ele>51.0</ele><time>2026-04-25T12:58:13Z</time></trkpt><trkpt lat="45.428141590776875" lon="11.141393151081033"><ele>51.0</ele><time>2026-04-25T12:58:14Z</time></trkpt><trkpt lat="45.42828969525894" lon="11.141552625238097"><ele>51.0</ele><time>2026-04-25T12:58:15Z</time></trkpt><trkpt lat="45.42843295764779" lon="11.141716787674154"><ele>51.0</ele><time>2026-04-25T12:58:16Z</time></trkpt><trkpt lat="45.42857887493306" lon="11.141874512027885"><ele>51.0</ele><time>2026-04-25T12:58:17Z</time></trkpt><trkpt lat="45.42873050521162" lon="11.14201740291215"><ele>51.0</ele><time>2026-04-25T12:58:18Z</time></trkpt><trkpt lat="45.4288897806632" lon="11.142158997068872"><ele>50.66666666666667</ele><time>2026-04-25T12:58:19Z</time></trkpt><trkpt lat="45.42905066221145" lon="11.142298165189194"><ele>50.333333333333336</ele><time>2026-04-25T12:58:20Z</time></trkpt><trkpt lat="45.42921328444139" lon="11.142434545740409"><ele>50.0</ele><time>2026-04-25T12:58:21Z</time></trkpt><trkpt lat="45.42937658026404" lon="11.142572039335432"><ele>50.66666666666667</ele><time>2026-04-25T12:58:22Z</time></trkpt><trkpt lat="45.42953908312935" lon="11.142710095059497"><ele>51.33333333333333</ele><time>2026-04-25T12:58:23Z</time></trkpt><trkpt lat="45.42970349370199" lon="11.14284699913567"><ele>52.0</ele><time>2026-04-25T12:58:24Z</time></trkpt><trkpt lat="45.42986722164644" lon="11.14298368164229"><ele>52.0</ele><time>2026-04-25T12:58:25Z</time></trkpt><trkpt lat="45.43003112268594" lon="11.143122429122638"><ele>52.0</ele><time>2026-04-25T12:58:26Z</time></trkpt><trkpt lat="45.430195450206135" lon="11.143260394962812"><ele>52.0</ele><time>2026-04-25T12:58:27Z</time></trkpt><trkpt lat="45.43036071316196" lon="11.143400664554969"><ele>53.0</ele><time>2026-04-25T12:58:28Z</time></trkpt><trkpt lat="45.430524562293726" lon="11.143541736381277"><ele>54.0</ele><time>2026-04-25T12:58:29Z</time></trkpt><trkpt lat="45.43069067590428" lon="11.143683377343626"><ele>55.0</ele><time>2026-04-25T12:58:30Z</time></trkpt><trkpt lat="45.430861348395155" lon="11.143827161570083"><ele>55.0</ele><time>2026-04-25T12:58:31Z</time></trkpt><trkpt lat="45.43103008127619" lon="11.14397034318307"><ele>55.0</ele><time>2026-04-25T12:58:32Z</time></trkpt><trkpt lat="45.4311984736183" lon="11.144114906750954"><ele>55.0</ele><time>2026-04-25T12:58:33Z</time></trkpt><trkpt lat="45.43136354200803" lon="11.144256082622027"><ele>55.666666666666664</ele><time>2026-04-25T12:58:34Z</time></trkpt><trkpt lat="45.43152936287277" lon="11.144399008201685"><ele>56.33333333333333</ele><time>2026-04-25T12:58:35Z</time></trkpt><trkpt lat="45.43169478488609" lon="11.144542187302601"><ele>57.0</ele><time>2026-04-25T12:58:36Z</time></trkpt><trkpt lat="45.43186120160005" lon="11.144682958420594"><ele>57.0</ele><time>2026-04-25T12:58:37Z</time></trkpt><trkpt lat="45.43203031054443" lon="11.144826564874244"><ele>57.0</ele><time>2026-04-25T12:58:38Z</time></trkpt><trkpt lat="45.43219976168672" lon="11.14496506432372"><ele>57.0</ele><time>2026-04-25T12:58:39Z</time></trkpt><trkpt lat="45.432368859654346" lon="11.145103531618869"><ele>57.66666666666667</ele><time>2026-04-25T12:58:40Z</time></trkpt><trkpt lat="45.43253335650964" lon="11.145239505536845"><ele>58.333333333333336</ele><time>2026-04-25T12:58:41Z</time></trkpt><trkpt lat="45.43269635451717" lon="11.145371047613773"><ele>59.0</ele><time>2026-04-25T12:58:42Z</time></trkpt><trkpt lat="45.432857475867216" lon="11.145497299166344"><ele>59.333333333333336</ele><time>2026-04-25T12:58:43Z</time></trkpt><trkpt lat="45.433020953406654" lon="11.145623335006164"><ele>59.66666666666667</ele><time>2026-04-25T12:58:44Z</time></trkpt><trkpt lat="45.43318452785659" lon="11.14574616424457"><ele>60.0</ele><time>2026-04-25T12:58:45Z</time></trkpt><trkpt lat="45.43335019830266" lon="11.145865973801431"><ele>60.33333333333333</ele><time>2026-04-25T12:58:46Z</time></trkpt><trkpt lat="45.433520757164345" lon="11.145979019184681"><ele>60.666666666666664</ele><time>2026-04-25T12:58:47Z</time></trkpt><trkpt lat="45.43369072624691" lon="11.146091238753865"><ele>61.0</ele><time>2026-04-25T12:58:48Z</time></trkpt><trkpt lat="45.43385896195522" lon="11.146200093058876"><ele>61.0</ele><time>2026-04-25T12:58:49Z</time></trkpt><trkpt lat="45.43402680729325" lon="11.146306670857781"><ele>61.0</ele><time>2026-04-25T12:58:50Z</time></trkpt><trkpt lat="45.434190159844874" lon="11.146412223636936"><ele>61.0</ele><time>2026-04-25T12:58:51Z</time></trkpt><trkpt lat="45.43434612849914" lon="11.14651440527326"><ele>61.666666666666664</ele><time>2026-04-25T12:58:52Z</time></trkpt><trkpt lat="45.43450418425816" lon="11.146610231003455"><ele>62.33333333333333</ele><time>2026-04-25T12:58:53Z</time></trkpt><trkpt lat="45.43468309643757" lon="11.146707679536282"><ele>63.0</ele><time>2026-04-25T12:58:54Z</time></trkpt><trkpt lat="45.43486388836997" lon="11.146862509441053"><ele>63.0</ele><time>2026-04-25T12:58:55Z</time></trkpt><trkpt lat="45.43505153981093" lon="11.147011983520763"><ele>63.0</ele><time>2026-04-25T12:58:56Z</time></trkpt><trkpt lat="45.43522489750301" lon="11.147148510399074"><ele>63.0</ele><time>2026-04-25T12:58:57Z</time></trkpt><trkpt lat="45.43536150897059" lon="11.147256097882712"><ele>63.0</ele><time>2026-04-25T12:58:58Z</time></trkpt><trkpt lat="45.435468879006386" lon="11.147350575522767"><ele>63.0</ele><time>2026-04-25T12:59:01Z</time></trkpt><trkpt lat="45.435527013803835" lon="11.147396245775354"><ele>63.0</ele><time>2026-04-25T12:59:02Z</time></trkpt><trkpt lat="45.43559535577442" lon="11.14745423380832"><ele>63.0</ele><time>2026-04-25T12:59:04Z</time></trkpt><trkpt lat="45.4355376004406" lon="11.147391881400127"><ele>63.0</ele><time>2026-04-25T12:59:12Z</time></trkpt><trkpt lat="45.435460964433965" lon="11.147293432468075"><ele>63.0</ele><time>2026-04-25T12:59:13Z</time></trkpt><trkpt lat="45.43536570871978" lon="11.147218763898508"><ele>63.0</ele><time>2026-04-25T12:59:14Z</time></trkpt><trkpt lat="45.43525577073818" lon="11.147125399218897"><ele>63.0</ele><time>2026-04-25T12:59:15Z</time></trkpt><trkpt lat="45.435133289718834" lon="11.14703252458232"><ele>63.0</ele><time>2026-04-25T12:59:16Z</time></trkpt><trkpt lat="45.43500021436469" lon="11.146925180497785"><ele>63.0</ele><time>2026-04-25T12:59:17Z</time></trkpt><trkpt lat="45.43486469943811" lon="11.146821920841237"><ele>63.0</ele><time>2026-04-25T12:59:18Z</time></trkpt><trkpt lat="45.43475627542454" lon="11.146742607947633"><ele>63.0</ele><time>2026-04-25T12:59:19Z</time></trkpt><trkpt lat="45.43464866690424" lon="11.14670896444797"><ele>63.0</ele><time>2026-04-25T12:59:20Z</time></trkpt><trkpt lat="45.43455221665629" lon="11.146734071723442"><ele>63.0</ele><time>2026-04-25T12:59:21Z</time></trkpt><trkpt lat="45.43446462429611" lon="11.14683673538662"><ele>63.0</ele><time>2026-04-25T12:59:22Z</time></trkpt><trkpt lat="45.43435717520416" lon="11.146876694121637"><ele>63.25</ele><time>2026-04-25T12:59:23Z</time></trkpt><trkpt lat="45.43424448259813" lon="11.146936533598371"><ele>63.5</ele><time>2026-04-25T12:59:24Z</time></trkpt><trkpt lat="45.43412629980848" lon="11.147036298089096"><ele>63.75</ele><time>2026-04-25T12:59:25Z</time></trkpt><trkpt lat="45.43400766780184" lon="11.147143108499884"><ele>64.0</ele><time>2026-04-25T12:59:26Z</time></trkpt><trkpt lat="45.433902064735456" lon="11.147251717282249"><ele>64.0</ele><time>2026-04-25T12:59:27Z</time></trkpt><trkpt lat="45.43380552272604" lon="11.147359014685334"><ele>64.0</ele><time>2026-04-25T12:59:28Z</time></trkpt><trkpt lat="45.433720473511144" lon="11.14747802249648"><ele>64.0</ele><time>2026-04-25T12:59:29Z</time></trkpt><trkpt lat="45.43365989876003" lon="11.147632828113135"><ele>64.0</ele><time>2026-04-25T12:59:30Z</time></trkpt><trkpt lat="45.43362446549937" lon="11.147800318283041"><ele>63.666666666666664</ele><time>2026-04-25T12:59:31Z</time></trkpt><trkpt lat="45.43361138232876" lon="11.14801319625063"><ele>63.33333333333333</ele><time>2026-04-25T12:59:32Z</time></trkpt><trkpt lat="45.43359406075793" lon="11.148267950191071"><ele>63.0</ele><time>2026-04-25T12:59:33Z</time></trkpt><trkpt lat="45.43357162897816" lon="11.14854652396389"><ele>62.66666666666667</ele><time>2026-04-25T12:59:34Z</time></trkpt><trkpt lat="45.433535677166155" lon="11.148833913410012"><ele>62.333333333333336</ele><time>2026-04-25T12:59:35Z</time></trkpt><trkpt lat="45.43348601546335" lon="11.149130612829113"><ele>62.0</ele><time>2026-04-25T12:59:36Z</time></trkpt><trkpt lat="45.43343985147471" lon="11.149428664192017"><ele>62.0</ele><time>2026-04-25T12:59:37Z</time></trkpt><trkpt lat="45.43339777256603" lon="11.149719095163618"><ele>62.0</ele><time>2026-04-25T12:59:38Z</time></trkpt><trkpt lat="45.43335362814038" lon="11.149995966483004"><ele>62.0</ele><time>2026-04-25T12:59:39Z</time></trkpt><trkpt lat="45.433312548550774" lon="11.15027268412884"><ele>62.0</ele><time>2026-04-25T12:59:40Z</time></trkpt><trkpt lat="45.433265876715424" lon="11.150551505988044"><ele>62.0</ele><time>2026-04-25T12:59:41Z</time></trkpt><trkpt lat="45.433205166873606" lon="11.150820442256135"><ele>62.0</ele><time>2026-04-25T12:59:42Z</time></trkpt><trkpt lat="45.43313742412676" lon="11.151073376223188"><ele>62.333333333333336</ele><time>2026-04-25T12:59:43Z</time></trkpt><trkpt lat="45.43305358515322" lon="11.151298675228974"><ele>62.66666666666667</ele><time>2026-04-25T12:59:44Z</time></trkpt><trkpt lat="45.432966843473025" lon="11.151505135353409"><ele>63.0</ele><time>2026-04-25T12:59:45Z</time></trkpt><trkpt lat="45.432887050553965" lon="11.151718079565564"><ele>63.0</ele><time>2026-04-25T12:59:46Z</time></trkpt><trkpt lat="45.43282034962429" lon="11.15192408150333"><ele>63.0</ele><time>2026-04-25T12:59:47Z</time></trkpt><trkpt lat="45.432764722104736" lon="11.152145355670239"><ele>63.0</ele><time>2026-04-25T12:59:48Z</time></trkpt><trkpt lat="45.4327245316962" lon="11.15237771542828"><ele>63.33333333333333</ele><time>2026-04-25T12:59:49Z</time></trkpt><trkpt lat="45.43269166618674" lon="11.15262313673745"><ele>63.666666666666664</ele><time>2026-04-25T12:59:50Z</time></trkpt><trkpt lat="45.43266701978916" lon="11.152865707176755"><ele>64.0</ele><time>2026-04-25T12:59:51Z</time></trkpt><trkpt lat="45.432651992197655" lon="11.153092157104311"><ele>63.666666666666664</ele><time>2026-04-25T12:59:52Z</time></trkpt><trkpt lat="45.43264432333382" lon="11.153302646556806"><ele>63.33333333333333</ele><time>2026-04-25T12:59:53Z</time></trkpt><trkpt lat="45.43264373111119" lon="11.153517684997842"><ele>63.0</ele><time>2026-04-25T12:59:54Z</time></trkpt><trkpt lat="45.432648387715346" lon="11.153740431175862"><ele>63.0</ele><time>2026-04-25T12:59:55Z</time></trkpt><trkpt lat="45.43265720903595" lon="11.153969457382233"><ele>63.0</ele><time>2026-04-25T12:59:56Z</time></trkpt><trkpt lat="45.432661752953145" lon="11.154184234210174"><ele>63.0</ele><time>2026-04-25T12:59:57Z</time></trkpt><trkpt lat="45.432673948303446" lon="11.15439815331275"><ele>63.0</ele><time>2026-04-25T12:59:58Z</time></trkpt><trkpt lat="45.43267428020276" lon="11.154614278132872"><ele>63.0</ele><time>2026-04-25T12:59:59Z</time></trkpt><trkpt lat="45.43266245525424" lon="11.154832229670308"><ele>63.0</ele><time>2026-04-25T13:00:00Z</time></trkpt><trkpt lat="45.432643946655695" lon="11.155034921162258"><ele>63.0</ele><time>2026-04-25T13:00:01Z</time></trkpt><trkpt lat="45.43262963662189" lon="11.155203872920485"><ele>63.333333333333336</ele><time>2026-04-25T13:00:02Z</time></trkpt><trkpt lat="45.432617212368534" lon="11.155326475142024"><ele>63.66666666666667</ele><time>2026-04-25T13:00:03Z</time></trkpt><trkpt lat="45.432593492676915" lon="11.155422703962651"><ele>64.0</ele><time>2026-04-25T13:00:04Z</time></trkpt><trkpt lat="45.43255540011443" lon="11.15553428621127"><ele>64.33333333333334</ele><time>2026-04-25T13:00:05Z</time></trkpt><trkpt lat="45.43250425520174" lon="11.155631967880252"><ele>64.66666666666667</ele><time>2026-04-25T13:00:06Z</time></trkpt><trkpt lat="45.432445671886015" lon="11.155746254758125"><ele>65.0</ele><time>2026-04-25T13:00:07Z</time></trkpt><trkpt lat="45.43238992179462" lon="11.155877197534918"><ele>65.8</ele><time>2026-04-25T13:00:08Z</time></trkpt><trkpt lat="45.43235371608111" lon="11.155983831568488"><ele>66.6</ele><time>2026-04-25T13:00:09Z</time></trkpt><trkpt lat="45.432332949017024" lon="11.15611137212384"><ele>67.4</ele><time>2026-04-25T13:00:11Z</time></trkpt><trkpt lat="45.43244262362331" lon="11.156177006665734"><ele>68.2</ele><time>2026-04-25T13:00:14Z</time></trkpt><trkpt lat="45.432562472212865" lon="11.156206756595939"><ele>69.0</ele><time>2026-04-25T13:00:16Z</time></trkpt><trkpt lat="45.43262212846724" lon="11.156251238163142"><ele>69.0</ele><time>2026-04-25T13:00:17Z</time></trkpt><trkpt lat="45.43266670859162" lon="11.15631955055227"><ele>69.0</ele><time>2026-04-25T13:00:18Z</time></trkpt><trkpt lat="45.432727381446654" lon="11.156405219262606"><ele>69.0</ele><time>2026-04-25T13:00:19Z</time></trkpt><trkpt lat="45.432815114193126" lon="11.156489141956285"><ele>69.0</ele><time>2026-04-25T13:00:20Z</time></trkpt><trkpt lat="45.43291525722662" lon="11.156576931219364"><ele>69.0</ele><time>2026-04-25T13:00:21Z</time></trkpt><trkpt lat="45.43299978681329" lon="11.15665852486879"><ele>69.0</ele><time>2026-04-25T13:00:22Z</time></trkpt><trkpt lat="45.4330643073824" lon="11.156777240711653"><ele>69.0</ele><time>2026-04-25T13:00:23Z</time></trkpt><trkpt lat="45.433123583982585" lon="11.156888716895931"><ele>69.0</ele><time>2026-04-25T13:00:24Z</time></trkpt><trkpt lat="45.43319533041169" lon="11.157019795617273"><ele>69.0</ele><time>2026-04-25T13:00:25Z</time></trkpt><trkpt lat="45.43327183397081" lon="11.157132923031995"><ele>69.0</ele><time>2026-04-25T13:00:26Z</time></trkpt><trkpt lat="45.43334253585336" lon="11.157244622192865"><ele>69.0</ele><time>2026-04-25T13:00:27Z</time></trkpt><trkpt lat="45.43339951959892" lon="11.157344252011056"><ele>69.0</ele><time>2026-04-25T13:00:28Z</time></trkpt><trkpt lat="45.43343702460548" lon="11.157462631798426"><ele>69.0</ele><time>2026-04-25T13:00:29Z</time></trkpt><trkpt lat="45.43347425544558" lon="11.157581317338638"><ele>69.0</ele><time>2026-04-25T13:00:30Z</time></trkpt><trkpt lat="45.433518169745376" lon="11.157682913161898"><ele>69.0</ele><time>2026-04-25T13:00:31Z</time></trkpt><trkpt lat="45.4335597475577" lon="11.15777413891066"><ele>69.0</ele><time>2026-04-25T13:00:32Z</time></trkpt><trkpt lat="45.43362061001305" lon="11.157863977075722"><ele>69.0</ele><time>2026-04-25T13:00:33Z</time></trkpt><trkpt lat="45.43368161953429" lon="11.157963958815172"><ele>69.0</ele><time>2026-04-25T13:00:34Z</time></trkpt><trkpt lat="45.43368125741269" lon="11.158197466891222"><ele>69.0</ele><time>2026-04-25T13:00:35Z</time></trkpt><trkpt lat="45.43373962371448" lon="11.158358229120283"><ele>69.0</ele><time>2026-04-25T13:00:36Z</time></trkpt><trkpt lat="45.433781174628066" lon="11.15848299967868"><ele>69.0</ele><time>2026-04-25T13:00:37Z</time></trkpt><trkpt lat="45.433800926599375" lon="11.158593422756967"><ele>69.0</ele><time>2026-04-25T13:00:38Z</time></trkpt><trkpt lat="45.43380491941245" lon="11.158716561856748"><ele>69.0</ele><time>2026-04-25T13:00:39Z</time></trkpt><trkpt lat="45.433790485047204" lon="11.158859393431017"><ele>69.0</ele><time>2026-04-25T13:00:40Z</time></trkpt><trkpt lat="45.43377949908494" lon="11.159025998094156"><ele>69.0</ele><time>2026-04-25T13:00:41Z</time></trkpt><trkpt lat="45.433772882838284" lon="11.159216567105092"><ele>69.0</ele><time>2026-04-25T13:00:42Z</time></trkpt><trkpt lat="45.433775304850364" lon="11.159402733380409"><ele>69.0</ele><time>2026-04-25T13:00:43Z</time></trkpt><trkpt lat="45.433770190835276" lon="11.159589185246018"><ele>69.0</ele><time>2026-04-25T13:00:44Z</time></trkpt><trkpt lat="45.43377218734142" lon="11.159769229657877"><ele>69.0</ele><time>2026-04-25T13:00:45Z</time></trkpt><trkpt lat="45.43377555566265" lon="11.159940869692434"><ele>69.2</ele><time>2026-04-25T13:00:46Z</time></trkpt><trkpt lat="45.43377481755928" lon="11.160105279094104"><ele>69.4</ele><time>2026-04-25T13:00:47Z</time></trkpt><trkpt lat="45.43377473960674" lon="11.160261799126191"><ele>69.6</ele><time>2026-04-25T13:00:48Z</time></trkpt><trkpt lat="45.43377325037428" lon="11.16041268151139"><ele>69.8</ele><time>2026-04-25T13:00:49Z</time></trkpt><trkpt lat="45.433770314942066" lon="11.160557121233998"><ele>70.0</ele><time>2026-04-25T13:00:50Z</time></trkpt><trkpt lat="45.4337599168789" lon="11.160713578375475"><ele>70.33333333333333</ele><time>2026-04-25T13:00:51Z</time></trkpt><trkpt lat="45.433760149057946" lon="11.160859110383655"><ele>70.66666666666666</ele><time>2026-04-25T13:00:52Z</time></trkpt><trkpt lat="45.43375456940507" lon="11.16099780965691"><ele>71.0</ele><time>2026-04-25T13:00:53Z</time></trkpt><trkpt lat="45.43374599665056" lon="11.161116044696772"><ele>71.33333333333333</ele><time>2026-04-25T13:00:54Z</time></trkpt><trkpt lat="45.43373059272012" lon="11.161235445502431"><ele>71.66666666666667</ele><time>2026-04-25T13:00:55Z</time></trkpt><trkpt lat="45.4337292078695" lon="11.161329851578921"><ele>72.0</ele><time>2026-04-25T13:00:56Z</time></trkpt><trkpt lat="45.43374549945023" lon="11.161418917546007"><ele>72.0</ele><time>2026-04-25T13:00:57Z</time></trkpt><trkpt lat="45.43375364680339" lon="11.161518998415143"><ele>72.0</ele><time>2026-04-25T13:00:58Z</time></trkpt><trkpt lat="45.43375570082097" lon="11.16162580274319"><ele>72.0</ele><time>2026-04-25T13:00:59Z</time></trkpt><trkpt lat="45.43375263499927" lon="11.161737286336468"><ele>72.0</ele><time>2026-04-25T13:01:00Z</time></trkpt><trkpt lat="45.43375176507192" lon="11.161860174415992"><ele>72.0</ele><time>2026-04-25T13:01:01Z</time></trkpt><trkpt lat="45.43375344439028" lon="11.161999524747925"><ele>72.0</ele><time>2026-04-25T13:01:02Z</time></trkpt><trkpt lat="45.43376053819744" lon="11.162159022289663"><ele>72.0</ele><time>2026-04-25T13:01:03Z</time></trkpt><trkpt lat="45.43377268378356" lon="11.162315853936558"><ele>72.0</ele><time>2026-04-25T13:01:04Z</time></trkpt><trkpt lat="45.433785907586476" lon="11.162485438256878"><ele>72.0</ele><time>2026-04-25T13:01:05Z</time></trkpt><trkpt lat="45.43380291154243" lon="11.162651880215904"><ele>72.0</ele><time>2026-04-25T13:01:06Z</time></trkpt><trkpt lat="45.4338200302865" lon="11.162807111964845"><ele>72.0</ele><time>2026-04-25T13:01:07Z</time></trkpt><trkpt lat="45.43383683111848" lon="11.16294981577142"><ele>72.0</ele><time>2026-04-25T13:01:08Z</time></trkpt><trkpt lat="45.43385360167281" lon="11.163080508237849"><ele>72.0</ele><time>2026-04-25T13:01:09Z</time></trkpt><trkpt lat="45.433868672160884" lon="11.163201355612467"><ele>72.0</ele><time>2026-04-25T13:01:10Z</time></trkpt><trkpt lat="45.4338839346511" lon="11.16331915589319"><ele>72.0</ele><time>2026-04-25T13:01:11Z</time></trkpt><trkpt lat="45.433906110887776" lon="11.163432948216732"><ele>72.0</ele><time>2026-04-25T13:01:12Z</time></trkpt><trkpt lat="45.43393626542318" lon="11.163542205077494"><ele>72.0</ele><time>2026-04-25T13:01:13Z</time></trkpt><trkpt lat="45.43397666803162" lon="11.163646748967034"><ele>72.0</ele><time>2026-04-25T13:01:14Z</time></trkpt><trkpt lat="45.43402599970914" lon="11.163769861108523"><ele>72.0</ele><time>2026-04-25T13:01:15Z</time></trkpt><trkpt lat="45.43409306783394" lon="11.163928951291805"><ele>72.0</ele><time>2026-04-25T13:01:16Z</time></trkpt><trkpt lat="45.4341551009238" lon="11.164086117882142"><ele>72.0</ele><time>2026-04-25T13:01:17Z</time></trkpt><trkpt lat="45.43420233623192" lon="11.164230719821019"><ele>72.4</ele><time>2026-04-25T13:01:18Z</time></trkpt><trkpt lat="45.434248249118674" lon="11.164370701249297"><ele>72.80000000000001</ele><time>2026-04-25T13:01:19Z</time></trkpt><trkpt lat="45.43429896186267" lon="11.164522170675047"><ele>73.2</ele><time>2026-04-25T13:01:20Z</time></trkpt><trkpt lat="45.43434077920954" lon="11.164643712834781"><ele>73.60000000000001</ele><time>2026-04-25T13:01:21Z</time></trkpt><trkpt lat="45.4343727390643" lon="11.164727710362548"><ele>74.0</ele><time>2026-04-25T13:01:22Z</time></trkpt><trkpt lat="45.434412640563345" lon="11.164798387670107"><ele>74.0</ele><time>2026-04-25T13:01:23Z</time></trkpt><trkpt lat="45.43446815777792" lon="11.16485655581128"><ele>74.0</ele><time>2026-04-25T13:01:24Z</time></trkpt><trkpt lat="45.434505442724976" lon="11.1649344548031"><ele>74.0</ele><time>2026-04-25T13:01:26Z</time></trkpt><trkpt lat="45.4344468115416" lon="11.164973029952792"><ele>74.0</ele><time>2026-04-25T13:01:28Z</time></trkpt><trkpt lat="45.434309294560045" lon="11.164980836919314"><ele>74.0</ele><time>2026-04-25T13:01:30Z</time></trkpt><trkpt lat="45.43420773337944" lon="11.164983692121202"><ele>74.0</ele><time>2026-04-25T13:01:31Z</time></trkpt><trkpt lat="45.43409930251719" lon="11.165003630137411"><ele>74.16666666666667</ele><time>2026-04-25T13:01:32Z</time></trkpt><trkpt lat="45.43400969050457" lon="11.165031032688873"><ele>74.33333333333334</ele><time>2026-04-25T13:01:33Z</time></trkpt><trkpt lat="45.43392654179787" lon="11.165081033358772"><ele>74.5</ele><time>2026-04-25T13:01:34Z</time></trkpt><trkpt lat="45.433873502973576" lon="11.165144312833808"><ele>74.66666666666667</ele><time>2026-04-25T13:01:35Z</time></trkpt><trkpt lat="45.43383515320923" lon="11.165219257212321"><ele>74.83333333333333</ele><time>2026-04-25T13:01:36Z</time></trkpt><trkpt lat="45.43380964006007" lon="11.165304649137816"><ele>75.0</ele><time>2026-04-25T13:01:37Z</time></trkpt><trkpt lat="45.43378732776666" lon="11.16541654513711"><ele>74.6</ele><time>2026-04-25T13:01:38Z</time></trkpt><trkpt lat="45.43377689135686" lon="11.165519333278166"><ele>74.2</ele><time>2026-04-25T13:01:39Z</time></trkpt><trkpt lat="45.43377096145132" lon="11.165650736693056"><ele>73.8</ele><time>2026-04-25T13:01:40Z</time></trkpt><trkpt lat="45.43375421090538" lon="11.165841812462881"><ele>73.4</ele><time>2026-04-25T13:01:41Z</time></trkpt><trkpt lat="45.43373713295189" lon="11.166014089965485"><ele>73.0</ele><time>2026-04-25T13:01:42Z</time></trkpt><trkpt lat="45.43372229727128" lon="11.166194708766279"><ele>72.5</ele><time>2026-04-25T13:01:43Z</time></trkpt><trkpt lat="45.433707503991435" lon="11.166362350918657"><ele>72.0</ele><time>2026-04-25T13:01:44Z</time></trkpt><trkpt lat="45.43369448765011" lon="11.16652893576887"><ele>71.5</ele><time>2026-04-25T13:01:45Z</time></trkpt><trkpt lat="45.43367538607123" lon="11.166691061382096"><ele>71.0</ele><time>2026-04-25T13:01:46Z</time></trkpt><trkpt lat="45.433650918214845" lon="11.166870473966599"><ele>71.0</ele><time>2026-04-25T13:01:47Z</time></trkpt><trkpt lat="45.43361998183723" lon="11.167034676499629"><ele>71.0</ele><time>2026-04-25T13:01:48Z</time></trkpt><trkpt lat="45.43358670672243" lon="11.167170966532288"><ele>71.0</ele><time>2026-04-25T13:01:49Z</time></trkpt><trkpt lat="45.433567255482856" lon="11.167282541164045"><ele>71.0</ele><time>2026-04-25T13:01:50Z</time></trkpt><trkpt lat="45.43356003112058" lon="11.16744288935835"><ele>71.0</ele><time>2026-04-25T13:01:52Z</time></trkpt><trkpt lat="45.433568265101044" lon="11.167594253218493"><ele>71.2</ele><time>2026-04-25T13:01:53Z</time></trkpt><trkpt lat="45.433577465466854" lon="11.167694042704301"><ele>71.39999999999999</ele><time>2026-04-25T13:01:54Z</time></trkpt><trkpt lat="45.43358450162855" lon="11.167812318264904"><ele>71.6</ele><time>2026-04-25T13:01:55Z</time></trkpt><trkpt lat="45.43357774921109" lon="11.167952346778481"><ele>71.8</ele><time>2026-04-25T13:01:56Z</time></trkpt><trkpt lat="45.433558717764534" lon="11.168117378608919"><ele>72.0</ele><time>2026-04-25T13:01:57Z</time></trkpt><trkpt lat="45.43346572125614" lon="11.16856154758878"><ele>72.0</ele><time>2026-04-25T13:01:58Z</time></trkpt><trkpt lat="45.43341360792018" lon="11.168785624030086"><ele>72.0</ele><time>2026-04-25T13:01:59Z</time></trkpt><trkpt lat="45.43336619073277" lon="11.169012896004574"><ele>72.0</ele><time>2026-04-25T13:02:00Z</time></trkpt><trkpt lat="45.43333223887162" lon="11.169198642867048"><ele>72.25</ele><time>2026-04-25T13:02:01Z</time></trkpt><trkpt lat="45.433300582531174" lon="11.169382396221291"><ele>72.5</ele><time>2026-04-25T13:02:02Z</time></trkpt><trkpt lat="45.433265756039056" lon="11.169600634656302"><ele>72.75</ele><time>2026-04-25T13:02:03Z</time></trkpt><trkpt lat="45.43323733945097" lon="11.169813745356066"><ele>73.0</ele><time>2026-04-25T13:02:04Z</time></trkpt><trkpt lat="45.4332148598577" lon="11.170014191388075"><ele>73.0</ele><time>2026-04-25T13:02:05Z</time></trkpt><trkpt lat="45.433195187296846" lon="11.170197020845414"><ele>73.0</ele><time>2026-04-25T13:02:06Z</time></trkpt><trkpt lat="45.43319012502882" lon="11.170358258660224"><ele>73.0</ele><time>2026-04-25T13:02:07Z</time></trkpt><trkpt lat="45.43317227344167" lon="11.17050401388051"><ele>73.0</ele><time>2026-04-25T13:02:08Z</time></trkpt><trkpt lat="45.43315939263599" lon="11.170631529941021"><ele>73.0</ele><time>2026-04-25T13:02:09Z</time></trkpt><trkpt lat="45.433144363572296" lon="11.170762385031104"><ele>73.16666666666666</ele><time>2026-04-25T13:02:10Z</time></trkpt><trkpt lat="45.43313370988623" lon="11.17089566931792"><ele>73.33333333333333</ele><time>2026-04-25T13:02:11Z</time></trkpt><trkpt lat="45.43314346320443" lon="11.171026438666011"><ele>73.5</ele><time>2026-04-25T13:02:12Z</time></trkpt><trkpt lat="45.43315602472769" lon="11.171145368985707"><ele>73.66666666666667</ele><time>2026-04-25T13:02:13Z</time></trkpt><trkpt lat="45.43316910818065" lon="11.171260228099655"><ele>73.83333333333334</ele><time>2026-04-25T13:02:14Z</time></trkpt><trkpt lat="45.43319035450924" lon="11.171370749158356"><ele>74.0</ele><time>2026-04-25T13:02:15Z</time></trkpt><trkpt lat="45.43322092916902" lon="11.17147396749151"><ele>74.2</ele><time>2026-04-25T13:02:16Z</time></trkpt><trkpt lat="45.43326329174904" lon="11.171595978533187"><ele>74.4</ele><time>2026-04-25T13:02:17Z</time></trkpt><trkpt lat="45.433309856225584" lon="11.171737980096212"><ele>74.6</ele><time>2026-04-25T13:02:18Z</time></trkpt><trkpt lat="45.43334188278916" lon="11.171895360108067"><ele>74.8</ele><time>2026-04-25T13:02:19Z</time></trkpt><trkpt lat="45.433350786109195" lon="11.172043777332595"><ele>75.0</ele><time>2026-04-25T13:02:20Z</time></trkpt><trkpt lat="45.43334514530331" lon="11.172201917137548"><ele>75.0</ele><time>2026-04-25T13:02:21Z</time></trkpt><trkpt lat="45.43332471894121" lon="11.172355720470211"><ele>75.0</ele><time>2026-04-25T13:02:22Z</time></trkpt><trkpt lat="45.43330634419896" lon="11.172521497468907"><ele>75.0</ele><time>2026-04-25T13:02:23Z</time></trkpt><trkpt lat="45.43329955539925" lon="11.172694758020794"><ele>75.0</ele><time>2026-04-25T13:02:24Z</time></trkpt><trkpt lat="45.43332386222935" lon="11.172868661944946"><ele>74.75</ele><time>2026-04-25T13:02:25Z</time></trkpt><trkpt lat="45.433343801817266" lon="11.173052514435177"><ele>74.5</ele><time>2026-04-25T13:02:26Z</time></trkpt><trkpt lat="45.43336660509606" lon="11.173253079271008"><ele>74.25</ele><time>2026-04-25T13:02:27Z</time></trkpt><trkpt lat="45.43337807831478" lon="11.17342469238308"><ele>74.0</ele><time>2026-04-25T13:02:28Z</time></trkpt><trkpt lat="45.43338081775776" lon="11.17356239113816"><ele>74.0</ele><time>2026-04-25T13:02:29Z</time></trkpt><trkpt lat="45.43335838854876" lon="11.173677271111575"><ele>74.0</ele><time>2026-04-25T13:02:30Z</time></trkpt><trkpt lat="45.43335374492253" lon="11.17377117177371"><ele>74.0</ele><time>2026-04-25T13:02:31Z</time></trkpt><trkpt lat="45.433303976338614" lon="11.173859330128188"><ele>74.0</ele><time>2026-04-25T13:02:32Z</time></trkpt><trkpt lat="45.433236062420896" lon="11.17394370730721"><ele>74.0</ele><time>2026-04-25T13:02:33Z</time></trkpt><trkpt lat="45.43316346558481" lon="11.174029084802303"><ele>74.0</ele><time>2026-04-25T13:02:34Z</time></trkpt><trkpt lat="45.43309565071972" lon="11.17411807212152"><ele>73.83333333333334</ele><time>2026-04-25T13:02:35Z</time></trkpt><trkpt lat="45.43302974806192" lon="11.174203073360898"><ele>73.66666666666667</ele><time>2026-04-25T13:02:36Z</time></trkpt><trkpt lat="45.432966802036745" lon="11.174286420100087"><ele>73.5</ele><time>2026-04-25T13:02:37Z</time></trkpt><trkpt lat="45.43291108695261" lon="11.174359149686545"><ele>73.33333333333333</ele><time>2026-04-25T13:02:38Z</time></trkpt><trkpt lat="45.432872262939256" lon="11.17446226663086"><ele>73.16666666666666</ele><time>2026-04-25T13:02:39Z</time></trkpt><trkpt lat="45.43285964868474" lon="11.174569443437793"><ele>73.0</ele><time>2026-04-25T13:02:40Z</time></trkpt><trkpt lat="45.43283913121823" lon="11.174660002239712"><ele>72.8</ele><time>2026-04-25T13:02:41Z</time></trkpt><trkpt lat="45.432826779487236" lon="11.17476069051336"><ele>72.6</ele><time>2026-04-25T13:02:42Z</time></trkpt><trkpt lat="45.43281972679903" lon="11.17488082912206"><ele>72.4</ele><time>2026-04-25T13:02:43Z</time></trkpt><trkpt lat="45.43281184998191" lon="11.175025828848327"><ele>72.2</ele><time>2026-04-25T13:02:44Z</time></trkpt><trkpt lat="45.43279630826653" lon="11.175183151007625"><ele>72.0</ele><time>2026-04-25T13:02:45Z</time></trkpt><trkpt lat="45.43278580506028" lon="11.175351325464959"><ele>72.0</ele><time>2026-04-25T13:02:46Z</time></trkpt><trkpt lat="45.43277971477652" lon="11.175525173219505"><ele>72.0</ele><time>2026-04-25T13:02:47Z</time></trkpt><trkpt lat="45.43277697770237" lon="11.175708824620129"><ele>72.0</ele><time>2026-04-25T13:02:48Z</time></trkpt><trkpt lat="45.43276292552619" lon="11.175885393010219"><ele>72.0</ele><time>2026-04-25T13:02:49Z</time></trkpt><trkpt lat="45.43274279946511" lon="11.176071701931255"><ele>72.25</ele><time>2026-04-25T13:02:50Z</time></trkpt><trkpt lat="45.43272006877046" lon="11.176270927822124"><ele>72.5</ele><time>2026-04-25T13:02:51Z</time></trkpt><trkpt lat="45.43269667386112" lon="11.176473575367796"><ele>72.75</ele><time>2026-04-25T13:02:52Z</time></trkpt><trkpt lat="45.43267038855236" lon="11.176693909126515"><ele>73.0</ele><time>2026-04-25T13:02:53Z</time></trkpt><trkpt lat="45.43264583467489" lon="11.176891608162668"><ele>73.0</ele><time>2026-04-25T13:02:54Z</time></trkpt><trkpt lat="45.432629290813395" lon="11.177066861620885"><ele>73.0</ele><time>2026-04-25T13:02:55Z</time></trkpt><trkpt lat="45.432617799101315" lon="11.177226260572445"><ele>73.0</ele><time>2026-04-25T13:02:56Z</time></trkpt><trkpt lat="45.43260729220895" lon="11.177352968445508"><ele>73.0</ele><time>2026-04-25T13:02:57Z</time></trkpt><trkpt lat="45.43260028952642" lon="11.177444975707868"><ele>73.0</ele><time>2026-04-25T13:02:58Z</time></trkpt><trkpt lat="45.4325727862168" lon="11.177534154724118"><ele>73.0</ele><time>2026-04-25T13:03:02Z</time></trkpt><trkpt lat="45.43245223981808" lon="11.177525482464436"><ele>73.0</ele><time>2026-04-25T13:03:03Z</time></trkpt><trkpt lat="45.43238942803278" lon="11.177509672644492"><ele>73.0</ele><time>2026-04-25T13:03:04Z</time></trkpt><trkpt lat="45.432320446291186" lon="11.177506620437663"><ele>73.0</ele><time>2026-04-25T13:03:05Z</time></trkpt><trkpt lat="45.4322376401154" lon="11.177508407840415"><ele>73.0</ele><time>2026-04-25T13:03:06Z</time></trkpt><trkpt lat="45.43213968444028" lon="11.177506959974558"><ele>73.0</ele><time>2026-04-25T13:03:07Z</time></trkpt><trkpt lat="45.43204632070168" lon="11.17750568872942"><ele>72.75</ele><time>2026-04-25T13:03:08Z</time></trkpt><trkpt lat="45.43195118187735" lon="11.177507824386414"><ele>72.5</ele><time>2026-04-25T13:03:09Z</time></trkpt><trkpt lat="45.43182376944084" lon="11.177511072158287"><ele>72.25</ele><time>2026-04-25T13:03:10Z</time></trkpt><trkpt lat="45.43169097615355" lon="11.17751380400676"><ele>72.0</ele><time>2026-04-25T13:03:11Z</time></trkpt><trkpt lat="45.43155662846803" lon="11.17749873328402"><ele>72.0</ele><time>2026-04-25T13:03:12Z</time></trkpt><trkpt lat="45.431415075919176" lon="11.177484361484368"><ele>72.0</ele><time>2026-04-25T13:03:13Z</time></trkpt><trkpt lat="45.43127399548066" lon="11.177460315979534"><ele>72.0</ele><time>2026-04-25T13:03:14Z</time></trkpt><trkpt lat="45.4311333607967" lon="11.177436861812103"><ele>72.0</ele><time>2026-04-25T13:03:15Z</time></trkpt><trkpt lat="45.43098225483461" lon="11.177404430523584"><ele>72.0</ele><time>2026-04-25T13:03:16Z</time></trkpt><trkpt lat="45.4308222767596" lon="11.177369371596281"><ele>72.0</ele><time>2026-04-25T13:03:17Z</time></trkpt><trkpt lat="45.430662182768536" lon="11.177331729385221"><ele>72.0</ele><time>2026-04-25T13:03:18Z</time></trkpt><trkpt lat="45.43049789717952" lon="11.177288299126184"><ele>71.0</ele><time>2026-04-25T13:03:19Z</time></trkpt><trkpt lat="45.430324197887245" lon="11.177245609079101"><ele>70.0</ele><time>2026-04-25T13:03:20Z</time></trkpt><trkpt lat="45.43014491071806" lon="11.17720345333524"><ele>69.0</ele><time>2026-04-25T13:03:21Z</time></trkpt><trkpt lat="45.42996255511871" lon="11.177160163247343"><ele>69.0</ele><time>2026-04-25T13:03:22Z</time></trkpt><trkpt lat="45.42977008021405" lon="11.177113663408726"><ele>69.0</ele><time>2026-04-25T13:03:23Z</time></trkpt><trkpt lat="45.42956935291444" lon="11.177066177046516"><ele>69.0</ele><time>2026-04-25T13:03:24Z</time></trkpt><trkpt lat="45.429364535276335" lon="11.177018515293538"><ele>68.33333333333333</ele><time>2026-04-25T13:03:25Z</time></trkpt><trkpt lat="45.42915519514479" lon="11.176973285712206"><ele>67.66666666666666</ele><time>2026-04-25T13:03:26Z</time></trkpt><trkpt lat="45.42894166354093" lon="11.176931175997368"><ele>67.0</ele><time>2026-04-25T13:03:27Z</time></trkpt><trkpt lat="45.42872225294427" lon="11.176894286040618"><ele>65.66666666666666</ele><time>2026-04-25T13:03:28Z</time></trkpt><trkpt lat="45.42850382719895" lon="11.176860326803926"><ele>64.33333333333333</ele><time>2026-04-25T13:03:29Z</time></trkpt><trkpt lat="45.42830421021272" lon="11.176827803893087"><ele>63.0</ele><time>2026-04-25T13:03:30Z</time></trkpt><trkpt lat="45.428124107183656" lon="11.176799552899938"><ele>62.66666666666667</ele><time>2026-04-25T13:03:31Z</time></trkpt><trkpt lat="45.4279528252339" lon="11.176777092974524"><ele>62.333333333333336</ele><time>2026-04-25T13:03:32Z</time></trkpt><trkpt lat="45.42779142447373" lon="11.17676049351223"><ele>62.0</ele><time>2026-04-25T13:03:33Z</time></trkpt><trkpt lat="45.427646097367024" lon="11.176750393106767"><ele>62.0</ele><time>2026-04-25T13:03:34Z</time></trkpt><trkpt lat="45.427511633644194" lon="11.17674196466594"><ele>62.0</ele><time>2026-04-25T13:03:35Z</time></trkpt><trkpt lat="45.427390332588516" lon="11.176734254194763"><ele>62.0</ele><time>2026-04-25T13:03:36Z</time></trkpt><trkpt lat="45.42727684939386" lon="11.176729699003896"><ele>62.0</ele><time>2026-04-25T13:03:37Z</time></trkpt><trkpt lat="45.42717305338184" lon="11.176723482531264"><ele>62.00000000000001</ele><time>2026-04-25T13:03:38Z</time></trkpt><trkpt lat="45.427090768874045" lon="11.176709896370648"><ele>62.0</ele><time>2026-04-25T13:03:39Z</time></trkpt><trkpt lat="45.427017551850966" lon="11.176683699309466"><ele>62.0</ele><time>2026-04-25T13:03:40Z</time></trkpt><trkpt lat="45.4269579305384" lon="11.176639205242507"><ele>62.0</ele><time>2026-04-25T13:03:41Z</time></trkpt><trkpt lat="45.4269056602977" lon="11.176573112170463"><ele>62.00000000000001</ele><time>2026-04-25T13:03:42Z</time></trkpt><trkpt lat="45.426829539991374" lon="11.176626801184977"><ele>62.0</ele><time>2026-04-25T13:03:44Z</time></trkpt><trkpt lat="45.426800506295834" lon="11.176440166578892"><ele>62.00000000000001</ele><time>2026-04-25T13:03:45Z</time></trkpt><trkpt lat="45.426707399185815" lon="11.17643221776488"><ele>62.0</ele><time>2026-04-25T13:04:40Z</time></trkpt><trkpt lat="45.42664133083788" lon="11.176407180530742"><ele>62.0</ele><time>2026-04-25T13:06:08Z</time></trkpt><trkpt lat="45.42652132402884" lon="11.176438065793398"><ele>62.0</ele><time>2026-04-25T13:06:10Z</time></trkpt><trkpt lat="45.42646717604952" lon="11.176488334830017"><ele>62.00000000000001</ele><time>2026-04-25T13:06:11Z</time></trkpt><trkpt lat="45.426480895926105" lon="11.176626936344238"><ele>62.0</ele><time>2026-04-25T13:06:14Z</time></trkpt><trkpt lat="45.426583619344285" lon="11.176758079805412"><ele>62.0</ele><time>2026-04-25T13:06:31Z</time></trkpt><trkpt lat="45.42670183786467" lon="11.176759491986308"><ele>62.0</ele><time>2026-04-25T13:06:32Z</time></trkpt><trkpt lat="45.42683788549412" lon="11.176752039456852"><ele>62.0</ele><time>2026-04-25T13:06:33Z</time></trkpt><trkpt lat="45.426992967867406" lon="11.176758595557233"><ele>62.0</ele><time>2026-04-25T13:06:34Z</time></trkpt><trkpt lat="45.427193600654824" lon="11.176768913249933"><ele>62.0</ele><time>2026-04-25T13:06:35Z</time></trkpt><trkpt lat="45.427431541733974" lon="11.176780968956946"><ele>62.0</ele><time>2026-04-25T13:06:36Z</time></trkpt><trkpt lat="45.427657090476096" lon="11.176797869462975"><ele>62.0</ele><time>2026-04-25T13:06:37Z</time></trkpt><trkpt lat="45.42786403679437" lon="11.176813672144657"><ele>62.0</ele><time>2026-04-25T13:06:38Z</time></trkpt><trkpt lat="45.428065098062675" lon="11.176829360341646"><ele>62.0</ele><time>2026-04-25T13:06:39Z</time></trkpt><trkpt lat="45.428254116971814" lon="11.176849886339085"><ele>62.333333333333336</ele><time>2026-04-25T13:06:40Z</time></trkpt><trkpt lat="45.428429048856174" lon="11.176876768800811"><ele>62.66666666666667</ele><time>2026-04-25T13:06:41Z</time></trkpt><trkpt lat="45.42860116127444" lon="11.17691333038466"><ele>63.0</ele><time>2026-04-25T13:06:42Z</time></trkpt><trkpt lat="45.428765662639954" lon="11.176948691401066"><ele>64.33333333333333</ele><time>2026-04-25T13:06:43Z</time></trkpt><trkpt lat="45.428925517554696" lon="11.17698395927368"><ele>65.66666666666666</ele><time>2026-04-25T13:06:44Z</time></trkpt><trkpt lat="45.42908179399947" lon="11.177013409903973"><ele>67.0</ele><time>2026-04-25T13:06:45Z</time></trkpt><trkpt lat="45.429231395853684" lon="11.177038306834335"><ele>67.0</ele><time>2026-04-25T13:06:46Z</time></trkpt><trkpt lat="45.42936797584126" lon="11.177064210973146"><ele>67.0</ele><time>2026-04-25T13:06:47Z</time></trkpt><trkpt lat="45.4294997808259" lon="11.177093444610188"><ele>67.0</ele><time>2026-04-25T13:06:48Z</time></trkpt><trkpt lat="45.429630922769626" lon="11.177121791083527"><ele>67.0</ele><time>2026-04-25T13:06:49Z</time></trkpt><trkpt lat="45.429756192565726" lon="11.177150788367307"><ele>67.5</ele><time>2026-04-25T13:06:50Z</time></trkpt><trkpt lat="45.42988847864009" lon="11.177181588321588"><ele>68.0</ele><time>2026-04-25T13:06:51Z</time></trkpt><trkpt lat="45.430020620809316" lon="11.177216212279838"><ele>68.5</ele><time>2026-04-25T13:06:52Z</time></trkpt><trkpt lat="45.4301479007884" lon="11.177244101290324"><ele>69.0</ele><time>2026-04-25T13:06:53Z</time></trkpt><trkpt lat="45.43027679827582" lon="11.177272341726765"><ele>69.0</ele><time>2026-04-25T13:06:54Z</time></trkpt><trkpt lat="45.4304093880049" lon="11.177304877901522"><ele>69.0</ele><time>2026-04-25T13:06:55Z</time></trkpt><trkpt lat="45.430539369906384" lon="11.177336604942646"><ele>69.0</ele><time>2026-04-25T13:06:56Z</time></trkpt><trkpt lat="45.43066738586462" lon="11.17736964582288"><ele>69.0</ele><time>2026-04-25T13:06:57Z</time></trkpt><trkpt lat="45.43079396625502" lon="11.177402288819197"><ele>69.75</ele><time>2026-04-25T13:06:58Z</time></trkpt><trkpt lat="45.430920507098705" lon="11.177434920196832"><ele>70.5</ele><time>2026-04-25T13:06:59Z</time></trkpt><trkpt lat="45.43104823240392" lon="11.177465126628272"><ele>71.25</ele><time>2026-04-25T13:07:00Z</time></trkpt><trkpt lat="45.431179571438875" lon="11.17749113972841"><ele>72.0</ele><time>2026-04-25T13:07:01Z</time></trkpt><trkpt lat="45.43131452053836" lon="11.177510894391114"><ele>72.0</ele><time>2026-04-25T13:07:02Z</time></trkpt><trkpt lat="45.431448393673705" lon="11.177521368177041"><ele>72.0</ele><time>2026-04-25T13:07:03Z</time></trkpt><trkpt lat="45.43158453419845" lon="11.177533149686582"><ele>72.0</ele><time>2026-04-25T13:07:04Z</time></trkpt><trkpt lat="45.43171758221695" lon="11.177541781485823"><ele>72.0</ele><time>2026-04-25T13:07:05Z</time></trkpt><trkpt lat="45.43185243967326" lon="11.177545549264963"><ele>72.0</ele><time>2026-04-25T13:07:06Z</time></trkpt><trkpt lat="45.431986268672944" lon="11.177549873024358"><ele>72.0</ele><time>2026-04-25T13:07:07Z</time></trkpt><trkpt lat="45.4321213959506" lon="11.17755424719177"><ele>72.0</ele><time>2026-04-25T13:07:08Z</time></trkpt><trkpt lat="45.43225483488811" lon="11.177557259178823"><ele>72.0</ele><time>2026-04-25T13:07:09Z</time></trkpt><trkpt lat="45.43238338527862" lon="11.177561483997344"><ele>72.16666666666667</ele><time>2026-04-25T13:07:10Z</time></trkpt><trkpt lat="45.43249703866039" lon="11.177569876339868"><ele>72.33333333333333</ele><time>2026-04-25T13:07:11Z</time></trkpt><trkpt lat="45.43258294600828" lon="11.17758365264922"><ele>72.5</ele><time>2026-04-25T13:07:12Z</time></trkpt><trkpt lat="45.4326583402649" lon="11.177610857637038"><ele>72.66666666666666</ele><time>2026-04-25T13:07:13Z</time></trkpt><trkpt lat="45.43270538481784" lon="11.177673736727224"><ele>72.83333333333333</ele><time>2026-04-25T13:07:14Z</time></trkpt><trkpt lat="45.43272950452699" lon="11.177781172617447"><ele>73.0</ele><time>2026-04-25T13:07:15Z</time></trkpt><trkpt lat="45.43277234295452" lon="11.177888678670215"><ele>73.0</ele><time>2026-04-25T13:07:16Z</time></trkpt><trkpt lat="45.432801876415446" lon="11.178010499571458"><ele>73.0</ele><time>2026-04-25T13:07:17Z</time></trkpt><trkpt lat="45.43282237952589" lon="11.17813399158274"><ele>73.0</ele><time>2026-04-25T13:07:18Z</time></trkpt><trkpt lat="45.43283764387022" lon="11.178253797215854"><ele>73.0</ele><time>2026-04-25T13:07:19Z</time></trkpt><trkpt lat="45.43283246560409" lon="11.178376646293739"><ele>73.0</ele><time>2026-04-25T13:07:20Z</time></trkpt><trkpt lat="45.43282491455754" lon="11.178494729451842"><ele>73.0</ele><time>2026-04-25T13:07:21Z</time></trkpt><trkpt lat="45.43282101259542" lon="11.178606795236297"><ele>73.16666666666666</ele><time>2026-04-25T13:07:22Z</time></trkpt><trkpt lat="45.432816971325416" lon="11.17871079858865"><ele>73.33333333333333</ele><time>2026-04-25T13:07:23Z</time></trkpt><trkpt lat="45.43280672467274" lon="11.1788279494619"><ele>73.5</ele><time>2026-04-25T13:07:24Z</time></trkpt><trkpt lat="45.432799958275716" lon="11.178955760361564"><ele>73.66666666666667</ele><time>2026-04-25T13:07:25Z</time></trkpt><trkpt lat="45.43279899441939" lon="11.179097023301118"><ele>73.83333333333334</ele><time>2026-04-25T13:07:26Z</time></trkpt><trkpt lat="45.4328114063536" lon="11.17924269871189"><ele>74.0</ele><time>2026-04-25T13:07:27Z</time></trkpt><trkpt lat="45.43283641097621" lon="11.179408282733656"><ele>74.0</ele><time>2026-04-25T13:07:28Z</time></trkpt><trkpt lat="45.43288098581917" lon="11.179568113683915"><ele>74.0</ele><time>2026-04-25T13:07:29Z</time></trkpt><trkpt lat="45.43293197364321" lon="11.179766821559083"><ele>74.0</ele><time>2026-04-25T13:07:30Z</time></trkpt><trkpt lat="45.43297259273047" lon="11.179977028743135"><ele>74.0</ele><time>2026-04-25T13:07:31Z</time></trkpt><trkpt lat="45.4330085089573" lon="11.180231439780446"><ele>74.66666666666667</ele><time>2026-04-25T13:07:32Z</time></trkpt><trkpt lat="45.433034962632135" lon="11.180487720971087"><ele>75.33333333333333</ele><time>2026-04-25T13:07:33Z</time></trkpt><trkpt lat="45.433055421323" lon="11.180711120490399"><ele>76.0</ele><time>2026-04-25T13:07:34Z</time></trkpt><trkpt lat="45.43308985589062" lon="11.180903606923907"><ele>76.0</ele><time>2026-04-25T13:07:35Z</time></trkpt><trkpt lat="45.43308907622623" lon="11.181054278868704"><ele>76.0</ele><time>2026-04-25T13:07:36Z</time></trkpt><trkpt lat="45.433112007438545" lon="11.181204877849487"><ele>76.0</ele><time>2026-04-25T13:07:37Z</time></trkpt><trkpt lat="45.433131198671475" lon="11.181351071162553"><ele>76.0</ele><time>2026-04-25T13:07:38Z</time></trkpt><trkpt lat="45.433129437580924" lon="11.181484963527042"><ele>76.0</ele><time>2026-04-25T13:07:39Z</time></trkpt><trkpt lat="45.43310989068842" lon="11.181617943879173"><ele>76.2</ele><time>2026-04-25T13:07:40Z</time></trkpt><trkpt lat="45.43308449325841" lon="11.18172631195143"><ele>76.39999999999999</ele><time>2026-04-25T13:07:41Z</time></trkpt><trkpt lat="45.43305050330103" lon="11.181839870543897"><ele>76.6</ele><time>2026-04-25T13:07:43Z</time></trkpt><trkpt lat="45.433043296091576" lon="11.181954270728058"><ele>76.8</ele><time>2026-04-25T13:07:44Z</time></trkpt><trkpt lat="45.43302882552278" lon="11.18213458511914"><ele>77.0</ele><time>2026-04-25T13:07:45Z</time></trkpt><trkpt lat="45.43300591935362" lon="11.182351202598705"><ele>76.66666666666667</ele><time>2026-04-25T13:07:46Z</time></trkpt><trkpt lat="45.432971985458764" lon="11.18256112687348"><ele>76.33333333333333</ele><time>2026-04-25T13:07:47Z</time></trkpt><trkpt lat="45.43295453197955" lon="11.182775547141068"><ele>76.0</ele><time>2026-04-25T13:07:48Z</time></trkpt><trkpt lat="45.43293978253648" lon="11.182989893350008"><ele>76.25</ele><time>2026-04-25T13:07:49Z</time></trkpt><trkpt lat="45.43292873702058" lon="11.183185681919623"><ele>76.5</ele><time>2026-04-25T13:07:50Z</time></trkpt><trkpt lat="45.432916235795126" lon="11.183373516201138"><ele>76.75</ele><time>2026-04-25T13:07:51Z</time></trkpt><trkpt lat="45.43290106726884" lon="11.183543996347725"><ele>77.0</ele><time>2026-04-25T13:07:52Z</time></trkpt><trkpt lat="45.43288965448495" lon="11.183695894911152"><ele>77.0</ele><time>2026-04-25T13:07:53Z</time></trkpt><trkpt lat="45.43287315515852" lon="11.183826642488084"><ele>77.0</ele><time>2026-04-25T13:07:54Z</time></trkpt><trkpt lat="45.43287940467705" lon="11.18393613861045"><ele>77.0</ele><time>2026-04-25T13:07:55Z</time></trkpt><trkpt lat="45.432905090050134" lon="11.18418905084552"><ele>77.0</ele><time>2026-04-25T13:07:59Z</time></trkpt><trkpt lat="45.43297795113817" lon="11.184360562498144"><ele>77.4</ele><time>2026-04-25T13:08:01Z</time></trkpt><trkpt lat="45.43304877047101" lon="11.184455554003826"><ele>77.80000000000001</ele><time>2026-04-25T13:08:02Z</time></trkpt><trkpt lat="45.43313497692069" lon="11.184542111006982"><ele>78.2</ele><time>2026-04-25T13:08:03Z</time></trkpt><trkpt lat="45.43323136703147" lon="11.184632163830827"><ele>78.60000000000001</ele><time>2026-04-25T13:08:04Z</time></trkpt><trkpt lat="45.433338897662225" lon="11.184713796247973"><ele>79.0</ele><time>2026-04-25T13:08:05Z</time></trkpt><trkpt lat="45.433458269566685" lon="11.184779003150718"><ele>79.0</ele><time>2026-04-25T13:08:06Z</time></trkpt><trkpt lat="45.43358865098792" lon="11.18480174701551"><ele>79.0</ele><time>2026-04-25T13:08:07Z</time></trkpt><trkpt lat="45.433713316840716" lon="11.18480547594952"><ele>79.0</ele><time>2026-04-25T13:08:08Z</time></trkpt><trkpt lat="45.433817119222326" lon="11.184817324533142"><ele>79.0</ele><time>2026-04-25T13:08:09Z</time></trkpt><trkpt lat="45.43391175923596" lon="11.184843268005405"><ele>79.25</ele><time>2026-04-25T13:08:10Z</time></trkpt><trkpt lat="45.43398637005546" lon="11.184895175665641"><ele>79.5</ele><time>2026-04-25T13:08:11Z</time></trkpt><trkpt lat="45.434097011112215" lon="11.18486186200265"><ele>79.75</ele><time>2026-04-25T13:08:13Z</time></trkpt><trkpt lat="45.43405953885397" lon="11.185171596933715"><ele>80.0</ele><time>2026-04-25T13:08:14Z</time></trkpt><trkpt lat="45.43408654356057" lon="11.185319347304588"><ele>80.0</ele><time>2026-04-25T13:08:15Z</time></trkpt><trkpt lat="45.43409180394247" lon="11.185523191808969"><ele>80.0</ele><time>2026-04-25T13:08:16Z</time></trkpt><trkpt lat="45.43410183206784" lon="11.185734786944327"><ele>80.0</ele><time>2026-04-25T13:08:17Z</time></trkpt><trkpt lat="45.43410568958086" lon="11.185958370496584"><ele>80.0</ele><time>2026-04-25T13:08:18Z</time></trkpt><trkpt lat="45.43410586556453" lon="11.186172560665641"><ele>80.5</ele><time>2026-04-25T13:08:19Z</time></trkpt><trkpt lat="45.434141641849784" lon="11.186344748403537"><ele>81.0</ele><time>2026-04-25T13:08:20Z</time></trkpt><trkpt lat="45.43419068977778" lon="11.186497396581764"><ele>81.5</ele><time>2026-04-25T13:08:21Z</time></trkpt><trkpt lat="45.43426230686474" lon="11.186629004941821"><ele>82.0</ele><time>2026-04-25T13:08:22Z</time></trkpt><trkpt lat="45.434359859021725" lon="11.186715632915"><ele>82.25</ele><time>2026-04-25T13:08:23Z</time></trkpt><trkpt lat="45.434477921790915" lon="11.186770040323601"><ele>82.5</ele><time>2026-04-25T13:08:24Z</time></trkpt><trkpt lat="45.43463183420845" lon="11.186812462698146"><ele>82.75</ele><time>2026-04-25T13:08:25Z</time></trkpt><trkpt lat="45.434780634759484" lon="11.186875082239025"><ele>83.0</ele><time>2026-04-25T13:08:26Z</time></trkpt><trkpt lat="45.43492960243332" lon="11.186948299237189"><ele>83.0</ele><time>2026-04-25T13:08:27Z</time></trkpt><trkpt lat="45.43507900400804" lon="11.187028726800046"><ele>83.0</ele><time>2026-04-25T13:08:28Z</time></trkpt><trkpt lat="45.435221391989444" lon="11.187110164866084"><ele>83.0</ele><time>2026-04-25T13:08:29Z</time></trkpt><trkpt lat="45.4353535974111" lon="11.187190069473122"><ele>83.0</ele><time>2026-04-25T13:08:30Z</time></trkpt><trkpt lat="45.435463088948445" lon="11.187267745517723"><ele>83.0</ele><time>2026-04-25T13:08:31Z</time></trkpt><trkpt lat="45.43556598345718" lon="11.187354895370538"><ele>83.0</ele><time>2026-04-25T13:08:32Z</time></trkpt><trkpt lat="45.43564861117633" lon="11.187470764893442"><ele>83.0</ele><time>2026-04-25T13:08:33Z</time></trkpt><trkpt lat="45.43571221030963" lon="11.187596910767033"><ele>83.60000000000001</ele><time>2026-04-25T13:08:34Z</time></trkpt><trkpt lat="45.435786204319626" lon="11.187681549420743"><ele>84.2</ele><time>2026-04-25T13:08:35Z</time></trkpt><trkpt lat="45.43586165252888" lon="11.187748396674115"><ele>84.8</ele><time>2026-04-25T13:08:36Z</time></trkpt><trkpt lat="45.435950512584775" lon="11.1878265119329"><ele>85.4</ele><time>2026-04-25T13:08:37Z</time></trkpt><trkpt lat="45.43604149760388" lon="11.187911288143686"><ele>86.0</ele><time>2026-04-25T13:08:38Z</time></trkpt><trkpt lat="45.43613608472226" lon="11.188000628521953"><ele>86.0</ele><time>2026-04-25T13:08:39Z</time></trkpt><trkpt lat="45.43623157979196" lon="11.188075643856427"><ele>86.0</ele><time>2026-04-25T13:08:40Z</time></trkpt><trkpt lat="45.43634270888983" lon="11.188145244038127"><ele>86.0</ele><time>2026-04-25T13:08:41Z</time></trkpt><trkpt lat="45.436436642727685" lon="11.18827520904948"><ele>86.0</ele><time>2026-04-25T13:08:42Z</time></trkpt><trkpt lat="45.43652720354352" lon="11.188371724961417"><ele>86.0</ele><time>2026-04-25T13:08:43Z</time></trkpt><trkpt lat="45.43659176040618" lon="11.18849703004733"><ele>86.0</ele><time>2026-04-25T13:08:44Z</time></trkpt><trkpt lat="45.43665142903952" lon="11.188616355542278"><ele>86.0</ele><time>2026-04-25T13:08:45Z</time></trkpt><trkpt lat="45.436713589314465" lon="11.188708695003768"><ele>86.0</ele><time>2026-04-25T13:08:46Z</time></trkpt><trkpt lat="45.43679509769626" lon="11.188785025633596"><ele>86.0</ele><time>2026-04-25T13:08:47Z</time></trkpt><trkpt lat="45.4368836868764" lon="11.188842245825477"><ele>86.0</ele><time>2026-04-25T13:08:48Z</time></trkpt><trkpt lat="45.436969282658175" lon="11.188889297867187"><ele>86.0</ele><time>2026-04-25T13:08:49Z</time></trkpt><trkpt lat="45.43706320263292" lon="11.188929402225135"><ele>86.0</ele><time>2026-04-25T13:08:50Z</time></trkpt><trkpt lat="45.43716123837647" lon="11.188985032730411"><ele>86.0</ele><time>2026-04-25T13:08:51Z</time></trkpt><trkpt lat="45.43725567858552" lon="11.189009189014842"><ele>86.0</ele><time>2026-04-25T13:08:52Z</time></trkpt><trkpt lat="45.43734911354546" lon="11.188998935785822"><ele>86.19999999999999</ele><time>2026-04-25T13:08:53Z</time></trkpt><trkpt lat="45.43745324157376" lon="11.189014185109977"><ele>86.39999999999999</ele><time>2026-04-25T13:08:54Z</time></trkpt><trkpt lat="45.43756531490784" lon="11.189044623171808"><ele>86.6</ele><time>2026-04-25T13:08:55Z</time></trkpt><trkpt lat="45.43767445643174" lon="11.189068757762067"><ele>86.8</ele><time>2026-04-25T13:08:56Z</time></trkpt><trkpt lat="45.4377890544933" lon="11.189113862208616"><ele>87.0</ele><time>2026-04-25T13:08:57Z</time></trkpt><trkpt lat="45.437907800046844" lon="11.1891584159861"><ele>87.25</ele><time>2026-04-25T13:08:58Z</time></trkpt><trkpt lat="45.43802575704266" lon="11.189209881150836"><ele>87.5</ele><time>2026-04-25T13:08:59Z</time></trkpt><trkpt lat="45.438146405640765" lon="11.189266247844943"><ele>87.75</ele><time>2026-04-25T13:09:00Z</time></trkpt><trkpt lat="45.43826835987966" lon="11.189326844742236"><ele>88.0</ele><time>2026-04-25T13:09:01Z</time></trkpt><trkpt lat="45.43837803966194" lon="11.189376042425735"><ele>88.0</ele><time>2026-04-25T13:09:02Z</time></trkpt><trkpt lat="45.43848160900656" lon="11.189426314108923"><ele>88.0</ele><time>2026-04-25T13:09:03Z</time></trkpt><trkpt lat="45.43857672731578" lon="11.189482561506258"><ele>88.0</ele><time>2026-04-25T13:09:04Z</time></trkpt><trkpt lat="45.43866275723523" lon="11.189542641385968"><ele>88.0</ele><time>2026-04-25T13:09:05Z</time></trkpt><trkpt lat="45.43873777976499" lon="11.189595137988523"><ele>88.0</ele><time>2026-04-25T13:09:06Z</time></trkpt><trkpt lat="45.43879891633827" lon="11.189640371347881"><ele>88.75</ele><time>2026-04-25T13:09:07Z</time></trkpt><trkpt lat="45.4389164008197" lon="11.18964780357"><ele>89.5</ele><time>2026-04-25T13:09:09Z</time></trkpt><trkpt lat="45.43900827127229" lon="11.189608391076796"><ele>90.25</ele><time>2026-04-25T13:09:10Z</time></trkpt><trkpt lat="45.43912507227891" lon="11.189593405093378"><ele>91.0</ele><time>2026-04-25T13:09:11Z</time></trkpt><trkpt lat="45.43924702985821" lon="11.189523014969295"><ele>91.0</ele><time>2026-04-25T13:09:12Z</time></trkpt><trkpt lat="45.43936928814673" lon="11.1894631126726"><ele>91.0</ele><time>2026-04-25T13:09:13Z</time></trkpt><trkpt lat="45.43948079630222" lon="11.189395286195252"><ele>91.0</ele><time>2026-04-25T13:09:14Z</time></trkpt><trkpt lat="45.439579797456126" lon="11.189318526858973"><ele>91.0</ele><time>2026-04-25T13:09:15Z</time></trkpt><trkpt lat="45.43967515672147" lon="11.189223442702737"><ele>91.4</ele><time>2026-04-25T13:09:16Z</time></trkpt><trkpt lat="45.439767337147885" lon="11.189137534371593"><ele>91.8</ele><time>2026-04-25T13:09:17Z</time></trkpt><trkpt lat="45.43983954942626" lon="11.189010969780151"><ele>92.2</ele><time>2026-04-25T13:09:18Z</time></trkpt><trkpt lat="45.43991360358282" lon="11.188897794851373"><ele>92.60000000000001</ele><time>2026-04-25T13:09:19Z</time></trkpt><trkpt lat="45.439982037225" lon="11.188791073885023"><ele>93.0</ele><time>2026-04-25T13:09:20Z</time></trkpt><trkpt lat="45.440052338118576" lon="11.188708539081523"><ele>93.0</ele><time>2026-04-25T13:09:21Z</time></trkpt><trkpt lat="45.44009865485914" lon="11.18862868751979"><ele>93.0</ele><time>2026-04-25T13:09:22Z</time></trkpt><trkpt lat="45.44018207989728" lon="11.188634533422238"><ele>93.0</ele><time>2026-04-25T13:09:25Z</time></trkpt><trkpt lat="45.44022337983394" lon="11.188712756346446"><ele>93.0</ele><time>2026-04-25T13:09:26Z</time></trkpt><trkpt lat="45.44028899794097" lon="11.188818582094381"><ele>93.0</ele><time>2026-04-25T13:09:27Z</time></trkpt><trkpt lat="45.44033494477113" lon="11.18897518934309"><ele>93.0</ele><time>2026-04-25T13:09:28Z</time></trkpt><trkpt lat="45.44037688893604" lon="11.189155234838744"><ele>93.4</ele><time>2026-04-25T13:09:29Z</time></trkpt><trkpt lat="45.44041139773338" lon="11.189324082286431"><ele>93.80000000000001</ele><time>2026-04-25T13:09:30Z</time></trkpt><trkpt lat="45.44043753176899" lon="11.189464597394775"><ele>94.2</ele><time>2026-04-25T13:09:31Z</time></trkpt><trkpt lat="45.44047090807285" lon="11.189579260935412"><ele>94.6</ele><time>2026-04-25T13:09:32Z</time></trkpt><trkpt lat="45.440521137230554" lon="11.189656633855204"><ele>95.0</ele><time>2026-04-25T13:09:33Z</time></trkpt><trkpt lat="45.440590414867366" lon="11.189708831080516"><ele>97.33333333333334</ele><time>2026-04-25T13:09:34Z</time></trkpt><trkpt lat="45.440721502624484" lon="11.189743012677416"><ele>99.66666666666667</ele><time>2026-04-25T13:09:35Z</time></trkpt><trkpt lat="45.44089094163121" lon="11.18978237938901"><ele>102.0</ele><time>2026-04-25T13:09:36Z</time></trkpt><trkpt lat="45.441031217020196" lon="11.189840060259508"><ele>103.5</ele><time>2026-04-25T13:09:37Z</time></trkpt><trkpt lat="45.441134148848256" lon="11.189888817727997"><ele>105.0</ele><time>2026-04-25T13:09:38Z</time></trkpt><trkpt lat="45.44122730120111" lon="11.189983679176292"><ele>106.5</ele><time>2026-04-25T13:09:39Z</time></trkpt><trkpt lat="45.44132459708872" lon="11.190104068366207"><ele>108.0</ele><time>2026-04-25T13:09:40Z</time></trkpt><trkpt lat="45.4414367180036" lon="11.190243288856712"><ele>109.75</ele><time>2026-04-25T13:09:41Z</time></trkpt><trkpt lat="45.44156271990295" lon="11.190381581921983"><ele>111.5</ele><time>2026-04-25T13:09:42Z</time></trkpt><trkpt lat="45.44165634906153" lon="11.190526185291613"><ele>113.25</ele><time>2026-04-25T13:09:43Z</time></trkpt><trkpt lat="45.44171913363897" lon="11.1906967666598"><ele>115.0</ele><time>2026-04-25T13:09:44Z</time></trkpt><trkpt lat="45.44180459894836" lon="11.190870676360031"><ele>117.33333333333334</ele><time>2026-04-25T13:09:45Z</time></trkpt><trkpt lat="45.44189599156138" lon="11.19105347878706"><ele>119.66666666666666</ele><time>2026-04-25T13:09:46Z</time></trkpt><trkpt lat="45.44198727005554" lon="11.1912412170483"><ele>122.0</ele><time>2026-04-25T13:09:47Z</time></trkpt><trkpt lat="45.44206229562361" lon="11.191440223944625"><ele>123.33333333333333</ele><time>2026-04-25T13:09:48Z</time></trkpt><trkpt lat="45.442143558648816" lon="11.191634510171244"><ele>124.66666666666666</ele><time>2026-04-25T13:09:49Z</time></trkpt><trkpt lat="45.442216781840266" lon="11.191834108358396"><ele>126.0</ele><time>2026-04-25T13:09:50Z</time></trkpt><trkpt lat="45.44227416647634" lon="11.192042964402694"><ele>126.0</ele><time>2026-04-25T13:09:51Z</time></trkpt><trkpt lat="45.442309662204494" lon="11.192230324778185"><ele>126.0</ele><time>2026-04-25T13:09:52Z</time></trkpt><trkpt lat="45.442334701236824" lon="11.192388091422382"><ele>126.0</ele><time>2026-04-25T13:09:53Z</time></trkpt><trkpt lat="45.442361600808134" lon="11.19251975851281"><ele>126.0</ele><time>2026-04-25T13:09:54Z</time></trkpt><trkpt lat="45.442382075839205" lon="11.192640491244424"><ele>126.0</ele><time>2026-04-25T13:09:55Z</time></trkpt><trkpt lat="45.44236517185398" lon="11.192750392529108"><ele>126.6</ele><time>2026-04-25T13:09:56Z</time></trkpt><trkpt lat="45.44230560848374" lon="11.192843023799167"><ele>127.19999999999999</ele><time>2026-04-25T13:09:57Z</time></trkpt><trkpt lat="45.4422186560442" lon="11.192915472837191"><ele>127.80000000000001</ele><time>2026-04-25T13:09:58Z</time></trkpt><trkpt lat="45.44211779808173" lon="11.192983461369103"><ele>128.4</ele><time>2026-04-25T13:09:59Z</time></trkpt><trkpt lat="45.44204315446247" lon="11.1930826824797"><ele>129.0</ele><time>2026-04-25T13:10:00Z</time></trkpt><trkpt lat="45.44199327682578" lon="11.193229314168471"><ele>130.4</ele><time>2026-04-25T13:10:01Z</time></trkpt><trkpt lat="45.44195902165979" lon="11.1933875958744"><ele>131.8</ele><time>2026-04-25T13:10:02Z</time></trkpt><trkpt lat="45.441960767377395" lon="11.193516249024233"><ele>133.2</ele><time>2026-04-25T13:10:03Z</time></trkpt><trkpt lat="45.442008762219395" lon="11.193609135534636"><ele>134.6</ele><time>2026-04-25T13:10:04Z</time></trkpt><trkpt lat="45.44206685208054" lon="11.193725273664088"><ele>136.0</ele><time>2026-04-25T13:10:05Z</time></trkpt><trkpt lat="45.44213473709258" lon="11.193898264605304"><ele>138.33333333333334</ele><time>2026-04-25T13:10:06Z</time></trkpt><trkpt lat="45.44222272102506" lon="11.194124566311789"><ele>140.66666666666666</ele><time>2026-04-25T13:10:07Z</time></trkpt><trkpt lat="45.442322149762596" lon="11.19436600612112"><ele>143.0</ele><time>2026-04-25T13:10:08Z</time></trkpt><trkpt lat="45.442419689945076" lon="11.194618562907038"><ele>145.33333333333331</ele><time>2026-04-25T13:10:09Z</time></trkpt><trkpt lat="45.44251245209933" lon="11.194853106060025"><ele>147.66666666666666</ele><time>2026-04-25T13:10:10Z</time></trkpt><trkpt lat="45.442599816768066" lon="11.195062121485645"><ele>150.0</ele><time>2026-04-25T13:10:11Z</time></trkpt><trkpt lat="45.4426733017435" lon="11.195264882396577"><ele>150.0</ele><time>2026-04-25T13:10:12Z</time></trkpt><trkpt lat="45.44273286995112" lon="11.19546319337614"><ele>150.0</ele><time>2026-04-25T13:10:13Z</time></trkpt><trkpt lat="45.44277463352273" lon="11.195652068864515"><ele>150.0</ele><time>2026-04-25T13:10:14Z</time></trkpt><trkpt lat="45.44280302639548" lon="11.19582963209525"><ele>150.0</ele><time>2026-04-25T13:10:15Z</time></trkpt><trkpt lat="45.44281248785769" lon="11.195999544128295"><ele>151.6</ele><time>2026-04-25T13:10:16Z</time></trkpt><trkpt lat="45.44280327342528" lon="11.196160087185945"><ele>153.2</ele><time>2026-04-25T13:10:17Z</time></trkpt><trkpt lat="45.44276787493016" lon="11.196305927344255"><ele>154.8</ele><time>2026-04-25T13:10:18Z</time></trkpt><trkpt lat="45.44271316852237" lon="11.196443469017813"><ele>156.4</ele><time>2026-04-25T13:10:19Z</time></trkpt><trkpt lat="45.44263757691079" lon="11.196563938033336"><ele>158.0</ele><time>2026-04-25T13:10:20Z</time></trkpt><trkpt lat="45.44253874897221" lon="11.196646311930609"><ele>159.66666666666666</ele><time>2026-04-25T13:10:21Z</time></trkpt><trkpt lat="45.442440708160404" lon="11.196713539869672"><ele>161.33333333333331</ele><time>2026-04-25T13:10:22Z</time></trkpt><trkpt lat="45.4423862184079" lon="11.196788063938149"><ele>163.0</ele><time>2026-04-25T13:10:23Z</time></trkpt><trkpt lat="45.44237860155163" lon="11.196881180075541"><ele>164.66666666666666</ele><time>2026-04-25T13:10:24Z</time></trkpt><trkpt lat="45.442406591365526" lon="11.196992170756817"><ele>166.33333333333334</ele><time>2026-04-25T13:10:25Z</time></trkpt><trkpt lat="45.44244662057854" lon="11.197104231475025"><ele>168.0</ele><time>2026-04-25T13:10:26Z</time></trkpt><trkpt lat="45.44248732534678" lon="11.197204527210689"><ele>168.0</ele><time>2026-04-25T13:10:27Z</time></trkpt><trkpt lat="45.44252014967343" lon="11.197302275174604"><ele>168.0</ele><time>2026-04-25T13:10:28Z</time></trkpt><trkpt lat="45.44256502832929" lon="11.197417564391934"><ele>168.0</ele><time>2026-04-25T13:10:30Z</time></trkpt><trkpt lat="45.442813364511956" lon="11.197410273628961"><ele>168.0</ele><time>2026-04-25T13:10:33Z</time></trkpt><trkpt lat="45.44291393630856" lon="11.19740050112625"><ele>169.83333333333334</ele><time>2026-04-25T13:10:34Z</time></trkpt><trkpt lat="45.44300638652754" lon="11.197445866496418"><ele>171.66666666666666</ele><time>2026-04-25T13:10:35Z</time></trkpt><trkpt lat="45.44308867829293" lon="11.197448389779705"><ele>173.5</ele><time>2026-04-25T13:10:36Z</time></trkpt><trkpt lat="45.44316913926315" lon="11.197444136445469"><ele>175.33333333333331</ele><time>2026-04-25T13:10:37Z</time></trkpt><trkpt lat="45.44324289742837" lon="11.19736553673681"><ele>177.16666666666666</ele><time>2026-04-25T13:10:38Z</time></trkpt><trkpt lat="45.443328153606956" lon="11.19730162050117"><ele>179.0</ele><time>2026-04-25T13:10:39Z</time></trkpt><trkpt lat="45.44340527171698" lon="11.197230287942208"><ele>179.0</ele><time>2026-04-25T13:10:40Z</time></trkpt><trkpt lat="45.44348940560595" lon="11.197172777569948"><ele>179.0</ele><time>2026-04-25T13:10:41Z</time></trkpt><trkpt lat="45.44357237883592" lon="11.197080491448919"><ele>179.0</ele><time>2026-04-25T13:10:42Z</time></trkpt><trkpt lat="45.44364396714006" lon="11.196940557080096"><ele>179.0</ele><time>2026-04-25T13:10:43Z</time></trkpt><trkpt lat="45.443720437103565" lon="11.1968650179404"><ele>179.0</ele><time>2026-04-25T13:10:44Z</time></trkpt><trkpt lat="45.44377439596814" lon="11.196793694122386"><ele>182.33333333333331</ele><time>2026-04-25T13:10:45Z</time></trkpt><trkpt lat="45.44383145106737" lon="11.196730692197807"><ele>185.66666666666666</ele><time>2026-04-25T13:10:46Z</time></trkpt><trkpt lat="45.443901494764255" lon="11.196683122986013"><ele>189.0</ele><time>2026-04-25T13:10:47Z</time></trkpt><trkpt lat="45.443986242182746" lon="11.196661136165892"><ele>192.33333333333331</ele><time>2026-04-25T13:10:48Z</time></trkpt><trkpt lat="45.44406548708243" lon="11.196629874149494"><ele>195.66666666666666</ele><time>2026-04-25T13:10:49Z</time></trkpt><trkpt lat="45.44414554639604" lon="11.19659818760379"><ele>199.0</ele><time>2026-04-25T13:10:50Z</time></trkpt><trkpt lat="45.44421811906704" lon="11.19656597500818"><ele>198.99999999999997</ele><time>2026-04-25T13:10:51Z</time></trkpt><trkpt lat="45.44428736574015" lon="11.19653526569018"><ele>199.0</ele><time>2026-04-25T13:10:52Z</time></trkpt><trkpt lat="45.444363591005704" lon="11.196509710580706"><ele>199.0</ele><time>2026-04-25T13:10:53Z</time></trkpt><trkpt lat="45.44443607171005" lon="11.196483472026307"><ele>199.0</ele><time>2026-04-25T13:10:54Z</time></trkpt><trkpt lat="45.4445097506602" lon="11.196453507869615"><ele>198.99999999999997</ele><time>2026-04-25T13:10:55Z</time></trkpt><trkpt lat="45.44458278387944" lon="11.196424429342565"><ele>199.0</ele><time>2026-04-25T13:10:56Z</time></trkpt><trkpt lat="45.444654021803174" lon="11.196402743414822"><ele>199.33333333333331</ele><time>2026-04-25T13:10:57Z</time></trkpt><trkpt lat="45.444720503340896" lon="11.196373684168627"><ele>199.66666666666666</ele><time>2026-04-25T13:10:58Z</time></trkpt><trkpt lat="45.44478262594428" lon="11.196355824098784"><ele>200.0</ele><time>2026-04-25T13:10:59Z</time></trkpt><trkpt lat="45.44491225453009" lon="11.196361529323477"><ele>200.33333333333331</ele><time>2026-04-25T13:11:01Z</time></trkpt><trkpt lat="45.44499639136162" lon="11.196368547197604"><ele>200.66666666666666</ele><time>2026-04-25T13:11:03Z</time></trkpt><trkpt lat="45.44507087331786" lon="11.196334729936178"><ele>201.0</ele><time>2026-04-25T13:11:06Z</time></trkpt><trkpt lat="45.4451454518545" lon="11.19631665191378"><ele>201.0</ele><time>2026-04-25T13:11:08Z</time></trkpt><trkpt lat="45.445230311935894" lon="11.19631000816765"><ele>201.0</ele><time>2026-04-25T13:11:10Z</time></trkpt><trkpt lat="45.44535113911499" lon="11.19627408930573"><ele>201.0</ele><time>2026-04-25T13:11:12Z</time></trkpt><trkpt lat="45.445469063431354" lon="11.196262661107323"><ele>201.0</ele><time>2026-04-25T13:11:14Z</time></trkpt><trkpt lat="45.445553863616794" lon="11.196249108205846"><ele>201.0</ele><time>2026-04-25T13:11:15Z</time></trkpt><trkpt lat="45.44565130691389" lon="11.196245046833138"><ele>203.5</ele><time>2026-04-25T13:11:16Z</time></trkpt><trkpt lat="45.44576322419482" lon="11.19625423655296"><ele>206.0</ele><time>2026-04-25T13:11:17Z</time></trkpt><trkpt lat="45.44584904340299" lon="11.196265423232559"><ele>208.5</ele><time>2026-04-25T13:11:18Z</time></trkpt><trkpt lat="45.44592440582993" lon="11.196312438319472"><ele>211.0</ele><time>2026-04-25T13:11:19Z</time></trkpt><trkpt lat="45.44599067800507" lon="11.196364939693709"><ele>213.5</ele><time>2026-04-25T13:11:20Z</time></trkpt><trkpt lat="45.44606880512367" lon="11.196384739075933"><ele>216.0</ele><time>2026-04-25T13:11:21Z</time></trkpt><trkpt lat="45.44614431768028" lon="11.196448391010087"><ele>216.0</ele><time>2026-04-25T13:11:22Z</time></trkpt><trkpt lat="45.44623272671755" lon="11.196501408297465"><ele>216.00000000000003</ele><time>2026-04-25T13:11:23Z</time></trkpt><trkpt lat="45.44632628191928" lon="11.19654018411129"><ele>216.00000000000003</ele><time>2026-04-25T13:11:24Z</time></trkpt><trkpt lat="45.44642417895998" lon="11.196575676461077"><ele>216.0</ele><time>2026-04-25T13:11:25Z</time></trkpt><trkpt lat="45.446527505136594" lon="11.196602068816997"><ele>216.0</ele><time>2026-04-25T13:11:26Z</time></trkpt><trkpt lat="45.446628991882534" lon="11.1966096811946"><ele>216.60000000000002</ele><time>2026-04-25T13:11:27Z</time></trkpt><trkpt lat="45.44673299081016" lon="11.196606750225321"><ele>217.20000000000002</ele><time>2026-04-25T13:11:28Z</time></trkpt><trkpt lat="45.446826622856655" lon="11.196586083717092"><ele>217.79999999999998</ele><time>2026-04-25T13:11:29Z</time></trkpt><trkpt lat="45.44692692977216" lon="11.196559471595865"><ele>218.39999999999998</ele><time>2026-04-25T13:11:30Z</time></trkpt><trkpt lat="45.44702660249077" lon="11.196529097504065"><ele>219.0</ele><time>2026-04-25T13:11:31Z</time></trkpt><trkpt lat="45.447122718417496" lon="11.196490723052495"><ele>218.79999999999998</ele><time>2026-04-25T13:11:32Z</time></trkpt><trkpt lat="45.4472228875434" lon="11.196438993433432"><ele>218.59999999999997</ele><time>2026-04-25T13:11:33Z</time></trkpt><trkpt lat="45.44730672151936" lon="11.196365142255935"><ele>218.4</ele><time>2026-04-25T13:11:34Z</time></trkpt><trkpt lat="45.44739116246718" lon="11.196296105684413"><ele>218.2</ele><time>2026-04-25T13:11:35Z</time></trkpt><trkpt lat="45.447488143854926" lon="11.196240060247705"><ele>218.0</ele><time>2026-04-25T13:11:36Z</time></trkpt><trkpt lat="45.44756843743184" lon="11.196194044641427"><ele>218.0</ele><time>2026-04-25T13:11:37Z</time></trkpt><trkpt lat="45.44765648269193" lon="11.196178141304125"><ele>218.0</ele><time>2026-04-25T13:11:38Z</time></trkpt><trkpt lat="45.44775544541487" lon="11.19619673403984"><ele>218.0</ele><time>2026-04-25T13:11:39Z</time></trkpt><trkpt lat="45.4478631967318" lon="11.196170292948558"><ele>218.0</ele><time>2026-04-25T13:11:40Z</time></trkpt><trkpt lat="45.44798120217549" lon="11.196169224872524"><ele>218.0</ele><time>2026-04-25T13:11:41Z</time></trkpt><trkpt lat="45.44810047169784" lon="11.196167246406187"><ele>218.25</ele><time>2026-04-25T13:11:42Z</time></trkpt><trkpt lat="45.44823632277827" lon="11.196159077263708"><ele>218.5</ele><time>2026-04-25T13:11:43Z</time></trkpt><trkpt lat="45.448365352823835" lon="11.196179698116634"><ele>218.75</ele><time>2026-04-25T13:11:44Z</time></trkpt><trkpt lat="45.44848089413362" lon="11.19616468085399"><ele>219.0</ele><time>2026-04-25T13:11:45Z</time></trkpt><trkpt lat="45.448600628082445" lon="11.196157615820164"><ele>219.0</ele><time>2026-04-25T13:11:46Z</time></trkpt><trkpt lat="45.448739219509704" lon="11.196137774650197"><ele>219.0</ele><time>2026-04-25T13:11:47Z</time></trkpt><trkpt lat="45.448866442814136" lon="11.196129370348487"><ele>219.0</ele><time>2026-04-25T13:11:48Z</time></trkpt><trkpt lat="45.4489819029881" lon="11.196169095581983"><ele>219.0</ele><time>2026-04-25T13:11:49Z</time></trkpt><trkpt lat="45.4490964887473" lon="11.196165335232278"><ele>220.5</ele><time>2026-04-25T13:11:50Z</time></trkpt><trkpt lat="45.44920677637062" lon="11.196166092502873"><ele>222.0</ele><time>2026-04-25T13:11:51Z</time></trkpt><trkpt lat="45.44931792969781" lon="11.196144093390451"><ele>223.5</ele><time>2026-04-25T13:11:52Z</time></trkpt><trkpt lat="45.44942953606464" lon="11.196111544502612"><ele>225.0</ele><time>2026-04-25T13:11:53Z</time></trkpt><trkpt lat="45.449551618570545" lon="11.196063611335543"><ele>226.25</ele><time>2026-04-25T13:11:54Z</time></trkpt><trkpt lat="45.44969073665222" lon="11.196004560127248"><ele>227.5</ele><time>2026-04-25T13:11:55Z</time></trkpt><trkpt lat="45.4498291903886" lon="11.195940322994232"><ele>228.75</ele><time>2026-04-25T13:11:56Z</time></trkpt><trkpt lat="45.44995525427362" lon="11.195881020117971"><ele>230.0</ele><time>2026-04-25T13:11:57Z</time></trkpt><trkpt lat="45.45007893803871" lon="11.195822071587703"><ele>230.0</ele><time>2026-04-25T13:11:58Z</time></trkpt><trkpt lat="45.45019397345914" lon="11.195765855000639"><ele>230.0</ele><time>2026-04-25T13:11:59Z</time></trkpt><trkpt lat="45.450285232569115" lon="11.19575358743872"><ele>230.0</ele><time>2026-04-25T13:12:00Z</time></trkpt><trkpt lat="45.45036488622004" lon="11.195729231493633"><ele>230.0</ele><time>2026-04-25T13:12:01Z</time></trkpt><trkpt lat="45.450453682467625" lon="11.195718793265565"><ele>230.0</ele><time>2026-04-25T13:12:02Z</time></trkpt><trkpt lat="45.4505468668829" lon="11.195713225487074"><ele>229.8</ele><time>2026-04-25T13:12:03Z</time></trkpt><trkpt lat="45.450647694121955" lon="11.195701231037017"><ele>229.6</ele><time>2026-04-25T13:12:04Z</time></trkpt><trkpt lat="45.45075653074475" lon="11.19568069842003"><ele>229.39999999999998</ele><time>2026-04-25T13:12:05Z</time></trkpt><trkpt lat="45.450869503112884" lon="11.195662987102011"><ele>229.2</ele><time>2026-04-25T13:12:06Z</time></trkpt><trkpt lat="45.45098291676301" lon="11.195652560352134"><ele>229.0</ele><time>2026-04-25T13:12:07Z</time></trkpt><trkpt lat="45.451092685929" lon="11.19564344462709"><ele>229.0</ele><time>2026-04-25T13:12:08Z</time></trkpt><trkpt lat="45.45119360255337" lon="11.195645297882134"><ele>229.0</ele><time>2026-04-25T13:12:09Z</time></trkpt><trkpt lat="45.4513009314247" lon="11.195652111378381"><ele>229.0</ele><time>2026-04-25T13:12:10Z</time></trkpt><trkpt lat="45.45142133978746" lon="11.195653574024606"><ele>229.0</ele><time>2026-04-25T13:12:11Z</time></trkpt><trkpt lat="45.451546993776944" lon="11.19565631206346"><ele>229.2</ele><time>2026-04-25T13:12:12Z</time></trkpt><trkpt lat="45.45166410662155" lon="11.195657489101938"><ele>229.39999999999998</ele><time>2026-04-25T13:12:13Z</time></trkpt><trkpt lat="45.45176841528614" lon="11.195649924719719"><ele>229.6</ele><time>2026-04-25T13:12:14Z</time></trkpt><trkpt lat="45.451862452041276" lon="11.195636105675003"><ele>229.8</ele><time>2026-04-25T13:12:15Z</time></trkpt><trkpt lat="45.45195965309887" lon="11.195620037691286"><ele>230.0</ele><time>2026-04-25T13:12:16Z</time></trkpt><trkpt lat="45.45206000318995" lon="11.195577089006532"><ele>229.0</ele><time>2026-04-25T13:12:17Z</time></trkpt><trkpt lat="45.45218045544337" lon="11.195533727811831"><ele>228.0</ele><time>2026-04-25T13:12:18Z</time></trkpt><trkpt lat="45.452319613705654" lon="11.195492983119172"><ele>227.0</ele><time>2026-04-25T13:12:19Z</time></trkpt><trkpt lat="45.452466150843584" lon="11.195466995752458"><ele>226.0</ele><time>2026-04-25T13:12:20Z</time></trkpt><trkpt lat="45.45260286984162" lon="11.195416169677165"><ele>226.0</ele><time>2026-04-25T13:12:21Z</time></trkpt><trkpt lat="45.452743848241724" lon="11.195373518534046"><ele>226.0</ele><time>2026-04-25T13:12:22Z</time></trkpt><trkpt lat="45.45289183215432" lon="11.19533925008528"><ele>226.0</ele><time>2026-04-25T13:12:23Z</time></trkpt><trkpt lat="45.45304626580244" lon="11.195312077748463"><ele>226.0</ele><time>2026-04-25T13:12:24Z</time></trkpt><trkpt lat="45.45319468476932" lon="11.195299019275815"><ele>226.0</ele><time>2026-04-25T13:12:25Z</time></trkpt><trkpt lat="45.45333120209719" lon="11.195295511492594"><ele>226.0</ele><time>2026-04-25T13:12:26Z</time></trkpt><trkpt lat="45.45346180555598" lon="11.195297692548259"><ele>226.0</ele><time>2026-04-25T13:12:27Z</time></trkpt><trkpt lat="45.45358953479923" lon="11.19530297223231"><ele>225.99999999999997</ele><time>2026-04-25T13:12:28Z</time></trkpt><trkpt lat="45.453698886155074" lon="11.195334272061913"><ele>226.0</ele><time>2026-04-25T13:12:29Z</time></trkpt><trkpt lat="45.453804201425136" lon="11.195323010184257"><ele>226.0</ele><time>2026-04-25T13:12:30Z</time></trkpt><trkpt lat="45.45388049526021" lon="11.195343360012753"><ele>226.0</ele><time>2026-04-25T13:12:31Z</time></trkpt><trkpt lat="45.45394582814779" lon="11.195345783411936"><ele>225.99999999999997</ele><time>2026-04-25T13:12:32Z</time></trkpt><trkpt lat="45.45401638263923" lon="11.195378701697301"><ele>226.0</ele><time>2026-04-25T13:12:33Z</time></trkpt><trkpt lat="45.45407539004719" lon="11.195425923818723"><ele>226.16666666666666</ele><time>2026-04-25T13:12:34Z</time></trkpt><trkpt lat="45.45418064191877" lon="11.195473311222523"><ele>226.33333333333331</ele><time>2026-04-25T13:12:36Z</time></trkpt><trkpt lat="45.45424410269171" lon="11.195491099357726"><ele>226.5</ele><time>2026-04-25T13:12:37Z</time></trkpt><trkpt lat="45.45431440376009" lon="11.19550622292859"><ele>226.66666666666669</ele><time>2026-04-25T13:12:38Z</time></trkpt><trkpt lat="45.45439116578415" lon="11.195514515037518"><ele>226.83333333333334</ele><time>2026-04-25T13:12:39Z</time></trkpt><trkpt lat="45.45447183955259" lon="11.195515054185803"><ele>227.0</ele><time>2026-04-25T13:12:40Z</time></trkpt><trkpt lat="45.45455474696466" lon="11.195514390303957"><ele>227.16666666666669</ele><time>2026-04-25T13:12:41Z</time></trkpt><trkpt lat="45.454636295259846" lon="11.195522268558864"><ele>227.33333333333334</ele><time>2026-04-25T13:12:42Z</time></trkpt><trkpt lat="45.45471419440845" lon="11.19553412946536"><ele>227.5</ele><time>2026-04-25T13:12:43Z</time></trkpt><trkpt lat="45.454789861119735" lon="11.195558112789056"><ele>227.66666666666669</ele><time>2026-04-25T13:12:44Z</time></trkpt><trkpt lat="45.45486570330086" lon="11.195579639737748"><ele>227.83333333333334</ele><time>2026-04-25T13:12:45Z</time></trkpt><trkpt lat="45.45494047050704" lon="11.19560092046106"><ele>228.0</ele><time>2026-04-25T13:12:46Z</time></trkpt><trkpt lat="45.45501197233641" lon="11.195626437487391"><ele>228.0</ele><time>2026-04-25T13:12:47Z</time></trkpt><trkpt lat="45.455084213945085" lon="11.195648248989526"><ele>228.0</ele><time>2026-04-25T13:12:48Z</time></trkpt><trkpt lat="45.45515573204949" lon="11.195669591677142"><ele>228.0</ele><time>2026-04-25T13:12:49Z</time></trkpt><trkpt lat="45.455224426519486" lon="11.195686694341106"><ele>228.0</ele><time>2026-04-25T13:12:50Z</time></trkpt><trkpt lat="45.4552967696445" lon="11.195704225683256"><ele>228.0</ele><time>2026-04-25T13:12:51Z</time></trkpt><trkpt lat="45.45537913483399" lon="11.195725882725927"><ele>228.0</ele><time>2026-04-25T13:12:52Z</time></trkpt><trkpt lat="45.45547400933792" lon="11.195759920345761"><ele>228.5</ele><time>2026-04-25T13:12:53Z</time></trkpt><trkpt lat="45.455579987624546" lon="11.195798396367234"><ele>229.0</ele><time>2026-04-25T13:12:54Z</time></trkpt><trkpt lat="45.45569690564411" lon="11.19583149784119"><ele>229.5</ele><time>2026-04-25T13:12:55Z</time></trkpt><trkpt lat="45.45580959075397" lon="11.195881845055297"><ele>230.0</ele><time>2026-04-25T13:12:56Z</time></trkpt><trkpt lat="45.455923131051975" lon="11.195932720083787"><ele>230.0</ele><time>2026-04-25T13:12:57Z</time></trkpt><trkpt lat="45.45603546649658" lon="11.195975504029812"><ele>230.0</ele><time>2026-04-25T13:12:58Z</time></trkpt><trkpt lat="45.45615209140027" lon="11.196001472963298"><ele>230.0</ele><time>2026-04-25T13:12:59Z</time></trkpt><trkpt lat="45.45626491678575" lon="11.196030505748404"><ele>230.0</ele><time>2026-04-25T13:13:00Z</time></trkpt><trkpt lat="45.45637488561804" lon="11.196100871139826"><ele>230.6</ele><time>2026-04-25T13:13:01Z</time></trkpt><trkpt lat="45.45648226103906" lon="11.1961247147043"><ele>231.2</ele><time>2026-04-25T13:13:02Z</time></trkpt><trkpt lat="45.456572375492314" lon="11.196168906018222"><ele>231.8</ele><time>2026-04-25T13:13:03Z</time></trkpt><trkpt lat="45.45665861820397" lon="11.19620864322247"><ele>232.4</ele><time>2026-04-25T13:13:04Z</time></trkpt><trkpt lat="45.45673299292349" lon="11.19625755528369"><ele>233.0</ele><time>2026-04-25T13:13:05Z</time></trkpt><trkpt lat="45.45680883148199" lon="11.196302870175368"><ele>233.0</ele><time>2026-04-25T13:13:06Z</time></trkpt><trkpt lat="45.45690198487225" lon="11.196346275764105"><ele>233.0</ele><time>2026-04-25T13:13:07Z</time></trkpt><trkpt lat="45.45699942879462" lon="11.196397189189515"><ele>233.0</ele><time>2026-04-25T13:13:08Z</time></trkpt><trkpt lat="45.457098133542665" lon="11.196439539526262"><ele>233.0</ele><time>2026-04-25T13:13:09Z</time></trkpt><trkpt lat="45.45720395604968" lon="11.196497223448096"><ele>233.0</ele><time>2026-04-25T13:13:10Z</time></trkpt><trkpt lat="45.457317801239284" lon="11.196565362529238"><ele>232.5</ele><time>2026-04-25T13:13:11Z</time></trkpt><trkpt lat="45.45744819091765" lon="11.19663623766024"><ele>232.0</ele><time>2026-04-25T13:13:12Z</time></trkpt><trkpt lat="45.457581492838834" lon="11.196698116859082"><ele>231.5</ele><time>2026-04-25T13:13:13Z</time></trkpt><trkpt lat="45.4577045070391" lon="11.196746463072085"><ele>231.0</ele><time>2026-04-25T13:13:14Z</time></trkpt><trkpt lat="45.45780029511231" lon="11.19677981756743"><ele>231.0</ele><time>2026-04-25T13:13:15Z</time></trkpt><trkpt lat="45.45790616596491" lon="11.196804947624583"><ele>231.00000000000003</ele><time>2026-04-25T13:13:16Z</time></trkpt><trkpt lat="45.458012233078634" lon="11.196827743132818"><ele>231.00000000000003</ele><time>2026-04-25T13:13:17Z</time></trkpt><trkpt lat="45.45810060808735" lon="11.196852297010743"><ele>231.0</ele><time>2026-04-25T13:13:18Z</time></trkpt><trkpt lat="45.45818218144243" lon="11.196883003919027"><ele>231.0</ele><time>2026-04-25T13:13:19Z</time></trkpt><trkpt lat="45.45825132444311" lon="11.196908665581383"><ele>231.20000000000002</ele><time>2026-04-25T13:13:20Z</time></trkpt><trkpt lat="45.458316031702054" lon="11.196936349656616"><ele>231.40000000000003</ele><time>2026-04-25T13:13:21Z</time></trkpt><trkpt lat="45.45842203068585" lon="11.196968836994943"><ele>231.6</ele><time>2026-04-25T13:13:23Z</time></trkpt><trkpt lat="45.45853210906801" lon="11.196997892678345"><ele>231.8</ele><time>2026-04-25T13:13:25Z</time></trkpt><trkpt lat="45.4586522075712" lon="11.197019686283836"><ele>232.0</ele><time>2026-04-25T13:13:27Z</time></trkpt><trkpt lat="45.458719859996236" lon="11.197037926427763"><ele>232.16666666666666</ele><time>2026-04-25T13:13:28Z</time></trkpt><trkpt lat="45.45878810989759" lon="11.197055752861939"><ele>232.33333333333331</ele><time>2026-04-25T13:13:29Z</time></trkpt><trkpt lat="45.45886900770123" lon="11.19707392843124"><ele>232.5</ele><time>2026-04-25T13:13:30Z</time></trkpt><trkpt lat="45.45895093931114" lon="11.197099452165826"><ele>232.66666666666669</ele><time>2026-04-25T13:13:31Z</time></trkpt><trkpt lat="45.45903622237372" lon="11.197117327481097"><ele>232.83333333333334</ele><time>2026-04-25T13:13:32Z</time></trkpt><trkpt lat="45.459129172470455" lon="11.197128463975883"><ele>233.0</ele><time>2026-04-25T13:13:33Z</time></trkpt><trkpt lat="45.459221152264504" lon="11.197136745663084"><ele>233.0</ele><time>2026-04-25T13:13:34Z</time></trkpt><trkpt lat="45.45932102561065" lon="11.197150318765065"><ele>233.0</ele><time>2026-04-25T13:13:35Z</time></trkpt><trkpt lat="45.459429097440335" lon="11.197133220651345"><ele>233.0</ele><time>2026-04-25T13:13:36Z</time></trkpt><trkpt lat="45.45954685219273" lon="11.197123670278422"><ele>233.0</ele><time>2026-04-25T13:13:37Z</time></trkpt><trkpt lat="45.459675919091445" lon="11.197123036552348"><ele>233.5</ele><time>2026-04-25T13:13:38Z</time></trkpt><trkpt lat="45.45981852272704" lon="11.19713175865463"><ele>234.0</ele><time>2026-04-25T13:13:39Z</time></trkpt><trkpt lat="45.45997168265548" lon="11.197157430948492"><ele>234.5</ele><time>2026-04-25T13:13:40Z</time></trkpt><trkpt lat="45.46010624568975" lon="11.19720192273177"><ele>235.0</ele><time>2026-04-25T13:13:41Z</time></trkpt><trkpt lat="45.46021261612483" lon="11.197238156683106"><ele>235.0</ele><time>2026-04-25T13:13:42Z</time></trkpt><trkpt lat="45.460303180275815" lon="11.197300850831049"><ele>235.0</ele><time>2026-04-25T13:13:43Z</time></trkpt><trkpt lat="45.46038740969206" lon="11.197320678112614"><ele>235.0</ele><time>2026-04-25T13:13:44Z</time></trkpt><trkpt lat="45.46046039830066" lon="11.197354946248048"><ele>235.0</ele><time>2026-04-25T13:13:45Z</time></trkpt><trkpt lat="45.46056390049656" lon="11.197407205522914"><ele>235.0</ele><time>2026-04-25T13:13:47Z</time></trkpt><trkpt lat="45.46065605460717" lon="11.197461828736804"><ele>235.83333333333331</ele><time>2026-04-25T13:13:49Z</time></trkpt><trkpt lat="45.460767351334205" lon="11.1975129581572"><ele>236.66666666666666</ele><time>2026-04-25T13:13:51Z</time></trkpt><trkpt lat="45.46088913596254" lon="11.19756027610295"><ele>237.5</ele><time>2026-04-25T13:13:53Z</time></trkpt><trkpt lat="45.46095428554228" lon="11.197562353079828"><ele>238.33333333333331</ele><time>2026-04-25T13:13:54Z</time></trkpt><trkpt lat="45.46102371285188" lon="11.197585261949671"><ele>239.16666666666666</ele><time>2026-04-25T13:13:55Z</time></trkpt><trkpt lat="45.46108471694378" lon="11.197610933413602"><ele>240.0</ele><time>2026-04-25T13:13:56Z</time></trkpt><trkpt lat="45.461149000595995" lon="11.197632540686394"><ele>240.0</ele><time>2026-04-25T13:13:57Z</time></trkpt><trkpt lat="45.46122451215069" lon="11.197649670415355"><ele>240.0</ele><time>2026-04-25T13:13:58Z</time></trkpt><trkpt lat="45.4613126064571" lon="11.197661003412003"><ele>240.0</ele><time>2026-04-25T13:13:59Z</time></trkpt><trkpt lat="45.461384775375556" lon="11.197669474005027"><ele>240.0</ele><time>2026-04-25T13:14:00Z</time></trkpt><trkpt lat="45.46146597557791" lon="11.197676439908454"><ele>240.0</ele><time>2026-04-25T13:14:01Z</time></trkpt><trkpt lat="45.461535330881055" lon="11.19767791454226"><ele>240.0</ele><time>2026-04-25T13:14:02Z</time></trkpt><trkpt lat="45.461603199214856" lon="11.197691886926224"><ele>240.8</ele><time>2026-04-25T13:14:03Z</time></trkpt><trkpt lat="45.46171203245889" lon="11.197683827949694"><ele>241.6</ele><time>2026-04-25T13:14:05Z</time></trkpt><trkpt lat="45.46179537104029" lon="11.197668829955806"><ele>242.39999999999998</ele><time>2026-04-25T13:14:07Z</time></trkpt><trkpt lat="45.46185505858045" lon="11.197620614429312"><ele>243.2</ele><time>2026-04-25T13:14:10Z</time></trkpt><trkpt lat="45.461925662540175" lon="11.197531888784063"><ele>244.0</ele><time>2026-04-25T13:14:12Z</time></trkpt><trkpt lat="45.462017468110304" lon="11.19757240940774"><ele>243.99999999999997</ele><time>2026-04-25T13:14:14Z</time></trkpt><trkpt lat="45.46207618081731" lon="11.197622738764649"><ele>244.0</ele><time>2026-04-25T13:14:15Z</time></trkpt><trkpt lat="45.46214499894016" lon="11.197638723474016"><ele>244.0</ele><time>2026-04-25T13:14:16Z</time></trkpt><trkpt lat="45.4622289662921" lon="11.197645688508764"><ele>244.0</ele><time>2026-04-25T13:14:17Z</time></trkpt><trkpt lat="45.46231646274105" lon="11.197673083717728"><ele>243.99999999999997</ele><time>2026-04-25T13:14:18Z</time></trkpt><trkpt lat="45.46238512910064" lon="11.19769891137844"><ele>244.0</ele><time>2026-04-25T13:14:19Z</time></trkpt><trkpt lat="45.46245682282292" lon="11.19773745247226"><ele>243.6</ele><time>2026-04-25T13:14:20Z</time></trkpt><trkpt lat="45.462547958756815" lon="11.197793645184275"><ele>243.2</ele><time>2026-04-25T13:14:21Z</time></trkpt><trkpt lat="45.462649300244365" lon="11.197846099643755"><ele>242.79999999999998</ele><time>2026-04-25T13:14:22Z</time></trkpt><trkpt lat="45.46274898737448" lon="11.197868441905722"><ele>242.39999999999998</ele><time>2026-04-25T13:14:23Z</time></trkpt><trkpt lat="45.462842930323596" lon="11.197866631958753"><ele>242.0</ele><time>2026-04-25T13:14:24Z</time></trkpt><trkpt lat="45.462942669889024" lon="11.19785787374546"><ele>243.0</ele><time>2026-04-25T13:14:25Z</time></trkpt><trkpt lat="45.4630431919364" lon="11.197853789932404"><ele>244.0</ele><time>2026-04-25T13:14:26Z</time></trkpt><trkpt lat="45.463145069528466" lon="11.197844710953747"><ele>245.0</ele><time>2026-04-25T13:14:27Z</time></trkpt><trkpt lat="45.46325771263015" lon="11.1978508349147"><ele>246.0</ele><time>2026-04-25T13:14:28Z</time></trkpt><trkpt lat="45.463362501357665" lon="11.197856414306164"><ele>247.0</ele><time>2026-04-25T13:14:29Z</time></trkpt><trkpt lat="45.46345567513311" lon="11.197869718473246"><ele>247.0</ele><time>2026-04-25T13:14:30Z</time></trkpt><trkpt lat="45.46354843978109" lon="11.19788163190649"><ele>247.0</ele><time>2026-04-25T13:14:31Z</time></trkpt><trkpt lat="45.46364127048053" lon="11.197879638238712"><ele>247.0</ele><time>2026-04-25T13:14:32Z</time></trkpt><trkpt lat="45.46373752467787" lon="11.19786844724132"><ele>247.0</ele><time>2026-04-25T13:14:33Z</time></trkpt><trkpt lat="45.463825620170276" lon="11.197855533343654"><ele>247.0</ele><time>2026-04-25T13:14:34Z</time></trkpt><trkpt lat="45.46391800523672" lon="11.197821292287685"><ele>248.6</ele><time>2026-04-25T13:14:35Z</time></trkpt><trkpt lat="45.46402240276705" lon="11.197796094484026"><ele>250.2</ele><time>2026-04-25T13:14:36Z</time></trkpt><trkpt lat="45.46412781969216" lon="11.197742444680516"><ele>251.8</ele><time>2026-04-25T13:14:37Z</time></trkpt><trkpt lat="45.4642301485934" lon="11.197690366454731"><ele>253.4</ele><time>2026-04-25T13:14:38Z</time></trkpt><trkpt lat="45.46433344545047" lon="11.197637147042744"><ele>255.0</ele><time>2026-04-25T13:14:39Z</time></trkpt><trkpt lat="45.4644156487291" lon="11.197591851970218"><ele>255.0</ele><time>2026-04-25T13:14:40Z</time></trkpt><trkpt lat="45.464483442635355" lon="11.19755449666062"><ele>255.0</ele><time>2026-04-25T13:14:41Z</time></trkpt><trkpt lat="45.46457097919968" lon="11.197506779241964"><ele>255.0</ele><time>2026-04-25T13:14:42Z</time></trkpt><trkpt lat="45.46464958802217" lon="11.19746970972664"><ele>255.0</ele><time>2026-04-25T13:14:43Z</time></trkpt><trkpt lat="45.46473219176952" lon="11.197422022731656"><ele>255.0</ele><time>2026-04-25T13:14:44Z</time></trkpt><trkpt lat="45.4648413513826" lon="11.197406427523063"><ele>255.0</ele><time>2026-04-25T13:14:45Z</time></trkpt><trkpt lat="45.46492214206172" lon="11.197375157571932"><ele>255.0</ele><time>2026-04-25T13:14:46Z</time></trkpt><trkpt lat="45.46501786548036" lon="11.197320960850245"><ele>255.0</ele><time>2026-04-25T13:14:47Z</time></trkpt><trkpt lat="45.46514516887982" lon="11.197247055961475"><ele>255.0</ele><time>2026-04-25T13:14:48Z</time></trkpt><trkpt lat="45.46527940819944" lon="11.197165160475352"><ele>255.0</ele><time>2026-04-25T13:14:49Z</time></trkpt><trkpt lat="45.46541105773833" lon="11.197084953646739"><ele>257.2</ele><time>2026-04-25T13:14:50Z</time></trkpt><trkpt lat="45.46552620917872" lon="11.197018001824466"><ele>259.4</ele><time>2026-04-25T13:14:51Z</time></trkpt><trkpt lat="45.46563455798399" lon="11.19698441108356"><ele>261.6</ele><time>2026-04-25T13:14:52Z</time></trkpt><trkpt lat="45.465713362559335" lon="11.196926426994912"><ele>263.8</ele><time>2026-04-25T13:14:53Z</time></trkpt><trkpt lat="45.465782416937266" lon="11.196912940298251"><ele>266.0</ele><time>2026-04-25T13:14:54Z</time></trkpt><trkpt lat="45.465840551835846" lon="11.196865902908394"><ele>266.0</ele><time>2026-04-25T13:14:55Z</time></trkpt><trkpt lat="45.46588242729772" lon="11.196779040489163"><ele>266.0</ele><time>2026-04-25T13:14:56Z</time></trkpt><trkpt lat="45.46589187791695" lon="11.196657983290615"><ele>266.0</ele><time>2026-04-25T13:14:57Z</time></trkpt><trkpt lat="45.465916134494556" lon="11.19655422674588"><ele>266.0</ele><time>2026-04-25T13:14:58Z</time></trkpt><trkpt lat="45.466001757479965" lon="11.196435299035516"><ele>266.0</ele><time>2026-04-25T13:15:00Z</time></trkpt><trkpt lat="45.46608650669327" lon="11.196435592941896"><ele>266.0</ele><time>2026-04-25T13:15:01Z</time></trkpt><trkpt lat="45.46615729468774" lon="11.196418762956604"><ele>267.0</ele><time>2026-04-25T13:15:02Z</time></trkpt><trkpt lat="45.46623237351895" lon="11.196400921006829"><ele>268.0</ele><time>2026-04-25T13:15:03Z</time></trkpt><trkpt lat="45.466308624856396" lon="11.196382965102014"><ele>269.0</ele><time>2026-04-25T13:15:04Z</time></trkpt><trkpt lat="45.46638276891371" lon="11.196364604128618"><ele>270.0</ele><time>2026-04-25T13:15:05Z</time></trkpt><trkpt lat="45.46646162178522" lon="11.196343278677283"><ele>271.0</ele><time>2026-04-25T13:15:06Z</time></trkpt><trkpt lat="45.466540488277545" lon="11.19632109058475"><ele>272.0</ele><time>2026-04-25T13:15:07Z</time></trkpt><trkpt lat="45.46661741523294" lon="11.196275939132633"><ele>272.0</ele><time>2026-04-25T13:15:08Z</time></trkpt><trkpt lat="45.46669774646074" lon="11.196262604129112"><ele>272.0</ele><time>2026-04-25T13:15:09Z</time></trkpt><trkpt lat="45.466777591688086" lon="11.196244261064072"><ele>272.0</ele><time>2026-04-25T13:15:10Z</time></trkpt><trkpt lat="45.4668611726102" lon="11.196221836529542"><ele>272.0</ele><time>2026-04-25T13:15:11Z</time></trkpt><trkpt lat="45.46695102235279" lon="11.196195100899512"><ele>272.0</ele><time>2026-04-25T13:15:12Z</time></trkpt><trkpt lat="45.46703897033467" lon="11.196166320066885"><ele>272.0</ele><time>2026-04-25T13:15:13Z</time></trkpt><trkpt lat="45.46710662833823" lon="11.196129273329497"><ele>273.6666666666667</ele><time>2026-04-25T13:15:14Z</time></trkpt><trkpt lat="45.467207686984096" lon="11.196022881993358"><ele>275.33333333333337</ele><time>2026-04-25T13:15:16Z</time></trkpt><trkpt lat="45.46725583508486" lon="11.195951503223485"><ele>277.0</ele><time>2026-04-25T13:15:17Z</time></trkpt><trkpt lat="45.467309596083034" lon="11.195873274468088"><ele>278.6666666666667</ele><time>2026-04-25T13:15:18Z</time></trkpt><trkpt lat="45.46738972696135" lon="11.195807197046394"><ele>280.3333333333333</ele><time>2026-04-25T13:15:19Z</time></trkpt><trkpt lat="45.46745194030462" lon="11.195738869856761"><ele>282.0</ele><time>2026-04-25T13:15:20Z</time></trkpt><trkpt lat="45.46752070937769" lon="11.195670698923383"><ele>280.0</ele><time>2026-04-25T13:15:21Z</time></trkpt><trkpt lat="45.46761503740887" lon="11.195584346654915"><ele>278.0</ele><time>2026-04-25T13:15:22Z</time></trkpt><trkpt lat="45.46770839962173" lon="11.195468088938448"><ele>276.0</ele><time>2026-04-25T13:15:23Z</time></trkpt><trkpt lat="45.467828921401356" lon="11.195349556480972"><ele>274.0</ele><time>2026-04-25T13:15:24Z</time></trkpt><trkpt lat="45.467925190084664" lon="11.195262108152097"><ele>277.0</ele><time>2026-04-25T13:15:25Z</time></trkpt><trkpt lat="45.46804092938679" lon="11.195195349813847"><ele>280.0</ele><time>2026-04-25T13:15:26Z</time></trkpt><trkpt lat="45.46815554113277" lon="11.195124555102767"><ele>283.0</ele><time>2026-04-25T13:15:27Z</time></trkpt><trkpt lat="45.46825810950727" lon="11.195055559436838"><ele>286.0</ele><time>2026-04-25T13:15:28Z</time></trkpt><trkpt lat="45.468345154129835" lon="11.194987018608307"><ele>286.0</ele><time>2026-04-25T13:15:29Z</time></trkpt><trkpt lat="45.468429951221935" lon="11.19490619934135"><ele>286.0</ele><time>2026-04-25T13:15:30Z</time></trkpt><trkpt lat="45.468502120228415" lon="11.194832714595899"><ele>286.0</ele><time>2026-04-25T13:15:31Z</time></trkpt><trkpt lat="45.468564061453165" lon="11.194773941426568"><ele>286.0</ele><time>2026-04-25T13:15:32Z</time></trkpt><trkpt lat="45.46869253744774" lon="11.194725296841444"><ele>286.0</ele><time>2026-04-25T13:15:34Z</time></trkpt><trkpt lat="45.46879977158313" lon="11.194805379641911"><ele>287.3333333333333</ele><time>2026-04-25T13:15:36Z</time></trkpt><trkpt lat="45.468871783386874" lon="11.194841706488583"><ele>288.66666666666663</ele><time>2026-04-25T13:15:37Z</time></trkpt><trkpt lat="45.46895294223772" lon="11.194882647714577"><ele>290.0</ele><time>2026-04-25T13:15:38Z</time></trkpt><trkpt lat="45.4690296541258" lon="11.194920019203913"><ele>291.3333333333333</ele><time>2026-04-25T13:15:39Z</time></trkpt><trkpt lat="45.46910882539797" lon="11.194957075770283"><ele>292.6666666666667</ele><time>2026-04-25T13:15:40Z</time></trkpt><trkpt lat="45.46919306292388" lon="11.194991277234026"><ele>294.0</ele><time>2026-04-25T13:15:41Z</time></trkpt><trkpt lat="45.46927351111138" lon="11.19501375787552"><ele>294.0</ele><time>2026-04-25T13:15:42Z</time></trkpt><trkpt lat="45.46936401394647" lon="11.195020719650893"><ele>294.0</ele><time>2026-04-25T13:15:43Z</time></trkpt><trkpt lat="45.46944924409325" lon="11.195019648294458"><ele>294.0</ele><time>2026-04-25T13:15:44Z</time></trkpt><trkpt lat="45.46953146067631" lon="11.195013040011867"><ele>294.0</ele><time>2026-04-25T13:15:45Z</time></trkpt><trkpt lat="45.46961473656619" lon="11.194979442258791"><ele>294.0</ele><time>2026-04-25T13:15:46Z</time></trkpt><trkpt lat="45.46969338697052" lon="11.194941070963063"><ele>294.0</ele><time>2026-04-25T13:15:47Z</time></trkpt><trkpt lat="45.469767285893084" lon="11.194890812828941"><ele>294.8</ele><time>2026-04-25T13:15:48Z</time></trkpt><trkpt lat="45.46984679046886" lon="11.19482839527967"><ele>295.59999999999997</ele><time>2026-04-25T13:15:49Z</time></trkpt><trkpt lat="45.469910241497" lon="11.194746976328616"><ele>296.4</ele><time>2026-04-25T13:15:50Z</time></trkpt><trkpt lat="45.46998903994754" lon="11.194688997987905"><ele>297.2</ele><time>2026-04-25T13:15:51Z</time></trkpt><trkpt lat="45.4700681554299" lon="11.194628390279622"><ele>298.0</ele><time>2026-04-25T13:15:52Z</time></trkpt><trkpt lat="45.470156968512754" lon="11.194547735764251"><ele>298.0</ele><time>2026-04-25T13:15:53Z</time></trkpt><trkpt lat="45.470246306023846" lon="11.19447293792665"><ele>298.0</ele><time>2026-04-25T13:15:54Z</time></trkpt><trkpt lat="45.47032659332095" lon="11.19439474882246"><ele>298.0</ele><time>2026-04-25T13:15:55Z</time></trkpt><trkpt lat="45.470401891400634" lon="11.194319058234289"><ele>298.0</ele><time>2026-04-25T13:15:56Z</time></trkpt><trkpt lat="45.47049370576532" lon="11.194259423378693"><ele>298.0</ele><time>2026-04-25T13:15:57Z</time></trkpt><trkpt lat="45.470586321234144" lon="11.194171378716183"><ele>294.4</ele><time>2026-04-25T13:15:58Z</time></trkpt><trkpt lat="45.47067768640355" lon="11.19410408200419"><ele>290.8</ele><time>2026-04-25T13:15:59Z</time></trkpt><trkpt lat="45.4707765728152" lon="11.194049359603337"><ele>287.2</ele><time>2026-04-25T13:16:00Z</time></trkpt><trkpt lat="45.47087448879323" lon="11.194003007640912"><ele>283.6</ele><time>2026-04-25T13:16:01Z</time></trkpt><trkpt lat="45.470963585195186" lon="11.19395904292387"><ele>280.0</ele><time>2026-04-25T13:16:02Z</time></trkpt><trkpt lat="45.471049960906534" lon="11.193912589963308"><ele>280.0</ele><time>2026-04-25T13:16:03Z</time></trkpt><trkpt lat="45.47114479858636" lon="11.193860305110002"><ele>280.0</ele><time>2026-04-25T13:16:04Z</time></trkpt><trkpt lat="45.47123985477223" lon="11.193800456501979"><ele>280.0</ele><time>2026-04-25T13:16:05Z</time></trkpt><trkpt lat="45.47131946484722" lon="11.193727533311888"><ele>280.0</ele><time>2026-04-25T13:16:06Z</time></trkpt><trkpt lat="45.471396098066464" lon="11.193680169732183"><ele>280.0</ele><time>2026-04-25T13:16:07Z</time></trkpt><trkpt lat="45.47147728859509" lon="11.193647886185447"><ele>278.0</ele><time>2026-04-25T13:16:08Z</time></trkpt><trkpt lat="45.471559257737134" lon="11.193619035828172"><ele>276.0</ele><time>2026-04-25T13:16:09Z</time></trkpt><trkpt lat="45.4716474811051" lon="11.1936414960871"><ele>274.0</ele><time>2026-04-25T13:16:10Z</time></trkpt><trkpt lat="45.47172942017448" lon="11.193642321956178"><ele>272.0</ele><time>2026-04-25T13:16:11Z</time></trkpt><trkpt lat="45.47181344441336" lon="11.193643168837799"><ele>270.0</ele><time>2026-04-25T13:16:12Z</time></trkpt><trkpt lat="45.471886435046706" lon="11.193639964154917"><ele>268.0</ele><time>2026-04-25T13:16:13Z</time></trkpt><trkpt lat="45.471956763223154" lon="11.19363450626582"><ele>268.0</ele><time>2026-04-25T13:16:14Z</time></trkpt><trkpt lat="45.47203627648876" lon="11.193631451902839"><ele>268.0</ele><time>2026-04-25T13:16:15Z</time></trkpt><trkpt lat="45.47211692814469" lon="11.193632954052687"><ele>268.0</ele><time>2026-04-25T13:16:16Z</time></trkpt><trkpt lat="45.47220971891355" lon="11.193637476723344"><ele>268.0</ele><time>2026-04-25T13:16:17Z</time></trkpt><trkpt lat="45.47229308936191" lon="11.193647822705447"><ele>268.0</ele><time>2026-04-25T13:16:18Z</time></trkpt><trkpt lat="45.47236371478398" lon="11.193661707289346"><ele>268.0</ele><time>2026-04-25T13:16:19Z</time></trkpt><trkpt lat="45.47249909561871" lon="11.193701546532111"><ele>265.66666666666663</ele><time>2026-04-25T13:16:21Z</time></trkpt><trkpt lat="45.47258150773424" lon="11.193724293439411"><ele>263.3333333333333</ele><time>2026-04-25T13:16:22Z</time></trkpt><trkpt lat="45.472668263865245" lon="11.193718643718269"><ele>261.0</ele><time>2026-04-25T13:16:23Z</time></trkpt><trkpt lat="45.472743218287874" lon="11.193735835057327"><ele>258.6666666666667</ele><time>2026-04-25T13:16:24Z</time></trkpt><trkpt lat="45.47281379357758" lon="11.193748292386758"><ele>256.33333333333337</ele><time>2026-04-25T13:16:25Z</time></trkpt><trkpt lat="45.472882594143655" lon="11.193769923948304"><ele>254.0</ele><time>2026-04-25T13:16:26Z</time></trkpt><trkpt lat="45.47297291415388" lon="11.193773006356897"><ele>251.6</ele><time>2026-04-25T13:16:27Z</time></trkpt><trkpt lat="45.473068543422265" lon="11.193778936311908"><ele>249.2</ele><time>2026-04-25T13:16:28Z</time></trkpt><trkpt lat="45.47316136867175" lon="11.193781695221649"><ele>246.79999999999998</ele><time>2026-04-25T13:16:29Z</time></trkpt><trkpt lat="45.473252941937666" lon="11.193783300026297"><ele>244.39999999999998</ele><time>2026-04-25T13:16:30Z</time></trkpt><trkpt lat="45.473341281450395" lon="11.193786208529286"><ele>242.0</ele><time>2026-04-25T13:16:31Z</time></trkpt><trkpt lat="45.473422160405086" lon="11.193795004951403"><ele>242.00000000000003</ele><time>2026-04-25T13:16:32Z</time></trkpt><trkpt lat="45.473502923279966" lon="11.193799158751917"><ele>242.0</ele><time>2026-04-25T13:16:33Z</time></trkpt><trkpt lat="45.47357462264537" lon="11.193811138615327"><ele>242.0</ele><time>2026-04-25T13:16:34Z</time></trkpt><trkpt lat="45.47365943067867" lon="11.193823238922898"><ele>242.0</ele><time>2026-04-25T13:16:35Z</time></trkpt><trkpt lat="45.473756702841605" lon="11.193838294830481"><ele>242.00000000000003</ele><time>2026-04-25T13:16:36Z</time></trkpt><trkpt lat="45.4738628621474" lon="11.193861063306164"><ele>242.0</ele><time>2026-04-25T13:16:37Z</time></trkpt><trkpt lat="45.47397261620031" lon="11.193900234751444"><ele>241.39999999999998</ele><time>2026-04-25T13:16:38Z</time></trkpt><trkpt lat="45.47408172430277" lon="11.193944227298443"><ele>240.79999999999998</ele><time>2026-04-25T13:16:39Z</time></trkpt><trkpt lat="45.4741858163765" lon="11.194001357742728"><ele>240.2</ele><time>2026-04-25T13:16:40Z</time></trkpt><trkpt lat="45.474290525744635" lon="11.1940506996302"><ele>239.6</ele><time>2026-04-25T13:16:41Z</time></trkpt><trkpt lat="45.474380766622865" lon="11.194103161051132"><ele>239.0</ele><time>2026-04-25T13:16:42Z</time></trkpt><trkpt lat="45.47446945196019" lon="11.194116987582746"><ele>239.00000000000003</ele><time>2026-04-25T13:16:43Z</time></trkpt><trkpt lat="45.47455160881941" lon="11.19417548857999"><ele>239.0</ele><time>2026-04-25T13:16:44Z</time></trkpt><trkpt lat="45.47462555315711" lon="11.194231870415933"><ele>239.0</ele><time>2026-04-25T13:16:45Z</time></trkpt><trkpt lat="45.47469804895771" lon="11.194287875903997"><ele>239.0</ele><time>2026-04-25T13:16:46Z</time></trkpt><trkpt lat="45.474777325078406" lon="11.194310478096769"><ele>239.00000000000003</ele><time>2026-04-25T13:16:47Z</time></trkpt><trkpt lat="45.47485322601084" lon="11.194347845766332"><ele>239.0</ele><time>2026-04-25T13:16:48Z</time></trkpt><trkpt lat="45.474953753254105" lon="11.194396039285868"><ele>239.0</ele><time>2026-04-25T13:16:49Z</time></trkpt><trkpt lat="45.47505390196476" lon="11.194445158618146"><ele>239.0</ele><time>2026-04-25T13:16:50Z</time></trkpt><trkpt lat="45.475180253487146" lon="11.194515772760656"><ele>239.0</ele><time>2026-04-25T13:16:51Z</time></trkpt><trkpt lat="45.47531791759611" lon="11.194596156280873"><ele>239.0</ele><time>2026-04-25T13:16:52Z</time></trkpt><trkpt lat="45.475422721035955" lon="11.194652396779427"><ele>239.0</ele><time>2026-04-25T13:16:53Z</time></trkpt><trkpt lat="45.475516716080676" lon="11.194708767402746"><ele>239.0</ele><time>2026-04-25T13:16:54Z</time></trkpt><trkpt lat="45.475627240311304" lon="11.194738804394188"><ele>239.0</ele><time>2026-04-25T13:16:55Z</time></trkpt><trkpt lat="45.47575671237746" lon="11.194751432966644"><ele>239.0</ele><time>2026-04-25T13:16:56Z</time></trkpt><trkpt lat="45.47587777053124" lon="11.194743406502907"><ele>239.0</ele><time>2026-04-25T13:16:57Z</time></trkpt><trkpt lat="45.4759966762204" lon="11.194742968651212"><ele>239.0</ele><time>2026-04-25T13:16:58Z</time></trkpt><trkpt lat="45.47611696418224" lon="11.19474316744681"><ele>239.0</ele><time>2026-04-25T13:16:59Z</time></trkpt><trkpt lat="45.476272416871765" lon="11.194722286421948"><ele>239.0</ele><time>2026-04-25T13:17:00Z</time></trkpt><trkpt lat="45.476433374280695" lon="11.194721619064909"><ele>238.39999999999998</ele><time>2026-04-25T13:17:01Z</time></trkpt><trkpt lat="45.47630345170171" lon="11.19472838248218"><ele>237.79999999999998</ele><time>2026-04-25T13:17:02Z</time></trkpt><trkpt lat="45.47641129099067" lon="11.194715099561018"><ele>237.20000000000002</ele><time>2026-04-25T13:17:03Z</time></trkpt><trkpt lat="45.47651162891584" lon="11.194700242862737"><ele>236.60000000000002</ele><time>2026-04-25T13:17:04Z</time></trkpt><trkpt lat="45.47659859021132" lon="11.194689946715078"><ele>236.0</ele><time>2026-04-25T13:17:05Z</time></trkpt><trkpt lat="45.476682809823586" lon="11.19468419884111"><ele>236.0</ele><time>2026-04-25T13:17:06Z</time></trkpt><trkpt lat="45.47678064817691" lon="11.194670443530576"><ele>236.00000000000003</ele><time>2026-04-25T13:17:07Z</time></trkpt><trkpt lat="45.4768572302875" lon="11.194638931515914"><ele>236.00000000000003</ele><time>2026-04-25T13:17:08Z</time></trkpt><trkpt lat="45.47693888308373" lon="11.194599004019853"><ele>236.0</ele><time>2026-04-25T13:17:09Z</time></trkpt><trkpt lat="45.47703440429628" lon="11.194562597446192"><ele>236.0</ele><time>2026-04-25T13:17:10Z</time></trkpt><trkpt lat="45.47711823013923" lon="11.19450046785103"><ele>232.8</ele><time>2026-04-25T13:17:11Z</time></trkpt><trkpt lat="45.47720663635199" lon="11.194442986660448"><ele>229.60000000000002</ele><time>2026-04-25T13:17:12Z</time></trkpt><trkpt lat="45.477289190498595" lon="11.19435410051148"><ele>226.4</ele><time>2026-04-25T13:17:13Z</time></trkpt><trkpt lat="45.47737568162176" lon="11.194266704829534"><ele>223.2</ele><time>2026-04-25T13:17:14Z</time></trkpt><trkpt lat="45.47745900172382" lon="11.194205353427586"><ele>220.0</ele><time>2026-04-25T13:17:15Z</time></trkpt><trkpt lat="45.47752206789553" lon="11.194122836858226"><ele>220.0</ele><time>2026-04-25T13:17:16Z</time></trkpt><trkpt lat="45.47758368291453" lon="11.194060297561428"><ele>220.0</ele><time>2026-04-25T13:17:17Z</time></trkpt><trkpt lat="45.477644512165384" lon="11.193992181313451"><ele>220.0</ele><time>2026-04-25T13:17:18Z</time></trkpt><trkpt lat="45.477700813652895" lon="11.193932448214566"><ele>220.0</ele><time>2026-04-25T13:17:19Z</time></trkpt><trkpt lat="45.477806299014" lon="11.19391205957821"><ele>220.0</ele><time>2026-04-25T13:17:21Z</time></trkpt><trkpt lat="45.47794984232206" lon="11.193942401324687"><ele>219.0</ele><time>2026-04-25T13:17:23Z</time></trkpt><trkpt lat="45.478100850725944" lon="11.193960538135615"><ele>218.0</ele><time>2026-04-25T13:17:25Z</time></trkpt><trkpt lat="45.47817889769063" lon="11.19395510915422"><ele>217.0</ele><time>2026-04-25T13:17:26Z</time></trkpt><trkpt lat="45.478220301014325" lon="11.193867639798746"><ele>216.0</ele><time>2026-04-25T13:17:27Z</time></trkpt><trkpt lat="45.47826085905201" lon="11.193773253027832"><ele>215.0</ele><time>2026-04-25T13:17:28Z</time></trkpt><trkpt lat="45.478279853720956" lon="11.193663372647896"><ele>215.00000000000003</ele><time>2026-04-25T13:17:29Z</time></trkpt><trkpt lat="45.47826240250837" lon="11.193551899040322"><ele>215.0</ele><time>2026-04-25T13:17:30Z</time></trkpt><trkpt lat="45.4782382061941" lon="11.19345252909213"><ele>215.0</ele><time>2026-04-25T13:17:31Z</time></trkpt><trkpt lat="45.47824605503247" lon="11.193360017281977"><ele>215.0</ele><time>2026-04-25T13:17:33Z</time></trkpt><trkpt lat="45.47829639243321" lon="11.193509270872088"><ele>215.00000000000003</ele><time>2026-04-25T13:17:36Z</time></trkpt><trkpt lat="45.47830134593061" lon="11.193656276362583"><ele>215.0</ele><time>2026-04-25T13:17:37Z</time></trkpt><trkpt lat="45.47831094131009" lon="11.193842902236147"><ele>215.0</ele><time>2026-04-25T13:17:38Z</time></trkpt><trkpt lat="45.4783501149118" lon="11.193980724367062"><ele>215.0</ele><time>2026-04-25T13:17:39Z</time></trkpt><trkpt lat="45.478385014533536" lon="11.194060729401574"><ele>215.0</ele><time>2026-04-25T13:17:40Z</time></trkpt><trkpt lat="45.47865424731118" lon="11.193942934177082"><ele>215.00000000000003</ele><time>2026-04-25T13:17:43Z</time></trkpt><trkpt lat="45.478741762088674" lon="11.193960331457163"><ele>215.0</ele><time>2026-04-25T13:17:44Z</time></trkpt><trkpt lat="45.47880957298747" lon="11.193973895077315"><ele>215.0</ele><time>2026-04-25T13:17:45Z</time></trkpt><trkpt lat="45.47889067561325" lon="11.193990852186454"><ele>215.0</ele><time>2026-04-25T13:17:47Z</time></trkpt><trkpt lat="45.47901004542473" lon="11.194032028880928"><ele>215.00000000000003</ele><time>2026-04-25T13:17:49Z</time></trkpt><trkpt lat="45.47908088609675" lon="11.194049947648391"><ele>215.0</ele><time>2026-04-25T13:17:50Z</time></trkpt><trkpt lat="45.47915779002397" lon="11.194062562962419"><ele>216.6</ele><time>2026-04-25T13:17:51Z</time></trkpt><trkpt lat="45.47923149520199" lon="11.194061362358529"><ele>218.2</ele><time>2026-04-25T13:17:52Z</time></trkpt><trkpt lat="45.4793311967489" lon="11.194062966210632"><ele>219.8</ele><time>2026-04-25T13:17:54Z</time></trkpt><trkpt lat="45.479428575021814" lon="11.19408213973726"><ele>221.4</ele><time>2026-04-25T13:17:56Z</time></trkpt><trkpt lat="45.47953472665219" lon="11.194098088792169"><ele>223.0</ele><time>2026-04-25T13:17:58Z</time></trkpt><trkpt lat="45.47964213646912" lon="11.194079482774823"><ele>224.2</ele><time>2026-04-25T13:18:00Z</time></trkpt><trkpt lat="45.47971420053061" lon="11.194064334232467"><ele>225.4</ele><time>2026-04-25T13:18:01Z</time></trkpt><trkpt lat="45.47980848082563" lon="11.194031541655841"><ele>226.59999999999997</ele><time>2026-04-25T13:18:02Z</time></trkpt><trkpt lat="45.47991342592595" lon="11.193995845592552"><ele>227.79999999999998</ele><time>2026-04-25T13:18:03Z</time></trkpt><trkpt lat="45.48001454710322" lon="11.193952430654146"><ele>229.0</ele><time>2026-04-25T13:18:04Z</time></trkpt><trkpt lat="45.48010525547421" lon="11.19391022398443"><ele>230.99999999999997</ele><time>2026-04-25T13:18:05Z</time></trkpt><trkpt lat="45.480178774942786" lon="11.19386731842885"><ele>233.0</ele><time>2026-04-25T13:18:06Z</time></trkpt><trkpt lat="45.48025189614961" lon="11.19383996351952"><ele>235.0</ele><time>2026-04-25T13:18:07Z</time></trkpt><trkpt lat="45.48034258459105" lon="11.19380634169484"><ele>237.0</ele><time>2026-04-25T13:18:08Z</time></trkpt><trkpt lat="45.480435828961845" lon="11.193762353697275"><ele>238.99999999999997</ele><time>2026-04-25T13:18:09Z</time></trkpt><trkpt lat="45.48053081008339" lon="11.1937137121562"><ele>241.0</ele><time>2026-04-25T13:18:10Z</time></trkpt><trkpt lat="45.480628677012874" lon="11.193683993823415"><ele>241.33333333333331</ele><time>2026-04-25T13:18:11Z</time></trkpt><trkpt lat="45.48071454582364" lon="11.19365931172565"><ele>241.66666666666666</ele><time>2026-04-25T13:18:12Z</time></trkpt><trkpt lat="45.480797614091095" lon="11.193622783002326"><ele>242.0</ele><time>2026-04-25T13:18:13Z</time></trkpt><trkpt lat="45.480884816625995" lon="11.19361409034984"><ele>242.33333333333331</ele><time>2026-04-25T13:18:14Z</time></trkpt><trkpt lat="45.480964010693796" lon="11.193587514187579"><ele>242.66666666666666</ele><time>2026-04-25T13:18:15Z</time></trkpt><trkpt lat="45.481040744455974" lon="11.193559115354766"><ele>243.0</ele><time>2026-04-25T13:18:16Z</time></trkpt><trkpt lat="45.48110771698796" lon="11.193510079294489"><ele>243.0</ele><time>2026-04-25T13:18:17Z</time></trkpt><trkpt lat="45.4811734647317" lon="11.193495197606433"><ele>243.0</ele><time>2026-04-25T13:18:18Z</time></trkpt><trkpt lat="45.48123417602062" lon="11.193449611162691"><ele>243.0</ele><time>2026-04-25T13:18:19Z</time></trkpt><trkpt lat="45.4812855263374" lon="11.193391191374793"><ele>243.0</ele><time>2026-04-25T13:18:20Z</time></trkpt><trkpt lat="45.48133948430003" lon="11.193327788091988"><ele>243.0</ele><time>2026-04-25T13:18:21Z</time></trkpt><trkpt lat="45.48139530231975" lon="11.193271045052779"><ele>243.0</ele><time>2026-04-25T13:18:22Z</time></trkpt><trkpt lat="45.481474178164234" lon="11.193212199921929"><ele>243.0</ele><time>2026-04-25T13:18:23Z</time></trkpt><trkpt lat="45.481563091240176" lon="11.193181345764536"><ele>242.60000000000002</ele><time>2026-04-25T13:18:24Z</time></trkpt><trkpt lat="45.48166114562851" lon="11.193119743618292"><ele>242.20000000000002</ele><time>2026-04-25T13:18:25Z</time></trkpt><trkpt lat="45.481760696983635" lon="11.193088755783842"><ele>241.8</ele><time>2026-04-25T13:18:26Z</time></trkpt><trkpt lat="45.48185158465" lon="11.193058594448924"><ele>241.4</ele><time>2026-04-25T13:18:27Z</time></trkpt><trkpt lat="45.48193388223182" lon="11.193025240003283"><ele>241.0</ele><time>2026-04-25T13:18:28Z</time></trkpt><trkpt lat="45.48200905797312" lon="11.192993356845705"><ele>240.99999999999997</ele><time>2026-04-25T13:18:29Z</time></trkpt><trkpt lat="45.48208728404356" lon="11.192953504933701"><ele>241.0</ele><time>2026-04-25T13:18:30Z</time></trkpt><trkpt lat="45.48216066158699" lon="11.192917984273022"><ele>241.0</ele><time>2026-04-25T13:18:31Z</time></trkpt><trkpt lat="45.482226638539224" lon="11.192884641309973"><ele>241.0</ele><time>2026-04-25T13:18:32Z</time></trkpt><trkpt lat="45.48233794888406" lon="11.192851441232333"><ele>240.99999999999997</ele><time>2026-04-25T13:18:34Z</time></trkpt><trkpt lat="45.4824412101924" lon="11.192827037212602"><ele>241.0</ele><time>2026-04-25T13:18:36Z</time></trkpt><trkpt lat="45.4825518307283" lon="11.192804156949922"><ele>239.99999999999997</ele><time>2026-04-25T13:18:38Z</time></trkpt><trkpt lat="45.48266794475183" lon="11.19277712218674"><ele>239.0</ele><time>2026-04-25T13:18:40Z</time></trkpt><trkpt lat="45.48273029835234" lon="11.192757526725156"><ele>238.0</ele><time>2026-04-25T13:18:41Z</time></trkpt><trkpt lat="45.482795275497566" lon="11.192736960612535"><ele>237.0</ele><time>2026-04-25T13:18:42Z</time></trkpt><trkpt lat="45.482858101249896" lon="11.192716281896933"><ele>235.99999999999997</ele><time>2026-04-25T13:18:43Z</time></trkpt><trkpt lat="45.48292457174507" lon="11.192671081213577"><ele>235.0</ele><time>2026-04-25T13:18:44Z</time></trkpt><trkpt lat="45.482991537240096" lon="11.192656686114622"><ele>235.0</ele><time>2026-04-25T13:18:45Z</time></trkpt><trkpt lat="45.48305490045222" lon="11.192638254579837"><ele>235.0</ele><time>2026-04-25T13:18:46Z</time></trkpt><trkpt lat="45.48316767281502" lon="11.192610488271448"><ele>235.0</ele><time>2026-04-25T13:18:48Z</time></trkpt><trkpt lat="45.48327604653524" lon="11.192586201497884"><ele>235.0</ele><time>2026-04-25T13:18:50Z</time></trkpt><trkpt lat="45.48338706877844" lon="11.192566604063046"><ele>235.0</ele><time>2026-04-25T13:18:52Z</time></trkpt><trkpt lat="45.48349911968642" lon="11.192546964473726"><ele>234.99999999999997</ele><time>2026-04-25T13:18:54Z</time></trkpt><trkpt lat="45.48361754322611" lon="11.19251929009147"><ele>235.0</ele><time>2026-04-25T13:18:56Z</time></trkpt><trkpt lat="45.48368736638505" lon="11.192514756397488"><ele>235.0</ele><time>2026-04-25T13:18:57Z</time></trkpt><trkpt lat="45.48377087360621" lon="11.192503267745042"><ele>235.0</ele><time>2026-04-25T13:18:58Z</time></trkpt><trkpt lat="45.48385245809006" lon="11.192491548383087"><ele>234.99999999999997</ele><time>2026-04-25T13:18:59Z</time></trkpt><trkpt lat="45.48393846744946" lon="11.192478774545862"><ele>235.0</ele><time>2026-04-25T13:19:00Z</time></trkpt><trkpt lat="45.48402972774014" lon="11.192474143534803"><ele>235.33333333333331</ele><time>2026-04-25T13:19:01Z</time></trkpt><trkpt lat="45.48411673068365" lon="11.19246897975118"><ele>235.66666666666666</ele><time>2026-04-25T13:19:02Z</time></trkpt><trkpt lat="45.484204005733076" lon="11.19245826279349"><ele>236.0</ele><time>2026-04-25T13:19:03Z</time></trkpt><trkpt lat="45.484289238741866" lon="11.192451107342512"><ele>236.33333333333331</ele><time>2026-04-25T13:19:04Z</time></trkpt><trkpt lat="45.48437751002458" lon="11.19244721300076"><ele>236.66666666666666</ele><time>2026-04-25T13:19:05Z</time></trkpt><trkpt lat="45.48446308380862" lon="11.192441868767274"><ele>237.0</ele><time>2026-04-25T13:19:06Z</time></trkpt><trkpt lat="45.484548136463516" lon="11.192428381180626"><ele>236.8</ele><time>2026-04-25T13:19:07Z</time></trkpt><trkpt lat="45.48465422296587" lon="11.192406007990007"><ele>236.6</ele><time>2026-04-25T13:19:08Z</time></trkpt><trkpt lat="45.484752111351575" lon="11.192411550840935"><ele>236.40000000000003</ele><time>2026-04-25T13:19:09Z</time></trkpt><trkpt lat="45.48483657887355" lon="11.192404902025215"><ele>236.20000000000002</ele><time>2026-04-25T13:19:10Z</time></trkpt><trkpt lat="45.484931431084064" lon="11.192405457676667"><ele>236.0</ele><time>2026-04-25T13:19:11Z</time></trkpt><trkpt lat="45.48502554532943" lon="11.192390535077084"><ele>236.0</ele><time>2026-04-25T13:19:12Z</time></trkpt><trkpt lat="45.48511021958086" lon="11.192403507348345"><ele>236.00000000000003</ele><time>2026-04-25T13:19:13Z</time></trkpt><trkpt lat="45.48519669129692" lon="11.192412042588202"><ele>236.00000000000003</ele><time>2026-04-25T13:19:14Z</time></trkpt><trkpt lat="45.485297504962155" lon="11.192413198477078"><ele>236.0</ele><time>2026-04-25T13:19:15Z</time></trkpt><trkpt lat="45.48539973011851" lon="11.192413978813681"><ele>236.0</ele><time>2026-04-25T13:19:16Z</time></trkpt><trkpt lat="45.48549605856228" lon="11.192403755131044"><ele>236.5</ele><time>2026-04-25T13:19:17Z</time></trkpt><trkpt lat="45.485603103723946" lon="11.192404923330002"><ele>237.0</ele><time>2026-04-25T13:19:18Z</time></trkpt><trkpt lat="45.48571015073205" lon="11.19239439885841"><ele>237.5</ele><time>2026-04-25T13:19:19Z</time></trkpt><trkpt lat="45.48582720802346" lon="11.192393362913313"><ele>238.0</ele><time>2026-04-25T13:19:20Z</time></trkpt><trkpt lat="45.485959446380235" lon="11.19239219378226"><ele>238.0</ele><time>2026-04-25T13:19:21Z</time></trkpt><trkpt lat="45.48607653766047" lon="11.192420728660483"><ele>238.0</ele><time>2026-04-25T13:19:22Z</time></trkpt><trkpt lat="45.486172654053895" lon="11.192413508972567"><ele>238.0</ele><time>2026-04-25T13:19:23Z</time></trkpt><trkpt lat="45.48625570438707" lon="11.19243047757118"><ele>238.0</ele><time>2026-04-25T13:19:24Z</time></trkpt><trkpt lat="45.48632664235417" lon="11.192445718200483"><ele>238.0</ele><time>2026-04-25T13:19:25Z</time></trkpt><trkpt lat="45.48642377358189" lon="11.19247419414216"><ele>238.42857142857144</ele><time>2026-04-25T13:19:27Z</time></trkpt><trkpt lat="45.486487065218114" lon="11.192482218980965"><ele>238.85714285714286</ele><time>2026-04-25T13:19:30Z</time></trkpt><trkpt lat="45.486539999924666" lon="11.192556747307846"><ele>239.28571428571428</ele><time>2026-04-25T13:20:52Z</time></trkpt><trkpt lat="45.48652839933802" lon="11.1924592583496"><ele>239.71428571428572</ele><time>2026-04-25T13:20:59Z</time></trkpt><trkpt lat="45.4864711857914" lon="11.192519992281579"><ele>240.14285714285717</ele><time>2026-04-25T13:21:03Z</time></trkpt><trkpt lat="45.48653089117902" lon="11.192619625032858"><ele>240.57142857142858</ele><time>2026-04-25T13:21:06Z</time></trkpt><trkpt lat="45.486583238798815" lon="11.192671082148072"><ele>241.0</ele><time>2026-04-25T13:21:07Z</time></trkpt><trkpt lat="45.48663690754409" lon="11.192725687605074"><ele>240.99999999999997</ele><time>2026-04-25T13:21:08Z</time></trkpt><trkpt lat="45.486694230214646" lon="11.19278822480718"><ele>241.0</ele><time>2026-04-25T13:21:09Z</time></trkpt><trkpt lat="45.486754659729826" lon="11.192853769135738"><ele>241.0</ele><time>2026-04-25T13:21:10Z</time></trkpt><trkpt lat="45.48681602309229" lon="11.192919256245215"><ele>241.0</ele><time>2026-04-25T13:21:11Z</time></trkpt><trkpt lat="45.48687821153217" lon="11.192986741358999"><ele>240.99999999999997</ele><time>2026-04-25T13:21:12Z</time></trkpt><trkpt lat="45.48694435525237" lon="11.193057402721324"><ele>241.0</ele><time>2026-04-25T13:21:13Z</time></trkpt><trkpt lat="45.48701599207858" lon="11.1931337412845"><ele>241.49999999999997</ele><time>2026-04-25T13:21:14Z</time></trkpt><trkpt lat="45.487079856244044" lon="11.193206477048221"><ele>242.0</ele><time>2026-04-25T13:21:15Z</time></trkpt><trkpt lat="45.48714951494057" lon="11.193275426015818"><ele>242.5</ele><time>2026-04-25T13:21:16Z</time></trkpt><trkpt lat="45.48721277971239" lon="11.193342673421885"><ele>243.0</ele><time>2026-04-25T13:21:17Z</time></trkpt><trkpt lat="45.48727832169087" lon="11.193403872403575"><ele>243.49999999999997</ele><time>2026-04-25T13:21:18Z</time></trkpt><trkpt lat="45.487365636276955" lon="11.193462286945278"><ele>244.0</ele><time>2026-04-25T13:21:19Z</time></trkpt><trkpt lat="45.48747051798925" lon="11.193520615063449"><ele>244.0</ele><time>2026-04-25T13:21:20Z</time></trkpt><trkpt lat="45.4875884457324" lon="11.193557276148553"><ele>244.0</ele><time>2026-04-25T13:21:21Z</time></trkpt><trkpt lat="45.487718979326054" lon="11.193616656172368"><ele>244.0</ele><time>2026-04-25T13:21:22Z</time></trkpt><trkpt lat="45.48785500125413" lon="11.193656847850734"><ele>244.0</ele><time>2026-04-25T13:21:23Z</time></trkpt><trkpt lat="45.487987543140115" lon="11.193708000483898"><ele>245.25</ele><time>2026-04-25T13:21:24Z</time></trkpt><trkpt lat="45.48811382349955" lon="11.19374067450152"><ele>246.5</ele><time>2026-04-25T13:21:25Z</time></trkpt><trkpt lat="45.488229444360826" lon="11.193778715589717"><ele>247.75</ele><time>2026-04-25T13:21:26Z</time></trkpt><trkpt lat="45.48834971851683" lon="11.193812601082715"><ele>249.0</ele><time>2026-04-25T13:21:27Z</time></trkpt><trkpt lat="45.48847041308172" lon="11.193842204441458"><ele>249.0</ele><time>2026-04-25T13:21:28Z</time></trkpt><trkpt lat="45.488587641139446" lon="11.193863723967144"><ele>249.0</ele><time>2026-04-25T13:21:29Z</time></trkpt><trkpt lat="45.48870982207487" lon="11.193881612158854"><ele>249.0</ele><time>2026-04-25T13:21:30Z</time></trkpt><trkpt lat="45.48883677753291" lon="11.193907604655461"><ele>249.0</ele><time>2026-04-25T13:21:31Z</time></trkpt><trkpt lat="45.48896386256724" lon="11.19393449574227"><ele>250.5</ele><time>2026-04-25T13:21:32Z</time></trkpt><trkpt lat="45.48908758381342" lon="11.19396268645168"><ele>252.0</ele><time>2026-04-25T13:21:33Z</time></trkpt><trkpt lat="45.48919467345652" lon="11.193985317313695"><ele>253.5</ele><time>2026-04-25T13:21:34Z</time></trkpt><trkpt lat="45.48930336399655" lon="11.194009601213919"><ele>255.0</ele><time>2026-04-25T13:21:35Z</time></trkpt><trkpt lat="45.48941001604812" lon="11.19403805365505"><ele>252.33333333333334</ele><time>2026-04-25T13:21:36Z</time></trkpt><trkpt lat="45.48949697890898" lon="11.194062800766494"><ele>249.66666666666669</ele><time>2026-04-25T13:21:37Z</time></trkpt><trkpt lat="45.48957741149394" lon="11.194083328255008"><ele>247.0</ele><time>2026-04-25T13:21:38Z</time></trkpt><trkpt lat="45.48967329381335" lon="11.194101101201463"><ele>244.33333333333334</ele><time>2026-04-25T13:21:39Z</time></trkpt><trkpt lat="45.489760060164" lon="11.194122608685703"><ele>241.66666666666669</ele><time>2026-04-25T13:21:40Z</time></trkpt><trkpt lat="45.48985033549217" lon="11.194146535655763"><ele>239.0</ele><time>2026-04-25T13:21:41Z</time></trkpt><trkpt lat="45.48994031569981" lon="11.194166395256248"><ele>239.00000000000003</ele><time>2026-04-25T13:21:42Z</time></trkpt><trkpt lat="45.49001866293068" lon="11.194187394614106"><ele>239.0</ele><time>2026-04-25T13:21:43Z</time></trkpt><trkpt lat="45.49009377678584" lon="11.194206432968814"><ele>239.0</ele><time>2026-04-25T13:21:44Z</time></trkpt><trkpt lat="45.490158784429205" lon="11.194223889671514"><ele>239.0</ele><time>2026-04-25T13:21:45Z</time></trkpt><trkpt lat="45.49027386332129" lon="11.194252769466122"><ele>239.00000000000003</ele><time>2026-04-25T13:21:47Z</time></trkpt><trkpt lat="45.49038312595826" lon="11.194273809665479"><ele>239.0</ele><time>2026-04-25T13:21:49Z</time></trkpt><trkpt lat="45.49048105596382" lon="11.19430866421504"><ele>240.6</ele><time>2026-04-25T13:21:51Z</time></trkpt><trkpt lat="45.49058940758362" lon="11.194327876748929"><ele>242.2</ele><time>2026-04-25T13:21:53Z</time></trkpt><trkpt lat="45.49070169711269" lon="11.194347620590857"><ele>243.79999999999998</ele><time>2026-04-25T13:21:55Z</time></trkpt><trkpt lat="45.490816031096" lon="11.194367842126454"><ele>245.39999999999998</ele><time>2026-04-25T13:21:57Z</time></trkpt><trkpt lat="45.49092607824361" lon="11.194384394377831"><ele>247.0</ele><time>2026-04-25T13:21:59Z</time></trkpt><trkpt lat="45.49099062219581" lon="11.194394489153632"><ele>247.0</ele><time>2026-04-25T13:22:00Z</time></trkpt><trkpt lat="45.49107427565868" lon="11.194400709273607"><ele>247.0</ele><time>2026-04-25T13:22:01Z</time></trkpt><trkpt lat="45.49116404100047" lon="11.194415222286871"><ele>247.0</ele><time>2026-04-25T13:22:02Z</time></trkpt><trkpt lat="45.49125548369838" lon="11.194428205516214"><ele>247.0</ele><time>2026-04-25T13:22:03Z</time></trkpt><trkpt lat="45.49135086635127" lon="11.194451750099091"><ele>247.0</ele><time>2026-04-25T13:22:04Z</time></trkpt><trkpt lat="45.49144296850933" lon="11.19447795625657"><ele>248.66666666666666</ele><time>2026-04-25T13:22:05Z</time></trkpt><trkpt lat="45.49152610089511" lon="11.194510192903737"><ele>250.33333333333331</ele><time>2026-04-25T13:22:06Z</time></trkpt><trkpt lat="45.49160545444729" lon="11.194551291616099"><ele>252.0</ele><time>2026-04-25T13:22:07Z</time></trkpt><trkpt lat="45.49168649150141" lon="11.194595056190217"><ele>253.66666666666669</ele><time>2026-04-25T13:22:08Z</time></trkpt><trkpt lat="45.491764749209715" lon="11.194654371996805"><ele>255.33333333333334</ele><time>2026-04-25T13:22:09Z</time></trkpt><trkpt lat="45.49183930776287" lon="11.194721844001648"><ele>257.0</ele><time>2026-04-25T13:22:10Z</time></trkpt><trkpt lat="45.49191254510093" lon="11.194792145948764"><ele>254.33333333333334</ele><time>2026-04-25T13:22:11Z</time></trkpt><trkpt lat="45.49198482274534" lon="11.194885936629367"><ele>251.66666666666669</ele><time>2026-04-25T13:22:12Z</time></trkpt><trkpt lat="45.49205558333725" lon="11.194950089600635"><ele>249.0</ele><time>2026-04-25T13:22:13Z</time></trkpt><trkpt lat="45.4921298592931" lon="11.195015302373571"><ele>246.33333333333331</ele><time>2026-04-25T13:22:14Z</time></trkpt><trkpt lat="45.49219087041333" lon="11.195057313921888"><ele>243.66666666666666</ele><time>2026-04-25T13:22:15Z</time></trkpt><trkpt lat="45.49225493397762" lon="11.1951251500252"><ele>241.0</ele><time>2026-04-25T13:22:16Z</time></trkpt><trkpt lat="45.492322422107556" lon="11.195145214894582"><ele>241.0</ele><time>2026-04-25T13:22:17Z</time></trkpt><trkpt lat="45.49237523787273" lon="11.195204190843306"><ele>241.0</ele><time>2026-04-25T13:22:18Z</time></trkpt><trkpt lat="45.49244458560819" lon="11.195248956384908"><ele>241.0</ele><time>2026-04-25T13:22:19Z</time></trkpt><trkpt lat="45.49270882750234" lon="11.195427963214545"><ele>241.0</ele><time>2026-04-25T13:22:20Z</time></trkpt><trkpt lat="45.49278482761451" lon="11.195497673814758"><ele>240.99999999999997</ele><time>2026-04-25T13:22:21Z</time></trkpt><trkpt lat="45.492853352904646" lon="11.195583397919297"><ele>241.0</ele><time>2026-04-25T13:22:22Z</time></trkpt><trkpt lat="45.49291766467078" lon="11.195660886133934"><ele>241.0</ele><time>2026-04-25T13:22:23Z</time></trkpt><trkpt lat="45.492980445863054" lon="11.195738010365112"><ele>241.0</ele><time>2026-04-25T13:22:24Z</time></trkpt><trkpt lat="45.493033556365035" lon="11.195806927166682"><ele>240.99999999999997</ele><time>2026-04-25T13:22:25Z</time></trkpt><trkpt lat="45.493083042470545" lon="11.195862549109638"><ele>241.0</ele><time>2026-04-25T13:22:26Z</time></trkpt><trkpt lat="45.49317092308616" lon="11.195970111246837"><ele>239.66666666666666</ele><time>2026-04-25T13:22:28Z</time></trkpt><trkpt lat="45.493185172056734" lon="11.19607542058704"><ele>238.33333333333331</ele><time>2026-04-25T13:22:30Z</time></trkpt><trkpt lat="45.49314236347164" lon="11.19616652339123"><ele>237.0</ele><time>2026-04-25T13:22:44Z</time></trkpt><trkpt lat="45.49311085325759" lon="11.196291055566817"><ele>235.66666666666669</ele><time>2026-04-25T13:22:46Z</time></trkpt><trkpt lat="45.49307817154011" lon="11.19641748006255"><ele>234.33333333333334</ele><time>2026-04-25T13:22:48Z</time></trkpt><trkpt lat="45.493095880845146" lon="11.19655076566357"><ele>233.0</ele><time>2026-04-25T13:22:51Z</time></trkpt><trkpt lat="45.49318898619252" lon="11.196620403274304"><ele>231.33333333333334</ele><time>2026-04-25T13:22:53Z</time></trkpt><trkpt lat="45.493305074424384" lon="11.196707227276713"><ele>229.66666666666669</ele><time>2026-04-25T13:22:55Z</time></trkpt><trkpt lat="45.49336396616159" lon="11.196749575467067"><ele>228.0</ele><time>2026-04-25T13:22:56Z</time></trkpt><trkpt lat="45.493427318071895" lon="11.196770093374834"><ele>226.33333333333331</ele><time>2026-04-25T13:22:57Z</time></trkpt><trkpt lat="45.49352030501615" lon="11.196792515620057"><ele>224.66666666666666</ele><time>2026-04-25T13:22:59Z</time></trkpt><trkpt lat="45.493592372312904" lon="11.196788688931134"><ele>223.0</ele><time>2026-04-25T13:23:01Z</time></trkpt><trkpt lat="45.49366976028867" lon="11.196729686231045"><ele>223.66666666666666</ele><time>2026-04-25T13:23:03Z</time></trkpt><trkpt lat="45.49376362028867" lon="11.196658253246374"><ele>224.33333333333331</ele><time>2026-04-25T13:23:05Z</time></trkpt><trkpt lat="45.49383430546173" lon="11.196657216894023"><ele>225.0</ele><time>2026-04-25T13:23:08Z</time></trkpt><trkpt lat="45.4938878674725" lon="11.196734318901267"><ele>225.66666666666669</ele><time>2026-04-25T13:23:12Z</time></trkpt><trkpt lat="45.49389708838613" lon="11.196894571682117"><ele>226.33333333333334</ele><time>2026-04-25T13:23:14Z</time></trkpt><trkpt lat="45.49390623473448" lon="11.196985000502435"><ele>227.0</ele><time>2026-04-25T13:23:17Z</time></trkpt><trkpt lat="45.493948452592264" lon="11.197108872401921"><ele>227.00000000000003</ele><time>2026-04-25T13:23:19Z</time></trkpt><trkpt lat="45.49401185836726" lon="11.197214560668067"><ele>227.0</ele><time>2026-04-25T13:23:21Z</time></trkpt><trkpt lat="45.49408422790758" lon="11.197281963696183"><ele>227.0</ele><time>2026-04-25T13:23:23Z</time></trkpt><trkpt lat="45.49415187168156" lon="11.197314113692734"><ele>227.0</ele><time>2026-04-25T13:23:25Z</time></trkpt><trkpt lat="45.494241799888854" lon="11.197325236407906"><ele>227.00000000000003</ele><time>2026-04-25T13:23:27Z</time></trkpt><trkpt lat="45.49433160591699" lon="11.197303846923948"><ele>227.0</ele><time>2026-04-25T13:23:30Z</time></trkpt><trkpt lat="45.49440264284765" lon="11.197283270186736"><ele>227.0</ele><time>2026-04-25T13:23:32Z</time></trkpt><trkpt lat="45.494510004138895" lon="11.197248141868906"><ele>227.0</ele><time>2026-04-25T13:23:34Z</time></trkpt><trkpt lat="45.49460919407169" lon="11.197214119899902"><ele>227.0</ele><time>2026-04-25T13:23:36Z</time></trkpt><trkpt lat="45.49471626593468" lon="11.197171102152222"><ele>227.0</ele><time>2026-04-25T13:23:38Z</time></trkpt><trkpt lat="45.494781639315235" lon="11.197154254739816"><ele>227.0</ele><time>2026-04-25T13:23:39Z</time></trkpt><trkpt lat="45.494849857424406" lon="11.1971417190263"><ele>226.33333333333334</ele><time>2026-04-25T13:23:40Z</time></trkpt><trkpt lat="45.49491940534018" lon="11.197129692815079"><ele>225.66666666666669</ele><time>2026-04-25T13:23:41Z</time></trkpt><trkpt lat="45.49503443660883" lon="11.197108921189907"><ele>225.0</ele><time>2026-04-25T13:23:43Z</time></trkpt><trkpt lat="45.495122259983766" lon="11.197098517400029"><ele>224.33333333333331</ele><time>2026-04-25T13:23:45Z</time></trkpt><trkpt lat="45.4951845033145" lon="11.197147814440315"><ele>223.66666666666666</ele><time>2026-04-25T13:23:48Z</time></trkpt><trkpt lat="45.49515788372931" lon="11.197249455498303"><ele>223.0</ele><time>2026-04-25T13:23:50Z</time></trkpt><trkpt lat="45.49506668362609" lon="11.197327465482157"><ele>219.8</ele><time>2026-04-25T13:23:52Z</time></trkpt><trkpt lat="45.494948900364484" lon="11.197367560534694"><ele>216.60000000000002</ele><time>2026-04-25T13:23:54Z</time></trkpt><trkpt lat="45.494829133701394" lon="11.197423561880223"><ele>213.39999999999998</ele><time>2026-04-25T13:23:56Z</time></trkpt><trkpt lat="45.49475773566322" lon="11.197447429923715"><ele>210.2</ele><time>2026-04-25T13:23:57Z</time></trkpt><trkpt lat="45.494674713121626" lon="11.197485672674311"><ele>207.0</ele><time>2026-04-25T13:23:58Z</time></trkpt><trkpt lat="45.494586266641825" lon="11.197541633005311"><ele>207.0</ele><time>2026-04-25T13:23:59Z</time></trkpt><trkpt lat="45.49450223525401" lon="11.197593888663649"><ele>207.0</ele><time>2026-04-25T13:24:00Z</time></trkpt><trkpt lat="45.4944217754111" lon="11.19764117594684"><ele>207.0</ele><time>2026-04-25T13:24:01Z</time></trkpt><trkpt lat="45.49434753394661" lon="11.19768488433374"><ele>207.0</ele><time>2026-04-25T13:24:02Z</time></trkpt><trkpt lat="45.4942784810241" lon="11.197720377530066"><ele>207.0</ele><time>2026-04-25T13:24:03Z</time></trkpt><trkpt lat="45.49421890904083" lon="11.197761160999613"><ele>207.0</ele><time>2026-04-25T13:24:04Z</time></trkpt><trkpt lat="45.494145876301275" lon="11.197819331111134"><ele>207.0</ele><time>2026-04-25T13:24:05Z</time></trkpt><trkpt lat="45.49408400203887" lon="11.197856594984065"><ele>207.0</ele><time>2026-04-25T13:24:06Z</time></trkpt><trkpt lat="45.49398416427957" lon="11.197866659639292"><ele>207.0</ele><time>2026-04-25T13:24:08Z</time></trkpt><trkpt lat="45.49390634686151" lon="11.19776928599617"><ele>207.0</ele><time>2026-04-25T13:24:10Z</time></trkpt><trkpt lat="45.49383140241598" lon="11.197635375386227"><ele>207.0</ele><time>2026-04-25T13:24:12Z</time></trkpt><trkpt lat="45.49378354085324" lon="11.197511683941345"><ele>205.83333333333334</ele><time>2026-04-25T13:24:14Z</time></trkpt><trkpt lat="45.49371640001275" lon="11.19745209910429"><ele>204.66666666666669</ele><time>2026-04-25T13:24:17Z</time></trkpt><trkpt lat="45.49365563290434" lon="11.197505913688444"><ele>203.5</ele><time>2026-04-25T13:24:19Z</time></trkpt><trkpt lat="45.493673279722856" lon="11.197652930907267"><ele>202.33333333333334</ele><time>2026-04-25T13:24:21Z</time></trkpt><trkpt lat="45.49371645551883" lon="11.197730329893137"><ele>201.16666666666669</ele><time>2026-04-25T13:24:22Z</time></trkpt><trkpt lat="45.49375407757809" lon="11.197865761621257"><ele>200.0</ele><time>2026-04-25T13:24:24Z</time></trkpt><trkpt lat="45.493723268765" lon="11.1979887612979"><ele>200.00000000000003</ele><time>2026-04-25T13:24:26Z</time></trkpt><trkpt lat="45.49374547894299" lon="11.198088701668697"><ele>200.0</ele><time>2026-04-25T13:24:28Z</time></trkpt><trkpt lat="45.49379924535568" lon="11.198176509400989"><ele>200.0</ele><time>2026-04-25T13:24:30Z</time></trkpt><trkpt lat="45.49385616222013" lon="11.198249379649681"><ele>200.0</ele><time>2026-04-25T13:24:32Z</time></trkpt><trkpt lat="45.49396668411367" lon="11.198287889996786"><ele>200.00000000000003</ele><time>2026-04-25T13:24:34Z</time></trkpt><trkpt lat="45.49406706914881" lon="11.198314403358678"><ele>200.0</ele><time>2026-04-25T13:24:36Z</time></trkpt><trkpt lat="45.49419491230898" lon="11.198329604907594"><ele>197.00000000000003</ele><time>2026-04-25T13:24:38Z</time></trkpt><trkpt lat="45.494263075614604" lon="11.198346908334079"><ele>194.0</ele><time>2026-04-25T13:24:39Z</time></trkpt><trkpt lat="45.494377146095275" lon="11.19837428176974"><ele>191.0</ele><time>2026-04-25T13:24:41Z</time></trkpt><trkpt lat="45.49444621246996" lon="11.198371270830435"><ele>188.0</ele><time>2026-04-25T13:24:42Z</time></trkpt><trkpt lat="45.494512906129586" lon="11.198363194534224"><ele>185.0</ele><time>2026-04-25T13:24:43Z</time></trkpt><trkpt lat="45.49458129955414" lon="11.198381306124642"><ele>182.0</ele><time>2026-04-25T13:24:44Z</time></trkpt><trkpt lat="45.49464728528138" lon="11.198376823609879"><ele>181.83333333333331</ele><time>2026-04-25T13:24:45Z</time></trkpt><trkpt lat="45.49476711136796" lon="11.198365117711164"><ele>181.66666666666666</ele><time>2026-04-25T13:24:47Z</time></trkpt><trkpt lat="45.49483390852094" lon="11.198351348654692"><ele>181.5</ele><time>2026-04-25T13:24:48Z</time></trkpt><trkpt lat="45.49493621907124" lon="11.198317631065088"><ele>181.33333333333334</ele><time>2026-04-25T13:24:50Z</time></trkpt><trkpt lat="45.49500173033168" lon="11.19829626934472"><ele>181.16666666666669</ele><time>2026-04-25T13:24:52Z</time></trkpt><trkpt lat="45.49502033892274" lon="11.19838905120052"><ele>181.0</ele><time>2026-04-25T13:24:56Z</time></trkpt><trkpt lat="45.49495174330732" lon="11.198368282212359"><ele>181.0</ele><time>2026-04-25T13:24:57Z</time></trkpt><trkpt lat="45.494888118216934" lon="11.19837519882445"><ele>181.0</ele><time>2026-04-25T13:24:58Z</time></trkpt><trkpt lat="45.49481250453739" lon="11.198405194062952"><ele>181.0</ele><time>2026-04-25T13:24:59Z</time></trkpt><trkpt lat="45.49474828080153" lon="11.19842824451143"><ele>181.0</ele><time>2026-04-25T13:25:00Z</time></trkpt><trkpt lat="45.49462788977009" lon="11.198478186196"><ele>181.0</ele><time>2026-04-25T13:25:02Z</time></trkpt><trkpt lat="45.49456327818028" lon="11.198482974901848"><ele>181.0</ele><time>2026-04-25T13:25:03Z</time></trkpt><trkpt lat="45.494500439595825" lon="11.19850573316061"><ele>181.14285714285714</ele><time>2026-04-25T13:25:04Z</time></trkpt><trkpt lat="45.494434489345196" lon="11.198548185233184"><ele>181.28571428571428</ele><time>2026-04-25T13:25:05Z</time></trkpt><trkpt lat="45.49436611267825" lon="11.198577964627196"><ele>181.42857142857144</ele><time>2026-04-25T13:25:06Z</time></trkpt><trkpt lat="45.49429844880749" lon="11.198606051691835"><ele>181.57142857142856</ele><time>2026-04-25T13:25:07Z</time></trkpt><trkpt lat="45.49422857708252" lon="11.198628861428803"><ele>181.71428571428572</ele><time>2026-04-25T13:25:08Z</time></trkpt><trkpt lat="45.494158100570694" lon="11.19864557323752"><ele>181.85714285714286</ele><time>2026-04-25T13:25:09Z</time></trkpt><trkpt lat="45.49408248492589" lon="11.198675250762811"><ele>182.0</ele><time>2026-04-25T13:25:10Z</time></trkpt><trkpt lat="45.49400114435708" lon="11.198682590659281"><ele>182.0</ele><time>2026-04-25T13:25:11Z</time></trkpt><trkpt lat="45.49392445859208" lon="11.19867636311558"><ele>182.0</ele><time>2026-04-25T13:25:12Z</time></trkpt><trkpt lat="45.49384715626794" lon="11.198681826521044"><ele>182.0</ele><time>2026-04-25T13:25:13Z</time></trkpt><trkpt lat="45.49377292088842" lon="11.198680066242877"><ele>182.0</ele><time>2026-04-25T13:25:14Z</time></trkpt><trkpt lat="45.49370502311064" lon="11.19867129063677"><ele>182.0</ele><time>2026-04-25T13:25:15Z</time></trkpt><trkpt lat="45.49359062008651" lon="11.198630368797053"><ele>182.0</ele><time>2026-04-25T13:25:17Z</time></trkpt><trkpt lat="45.49350873480759" lon="11.19866370522247"><ele>181.16666666666666</ele><time>2026-04-25T13:25:19Z</time></trkpt><trkpt lat="45.49342148158347" lon="11.198754207540835"><ele>180.33333333333331</ele><time>2026-04-25T13:25:21Z</time></trkpt><trkpt lat="45.493366322835854" lon="11.19881192573334"><ele>179.5</ele><time>2026-04-25T13:25:22Z</time></trkpt><trkpt lat="45.49328460525046" lon="11.198875299563582"><ele>178.66666666666666</ele><time>2026-04-25T13:25:24Z</time></trkpt><trkpt lat="45.49321812699184" lon="11.198912978321687"><ele>177.83333333333334</ele><time>2026-04-25T13:25:27Z</time></trkpt><trkpt lat="45.49316196775199" lon="11.198953912791817"><ele>177.0</ele><time>2026-04-25T13:25:50Z</time></trkpt><trkpt lat="45.49314244222989" lon="11.199122673325144"><ele>175.16666666666666</ele><time>2026-04-25T13:25:53Z</time></trkpt><trkpt lat="45.49312474948513" lon="11.199224082129822"><ele>173.33333333333334</ele><time>2026-04-25T13:25:54Z</time></trkpt><trkpt lat="45.493106938999496" lon="11.199329498257413"><ele>171.5</ele><time>2026-04-25T13:25:55Z</time></trkpt><trkpt lat="45.49310192642937" lon="11.199427290499134"><ele>169.66666666666669</ele><time>2026-04-25T13:25:57Z</time></trkpt><trkpt lat="45.493153647370754" lon="11.199576731434268"><ele>167.83333333333334</ele><time>2026-04-25T13:26:10Z</time></trkpt><trkpt lat="45.49318219046159" lon="11.1996810836548"><ele>166.0</ele><time>2026-04-25T13:26:11Z</time></trkpt><trkpt lat="45.4932052144081" lon="11.199776683499477"><ele>167.33333333333334</ele><time>2026-04-25T13:26:12Z</time></trkpt><trkpt lat="45.49322118187909" lon="11.199867558070542"><ele>168.66666666666669</ele><time>2026-04-25T13:26:13Z</time></trkpt><trkpt lat="45.49322098415006" lon="11.200025631249424"><ele>170.0</ele><time>2026-04-25T13:26:15Z</time></trkpt><trkpt lat="45.493236942106385" lon="11.200149429732303"><ele>171.33333333333334</ele><time>2026-04-25T13:26:17Z</time></trkpt><trkpt lat="45.49327516915029" lon="11.200230092975783"><ele>172.66666666666666</ele><time>2026-04-25T13:26:20Z</time></trkpt><trkpt lat="45.493351565686595" lon="11.200239471687416"><ele>174.0</ele><time>2026-04-25T13:41:08Z</time></trkpt><trkpt lat="45.49332147311648" lon="11.200145830492986"><ele>174.0</ele><time>2026-04-25T13:41:12Z</time></trkpt><trkpt lat="45.493269414732694" lon="11.200076365659273"><ele>174.0</ele><time>2026-04-25T13:41:14Z</time></trkpt><trkpt lat="45.49320806558443" lon="11.199989058145587"><ele>174.0</ele><time>2026-04-25T13:41:16Z</time></trkpt><trkpt lat="45.4931382598878" lon="11.199934650235981"><ele>174.0</ele><time>2026-04-25T13:41:18Z</time></trkpt><trkpt lat="45.49306806115954" lon="11.199904644990479"><ele>174.0</ele><time>2026-04-25T13:41:20Z</time></trkpt><trkpt lat="45.49300356927159" lon="11.199876952496624"><ele>174.0</ele><time>2026-04-25T13:41:22Z</time></trkpt><trkpt lat="45.49293999451148" lon="11.199850899365142"><ele>174.0</ele><time>2026-04-25T13:41:24Z</time></trkpt><trkpt lat="45.49283499229542" lon="11.199816299037224"><ele>171.79999999999998</ele><time>2026-04-25T13:41:26Z</time></trkpt><trkpt lat="45.49271627229999" lon="11.199770720624965"><ele>169.6</ele><time>2026-04-25T13:41:27Z</time></trkpt><trkpt lat="45.492639509271065" lon="11.199743475484224"><ele>167.4</ele><time>2026-04-25T13:41:28Z</time></trkpt><trkpt lat="45.49255219938218" lon="11.199721443166291"><ele>165.2</ele><time>2026-04-25T13:41:29Z</time></trkpt><trkpt lat="45.49245552873173" lon="11.199725686775723"><ele>163.0</ele><time>2026-04-25T13:41:30Z</time></trkpt><trkpt lat="45.4923416702256" lon="11.199742952196873"><ele>163.0</ele><time>2026-04-25T13:41:31Z</time></trkpt><trkpt lat="45.492219467174316" lon="11.199775629315642"><ele>163.0</ele><time>2026-04-25T13:41:32Z</time></trkpt><trkpt lat="45.49209479697879" lon="11.199822255809671"><ele>163.0</ele><time>2026-04-25T13:41:33Z</time></trkpt><trkpt lat="45.4919674086346" lon="11.199879009454568"><ele>163.0</ele><time>2026-04-25T13:41:34Z</time></trkpt><trkpt lat="45.491837180572894" lon="11.199936353612083"><ele>164.25</ele><time>2026-04-25T13:41:35Z</time></trkpt><trkpt lat="45.491707258821" lon="11.199983734863512"><ele>165.5</ele><time>2026-04-25T13:41:36Z</time></trkpt><trkpt lat="45.49159004970123" lon="11.200034782639445"><ele>166.75</ele><time>2026-04-25T13:41:37Z</time></trkpt><trkpt lat="45.491470379959665" lon="11.20005759400184"><ele>168.0</ele><time>2026-04-25T13:41:38Z</time></trkpt><trkpt lat="45.49135197918113" lon="11.200037025678206"><ele>166.75</ele><time>2026-04-25T13:41:39Z</time></trkpt><trkpt lat="45.49123363147553" lon="11.200001298044821"><ele>165.5</ele><time>2026-04-25T13:41:40Z</time></trkpt><trkpt lat="45.491109695796226" lon="11.199968593022954"><ele>164.25</ele><time>2026-04-25T13:41:41Z</time></trkpt><trkpt lat="45.49098594252555" lon="11.199933313104106"><ele>163.0</ele><time>2026-04-25T13:41:42Z</time></trkpt><trkpt lat="45.490856922597466" lon="11.199899123498316"><ele>163.0</ele><time>2026-04-25T13:41:43Z</time></trkpt><trkpt lat="45.49072659213471" lon="11.199871313614551"><ele>163.0</ele><time>2026-04-25T13:41:44Z</time></trkpt><trkpt lat="45.49059337988078" lon="11.199846269989523"><ele>163.0</ele><time>2026-04-25T13:41:45Z</time></trkpt><trkpt lat="45.49046362335643" lon="11.199792981973221"><ele>163.0</ele><time>2026-04-25T13:41:46Z</time></trkpt><trkpt lat="45.4903291242427" lon="11.199781336716736"><ele>160.25</ele><time>2026-04-25T13:41:47Z</time></trkpt><trkpt lat="45.49020080378606" lon="11.199732670870425"><ele>157.5</ele><time>2026-04-25T13:41:48Z</time></trkpt><trkpt lat="45.49007474216563" lon="11.199676509730118"><ele>154.75</ele><time>2026-04-25T13:41:49Z</time></trkpt><trkpt lat="45.48993990225038" lon="11.199623847040078"><ele>152.0</ele><time>2026-04-25T13:41:50Z</time></trkpt><trkpt lat="45.489803363200636" lon="11.19954835421625"><ele>152.0</ele><time>2026-04-25T13:41:51Z</time></trkpt><trkpt lat="45.48965691657351" lon="11.199517222760877"><ele>152.0</ele><time>2026-04-25T13:41:52Z</time></trkpt><trkpt lat="45.48951179532355" lon="11.199502393749578"><ele>152.0</ele><time>2026-04-25T13:41:53Z</time></trkpt><trkpt lat="45.4893752214404" lon="11.199488221366888"><ele>152.0</ele><time>2026-04-25T13:41:54Z</time></trkpt><trkpt lat="45.48924214103733" lon="11.199465679547432"><ele>152.0</ele><time>2026-04-25T13:41:55Z</time></trkpt><trkpt lat="45.489116725451844" lon="11.19938454425184"><ele>152.0</ele><time>2026-04-25T13:41:56Z</time></trkpt><trkpt lat="45.48897879995109" lon="11.199360365532295"><ele>152.0</ele><time>2026-04-25T13:41:57Z</time></trkpt><trkpt lat="45.48884519383183" lon="11.199320935111299"><ele>152.0</ele><time>2026-04-25T13:41:58Z</time></trkpt><trkpt lat="45.48870595226092" lon="11.19928377359091"><ele>151.75</ele><time>2026-04-25T13:41:59Z</time></trkpt><trkpt lat="45.488564728252236" lon="11.19930419427445"><ele>151.5</ele><time>2026-04-25T13:42:00Z</time></trkpt><trkpt lat="45.48841802899416" lon="11.199282792401217"><ele>151.25</ele><time>2026-04-25T13:42:01Z</time></trkpt><trkpt lat="45.488272962133045" lon="11.199285437343027"><ele>151.0</ele><time>2026-04-25T13:42:02Z</time></trkpt><trkpt lat="45.48812883772038" lon="11.199305264249372"><ele>151.0</ele><time>2026-04-25T13:42:03Z</time></trkpt><trkpt lat="45.48798942344205" lon="11.199286350415317"><ele>151.0</ele><time>2026-04-25T13:42:04Z</time></trkpt><trkpt lat="45.487850335030444" lon="11.199253702987962"><ele>151.0</ele><time>2026-04-25T13:42:05Z</time></trkpt><trkpt lat="45.48769679177272" lon="11.199271913704449"><ele>151.0</ele><time>2026-04-25T13:42:06Z</time></trkpt><trkpt lat="45.48753830620607" lon="11.199334334258925"><ele>149.66666666666669</ele><time>2026-04-25T13:42:07Z</time></trkpt><trkpt lat="45.48737705223796" lon="11.199413898934338"><ele>148.33333333333334</ele><time>2026-04-25T13:42:08Z</time></trkpt><trkpt lat="45.487210931454264" lon="11.199488813535758"><ele>147.0</ele><time>2026-04-25T13:42:09Z</time></trkpt><trkpt lat="45.48703902130614" lon="11.199560463328215"><ele>145.0</ele><time>2026-04-25T13:42:10Z</time></trkpt><trkpt lat="45.4868680866587" lon="11.199624067443018"><ele>143.0</ele><time>2026-04-25T13:42:11Z</time></trkpt><trkpt lat="45.486696531461085" lon="11.199677310475183"><ele>141.0</ele><time>2026-04-25T13:42:12Z</time></trkpt><trkpt lat="45.486531707051846" lon="11.199715183282889"><ele>141.0</ele><time>2026-04-25T13:42:13Z</time></trkpt><trkpt lat="45.48637251609786" lon="11.19971905675922"><ele>141.0</ele><time>2026-04-25T13:42:14Z</time></trkpt><trkpt lat="45.48621708812614" lon="11.199709911696711"><ele>141.0</ele><time>2026-04-25T13:42:15Z</time></trkpt><trkpt lat="45.48607556083522" lon="11.199719955616473"><ele>140.25</ele><time>2026-04-25T13:42:16Z</time></trkpt><trkpt lat="45.48595209318296" lon="11.199710429841392"><ele>139.5</ele><time>2026-04-25T13:42:17Z</time></trkpt><trkpt lat="45.485835280675225" lon="11.199712233434187"><ele>138.75</ele><time>2026-04-25T13:42:18Z</time></trkpt><trkpt lat="45.485722618257654" lon="11.19977065778729"><ele>138.0</ele><time>2026-04-25T13:42:19Z</time></trkpt><trkpt lat="45.48560381684643" lon="11.199846887277642"><ele>138.25</ele><time>2026-04-25T13:42:20Z</time></trkpt><trkpt lat="45.48548263004786" lon="11.199927224536705"><ele>138.5</ele><time>2026-04-25T13:42:21Z</time></trkpt><trkpt lat="45.48536953315337" lon="11.200030860490505"><ele>138.75</ele><time>2026-04-25T13:42:22Z</time></trkpt><trkpt lat="45.485252780317154" lon="11.200109917526369"><ele>139.0</ele><time>2026-04-25T13:42:23Z</time></trkpt><trkpt lat="45.4851416023474" lon="11.200200392627115"><ele>139.0</ele><time>2026-04-25T13:42:24Z</time></trkpt><trkpt lat="45.48503053871445" lon="11.200293324792518"><ele>139.0</ele><time>2026-04-25T13:42:25Z</time></trkpt><trkpt lat="45.484916426986366" lon="11.20037641543602"><ele>139.0</ele><time>2026-04-25T13:42:26Z</time></trkpt><trkpt lat="45.48479842276319" lon="11.200445858573977"><ele>139.0</ele><time>2026-04-25T13:42:27Z</time></trkpt><trkpt lat="45.48468130476749" lon="11.200506774279235"><ele>138.0</ele><time>2026-04-25T13:42:28Z</time></trkpt><trkpt lat="45.484561468863554" lon="11.200562073261649"><ele>137.0</ele><time>2026-04-25T13:42:29Z</time></trkpt><trkpt lat="45.48445793612274" lon="11.200678771624089"><ele>136.0</ele><time>2026-04-25T13:42:30Z</time></trkpt><trkpt lat="45.484334966093066" lon="11.200773649661784"><ele>135.0</ele><time>2026-04-25T13:42:31Z</time></trkpt><trkpt lat="45.48421322845802" lon="11.20090809048332"><ele>135.0</ele><time>2026-04-25T13:42:32Z</time></trkpt><trkpt lat="45.4840923677317" lon="11.201071037540714"><ele>135.0</ele><time>2026-04-25T13:42:33Z</time></trkpt><trkpt lat="45.483977591668264" lon="11.201251819188128"><ele>135.0</ele><time>2026-04-25T13:42:34Z</time></trkpt><trkpt lat="45.48387380825894" lon="11.201425783544456"><ele>135.25</ele><time>2026-04-25T13:42:35Z</time></trkpt><trkpt lat="45.48378252798809" lon="11.20157825418638"><ele>135.5</ele><time>2026-04-25T13:42:36Z</time></trkpt><trkpt lat="45.48369510225389" lon="11.201711121001305"><ele>135.75</ele><time>2026-04-25T13:42:37Z</time></trkpt><trkpt lat="45.48361766054085" lon="11.20183153896988"><ele>136.0</ele><time>2026-04-25T13:42:38Z</time></trkpt><trkpt lat="45.4835319005671" lon="11.201898292675105"><ele>136.0</ele><time>2026-04-25T13:42:39Z</time></trkpt><trkpt lat="45.48344962180199" lon="11.201914507353537"><ele>136.0</ele><time>2026-04-25T13:42:40Z</time></trkpt><trkpt lat="45.483372771762056" lon="11.201847375562176"><ele>136.0</ele><time>2026-04-25T13:42:42Z</time></trkpt><trkpt lat="45.48335031072163" lon="11.201672761808753"><ele>136.0</ele><time>2026-04-25T13:42:44Z</time></trkpt><trkpt lat="45.48333040825779" lon="11.201554245745717"><ele>136.0</ele><time>2026-04-25T13:42:45Z</time></trkpt><trkpt lat="45.48330246507674" lon="11.201423464518312"><ele>135.0</ele><time>2026-04-25T13:42:46Z</time></trkpt><trkpt lat="45.48326996277019" lon="11.201280707352426"><ele>134.0</ele><time>2026-04-25T13:42:47Z</time></trkpt><trkpt lat="45.48323286370845" lon="11.201119799325607"><ele>133.0</ele><time>2026-04-25T13:42:48Z</time></trkpt><trkpt lat="45.48319072707919" lon="11.200949599048208"><ele>132.0</ele><time>2026-04-25T13:42:49Z</time></trkpt><trkpt lat="45.48314136772203" lon="11.20077180786237"><ele>131.25</ele><time>2026-04-25T13:42:50Z</time></trkpt><trkpt lat="45.48308658972297" lon="11.200583911504815"><ele>130.5</ele><time>2026-04-25T13:42:51Z</time></trkpt><trkpt lat="45.483026865059436" lon="11.200388221428593"><ele>129.75</ele><time>2026-04-25T13:42:52Z</time></trkpt><trkpt lat="45.48296113481103" lon="11.200193881837746"><ele>129.0</ele><time>2026-04-25T13:42:53Z</time></trkpt><trkpt lat="45.48289731816263" lon="11.199999537646685"><ele>128.5</ele><time>2026-04-25T13:42:54Z</time></trkpt><trkpt lat="45.48283391779495" lon="11.199809936633695"><ele>128.0</ele><time>2026-04-25T13:42:55Z</time></trkpt><trkpt lat="45.48277102397843" lon="11.199640077831642"><ele>127.5</ele><time>2026-04-25T13:42:56Z</time></trkpt><trkpt lat="45.48270255146826" lon="11.199502236623262"><ele>127.0</ele><time>2026-04-25T13:42:57Z</time></trkpt><trkpt lat="45.482642597777975" lon="11.199387884886855"><ele>127.0</ele><time>2026-04-25T13:42:58Z</time></trkpt><trkpt lat="45.48255584800225" lon="11.199314000341246"><ele>127.0</ele><time>2026-04-25T13:42:59Z</time></trkpt><trkpt lat="45.48244041451405" lon="11.199278115889655"><ele>127.0</ele><time>2026-04-25T13:43:00Z</time></trkpt><trkpt lat="45.48230621621654" lon="11.199276281280925"><ele>127.0</ele><time>2026-04-25T13:43:01Z</time></trkpt><trkpt lat="45.48215363726343" lon="11.199297059158187"><ele>126.33333333333334</ele><time>2026-04-25T13:43:02Z</time></trkpt><trkpt lat="45.48198034332283" lon="11.199328609874778"><ele>125.66666666666666</ele><time>2026-04-25T13:43:03Z</time></trkpt><trkpt lat="45.481808920701575" lon="11.19936187121982"><ele>125.0</ele><time>2026-04-25T13:43:04Z</time></trkpt><trkpt lat="45.4816569056385" lon="11.199391366891993"><ele>125.0</ele><time>2026-04-25T13:43:05Z</time></trkpt><trkpt lat="45.48151545927108" lon="11.19941899729505"><ele>125.0</ele><time>2026-04-25T13:43:06Z</time></trkpt><trkpt lat="45.48138617735176" lon="11.199445234316046"><ele>125.0</ele><time>2026-04-25T13:43:07Z</time></trkpt><trkpt lat="45.48127216156334" lon="11.199468747785053"><ele>125.0</ele><time>2026-04-25T13:43:08Z</time></trkpt><trkpt lat="45.481171850720145" lon="11.19949161542477"><ele>124.83333333333333</ele><time>2026-04-25T13:43:09Z</time></trkpt><trkpt lat="45.481090692863845" lon="11.199513579201202"><ele>124.66666666666666</ele><time>2026-04-25T13:43:10Z</time></trkpt><trkpt lat="45.481003845341775" lon="11.19949845581555"><ele>124.5</ele><time>2026-04-25T13:43:12Z</time></trkpt><trkpt lat="45.48100005252095" lon="11.199371173884522"><ele>124.33333333333334</ele><time>2026-04-25T13:43:15Z</time></trkpt><trkpt lat="45.481022210360884" lon="11.199284046508396"><ele>124.16666666666667</ele><time>2026-04-25T13:43:17Z</time></trkpt><trkpt lat="45.48104088095511" lon="11.199157934030906"><ele>124.0</ele><time>2026-04-25T13:43:19Z</time></trkpt><trkpt lat="45.4810676415234" lon="11.198958195329679"><ele>124.5</ele><time>2026-04-25T13:43:21Z</time></trkpt><trkpt lat="45.481086239951566" lon="11.198819602758432"><ele>125.0</ele><time>2026-04-25T13:43:22Z</time></trkpt><trkpt lat="45.48111429293152" lon="11.198643066620289"><ele>125.5</ele><time>2026-04-25T13:43:23Z</time></trkpt><trkpt lat="45.48114468318759" lon="11.198444464515772"><ele>126.0</ele><time>2026-04-25T13:43:24Z</time></trkpt><trkpt lat="45.48117411071632" lon="11.198239744456814"><ele>127.8</ele><time>2026-04-25T13:43:25Z</time></trkpt><trkpt lat="45.48120111941831" lon="11.198056387657054"><ele>129.6</ele><time>2026-04-25T13:43:26Z</time></trkpt><trkpt lat="45.481229296793096" lon="11.197907373763138"><ele>131.4</ele><time>2026-04-25T13:43:27Z</time></trkpt><trkpt lat="45.48124680186125" lon="11.197782925912843"><ele>133.2</ele><time>2026-04-25T13:43:28Z</time></trkpt><trkpt lat="45.48124446128577" lon="11.197674640287515"><ele>135.0</ele><time>2026-04-25T13:43:29Z</time></trkpt><trkpt lat="45.48122390634396" lon="11.197578314527842"><ele>135.0</ele><time>2026-04-25T13:43:30Z</time></trkpt><trkpt lat="45.48118505487688" lon="11.197502441320266"><ele>135.0</ele><time>2026-04-25T13:43:31Z</time></trkpt><trkpt lat="45.48112993253041" lon="11.19742133549701"><ele>135.0</ele><time>2026-04-25T13:43:32Z</time></trkpt><trkpt lat="45.481033767818374" lon="11.197346697851126"><ele>135.0</ele><time>2026-04-25T13:43:33Z</time></trkpt><trkpt lat="45.480910975756515" lon="11.197295313916559"><ele>135.0</ele><time>2026-04-25T13:43:34Z</time></trkpt><trkpt lat="45.48079325448725" lon="11.197266935997169"><ele>137.66666666666666</ele><time>2026-04-25T13:43:35Z</time></trkpt><trkpt lat="45.48069627307973" lon="11.197252656226278"><ele>140.33333333333334</ele><time>2026-04-25T13:43:36Z</time></trkpt><trkpt lat="45.48061458874885" lon="11.197243380333424"><ele>143.0</ele><time>2026-04-25T13:43:37Z</time></trkpt><trkpt lat="45.480547638701765" lon="11.197242031792273"><ele>145.66666666666669</ele><time>2026-04-25T13:43:38Z</time></trkpt><trkpt lat="45.480476246417595" lon="11.19724651145586"><ele>148.33333333333334</ele><time>2026-04-25T13:43:40Z</time></trkpt><trkpt lat="45.480385336824725" lon="11.197261360959452"><ele>151.0</ele><time>2026-04-25T13:44:24Z</time></trkpt><trkpt lat="45.480309030672835" lon="11.197279727519541"><ele>151.5</ele><time>2026-04-25T13:44:25Z</time></trkpt><trkpt lat="45.48021918886007" lon="11.197288715884131"><ele>152.0</ele><time>2026-04-25T13:44:26Z</time></trkpt><trkpt lat="45.48012488653838" lon="11.197290092170416"><ele>152.5</ele><time>2026-04-25T13:44:27Z</time></trkpt><trkpt lat="45.48005007041089" lon="11.197261527541878"><ele>153.0</ele><time>2026-04-25T13:44:28Z</time></trkpt><trkpt lat="45.48000822077176" lon="11.197124767433023"><ele>153.5</ele><time>2026-04-25T13:44:30Z</time></trkpt><trkpt lat="45.4800547832025" lon="11.197062727452401"><ele>154.0</ele><time>2026-04-25T13:44:31Z</time></trkpt><trkpt lat="45.480152767739106" lon="11.197069691038557"><ele>154.0</ele><time>2026-04-25T13:44:32Z</time></trkpt><trkpt lat="45.48027667117144" lon="11.197035498170818"><ele>154.0</ele><time>2026-04-25T13:44:33Z</time></trkpt><trkpt lat="45.480437867605836" lon="11.196959739510524"><ele>154.0</ele><time>2026-04-25T13:44:34Z</time></trkpt><trkpt lat="45.48063742740449" lon="11.196884237755024"><ele>153.0</ele><time>2026-04-25T13:44:35Z</time></trkpt><trkpt lat="45.480835265813354" lon="11.196802631437292"><ele>152.0</ele><time>2026-04-25T13:44:36Z</time></trkpt><trkpt lat="45.48103328273173" lon="11.196729988566215"><ele>151.0</ele><time>2026-04-25T13:44:37Z</time></trkpt><trkpt lat="45.48127567050468" lon="11.196671962269855"><ele>150.66666666666669</ele><time>2026-04-25T13:44:38Z</time></trkpt><trkpt lat="45.48151176566697" lon="11.196669622743553"><ele>150.33333333333334</ele><time>2026-04-25T13:44:39Z</time></trkpt><trkpt lat="45.481710742208264" lon="11.19666372232074"><ele>150.0</ele><time>2026-04-25T13:44:40Z</time></trkpt><trkpt lat="45.48188979318984" lon="11.196662835605421"><ele>150.0</ele><time>2026-04-25T13:44:41Z</time></trkpt><trkpt lat="45.48205812344096" lon="11.196653371843576"><ele>150.0</ele><time>2026-04-25T13:44:42Z</time></trkpt><trkpt lat="45.48221061215518" lon="11.19662872014015"><ele>150.0</ele><time>2026-04-25T13:44:43Z</time></trkpt><trkpt lat="45.48240916620436" lon="11.196554383432812"><ele>150.75</ele><time>2026-04-25T13:44:44Z</time></trkpt><trkpt lat="45.48254775753992" lon="11.196303275686999"><ele>151.5</ele><time>2026-04-25T13:44:45Z</time></trkpt><trkpt lat="45.482509814122444" lon="11.196514517579077"><ele>152.25</ele><time>2026-04-25T13:44:46Z</time></trkpt><trkpt lat="45.48254497712091" lon="11.1964353368999"><ele>153.0</ele><time>2026-04-25T13:44:47Z</time></trkpt><trkpt lat="45.48254957782357" lon="11.196326452074477"><ele>156.2</ele><time>2026-04-25T13:44:48Z</time></trkpt><trkpt lat="45.482508693511384" lon="11.196213200630309"><ele>159.4</ele><time>2026-04-25T13:44:49Z</time></trkpt><trkpt lat="45.48243489832701" lon="11.196142571726572"><ele>162.6</ele><time>2026-04-25T13:44:50Z</time></trkpt><trkpt lat="45.48232525972461" lon="11.196119061483106"><ele>165.79999999999998</ele><time>2026-04-25T13:44:51Z</time></trkpt><trkpt lat="45.48219667142553" lon="11.196121565988808"><ele>169.0</ele><time>2026-04-25T13:44:52Z</time></trkpt><trkpt lat="45.48204817249777" lon="11.196118344291074"><ele>170.0</ele><time>2026-04-25T13:44:53Z</time></trkpt><trkpt lat="45.48188035779672" lon="11.196103825742638"><ele>171.0</ele><time>2026-04-25T13:44:54Z</time></trkpt><trkpt lat="45.481678973173324" lon="11.196076013918443"><ele>172.0</ele><time>2026-04-25T13:44:55Z</time></trkpt><trkpt lat="45.48143562072472" lon="11.196073140861722"><ele>175.5</ele><time>2026-04-25T13:44:56Z</time></trkpt><trkpt lat="45.481158048638655" lon="11.196113121219714"><ele>179.0</ele><time>2026-04-25T13:44:57Z</time></trkpt><trkpt lat="45.48090664170091" lon="11.19615864133306"><ele>179.0</ele><time>2026-04-25T13:44:58Z</time></trkpt><trkpt lat="45.48068853152624" lon="11.196178272576171"><ele>179.0</ele><time>2026-04-25T13:44:59Z</time></trkpt><trkpt lat="45.48044022527104" lon="11.196170251118584"><ele>180.33333333333331</ele><time>2026-04-25T13:45:00Z</time></trkpt><trkpt lat="45.48020132654963" lon="11.196174046550365"><ele>181.66666666666666</ele><time>2026-04-25T13:45:01Z</time></trkpt><trkpt lat="45.47999170130246" lon="11.196170395406284"><ele>183.0</ele><time>2026-04-25T13:45:02Z</time></trkpt><trkpt lat="45.479785928012646" lon="11.19615508998945"><ele>182.0</ele><time>2026-04-25T13:45:03Z</time></trkpt><trkpt lat="45.4795788246011" lon="11.196127194611446"><ele>181.0</ele><time>2026-04-25T13:45:04Z</time></trkpt><trkpt lat="45.47936604897754" lon="11.1960794322461"><ele>180.0</ele><time>2026-04-25T13:45:05Z</time></trkpt><trkpt lat="45.47913659034923" lon="11.196002198266424"><ele>180.0</ele><time>2026-04-25T13:45:06Z</time></trkpt><trkpt lat="45.478915779920534" lon="11.195900902632062"><ele>180.0</ele><time>2026-04-25T13:45:07Z</time></trkpt><trkpt lat="45.47873532503407" lon="11.195806546184519"><ele>180.0</ele><time>2026-04-25T13:45:08Z</time></trkpt><trkpt lat="45.478592684465774" lon="11.195755516946798"><ele>180.33333333333334</ele><time>2026-04-25T13:45:09Z</time></trkpt><trkpt lat="45.47845425414369" lon="11.195750937770654"><ele>180.66666666666669</ele><time>2026-04-25T13:45:10Z</time></trkpt><trkpt lat="45.47827303588557" lon="11.195787286544205"><ele>181.0</ele><time>2026-04-25T13:45:11Z</time></trkpt><trkpt lat="45.47804163880355" lon="11.19583328912879"><ele>183.5</ele><time>2026-04-25T13:45:12Z</time></trkpt><trkpt lat="45.477772222779485" lon="11.195888706378971"><ele>186.0</ele><time>2026-04-25T13:45:13Z</time></trkpt><trkpt lat="45.477478689480186" lon="11.195923112440553"><ele>186.0</ele><time>2026-04-25T13:45:14Z</time></trkpt><trkpt lat="45.477155877393926" lon="11.19594685676464"><ele>186.0</ele><time>2026-04-25T13:45:15Z</time></trkpt><trkpt lat="45.47691859873703" lon="11.19596905959956"><ele>188.0</ele><time>2026-04-25T13:45:16Z</time></trkpt><trkpt lat="45.47674661204822" lon="11.195992060218014"><ele>190.0</ele><time>2026-04-25T13:45:17Z</time></trkpt><trkpt lat="45.47662237835129" lon="11.196009143031727"><ele>192.0</ele><time>2026-04-25T13:45:18Z</time></trkpt><trkpt lat="45.476533161404674" lon="11.196021727866052"><ele>194.0</ele><time>2026-04-25T13:45:19Z</time></trkpt><trkpt lat="45.47646273064034" lon="11.196033491492166"><ele>194.0</ele><time>2026-04-25T13:45:20Z</time></trkpt><trkpt lat="45.47641356789309" lon="11.195947312739824"><ele>194.0</ele><time>2026-04-25T13:45:22Z</time></trkpt><trkpt lat="45.47653987012135" lon="11.19589400072678"><ele>194.0</ele><time>2026-04-25T13:45:24Z</time></trkpt><trkpt lat="45.476669664307444" lon="11.195839849765186"><ele>194.0</ele><time>2026-04-25T13:45:25Z</time></trkpt><trkpt lat="45.47683126528051" lon="11.195810165979518"><ele>194.0</ele><time>2026-04-25T13:45:26Z</time></trkpt><trkpt lat="45.47705984225113" lon="11.195740023016699"><ele>194.0</ele><time>2026-04-25T13:45:27Z</time></trkpt><trkpt lat="45.47731576211427" lon="11.19561569982595"><ele>202.0</ele><time>2026-04-25T13:45:28Z</time></trkpt><trkpt lat="45.47759761642464" lon="11.195494463020319"><ele>210.0</ele><time>2026-04-25T13:45:29Z</time></trkpt><trkpt lat="45.477876411756924" lon="11.19535987563684"><ele>206.5</ele><time>2026-04-25T13:45:30Z</time></trkpt><trkpt lat="45.47813458933687" lon="11.195212252234754"><ele>203.0</ele><time>2026-04-25T13:45:31Z</time></trkpt><trkpt lat="45.478350683569694" lon="11.195113235500445"><ele>203.0</ele><time>2026-04-25T13:45:32Z</time></trkpt><trkpt lat="45.47851748840957" lon="11.195033958641762"><ele>203.0</ele><time>2026-04-25T13:45:33Z</time></trkpt><trkpt lat="45.478760899442385" lon="11.19509151982156"><ele>203.0</ele><time>2026-04-25T13:45:34Z</time></trkpt><trkpt lat="45.47891906824737" lon="11.19489449090016"><ele>203.2</ele><time>2026-04-25T13:45:35Z</time></trkpt><trkpt lat="45.47885684639588" lon="11.19493589217623"><ele>203.4</ele><time>2026-04-25T13:45:36Z</time></trkpt><trkpt lat="45.478915433718065" lon="11.194865984325558"><ele>203.6</ele><time>2026-04-25T13:45:37Z</time></trkpt><trkpt lat="45.47888775890114" lon="11.194686833027795"><ele>203.79999999999998</ele><time>2026-04-25T13:45:39Z</time></trkpt><trkpt lat="45.47882412579062" lon="11.194599167942693"><ele>204.0</ele><time>2026-04-25T13:45:40Z</time></trkpt><trkpt lat="45.478722584760234" lon="11.194513538998159"><ele>207.33333333333331</ele><time>2026-04-25T13:45:41Z</time></trkpt><trkpt lat="45.47862953754165" lon="11.19436316661128"><ele>210.66666666666666</ele><time>2026-04-25T13:45:42Z</time></trkpt><trkpt lat="45.47853154473397" lon="11.194200926091836"><ele>214.0</ele><time>2026-04-25T13:45:43Z</time></trkpt><trkpt lat="45.478436254399206" lon="11.194011681204344"><ele>214.2</ele><time>2026-04-25T13:45:44Z</time></trkpt><trkpt lat="45.47835644963901" lon="11.19384219493567"><ele>214.39999999999998</ele><time>2026-04-25T13:45:45Z</time></trkpt><trkpt lat="45.4783281279417" lon="11.193687284473508"><ele>214.6</ele><time>2026-04-25T13:45:46Z</time></trkpt><trkpt lat="45.478318625811795" lon="11.19356929536539"><ele>214.8</ele><time>2026-04-25T13:45:47Z</time></trkpt><trkpt lat="45.47831210382257" lon="11.19346701412594"><ele>215.0</ele><time>2026-04-25T13:45:48Z</time></trkpt><trkpt lat="45.47830650033253" lon="11.193312788297389"><ele>215.0</ele><time>2026-04-25T13:45:50Z</time></trkpt><trkpt lat="45.47829049159779" lon="11.193217932985897"><ele>215.0</ele><time>2026-04-25T13:45:52Z</time></trkpt><trkpt lat="45.4783098555464" lon="11.19338493040071"><ele>215.0</ele><time>2026-04-25T13:47:12Z</time></trkpt><trkpt lat="45.47821543278439" lon="11.193519125838813"><ele>215.0</ele><time>2026-04-25T13:47:13Z</time></trkpt><trkpt lat="45.478216971356666" lon="11.193630770964392"><ele>215.0</ele><time>2026-04-25T13:47:14Z</time></trkpt><trkpt lat="45.478253904538434" lon="11.193772529066308"><ele>215.0</ele><time>2026-04-25T13:47:16Z</time></trkpt><trkpt lat="45.47821681885381" lon="11.1938563658987"><ele>215.0</ele><time>2026-04-25T13:47:18Z</time></trkpt><trkpt lat="45.478098585984725" lon="11.193854735526243"><ele>215.0</ele><time>2026-04-25T13:47:26Z</time></trkpt><trkpt lat="45.47798509948484" lon="11.19391558051746"><ele>215.0</ele><time>2026-04-25T13:47:28Z</time></trkpt><trkpt lat="45.47787228185986" lon="11.193910794621216"><ele>215.0</ele><time>2026-04-25T13:47:30Z</time></trkpt><trkpt lat="45.47777310896199" lon="11.193889110443115"><ele>215.2</ele><time>2026-04-25T13:47:32Z</time></trkpt><trkpt lat="45.477651350382246" lon="11.193926865804103"><ele>215.4</ele><time>2026-04-25T13:47:34Z</time></trkpt><trkpt lat="45.47758034353214" lon="11.19401180139664"><ele>215.60000000000002</ele><time>2026-04-25T13:47:35Z</time></trkpt><trkpt lat="45.47749603887742" lon="11.194105344711488"><ele>215.8</ele><time>2026-04-25T13:47:36Z</time></trkpt><trkpt lat="45.47740672684722" lon="11.1942027078313"><ele>216.0</ele><time>2026-04-25T13:47:37Z</time></trkpt><trkpt lat="45.477323210896" lon="11.194290932833233"><ele>216.8</ele><time>2026-04-25T13:47:38Z</time></trkpt><trkpt lat="45.47723726046677" lon="11.19436743630007"><ele>217.60000000000002</ele><time>2026-04-25T13:47:39Z</time></trkpt><trkpt lat="45.47715287007635" lon="11.194435327509499"><ele>218.4</ele><time>2026-04-25T13:47:40Z</time></trkpt><trkpt lat="45.477062636588684" lon="11.19449737526236"><ele>219.2</ele><time>2026-04-25T13:47:41Z</time></trkpt><trkpt lat="45.47696889757333" lon="11.194550254103486"><ele>220.0</ele><time>2026-04-25T13:47:42Z</time></trkpt><trkpt lat="45.47689006889668" lon="11.194585715295384"><ele>223.2</ele><time>2026-04-25T13:47:43Z</time></trkpt><trkpt lat="45.47677152068349" lon="11.194627325717448"><ele>226.4</ele><time>2026-04-25T13:47:45Z</time></trkpt><trkpt lat="45.47665110432496" lon="11.194670870985776"><ele>229.60000000000002</ele><time>2026-04-25T13:47:47Z</time></trkpt><trkpt lat="45.47658051992735" lon="11.194679650601561"><ele>232.8</ele><time>2026-04-25T13:47:48Z</time></trkpt><trkpt lat="45.476509158219216" lon="11.194671201492959"><ele>236.0</ele><time>2026-04-25T13:47:49Z</time></trkpt><trkpt lat="45.47643943124092" lon="11.194673417468547"><ele>236.0</ele><time>2026-04-25T13:47:50Z</time></trkpt><trkpt lat="45.476368265383734" lon="11.194681875111277"><ele>236.0</ele><time>2026-04-25T13:47:51Z</time></trkpt><trkpt lat="45.47629217941731" lon="11.194690917478876"><ele>236.0</ele><time>2026-04-25T13:47:52Z</time></trkpt><trkpt lat="45.47621927446056" lon="11.194698803144396"><ele>236.0</ele><time>2026-04-25T13:47:53Z</time></trkpt><trkpt lat="45.4761483927613" lon="11.194705377804608"><ele>236.0</ele><time>2026-04-25T13:47:54Z</time></trkpt><trkpt lat="45.476077482241344" lon="11.19471190769374"><ele>236.0</ele><time>2026-04-25T13:47:55Z</time></trkpt><trkpt lat="45.476008674679754" lon="11.194712618673858"><ele>236.0</ele><time>2026-04-25T13:47:56Z</time></trkpt><trkpt lat="45.475929569564066" lon="11.194713266098299"><ele>236.50000000000003</ele><time>2026-04-25T13:47:57Z</time></trkpt><trkpt lat="45.47584894461524" lon="11.194730552385431"><ele>237.0</ele><time>2026-04-25T13:47:58Z</time></trkpt><trkpt lat="45.475768651732054" lon="11.194718289926989"><ele>237.5</ele><time>2026-04-25T13:47:59Z</time></trkpt><trkpt lat="45.47568718630368" lon="11.194705708117429"><ele>238.0</ele><time>2026-04-25T13:48:00Z</time></trkpt><trkpt lat="45.47560280252646" lon="11.194683184064742"><ele>238.50000000000003</ele><time>2026-04-25T13:48:01Z</time></trkpt><trkpt lat="45.47552228351982" lon="11.194626304346407"><ele>239.0</ele><time>2026-04-25T13:48:02Z</time></trkpt><trkpt lat="45.47543767071264" lon="11.194584645649893"><ele>239.0</ele><time>2026-04-25T13:48:03Z</time></trkpt><trkpt lat="45.475343616489305" lon="11.194559569090432"><ele>238.99999999999997</ele><time>2026-04-25T13:48:04Z</time></trkpt><trkpt lat="45.47526541649914" lon="11.194488770534285"><ele>238.99999999999997</ele><time>2026-04-25T13:48:05Z</time></trkpt><trkpt lat="45.475177427950904" lon="11.194437392953489"><ele>239.0</ele><time>2026-04-25T13:48:06Z</time></trkpt><trkpt lat="45.47508444282246" lon="11.1944071877826"><ele>239.0</ele><time>2026-04-25T13:48:07Z</time></trkpt><trkpt lat="45.47498198538299" lon="11.194351389686991"><ele>239.0</ele><time>2026-04-25T13:48:08Z</time></trkpt><trkpt lat="45.47486564752599" lon="11.194288135648232"><ele>238.99999999999997</ele><time>2026-04-25T13:48:09Z</time></trkpt><trkpt lat="45.47475743231819" lon="11.194226943163809"><ele>238.99999999999997</ele><time>2026-04-25T13:48:11Z</time></trkpt><trkpt lat="45.47467234838427" lon="11.194194200177261"><ele>239.0</ele><time>2026-04-25T13:48:12Z</time></trkpt><trkpt lat="45.474580319048805" lon="11.194153500152435"><ele>239.0</ele><time>2026-04-25T13:48:13Z</time></trkpt><trkpt lat="45.474494156845005" lon="11.194103001644143"><ele>239.0</ele><time>2026-04-25T13:48:14Z</time></trkpt><trkpt lat="45.474406666564896" lon="11.194069222446599"><ele>238.99999999999997</ele><time>2026-04-25T13:48:15Z</time></trkpt><trkpt lat="45.474315014936934" lon="11.194038886149686"><ele>238.99999999999997</ele><time>2026-04-25T13:48:16Z</time></trkpt><trkpt lat="45.47422740096586" lon="11.193974706743129"><ele>239.0</ele><time>2026-04-25T13:48:17Z</time></trkpt><trkpt lat="45.47413218426249" lon="11.19395865014803"><ele>239.0</ele><time>2026-04-25T13:48:18Z</time></trkpt><trkpt lat="45.47404322662206" lon="11.193916196324253"><ele>239.6</ele><time>2026-04-25T13:48:19Z</time></trkpt><trkpt lat="45.47394433351253" lon="11.193877398267263"><ele>240.2</ele><time>2026-04-25T13:48:20Z</time></trkpt><trkpt lat="45.47384118781102" lon="11.193853464085667"><ele>240.79999999999998</ele><time>2026-04-25T13:48:21Z</time></trkpt><trkpt lat="45.473739209179676" lon="11.19380413209256"><ele>241.39999999999998</ele><time>2026-04-25T13:48:22Z</time></trkpt><trkpt lat="45.47363479183654" lon="11.193781183050005"><ele>242.0</ele><time>2026-04-25T13:48:23Z</time></trkpt><trkpt lat="45.47355218121989" lon="11.193767863601293"><ele>242.0</ele><time>2026-04-25T13:48:24Z</time></trkpt><trkpt lat="45.47346637622143" lon="11.19376178471122"><ele>242.0</ele><time>2026-04-25T13:48:25Z</time></trkpt><trkpt lat="45.473375522977165" lon="11.193758502913244"><ele>242.0</ele><time>2026-04-25T13:48:26Z</time></trkpt><trkpt lat="45.47327399305448" lon="11.193753515754556"><ele>242.0</ele><time>2026-04-25T13:48:27Z</time></trkpt><trkpt lat="45.47317009498102" lon="11.19374725624734"><ele>242.0</ele><time>2026-04-25T13:48:28Z</time></trkpt><trkpt lat="45.473058196766694" lon="11.19374051375375"><ele>242.0</ele><time>2026-04-25T13:48:29Z</time></trkpt><trkpt lat="45.47294703425929" lon="11.19373398450872"><ele>242.0</ele><time>2026-04-25T13:48:30Z</time></trkpt><trkpt lat="45.47285330885558" lon="11.193724059476043"><ele>242.0</ele><time>2026-04-25T13:48:31Z</time></trkpt><trkpt lat="45.47274777692991" lon="11.193706701049734"><ele>242.0</ele><time>2026-04-25T13:48:32Z</time></trkpt><trkpt lat="45.47264585755588" lon="11.193705480826923"><ele>242.0</ele><time>2026-04-25T13:48:33Z</time></trkpt><trkpt lat="45.47254432509799" lon="11.193682354841176"><ele>244.00000000000003</ele><time>2026-04-25T13:48:34Z</time></trkpt><trkpt lat="45.47244188881217" lon="11.193653572824783"><ele>246.0</ele><time>2026-04-25T13:48:35Z</time></trkpt><trkpt lat="45.472358800378345" lon="11.193632757848597"><ele>248.0</ele><time>2026-04-25T13:48:36Z</time></trkpt><trkpt lat="45.472290386429805" lon="11.193621419380916"><ele>250.0</ele><time>2026-04-25T13:48:37Z</time></trkpt><trkpt lat="45.47222585376614" lon="11.1936069048493"><ele>252.00000000000003</ele><time>2026-04-25T13:48:38Z</time></trkpt><trkpt lat="45.47215632954464" lon="11.193600484104932"><ele>254.0</ele><time>2026-04-25T13:48:39Z</time></trkpt><trkpt lat="45.47209020552657" lon="11.193597913849404"><ele>256.0</ele><time>2026-04-25T13:48:40Z</time></trkpt><trkpt lat="45.472027243025714" lon="11.193601443225074"><ele>258.0</ele><time>2026-04-25T13:48:41Z</time></trkpt><trkpt lat="45.47195643928179" lon="11.193603787033593"><ele>260.0</ele><time>2026-04-25T13:48:42Z</time></trkpt><trkpt lat="45.47188647760297" lon="11.193611916913264"><ele>262.0</ele><time>2026-04-25T13:48:43Z</time></trkpt><trkpt lat="45.47181517509562" lon="11.193595869648881"><ele>264.0</ele><time>2026-04-25T13:48:44Z</time></trkpt><trkpt lat="45.471735734031064" lon="11.193615457414966"><ele>266.0</ele><time>2026-04-25T13:48:45Z</time></trkpt><trkpt lat="45.47165671442496" lon="11.193601286950742"><ele>268.0</ele><time>2026-04-25T13:48:46Z</time></trkpt><trkpt lat="45.471575309512474" lon="11.193602780296375"><ele>268.0</ele><time>2026-04-25T13:48:47Z</time></trkpt><trkpt lat="45.47150091956064" lon="11.193617022785215"><ele>268.0</ele><time>2026-04-25T13:48:48Z</time></trkpt><trkpt lat="45.47142117060927" lon="11.193654140512496"><ele>268.0</ele><time>2026-04-25T13:48:49Z</time></trkpt><trkpt lat="45.47133837131771" lon="11.193704359727553"><ele>268.0</ele><time>2026-04-25T13:48:50Z</time></trkpt><trkpt lat="45.47124883701627" lon="11.193762534564131"><ele>268.0</ele><time>2026-04-25T13:48:51Z</time></trkpt><trkpt lat="45.47115381846184" lon="11.19382045005116"><ele>270.0</ele><time>2026-04-25T13:48:52Z</time></trkpt><trkpt lat="45.47105343770622" lon="11.193878906855764"><ele>272.0</ele><time>2026-04-25T13:48:53Z</time></trkpt><trkpt lat="45.4709549722529" lon="11.193931592222448"><ele>274.0</ele><time>2026-04-25T13:48:54Z</time></trkpt><trkpt lat="45.47086067988019" lon="11.193979945474299"><ele>276.0</ele><time>2026-04-25T13:48:55Z</time></trkpt><trkpt lat="45.47076548576259" lon="11.19401997832884"><ele>278.0</ele><time>2026-04-25T13:48:56Z</time></trkpt><trkpt lat="45.47066671266014" lon="11.194064164057624"><ele>278.0</ele><time>2026-04-25T13:48:57Z</time></trkpt><trkpt lat="45.470602808629" lon="11.194117060594015"><ele>278.0</ele><time>2026-04-25T13:48:58Z</time></trkpt><trkpt lat="45.470507152592795" lon="11.194194503026448"><ele>278.0</ele><time>2026-04-25T13:49:00Z</time></trkpt><trkpt lat="45.47042512515848" lon="11.194267500088701"><ele>278.0</ele><time>2026-04-25T13:49:02Z</time></trkpt><trkpt lat="45.47033762568858" lon="11.194377537813152"><ele>278.0</ele><time>2026-04-25T13:49:04Z</time></trkpt><trkpt lat="45.470237280519655" lon="11.194461912006947"><ele>282.0</ele><time>2026-04-25T13:49:06Z</time></trkpt><trkpt lat="45.470139380098686" lon="11.194538337465325"><ele>286.0</ele><time>2026-04-25T13:49:08Z</time></trkpt><trkpt lat="45.47005264943555" lon="11.194616478978391"><ele>290.0</ele><time>2026-04-25T13:49:10Z</time></trkpt><trkpt lat="45.469954756402196" lon="11.194672880797835"><ele>294.0</ele><time>2026-04-25T13:49:12Z</time></trkpt><trkpt lat="45.4698502982363" lon="11.194759981421639"><ele>298.0</ele><time>2026-04-25T13:49:14Z</time></trkpt><trkpt lat="45.46979823558748" lon="11.194822886486968"><ele>297.42857142857144</ele><time>2026-04-25T13:49:15Z</time></trkpt><trkpt lat="45.4697410980226" lon="11.194865838761698"><ele>296.85714285714283</ele><time>2026-04-25T13:49:16Z</time></trkpt><trkpt lat="45.46967916052597" lon="11.194912453401228"><ele>296.2857142857143</ele><time>2026-04-25T13:49:17Z</time></trkpt><trkpt lat="45.46961143710556" lon="11.194944284929495"><ele>295.7142857142857</ele><time>2026-04-25T13:49:18Z</time></trkpt><trkpt lat="45.469537789347726" lon="11.194971560189025"><ele>295.1428571428571</ele><time>2026-04-25T13:49:19Z</time></trkpt><trkpt lat="45.46946335269764" lon="11.19499094183865"><ele>294.57142857142856</ele><time>2026-04-25T13:49:20Z</time></trkpt><trkpt lat="45.46938602012083" lon="11.194994718391799"><ele>294.0</ele><time>2026-04-25T13:49:21Z</time></trkpt><trkpt lat="45.469317747389084" lon="11.194982694671703"><ele>294.0</ele><time>2026-04-25T13:49:22Z</time></trkpt><trkpt lat="45.46925296961325" lon="11.194968894596865"><ele>294.0</ele><time>2026-04-25T13:49:23Z</time></trkpt><trkpt lat="45.46918528909169" lon="11.194953312196153"><ele>294.0</ele><time>2026-04-25T13:49:24Z</time></trkpt><trkpt lat="45.46912221877612" lon="11.194925630410664"><ele>294.0</ele><time>2026-04-25T13:49:25Z</time></trkpt><trkpt lat="45.469013386377334" lon="11.194859287258708"><ele>294.0</ele><time>2026-04-25T13:49:27Z</time></trkpt><trkpt lat="45.46889963808503" lon="11.194810494434751"><ele>294.0</ele><time>2026-04-25T13:49:29Z</time></trkpt><trkpt lat="45.468797036380025" lon="11.194766217177246"><ele>292.4</ele><time>2026-04-25T13:49:31Z</time></trkpt><trkpt lat="45.46869530160647" lon="11.194716757669418"><ele>290.79999999999995</ele><time>2026-04-25T13:49:33Z</time></trkpt><trkpt lat="45.46859817932089" lon="11.194729821776633"><ele>289.20000000000005</ele><time>2026-04-25T13:49:35Z</time></trkpt><trkpt lat="45.468500282539836" lon="11.194820405824567"><ele>287.6</ele><time>2026-04-25T13:49:37Z</time></trkpt><trkpt lat="45.468427048002006" lon="11.194867059341066"><ele>286.0</ele><time>2026-04-25T13:49:38Z</time></trkpt><trkpt lat="45.46836143444802" lon="11.194927281421574"><ele>286.0</ele><time>2026-04-25T13:49:39Z</time></trkpt><trkpt lat="45.46830168101975" lon="11.194976830917446"><ele>286.0</ele><time>2026-04-25T13:49:40Z</time></trkpt><trkpt lat="45.468239731270536" lon="11.195022230162229"><ele>286.0</ele><time>2026-04-25T13:49:41Z</time></trkpt><trkpt lat="45.46812769483843" lon="11.195118471368021"><ele>286.0</ele><time>2026-04-25T13:49:43Z</time></trkpt><trkpt lat="45.46805253824956" lon="11.195164238706433"><ele>286.0</ele><time>2026-04-25T13:49:44Z</time></trkpt><trkpt lat="45.46796568623247" lon="11.195222893757876"><ele>286.0</ele><time>2026-04-25T13:49:45Z</time></trkpt><trkpt lat="45.46786051499744" lon="11.195296218626758"><ele>285.2</ele><time>2026-04-25T13:49:46Z</time></trkpt><trkpt lat="45.467762757818676" lon="11.195371615093395"><ele>284.40000000000003</ele><time>2026-04-25T13:49:47Z</time></trkpt><trkpt lat="45.46767122343026" lon="11.19545488894858"><ele>283.6</ele><time>2026-04-25T13:49:48Z</time></trkpt><trkpt lat="45.4675950081643" lon="11.195537723409489"><ele>282.8</ele><time>2026-04-25T13:49:49Z</time></trkpt><trkpt lat="45.46752893750983" lon="11.195619283002182"><ele>282.0</ele><time>2026-04-25T13:49:50Z</time></trkpt><trkpt lat="45.46745372833894" lon="11.195684587374965"><ele>282.0</ele><time>2026-04-25T13:49:51Z</time></trkpt><trkpt lat="45.46737707318747" lon="11.195768281886183"><ele>282.0</ele><time>2026-04-25T13:49:52Z</time></trkpt><trkpt lat="45.4673060571817" lon="11.195846092988578"><ele>282.0</ele><time>2026-04-25T13:49:53Z</time></trkpt><trkpt lat="45.46724769696705" lon="11.19590690217946"><ele>282.0</ele><time>2026-04-25T13:49:54Z</time></trkpt><trkpt lat="45.46720921554045" lon="11.19599545941491"><ele>282.0</ele><time>2026-04-25T13:49:55Z</time></trkpt><trkpt lat="45.46715146011536" lon="11.196055901064287"><ele>282.0</ele><time>2026-04-25T13:49:56Z</time></trkpt><trkpt lat="45.46708471710272" lon="11.196105106334343"><ele>279.5</ele><time>2026-04-25T13:49:57Z</time></trkpt><trkpt lat="45.46701106473982" lon="11.196148009202066"><ele>277.0</ele><time>2026-04-25T13:49:58Z</time></trkpt><trkpt lat="45.46691020558054" lon="11.196186001428531"><ele>274.5</ele><time>2026-04-25T13:49:59Z</time></trkpt><trkpt lat="45.466765247644624" lon="11.19620599850254"><ele>272.0</ele><time>2026-04-25T13:50:00Z</time></trkpt><trkpt lat="45.46663508549886" lon="11.19626541954751"><ele>272.0</ele><time>2026-04-25T13:50:01Z</time></trkpt><trkpt lat="45.466520257123015" lon="11.196297842829418"><ele>272.0</ele><time>2026-04-25T13:50:02Z</time></trkpt><trkpt lat="45.46641372915798" lon="11.19632650078503"><ele>272.0</ele><time>2026-04-25T13:50:03Z</time></trkpt><trkpt lat="45.46631301584696" lon="11.196347332913302"><ele>272.0</ele><time>2026-04-25T13:50:04Z</time></trkpt><trkpt lat="45.46622549046059" lon="11.196368594606207"><ele>272.0</ele><time>2026-04-25T13:50:05Z</time></trkpt><trkpt lat="45.46614647218097" lon="11.19638567024975"><ele>271.1428571428571</ele><time>2026-04-25T13:50:06Z</time></trkpt><trkpt lat="45.466075913030494" lon="11.196405414546929"><ele>270.2857142857143</ele><time>2026-04-25T13:50:07Z</time></trkpt><trkpt lat="45.466007062188154" lon="11.196413674654705"><ele>269.42857142857144</ele><time>2026-04-25T13:50:08Z</time></trkpt><trkpt lat="45.46594351928236" lon="11.196453476311987"><ele>268.57142857142856</ele><time>2026-04-25T13:50:09Z</time></trkpt><trkpt lat="45.465888485549456" lon="11.196527338297482"><ele>267.7142857142857</ele><time>2026-04-25T13:50:10Z</time></trkpt><trkpt lat="45.465859003236616" lon="11.196648555926838"><ele>266.85714285714283</ele><time>2026-04-25T13:50:11Z</time></trkpt><trkpt lat="45.46584590808263" lon="11.196742714402305"><ele>266.0</ele><time>2026-04-25T13:50:12Z</time></trkpt><trkpt lat="45.46577477734952" lon="11.196868394034079"><ele>266.0</ele><time>2026-04-25T13:50:14Z</time></trkpt><trkpt lat="45.465701632235486" lon="11.196903995118547"><ele>266.0</ele><time>2026-04-25T13:50:15Z</time></trkpt><trkpt lat="45.46561533667244" lon="11.196943449238033"><ele>266.0</ele><time>2026-04-25T13:50:16Z</time></trkpt><trkpt lat="45.46552137756118" lon="11.196988683150032"><ele>266.0</ele><time>2026-04-25T13:50:17Z</time></trkpt><trkpt lat="45.46542033630902" lon="11.197045323697475"><ele>266.0</ele><time>2026-04-25T13:50:18Z</time></trkpt><trkpt lat="45.465314142708365" lon="11.197107898378876"><ele>263.8</ele><time>2026-04-25T13:50:19Z</time></trkpt><trkpt lat="45.465200649061565" lon="11.197177737084441"><ele>261.6</ele><time>2026-04-25T13:50:20Z</time></trkpt><trkpt lat="45.46508786200386" lon="11.197247991020687"><ele>259.4</ele><time>2026-04-25T13:50:21Z</time></trkpt><trkpt lat="45.46499162499593" lon="11.197306883902792"><ele>257.2</ele><time>2026-04-25T13:50:22Z</time></trkpt><trkpt lat="45.464908605761146" lon="11.197377221837463"><ele>255.0</ele><time>2026-04-25T13:50:23Z</time></trkpt><trkpt lat="45.4648144349445" lon="11.197405444697443"><ele>255.0</ele><time>2026-04-25T13:50:24Z</time></trkpt><trkpt lat="45.464705164123046" lon="11.197425213766602"><ele>255.0</ele><time>2026-04-25T13:50:25Z</time></trkpt><trkpt lat="45.46458612397403" lon="11.197444672278264"><ele>255.0</ele><time>2026-04-25T13:50:26Z</time></trkpt><trkpt lat="45.46447415057262" lon="11.19750887812257"><ele>255.0</ele><time>2026-04-25T13:50:27Z</time></trkpt><trkpt lat="45.464325890919376" lon="11.197608989161054"><ele>255.0</ele><time>2026-04-25T13:50:28Z</time></trkpt><trkpt lat="45.46416722100444" lon="11.197689167512078"><ele>255.0</ele><time>2026-04-25T13:50:29Z</time></trkpt><trkpt lat="45.46404792404862" lon="11.197740268790678"><ele>255.0</ele><time>2026-04-25T13:50:30Z</time></trkpt><trkpt lat="45.46394875247688" lon="11.197783729335649"><ele>255.0</ele><time>2026-04-25T13:50:31Z</time></trkpt><trkpt lat="45.463855352923495" lon="11.197803795732499"><ele>253.0</ele><time>2026-04-25T13:50:32Z</time></trkpt><trkpt lat="45.4637709973361" lon="11.197806693503301"><ele>251.0</ele><time>2026-04-25T13:50:33Z</time></trkpt><trkpt lat="45.463651435380015" lon="11.197813571137132"><ele>249.0</ele><time>2026-04-25T13:50:34Z</time></trkpt><trkpt lat="45.463507860441304" lon="11.197810474642326"><ele>247.0</ele><time>2026-04-25T13:50:35Z</time></trkpt><trkpt lat="45.46334761895927" lon="11.197777591735091"><ele>247.0</ele><time>2026-04-25T13:50:36Z</time></trkpt><trkpt lat="45.46318701845287" lon="11.197766220151673"><ele>247.0</ele><time>2026-04-25T13:50:37Z</time></trkpt><trkpt lat="45.46308942030841" lon="11.197797937557137"><ele>247.0</ele><time>2026-04-25T13:50:38Z</time></trkpt><trkpt lat="45.462981766125125" lon="11.197818170790784"><ele>247.0</ele><time>2026-04-25T13:50:39Z</time></trkpt><trkpt lat="45.46285862655428" lon="11.197830010881924"><ele>245.75</ele><time>2026-04-25T13:50:40Z</time></trkpt><trkpt lat="45.46273452601723" lon="11.197822015863101"><ele>244.5</ele><time>2026-04-25T13:50:41Z</time></trkpt><trkpt lat="45.4625972436157" lon="11.19778649993768"><ele>243.25</ele><time>2026-04-25T13:50:42Z</time></trkpt><trkpt lat="45.46248627614339" lon="11.197723855796736"><ele>242.0</ele><time>2026-04-25T13:50:43Z</time></trkpt><trkpt lat="45.46240295748" lon="11.197667655781286"><ele>242.0</ele><time>2026-04-25T13:50:44Z</time></trkpt><trkpt lat="45.46233395683222" lon="11.197635893653015"><ele>242.0</ele><time>2026-04-25T13:50:45Z</time></trkpt><trkpt lat="45.462250164506145" lon="11.197628588769996"><ele>242.0</ele><time>2026-04-25T13:50:47Z</time></trkpt><trkpt lat="45.462142796007186" lon="11.19758494942151"><ele>242.0</ele><time>2026-04-25T13:50:49Z</time></trkpt><trkpt lat="45.462039439242396" lon="11.197543423812096"><ele>242.0</ele><time>2026-04-25T13:50:51Z</time></trkpt><trkpt lat="45.46196048481548" lon="11.197503515448249"><ele>242.33333333333334</ele><time>2026-04-25T13:50:53Z</time></trkpt><trkpt lat="45.46190147899423" lon="11.197464078539529"><ele>242.66666666666669</ele><time>2026-04-25T13:50:55Z</time></trkpt><trkpt lat="45.46192654692503" lon="11.197361472925001"><ele>243.0</ele><time>2026-04-25T13:50:56Z</time></trkpt><trkpt lat="45.461941954189044" lon="11.197201984717042"><ele>243.33333333333331</ele><time>2026-04-25T13:50:58Z</time></trkpt><trkpt lat="45.46195133142586" lon="11.197084332904508"><ele>243.66666666666666</ele><time>2026-04-25T13:51:00Z</time></trkpt><trkpt lat="45.46196339213416" lon="11.196970172187182"><ele>244.0</ele><time>2026-04-25T13:51:12Z</time></trkpt><trkpt lat="45.46204265690921" lon="11.196878226914553"><ele>241.6</ele><time>2026-04-25T13:51:16Z</time></trkpt><trkpt lat="45.462123635149126" lon="11.196866591565206"><ele>239.2</ele><time>2026-04-25T13:51:17Z</time></trkpt><trkpt lat="45.462221596328504" lon="11.196835267951144"><ele>236.79999999999998</ele><time>2026-04-25T13:51:18Z</time></trkpt><trkpt lat="45.462342439165546" lon="11.196821072431387"><ele>234.39999999999998</ele><time>2026-04-25T13:51:19Z</time></trkpt><trkpt lat="45.46248733257871" lon="11.196791126877878"><ele>232.0</ele><time>2026-04-25T13:51:20Z</time></trkpt><trkpt lat="45.4626607543394" lon="11.196752012017747"><ele>232.0</ele><time>2026-04-25T13:51:21Z</time></trkpt><trkpt lat="45.462831535434844" lon="11.196703654342"><ele>232.0</ele><time>2026-04-25T13:51:22Z</time></trkpt><trkpt lat="45.46298882629445" lon="11.196635587043492"><ele>232.0</ele><time>2026-04-25T13:51:23Z</time></trkpt><trkpt lat="45.46313440143008" lon="11.196571970573588"><ele>225.66666666666666</ele><time>2026-04-25T13:51:24Z</time></trkpt><trkpt lat="45.46327826749867" lon="11.196499571157302"><ele>219.33333333333331</ele><time>2026-04-25T13:51:25Z</time></trkpt><trkpt lat="45.463420424977066" lon="11.196419075836701"><ele>213.0</ele><time>2026-04-25T13:51:26Z</time></trkpt><trkpt lat="45.463565066594946" lon="11.196333315687156"><ele>213.0</ele><time>2026-04-25T13:51:27Z</time></trkpt><trkpt lat="45.46372078223512" lon="11.19624266811655"><ele>213.0</ele><time>2026-04-25T13:51:28Z</time></trkpt><trkpt lat="45.46387610950119" lon="11.196154960523328"><ele>213.0</ele><time>2026-04-25T13:51:29Z</time></trkpt><trkpt lat="45.46401546566374" lon="11.196082416222774"><ele>214.5</ele><time>2026-04-25T13:51:30Z</time></trkpt><trkpt lat="45.46414913378007" lon="11.196017220128523"><ele>216.0</ele><time>2026-04-25T13:51:31Z</time></trkpt><trkpt lat="45.4642744580089" lon="11.195947227440763"><ele>217.5</ele><time>2026-04-25T13:51:32Z</time></trkpt><trkpt lat="45.46440398104489" lon="11.195849902718821"><ele>219.0</ele><time>2026-04-25T13:51:33Z</time></trkpt><trkpt lat="45.46454570890923" lon="11.195685616974796"><ele>217.5</ele><time>2026-04-25T13:51:34Z</time></trkpt><trkpt lat="45.46470902670013" lon="11.19545384283932"><ele>216.0</ele><time>2026-04-25T13:51:35Z</time></trkpt><trkpt lat="45.464872836723345" lon="11.195206296565038"><ele>216.0</ele><time>2026-04-25T13:51:36Z</time></trkpt><trkpt lat="45.465006060691145" lon="11.194994250973073"><ele>216.0</ele><time>2026-04-25T13:51:37Z</time></trkpt><trkpt lat="45.46512340881345" lon="11.194793130074725"><ele>216.0</ele><time>2026-04-25T13:51:38Z</time></trkpt><trkpt lat="45.4652243430891" lon="11.194607960592048"><ele>216.75</ele><time>2026-04-25T13:51:39Z</time></trkpt><trkpt lat="45.46532026091139" lon="11.194436785863797"><ele>217.5</ele><time>2026-04-25T13:51:40Z</time></trkpt><trkpt lat="45.46541002111893" lon="11.194289976852396"><ele>218.25</ele><time>2026-04-25T13:51:41Z</time></trkpt><trkpt lat="45.46549900420376" lon="11.194179358855612"><ele>219.0</ele><time>2026-04-25T13:51:42Z</time></trkpt><trkpt lat="45.465616115839055" lon="11.194101374140734"><ele>211.0</ele><time>2026-04-25T13:51:43Z</time></trkpt><trkpt lat="45.4657669996717" lon="11.193979168290076"><ele>203.0</ele><time>2026-04-25T13:51:44Z</time></trkpt><trkpt lat="45.46591228472996" lon="11.193846776695727"><ele>195.0</ele><time>2026-04-25T13:51:45Z</time></trkpt><trkpt lat="45.46603732621665" lon="11.193754609212437"><ele>195.0</ele><time>2026-04-25T13:51:46Z</time></trkpt><trkpt lat="45.466145860128755" lon="11.193657271261964"><ele>195.0</ele><time>2026-04-25T13:51:47Z</time></trkpt><trkpt lat="45.466242655162084" lon="11.19355907039388"><ele>195.0</ele><time>2026-04-25T13:51:48Z</time></trkpt><trkpt lat="45.46632716660501" lon="11.193457378552804"><ele>195.0</ele><time>2026-04-25T13:51:49Z</time></trkpt><trkpt lat="45.46639282554742" lon="11.193344771785725"><ele>200.0</ele><time>2026-04-25T13:51:50Z</time></trkpt><trkpt lat="45.466428387679684" lon="11.193180683238246"><ele>205.0</ele><time>2026-04-25T13:51:51Z</time></trkpt><trkpt lat="45.46642428045429" lon="11.192983053840221"><ele>210.0</ele><time>2026-04-25T13:51:52Z</time></trkpt><trkpt lat="45.4663690683375" lon="11.192746452158687"><ele>215.0</ele><time>2026-04-25T13:51:53Z</time></trkpt><trkpt lat="45.46629421535576" lon="11.192461182453686"><ele>206.66666666666669</ele><time>2026-04-25T13:51:54Z</time></trkpt><trkpt lat="45.46623995598238" lon="11.192255576634663"><ele>198.33333333333334</ele><time>2026-04-25T13:51:55Z</time></trkpt><trkpt lat="45.466162048276054" lon="11.192000567977336"><ele>190.0</ele><time>2026-04-25T13:51:56Z</time></trkpt><trkpt lat="45.46610593332594" lon="11.191751455260532"><ele>189.66666666666669</ele><time>2026-04-25T13:51:57Z</time></trkpt><trkpt lat="45.46606708063961" lon="11.191502061360994"><ele>189.33333333333334</ele><time>2026-04-25T13:51:58Z</time></trkpt><trkpt lat="45.46603967198051" lon="11.191271279329717"><ele>189.0</ele><time>2026-04-25T13:51:59Z</time></trkpt><trkpt lat="45.46601523982356" lon="11.191042794823911"><ele>189.0</ele><time>2026-04-25T13:52:00Z</time></trkpt><trkpt lat="45.46599046741852" lon="11.190827236742185"><ele>189.0</ele><time>2026-04-25T13:52:01Z</time></trkpt><trkpt lat="45.465970208893054" lon="11.190620248998925"><ele>189.0</ele><time>2026-04-25T13:52:02Z</time></trkpt><trkpt lat="45.46595143032777" lon="11.190426801003836"><ele>189.0</ele><time>2026-04-25T13:52:03Z</time></trkpt><trkpt lat="45.4659454355058" lon="11.190224697137067"><ele>187.79999999999998</ele><time>2026-04-25T13:52:04Z</time></trkpt><trkpt lat="45.46596121235181" lon="11.190049013921827"><ele>186.6</ele><time>2026-04-25T13:52:05Z</time></trkpt><trkpt lat="45.46599217949731" lon="11.189901962712288"><ele>185.4</ele><time>2026-04-25T13:52:06Z</time></trkpt><trkpt lat="45.46600666070023" lon="11.189802952989396"><ele>184.2</ele><time>2026-04-25T13:52:07Z</time></trkpt><trkpt lat="45.46595356250411" lon="11.189699474403296"><ele>183.0</ele><time>2026-04-25T13:52:09Z</time></trkpt><trkpt lat="45.46587583040676" lon="11.189794282057223"><ele>183.0</ele><time>2026-04-25T13:52:11Z</time></trkpt><trkpt lat="45.465849889073404" lon="11.189883993367946"><ele>183.0</ele><time>2026-04-25T13:52:12Z</time></trkpt><trkpt lat="45.46583272605611" lon="11.190017934784692"><ele>183.0</ele><time>2026-04-25T13:52:13Z</time></trkpt><trkpt lat="45.46580811155903" lon="11.190193153965552"><ele>183.0</ele><time>2026-04-25T13:52:14Z</time></trkpt><trkpt lat="45.465771796994694" lon="11.190409175412888"><ele>183.0</ele><time>2026-04-25T13:52:15Z</time></trkpt><trkpt lat="45.46573129087632" lon="11.19070103076634"><ele>186.0</ele><time>2026-04-25T13:52:16Z</time></trkpt><trkpt lat="45.46570105552424" lon="11.190944527257987"><ele>189.0</ele><time>2026-04-25T13:52:17Z</time></trkpt><trkpt lat="45.465631057475825" lon="11.191340923318325"><ele>189.0</ele><time>2026-04-25T13:52:18Z</time></trkpt><trkpt lat="45.46560150001901" lon="11.191452612429996"><ele>189.0</ele><time>2026-04-25T13:52:20Z</time></trkpt><trkpt lat="45.465507366702745" lon="11.191464963598058"><ele>189.0</ele><time>2026-04-25T13:52:22Z</time></trkpt><trkpt lat="45.4655693405551" lon="11.191355099781196"><ele>189.0</ele><time>2026-04-25T13:52:23Z</time></trkpt><trkpt lat="45.465568025455084" lon="11.191247140558508"><ele>189.0</ele><time>2026-04-25T13:52:24Z</time></trkpt><trkpt lat="45.46555935717308" lon="11.191083731616848"><ele>189.0</ele><time>2026-04-25T13:52:25Z</time></trkpt><trkpt lat="45.46555106134232" lon="11.190915767286976"><ele>189.0</ele><time>2026-04-25T13:52:26Z</time></trkpt><trkpt lat="45.4655371402488" lon="11.19069852320382"><ele>189.0</ele><time>2026-04-25T13:52:27Z</time></trkpt><trkpt lat="45.46552442129834" lon="11.190482041930172"><ele>189.0</ele><time>2026-04-25T13:52:28Z</time></trkpt><trkpt lat="45.46551495888279" lon="11.190294958148622"><ele>187.5</ele><time>2026-04-25T13:52:29Z</time></trkpt><trkpt lat="45.46550660592742" lon="11.19012486278836"><ele>186.0</ele><time>2026-04-25T13:52:30Z</time></trkpt><trkpt lat="45.46549267975277" lon="11.189962135799798"><ele>184.5</ele><time>2026-04-25T13:52:31Z</time></trkpt><trkpt lat="45.46550757606424" lon="11.189803063927139"><ele>183.0</ele><time>2026-04-25T13:52:32Z</time></trkpt><trkpt lat="45.465539371341684" lon="11.189645899973408"><ele>179.75</ele><time>2026-04-25T13:52:33Z</time></trkpt><trkpt lat="45.465582136387674" lon="11.189493694318488"><ele>176.5</ele><time>2026-04-25T13:52:34Z</time></trkpt><trkpt lat="45.46563369488129" lon="11.189342759431959"><ele>173.25</ele><time>2026-04-25T13:52:35Z</time></trkpt><trkpt lat="45.465687786470156" lon="11.189193896567051"><ele>170.0</ele><time>2026-04-25T13:52:36Z</time></trkpt><trkpt lat="45.46575641197368" lon="11.189048627360702"><ele>167.5</ele><time>2026-04-25T13:52:37Z</time></trkpt><trkpt lat="45.46580274098864" lon="11.18888034666592"><ele>165.0</ele><time>2026-04-25T13:52:38Z</time></trkpt><trkpt lat="45.465845056376736" lon="11.188688487874405"><ele>162.5</ele><time>2026-04-25T13:52:39Z</time></trkpt><trkpt lat="45.46586753619398" lon="11.188476538602552"><ele>160.0</ele><time>2026-04-25T13:52:40Z</time></trkpt><trkpt lat="45.465908751536155" lon="11.18826586032198"><ele>159.33333333333334</ele><time>2026-04-25T13:52:41Z</time></trkpt><trkpt lat="45.46594216270564" lon="11.18804689338184"><ele>158.66666666666666</ele><time>2026-04-25T13:52:42Z</time></trkpt><trkpt lat="45.46597531715729" lon="11.187839815878123"><ele>158.0</ele><time>2026-04-25T13:52:43Z</time></trkpt><trkpt lat="45.46600732441125" lon="11.187637184287142"><ele>158.0</ele><time>2026-04-25T13:52:44Z</time></trkpt><trkpt lat="45.46604352279109" lon="11.187397873926498"><ele>158.0</ele><time>2026-04-25T13:52:45Z</time></trkpt><trkpt lat="45.466080119444015" lon="11.187147542322075"><ele>158.0</ele><time>2026-04-25T13:52:46Z</time></trkpt><trkpt lat="45.46611313505954" lon="11.186921359499745"><ele>158.0</ele><time>2026-04-25T13:52:47Z</time></trkpt><trkpt lat="45.46614156080152" lon="11.186726423971505"><ele>158.0</ele><time>2026-04-25T13:52:48Z</time></trkpt><trkpt lat="45.46616763490769" lon="11.1865476152889"><ele>158.0</ele><time>2026-04-25T13:52:49Z</time></trkpt><trkpt lat="45.46619126494166" lon="11.186377029604127"><ele>158.0</ele><time>2026-04-25T13:52:50Z</time></trkpt><trkpt lat="45.466212832038856" lon="11.18621125850957"><ele>158.25</ele><time>2026-04-25T13:52:51Z</time></trkpt><trkpt lat="45.46623208802298" lon="11.186061773794583"><ele>158.5</ele><time>2026-04-25T13:52:52Z</time></trkpt><trkpt lat="45.46625192230199" lon="11.185910395043656"><ele>158.75</ele><time>2026-04-25T13:52:53Z</time></trkpt><trkpt lat="45.466272350829264" lon="11.185745367501392"><ele>159.0</ele><time>2026-04-25T13:52:54Z</time></trkpt><trkpt lat="45.46628518163375" lon="11.185576656608365"><ele>160.0</ele><time>2026-04-25T13:52:55Z</time></trkpt><trkpt lat="45.4662888276469" lon="11.185406445764604"><ele>161.0</ele><time>2026-04-25T13:52:56Z</time></trkpt><trkpt lat="45.46627890368494" lon="11.18523536394334"><ele>162.0</ele><time>2026-04-25T13:52:57Z</time></trkpt><trkpt lat="45.46627996947486" lon="11.18506714172981"><ele>163.0</ele><time>2026-04-25T13:52:58Z</time></trkpt><trkpt lat="45.466278553452" lon="11.184899080236958"><ele>162.25</ele><time>2026-04-25T13:52:59Z</time></trkpt><trkpt lat="45.46625261833831" lon="11.184733055826985"><ele>161.5</ele><time>2026-04-25T13:53:00Z</time></trkpt><trkpt lat="45.46619983545783" lon="11.184571158115101"><ele>160.75</ele><time>2026-04-25T13:53:01Z</time></trkpt><trkpt lat="45.4661170724688" lon="11.184416289373226"><ele>160.0</ele><time>2026-04-25T13:53:02Z</time></trkpt><trkpt lat="45.46604388970371" lon="11.184278765329708"><ele>160.0</ele><time>2026-04-25T13:53:03Z</time></trkpt><trkpt lat="45.46597873285332" lon="11.184147267229296"><ele>160.0</ele><time>2026-04-25T13:53:04Z</time></trkpt><trkpt lat="45.4659597434421" lon="11.18398729058237"><ele>160.0</ele><time>2026-04-25T13:53:05Z</time></trkpt><trkpt lat="45.46593433684183" lon="11.183831800062263"><ele>160.0</ele><time>2026-04-25T13:53:06Z</time></trkpt><trkpt lat="45.465910750134775" lon="11.183657001285548"><ele>160.0</ele><time>2026-04-25T13:53:07Z</time></trkpt><trkpt lat="45.46588713613331" lon="11.183470671288935"><ele>160.0</ele><time>2026-04-25T13:53:08Z</time></trkpt><trkpt lat="45.46586184590494" lon="11.183255969799882"><ele>160.0</ele><time>2026-04-25T13:53:09Z</time></trkpt><trkpt lat="45.4658370285292" lon="11.18302533814498"><ele>160.0</ele><time>2026-04-25T13:53:10Z</time></trkpt><trkpt lat="45.465800409328345" lon="11.18277459772851"><ele>160.33333333333334</ele><time>2026-04-25T13:53:11Z</time></trkpt><trkpt lat="45.46578722366135" lon="11.182485019525837"><ele>160.66666666666666</ele><time>2026-04-25T13:53:12Z</time></trkpt><trkpt lat="45.46580628881727" lon="11.182201567913793"><ele>161.0</ele><time>2026-04-25T13:53:13Z</time></trkpt><trkpt lat="45.46581070570221" lon="11.18190982946721"><ele>161.0</ele><time>2026-04-25T13:53:14Z</time></trkpt><trkpt lat="45.46582574591631" lon="11.181629089973018"><ele>161.0</ele><time>2026-04-25T13:53:15Z</time></trkpt><trkpt lat="45.46585605133688" lon="11.181373164186509"><ele>161.0</ele><time>2026-04-25T13:53:16Z</time></trkpt><trkpt lat="45.46586650988639" lon="11.181142129310796"><ele>161.0</ele><time>2026-04-25T13:53:17Z</time></trkpt><trkpt lat="45.46589000979401" lon="11.180890972816437"><ele>161.0</ele><time>2026-04-25T13:53:18Z</time></trkpt><trkpt lat="45.46590198428406" lon="11.180586833016106"><ele>161.0</ele><time>2026-04-25T13:53:19Z</time></trkpt><trkpt lat="45.46588831958047" lon="11.180331121936119"><ele>161.0</ele><time>2026-04-25T13:53:20Z</time></trkpt><trkpt lat="45.465888064586565" lon="11.180122524274454"><ele>161.0</ele><time>2026-04-25T13:53:21Z</time></trkpt><trkpt lat="45.465889881307646" lon="11.179970157413228"><ele>161.0</ele><time>2026-04-25T13:53:22Z</time></trkpt><trkpt lat="45.465887148363464" lon="11.17986770980038"><ele>161.0</ele><time>2026-04-25T13:53:23Z</time></trkpt><trkpt lat="45.46589395959131" lon="11.179719580308111"><ele>161.0</ele><time>2026-04-25T13:53:25Z</time></trkpt><trkpt lat="45.46588770047714" lon="11.179591328546456"><ele>161.0</ele><time>2026-04-25T13:53:28Z</time></trkpt><trkpt lat="45.46575190418774" lon="11.17953465669074"><ele>161.0</ele><time>2026-04-25T13:53:29Z</time></trkpt><trkpt lat="45.46566695374889" lon="11.179505236170488"><ele>161.0</ele><time>2026-04-25T13:53:30Z</time></trkpt><trkpt lat="45.46557026966555" lon="11.179479946613577"><ele>161.0</ele><time>2026-04-25T13:53:31Z</time></trkpt><trkpt lat="45.46547886482157" lon="11.179453164664126"><ele>161.0</ele><time>2026-04-25T13:53:32Z</time></trkpt><trkpt lat="45.465384820503935" lon="11.179427977856873"><ele>160.4</ele><time>2026-04-25T13:53:33Z</time></trkpt><trkpt lat="45.465289556950275" lon="11.179408125806658"><ele>159.8</ele><time>2026-04-25T13:53:34Z</time></trkpt><trkpt lat="45.4651923082454" lon="11.179382966097425"><ele>159.20000000000002</ele><time>2026-04-25T13:53:35Z</time></trkpt><trkpt lat="45.46508099443969" lon="11.179359923491576"><ele>158.60000000000002</ele><time>2026-04-25T13:53:36Z</time></trkpt><trkpt lat="45.464962178499526" lon="11.179322711492523"><ele>158.0</ele><time>2026-04-25T13:53:37Z</time></trkpt><trkpt lat="45.4648373567323" lon="11.179281954964171"><ele>158.0</ele><time>2026-04-25T13:53:38Z</time></trkpt><trkpt lat="45.46467179973501" lon="11.179221785403929"><ele>158.0</ele><time>2026-04-25T13:53:39Z</time></trkpt><trkpt lat="45.46447048626615" lon="11.179138910351611"><ele>158.0</ele><time>2026-04-25T13:53:40Z</time></trkpt><trkpt lat="45.46429139245026" lon="11.17901183406421"><ele>157.0</ele><time>2026-04-25T13:53:41Z</time></trkpt><trkpt lat="45.464114832422524" lon="11.178900420688072"><ele>156.0</ele><time>2026-04-25T13:53:42Z</time></trkpt><trkpt lat="45.463957802917534" lon="11.178791995181403"><ele>155.0</ele><time>2026-04-25T13:53:43Z</time></trkpt><trkpt lat="45.46381375606549" lon="11.178706957967632"><ele>154.0</ele><time>2026-04-25T13:53:44Z</time></trkpt><trkpt lat="45.46367575078661" lon="11.178603837703033"><ele>153.0</ele><time>2026-04-25T13:53:45Z</time></trkpt><trkpt lat="45.46353661937941" lon="11.178497556171655"><ele>152.0</ele><time>2026-04-25T13:53:46Z</time></trkpt><trkpt lat="45.46339603444977" lon="11.178389420999714"><ele>152.0</ele><time>2026-04-25T13:53:47Z</time></trkpt><trkpt lat="45.46325241308507" lon="11.178278812276687"><ele>152.0</ele><time>2026-04-25T13:53:48Z</time></trkpt><trkpt lat="45.463112794717446" lon="11.178168867543224"><ele>152.0</ele><time>2026-04-25T13:53:49Z</time></trkpt><trkpt lat="45.46296859412881" lon="11.178063145510551"><ele>151.25</ele><time>2026-04-25T13:53:50Z</time></trkpt><trkpt lat="45.46283754393152" lon="11.177963915849213"><ele>150.5</ele><time>2026-04-25T13:53:51Z</time></trkpt><trkpt lat="45.46271932808006" lon="11.177874426356713"><ele>149.75</ele><time>2026-04-25T13:53:52Z</time></trkpt><trkpt lat="45.46260564624538" lon="11.177794352890512"><ele>149.0</ele><time>2026-04-25T13:53:53Z</time></trkpt><trkpt lat="45.46249428887145" lon="11.177717841875856"><ele>149.0</ele><time>2026-04-25T13:53:54Z</time></trkpt><trkpt lat="45.4623797309718" lon="11.177640400256367"><ele>149.0</ele><time>2026-04-25T13:53:55Z</time></trkpt><trkpt lat="45.46226847239653" lon="11.177553526686088"><ele>149.0</ele><time>2026-04-25T13:53:56Z</time></trkpt><trkpt lat="45.46215743062505" lon="11.17746271159035"><ele>149.0</ele><time>2026-04-25T13:53:57Z</time></trkpt><trkpt lat="45.46205028450221" lon="11.177372045989443"><ele>148.4</ele><time>2026-04-25T13:53:58Z</time></trkpt><trkpt lat="45.46195737773664" lon="11.177280034318823"><ele>147.8</ele><time>2026-04-25T13:53:59Z</time></trkpt><trkpt lat="45.46187553803917" lon="11.177193168440283"><ele>147.2</ele><time>2026-04-25T13:54:00Z</time></trkpt><trkpt lat="45.461803901204306" lon="11.17710896741401"><ele>146.6</ele><time>2026-04-25T13:54:01Z</time></trkpt><trkpt lat="45.46173411448887" lon="11.177026294089037"><ele>146.0</ele><time>2026-04-25T13:54:02Z</time></trkpt><trkpt lat="45.46166636584426" lon="11.176943580064268"><ele>146.0</ele><time>2026-04-25T13:54:03Z</time></trkpt><trkpt lat="45.46158852233924" lon="11.176847396948705"><ele>146.0</ele><time>2026-04-25T13:54:04Z</time></trkpt><trkpt lat="45.46153077771536" lon="11.176716593021034"><ele>146.0</ele><time>2026-04-25T13:54:05Z</time></trkpt><trkpt lat="45.461457946146524" lon="11.176588778995537"><ele>146.0</ele><time>2026-04-25T13:54:06Z</time></trkpt><trkpt lat="45.46138383019557" lon="11.176448967143239"><ele>145.66666666666666</ele><time>2026-04-25T13:54:07Z</time></trkpt><trkpt lat="45.46130427749978" lon="11.176287659013353"><ele>145.33333333333334</ele><time>2026-04-25T13:54:08Z</time></trkpt><trkpt lat="45.46120108589834" lon="11.176113075562878"><ele>145.0</ele><time>2026-04-25T13:54:09Z</time></trkpt><trkpt lat="45.46110433581274" lon="11.17591450526269"><ele>144.33333333333334</ele><time>2026-04-25T13:54:10Z</time></trkpt><trkpt lat="45.46099537336595" lon="11.175710197608774"><ele>143.66666666666666</ele><time>2026-04-25T13:54:11Z</time></trkpt><trkpt lat="45.46087914533821" lon="11.175509684585247"><ele>143.0</ele><time>2026-04-25T13:54:12Z</time></trkpt><trkpt lat="45.46077200848017" lon="11.175308803839824"><ele>143.0</ele><time>2026-04-25T13:54:13Z</time></trkpt><trkpt lat="45.46066872865839" lon="11.175114025805799"><ele>143.0</ele><time>2026-04-25T13:54:14Z</time></trkpt><trkpt lat="45.460557985865364" lon="11.174916347475277"><ele>143.0</ele><time>2026-04-25T13:54:15Z</time></trkpt><trkpt lat="45.46044335493567" lon="11.174713689556446"><ele>142.66666666666666</ele><time>2026-04-25T13:54:16Z</time></trkpt><trkpt lat="45.460328427895945" lon="11.1744909949782"><ele>142.33333333333334</ele><time>2026-04-25T13:54:17Z</time></trkpt><trkpt lat="45.460221225979225" lon="11.174240009479107"><ele>142.0</ele><time>2026-04-25T13:54:18Z</time></trkpt><trkpt lat="45.460118639935025" lon="11.173964703775065"><ele>142.0</ele><time>2026-04-25T13:54:19Z</time></trkpt><trkpt lat="45.46001214574014" lon="11.173667921092386"><ele>142.0</ele><time>2026-04-25T13:54:20Z</time></trkpt><trkpt lat="45.45992815475171" lon="11.173399934911899"><ele>142.0</ele><time>2026-04-25T13:54:21Z</time></trkpt><trkpt lat="45.45983453732862" lon="11.173134054940313"><ele>141.5</ele><time>2026-04-25T13:54:22Z</time></trkpt><trkpt lat="45.45972740037348" lon="11.17283829832984"><ele>141.0</ele><time>2026-04-25T13:54:23Z</time></trkpt><trkpt lat="45.45962367996874" lon="11.172544615629388"><ele>140.66666666666666</ele><time>2026-04-25T13:54:24Z</time></trkpt><trkpt lat="45.459527721117226" lon="11.172289739827345"><ele>140.33333333333331</ele><time>2026-04-25T13:54:25Z</time></trkpt><trkpt lat="45.45943476612332" lon="11.172054067638507"><ele>140.0</ele><time>2026-04-25T13:54:26Z</time></trkpt><trkpt lat="45.45934563435368" lon="11.17184051604883"><ele>140.0</ele><time>2026-04-25T13:54:27Z</time></trkpt><trkpt lat="45.45925315725885" lon="11.171641048104215"><ele>140.0</ele><time>2026-04-25T13:54:28Z</time></trkpt><trkpt lat="45.45916833087733" lon="11.171438256374307"><ele>140.0</ele><time>2026-04-25T13:54:29Z</time></trkpt><trkpt lat="45.45908717207889" lon="11.171208530278983"><ele>140.0</ele><time>2026-04-25T13:54:30Z</time></trkpt><trkpt lat="45.459017247271845" lon="11.170976272568799"><ele>140.0</ele><time>2026-04-25T13:54:31Z</time></trkpt><trkpt lat="45.45895409885881" lon="11.170749512091927"><ele>140.0</ele><time>2026-04-25T13:54:32Z</time></trkpt><trkpt lat="45.45888963775119" lon="11.170525537812823"><ele>140.0</ele><time>2026-04-25T13:54:33Z</time></trkpt><trkpt lat="45.45882582221678" lon="11.170290302438366"><ele>140.0</ele><time>2026-04-25T13:54:34Z</time></trkpt><trkpt lat="45.45876036827616" lon="11.170050358095473"><ele>140.0</ele><time>2026-04-25T13:54:35Z</time></trkpt><trkpt lat="45.45868950443589" lon="11.169810129600675"><ele>138.5</ele><time>2026-04-25T13:54:36Z</time></trkpt><trkpt lat="45.458622193583665" lon="11.169533754229333"><ele>137.0</ele><time>2026-04-25T13:54:37Z</time></trkpt><trkpt lat="45.458524472180166" lon="11.169189003744062"><ele>136.5</ele><time>2026-04-25T13:54:38Z</time></trkpt><trkpt lat="45.45841280025607" lon="11.168795037318233"><ele>136.0</ele><time>2026-04-25T13:54:39Z</time></trkpt><trkpt lat="45.45828868654637" lon="11.168385965653634"><ele>136.5</ele><time>2026-04-25T13:54:40Z</time></trkpt><trkpt lat="45.45815971457542" lon="11.167941670329355"><ele>137.0</ele><time>2026-04-25T13:54:41Z</time></trkpt><trkpt lat="45.458028596389475" lon="11.16748253446708"><ele>135.5</ele><time>2026-04-25T13:54:42Z</time></trkpt><trkpt lat="45.45790141461618" lon="11.16703798952545"><ele>134.0</ele><time>2026-04-25T13:54:43Z</time></trkpt><trkpt lat="45.45778215372446" lon="11.166636393768993"><ele>135.0</ele><time>2026-04-25T13:54:44Z</time></trkpt><trkpt lat="45.45768887187151" lon="11.166257421210739"><ele>136.0</ele><time>2026-04-25T13:54:45Z</time></trkpt><trkpt lat="45.45759057904317" lon="11.16591491293854"><ele>136.0</ele><time>2026-04-25T13:54:46Z</time></trkpt><trkpt lat="45.457480577215144" lon="11.165593552140752"><ele>136.0</ele><time>2026-04-25T13:54:47Z</time></trkpt><trkpt lat="45.45740202721043" lon="11.165256111057698"><ele>136.0</ele><time>2026-04-25T13:54:48Z</time></trkpt><trkpt lat="45.45731536963431" lon="11.164952433910878"><ele>136.0</ele><time>2026-04-25T13:54:49Z</time></trkpt><trkpt lat="45.457235534957654" lon="11.164672666400323"><ele>136.0</ele><time>2026-04-25T13:54:50Z</time></trkpt><trkpt lat="45.4571626849643" lon="11.164415971358784"><ele>135.0</ele><time>2026-04-25T13:54:51Z</time></trkpt><trkpt lat="45.457083020254636" lon="11.16418754076594"><ele>134.0</ele><time>2026-04-25T13:54:52Z</time></trkpt><trkpt lat="45.45702994910442" lon="11.163959998800362"><ele>133.0</ele><time>2026-04-25T13:54:53Z</time></trkpt><trkpt lat="45.45698064605848" lon="11.163771105081235"><ele>132.8</ele><time>2026-04-25T13:54:54Z</time></trkpt><trkpt lat="45.45693623857275" lon="11.163626527079874"><ele>132.60000000000002</ele><time>2026-04-25T13:54:55Z</time></trkpt><trkpt lat="45.45688126445039" lon="11.163515706780439"><ele>132.39999999999998</ele><time>2026-04-25T13:54:56Z</time></trkpt><trkpt lat="45.456811030547776" lon="11.163431833555492"><ele>132.2</ele><time>2026-04-25T13:54:57Z</time></trkpt><trkpt lat="45.4567178970707" lon="11.163366044851802"><ele>132.0</ele><time>2026-04-25T13:54:58Z</time></trkpt><trkpt lat="45.45660499187061" lon="11.16332254353874"><ele>132.0</ele><time>2026-04-25T13:54:59Z</time></trkpt><trkpt lat="45.45648378655612" lon="11.16329306563028"><ele>132.0</ele><time>2026-04-25T13:55:00Z</time></trkpt><trkpt lat="45.456362787343984" lon="11.163282090959218"><ele>132.0</ele><time>2026-04-25T13:55:01Z</time></trkpt><trkpt lat="45.45622178574029" lon="11.163276677440532"><ele>132.0</ele><time>2026-04-25T13:55:02Z</time></trkpt><trkpt lat="45.45601302974717" lon="11.163243995202944"><ele>131.0</ele><time>2026-04-25T13:55:03Z</time></trkpt><trkpt lat="45.45576273678244" lon="11.163253852491726"><ele>130.0</ele><time>2026-04-25T13:55:04Z</time></trkpt><trkpt lat="45.45548111864576" lon="11.163214288858214"><ele>128.5</ele><time>2026-04-25T13:55:05Z</time></trkpt><trkpt lat="45.4551777886497" lon="11.16317777481269"><ele>127.0</ele><time>2026-04-25T13:55:06Z</time></trkpt><trkpt lat="45.45487600898998" lon="11.163157135265424"><ele>126.0</ele><time>2026-04-25T13:55:07Z</time></trkpt><trkpt lat="45.454608598398224" lon="11.16313857299727"><ele>125.0</ele><time>2026-04-25T13:55:08Z</time></trkpt><trkpt lat="45.454356199786424" lon="11.163107550251802"><ele>125.0</ele><time>2026-04-25T13:55:09Z</time></trkpt><trkpt lat="45.45411250211991" lon="11.163091823571978"><ele>125.0</ele><time>2026-04-25T13:55:10Z</time></trkpt><trkpt lat="45.45388327233338" lon="11.163142904922452"><ele>124.0</ele><time>2026-04-25T13:55:11Z</time></trkpt><trkpt lat="45.45367682931776" lon="11.163192084653149"><ele>123.0</ele><time>2026-04-25T13:55:12Z</time></trkpt><trkpt lat="45.453399580372405" lon="11.163273557081641"><ele>123.0</ele><time>2026-04-25T13:55:13Z</time></trkpt><trkpt lat="45.45317894784526" lon="11.163233629733227"><ele>123.0</ele><time>2026-04-25T13:55:14Z</time></trkpt><trkpt lat="45.45296009424212" lon="11.163156048761197"><ele>123.0</ele><time>2026-04-25T13:55:15Z</time></trkpt><trkpt lat="45.4527073248917" lon="11.163042571852758"><ele>122.0</ele><time>2026-04-25T13:55:16Z</time></trkpt><trkpt lat="45.45241988886065" lon="11.162915586931778"><ele>121.0</ele><time>2026-04-25T13:55:17Z</time></trkpt><trkpt lat="45.45214948536098" lon="11.16278201928702"><ele>120.0</ele><time>2026-04-25T13:55:18Z</time></trkpt><trkpt lat="45.451885687345694" lon="11.162654629521638"><ele>119.0</ele><time>2026-04-25T13:55:19Z</time></trkpt><trkpt lat="45.45162328994824" lon="11.162525260675785"><ele>119.0</ele><time>2026-04-25T13:55:20Z</time></trkpt><trkpt lat="45.45139432309208" lon="11.162413531663749"><ele>119.0</ele><time>2026-04-25T13:55:21Z</time></trkpt><trkpt lat="45.45118518170346" lon="11.1623076814914"><ele>118.0</ele><time>2026-04-25T13:55:22Z</time></trkpt><trkpt lat="45.45099042089623" lon="11.162213014197661"><ele>117.0</ele><time>2026-04-25T13:55:23Z</time></trkpt><trkpt lat="45.45081848308248" lon="11.162126622177425"><ele>116.0</ele><time>2026-04-25T13:55:24Z</time></trkpt><trkpt lat="45.450679092613534" lon="11.162053366130882"><ele>116.0</ele><time>2026-04-25T13:55:25Z</time></trkpt><trkpt lat="45.450557635833334" lon="11.162011547818425"><ele>116.0</ele><time>2026-04-25T13:55:26Z</time></trkpt><trkpt lat="45.45045265358421" lon="11.161951448128276"><ele>116.0</ele><time>2026-04-25T13:55:27Z</time></trkpt><trkpt lat="45.450357392912004" lon="11.161886799430997"><ele>116.0</ele><time>2026-04-25T13:55:28Z</time></trkpt><trkpt lat="45.45025664353446" lon="11.161838004799183"><ele>115.25</ele><time>2026-04-25T13:55:29Z</time></trkpt><trkpt lat="45.450151337207664" lon="11.161785888671053"><ele>114.5</ele><time>2026-04-25T13:55:30Z</time></trkpt><trkpt lat="45.4500350560676" lon="11.161739690892597"><ele>113.75</ele><time>2026-04-25T13:55:31Z</time></trkpt><trkpt lat="45.449884526909095" lon="11.161726387377701"><ele>113.0</ele><time>2026-04-25T13:55:32Z</time></trkpt><trkpt lat="45.44966131260983" lon="11.161720924272458"><ele>112.5</ele><time>2026-04-25T13:55:33Z</time></trkpt><trkpt lat="45.449373376086626" lon="11.16172037967151"><ele>112.0</ele><time>2026-04-25T13:55:34Z</time></trkpt><trkpt lat="45.44905882673662" lon="11.161700390989887"><ele>110.0</ele><time>2026-04-25T13:55:35Z</time></trkpt><trkpt lat="45.44870969409561" lon="11.161661283030544"><ele>108.0</ele><time>2026-04-25T13:55:36Z</time></trkpt><trkpt lat="45.44841359346463" lon="11.161644229752417"><ele>108.0</ele><time>2026-04-25T13:55:37Z</time></trkpt><trkpt lat="45.448160387586775" lon="11.161611504615328"><ele>108.0</ele><time>2026-04-25T13:55:38Z</time></trkpt><trkpt lat="45.4479400428076" lon="11.161547125436192"><ele>107.66666666666666</ele><time>2026-04-25T13:55:39Z</time></trkpt><trkpt lat="45.4477584837877" lon="11.161495814133062"><ele>107.33333333333333</ele><time>2026-04-25T13:55:40Z</time></trkpt><trkpt lat="45.447576389012106" lon="11.16144370804164"><ele>107.0</ele><time>2026-04-25T13:55:41Z</time></trkpt><trkpt lat="45.447404919771806" lon="11.161408173758959"><ele>107.0</ele><time>2026-04-25T13:55:42Z</time></trkpt><trkpt lat="45.44727992930225" lon="11.161404728841076"><ele>106.99999999999999</ele><time>2026-04-25T13:55:43Z</time></trkpt><trkpt lat="45.44719299093969" lon="11.161367721680506"><ele>106.99999999999999</ele><time>2026-04-25T13:55:44Z</time></trkpt><trkpt lat="45.44712975183947" lon="11.161293600000958"><ele>107.0</ele><time>2026-04-25T13:55:45Z</time></trkpt><trkpt lat="45.44708945583057" lon="11.161166335970803"><ele>107.0</ele><time>2026-04-25T13:55:46Z</time></trkpt><trkpt lat="45.447102900744" lon="11.160982560851856"><ele>106.5</ele><time>2026-04-25T13:55:47Z</time></trkpt><trkpt lat="45.44712258494033" lon="11.16076726392905"><ele>106.0</ele><time>2026-04-25T13:55:48Z</time></trkpt><trkpt lat="45.4471348566531" lon="11.160580367700234"><ele>105.5</ele><time>2026-04-25T13:55:49Z</time></trkpt><trkpt lat="45.44718964892661" lon="11.160464823933287"><ele>105.0</ele><time>2026-04-25T13:55:50Z</time></trkpt><trkpt lat="45.447254799230464" lon="11.16040941699732"><ele>105.0</ele><time>2026-04-25T13:55:51Z</time></trkpt><trkpt lat="45.44728969016707" lon="11.160302156435668"><ele>105.0</ele><time>2026-04-25T13:55:53Z</time></trkpt><trkpt lat="45.44723951966346" lon="11.160207717853613"><ele>105.0</ele><time>2026-04-25T13:55:54Z</time></trkpt><trkpt lat="45.44715698722979" lon="11.160113255528705"><ele>105.0</ele><time>2026-04-25T13:55:55Z</time></trkpt><trkpt lat="45.44703526686431" lon="11.159999349585858"><ele>105.0</ele><time>2026-04-25T13:55:56Z</time></trkpt><trkpt lat="45.44688319684111" lon="11.15985344902665"><ele>103.5</ele><time>2026-04-25T13:55:57Z</time></trkpt><trkpt lat="45.44668322071107" lon="11.159644762324275"><ele>102.0</ele><time>2026-04-25T13:55:58Z</time></trkpt><trkpt lat="45.44642982924305" lon="11.15938125494721"><ele>101.5</ele><time>2026-04-25T13:55:59Z</time></trkpt><trkpt lat="45.446181248939745" lon="11.159144804596796"><ele>101.0</ele><time>2026-04-25T13:56:00Z</time></trkpt><trkpt lat="45.445970696250484" lon="11.158962163897574"><ele>100.33333333333333</ele><time>2026-04-25T13:56:01Z</time></trkpt><trkpt lat="45.44577308332792" lon="11.158802409669775"><ele>99.66666666666666</ele><time>2026-04-25T13:56:02Z</time></trkpt><trkpt lat="45.445584689336364" lon="11.158653433556822"><ele>99.0</ele><time>2026-04-25T13:56:03Z</time></trkpt><trkpt lat="45.44536571629764" lon="11.15850850120467"><ele>97.0</ele><time>2026-04-25T13:56:04Z</time></trkpt><trkpt lat="45.44509916679849" lon="11.158369548281083"><ele>95.0</ele><time>2026-04-25T13:56:05Z</time></trkpt><trkpt lat="45.444861208930426" lon="11.158264063831124"><ele>95.0</ele><time>2026-04-25T13:56:06Z</time></trkpt><trkpt lat="45.444654158983944" lon="11.158180467429489"><ele>95.0</ele><time>2026-04-25T13:56:07Z</time></trkpt><trkpt lat="45.444462099699656" lon="11.15809280276783"><ele>95.0</ele><time>2026-04-25T13:56:08Z</time></trkpt><trkpt lat="45.44428699060637" lon="11.158006659245629"><ele>94.33333333333334</ele><time>2026-04-25T13:56:09Z</time></trkpt><trkpt lat="45.44412449187868" lon="11.157925812422585"><ele>93.66666666666667</ele><time>2026-04-25T13:56:10Z</time></trkpt><trkpt lat="45.44397170661899" lon="11.157852764029899"><ele>93.0</ele><time>2026-04-25T13:56:11Z</time></trkpt><trkpt lat="45.44382947295391" lon="11.157787205967168"><ele>92.5</ele><time>2026-04-25T13:56:12Z</time></trkpt><trkpt lat="45.443698309725576" lon="11.157722668082169"><ele>92.0</ele><time>2026-04-25T13:56:13Z</time></trkpt><trkpt lat="45.44358286744326" lon="11.157666628578383"><ele>91.5</ele><time>2026-04-25T13:56:14Z</time></trkpt><trkpt lat="45.44348116117726" lon="11.157616096958686"><ele>91.0</ele><time>2026-04-25T13:56:15Z</time></trkpt><trkpt lat="45.443386159933894" lon="11.15757607587477"><ele>91.0</ele><time>2026-04-25T13:56:16Z</time></trkpt><trkpt lat="45.443303261444235" lon="11.157533183114936"><ele>91.0</ele><time>2026-04-25T13:56:17Z</time></trkpt><trkpt lat="45.44324351246375" lon="11.157502229805829"><ele>91.0</ele><time>2026-04-25T13:56:18Z</time></trkpt><trkpt lat="45.44318333271947" lon="11.15747122888112"><ele>91.0</ele><time>2026-04-25T13:56:19Z</time></trkpt><trkpt lat="45.443093920011435" lon="11.157425316500179"><ele>91.0</ele><time>2026-04-25T13:56:20Z</time></trkpt><trkpt lat="45.44299940747685" lon="11.157365615946809"><ele>91.0</ele><time>2026-04-25T13:56:21Z</time></trkpt><trkpt lat="45.44289745142839" lon="11.157262380881779"><ele>90.0</ele><time>2026-04-25T13:56:22Z</time></trkpt><trkpt lat="45.44279570926403" lon="11.157095746878587"><ele>89.0</ele><time>2026-04-25T13:56:23Z</time></trkpt><trkpt lat="45.442660392099796" lon="11.156916403096686"><ele>88.0</ele><time>2026-04-25T13:56:24Z</time></trkpt><trkpt lat="45.44247188696649" lon="11.156666446686357"><ele>88.0</ele><time>2026-04-25T13:56:25Z</time></trkpt><trkpt lat="45.44228506594685" lon="11.156418817912252"><ele>88.0</ele><time>2026-04-25T13:56:26Z</time></trkpt><trkpt lat="45.44204275671931" lon="11.15612152736862"><ele>87.5</ele><time>2026-04-25T13:56:27Z</time></trkpt><trkpt lat="45.44184058372707" lon="11.155852705886446"><ele>87.0</ele><time>2026-04-25T13:56:28Z</time></trkpt><trkpt lat="45.44168241722221" lon="11.15560708101633"><ele>86.33333333333333</ele><time>2026-04-25T13:56:29Z</time></trkpt><trkpt lat="45.44152347430269" lon="11.155425105030234"><ele>85.66666666666666</ele><time>2026-04-25T13:56:30Z</time></trkpt><trkpt lat="45.441390765938145" lon="11.155240226450957"><ele>85.0</ele><time>2026-04-25T13:56:31Z</time></trkpt><trkpt lat="45.44121086223106" lon="11.155061562941148"><ele>84.0</ele><time>2026-04-25T13:56:32Z</time></trkpt><trkpt lat="45.440969835146895" lon="11.154882462413664"><ele>83.0</ele><time>2026-04-25T13:56:33Z</time></trkpt><trkpt lat="45.44071771455709" lon="11.154712108678329"><ele>82.0</ele><time>2026-04-25T13:56:34Z</time></trkpt><trkpt lat="45.44049513369761" lon="11.1545533568137"><ele>81.0</ele><time>2026-04-25T13:56:35Z</time></trkpt><trkpt lat="45.440309613678444" lon="11.154378690769795"><ele>80.5</ele><time>2026-04-25T13:56:36Z</time></trkpt><trkpt lat="45.440112754539804" lon="11.154190417855236"><ele>80.0</ele><time>2026-04-25T13:56:37Z</time></trkpt><trkpt lat="45.43991362648083" lon="11.153988529733937"><ele>80.0</ele><time>2026-04-25T13:56:38Z</time></trkpt><trkpt lat="45.43972391103289" lon="11.153781898302613"><ele>80.0</ele><time>2026-04-25T13:56:39Z</time></trkpt><trkpt lat="45.43955560252182" lon="11.153573721430444"><ele>79.0</ele><time>2026-04-25T13:56:40Z</time></trkpt><trkpt lat="45.43940784692849" lon="11.153377644419695"><ele>78.0</ele><time>2026-04-25T13:56:41Z</time></trkpt><trkpt lat="45.43926896622574" lon="11.153192573390951"><ele>77.0</ele><time>2026-04-25T13:56:42Z</time></trkpt><trkpt lat="45.43912491334464" lon="11.153031294326091"><ele>77.0</ele><time>2026-04-25T13:56:43Z</time></trkpt><trkpt lat="45.438993152453456" lon="11.152844662434344"><ele>77.0</ele><time>2026-04-25T13:56:44Z</time></trkpt><trkpt lat="45.438853549167824" lon="11.152658798690192"><ele>77.0</ele><time>2026-04-25T13:56:45Z</time></trkpt><trkpt lat="45.438720117213265" lon="11.152464429620576"><ele>76.66666666666667</ele><time>2026-04-25T13:56:46Z</time></trkpt><trkpt lat="45.43859188131921" lon="11.152247355155852"><ele>76.33333333333333</ele><time>2026-04-25T13:56:47Z</time></trkpt><trkpt lat="45.43850038713271" lon="11.151986269472891"><ele>76.0</ele><time>2026-04-25T13:56:48Z</time></trkpt><trkpt lat="45.438394764576586" lon="11.151736568041459"><ele>75.33333333333333</ele><time>2026-04-25T13:56:49Z</time></trkpt><trkpt lat="45.43828487825686" lon="11.15148280999041"><ele>74.66666666666667</ele><time>2026-04-25T13:56:50Z</time></trkpt><trkpt lat="45.43816183139663" lon="11.151231473721968"><ele>74.0</ele><time>2026-04-25T13:56:51Z</time></trkpt><trkpt lat="45.43804951872398" lon="11.150964102714127"><ele>73.33333333333334</ele><time>2026-04-25T13:56:52Z</time></trkpt><trkpt lat="45.43793776395668" lon="11.15069271535571"><ele>72.66666666666667</ele><time>2026-04-25T13:56:53Z</time></trkpt><trkpt lat="45.43782478625805" lon="11.150421900358229"><ele>72.0</ele><time>2026-04-25T13:56:54Z</time></trkpt><trkpt lat="45.4377086822629" lon="11.150149209957167"><ele>72.0</ele><time>2026-04-25T13:56:55Z</time></trkpt><trkpt lat="45.43758463315787" lon="11.149878426317173"><ele>72.0</ele><time>2026-04-25T13:56:56Z</time></trkpt><trkpt lat="45.437446406686874" lon="11.149608046979555"><ele>71.0</ele><time>2026-04-25T13:56:57Z</time></trkpt><trkpt lat="45.437316579969114" lon="11.149326853416374"><ele>70.0</ele><time>2026-04-25T13:56:58Z</time></trkpt><trkpt lat="45.437165685187836" lon="11.149063526866508"><ele>69.5</ele><time>2026-04-25T13:56:59Z</time></trkpt><trkpt lat="45.43699778402153" lon="11.1488203462124"><ele>69.0</ele><time>2026-04-25T13:57:00Z</time></trkpt><trkpt lat="45.436829262455426" lon="11.14856970715547"><ele>69.0</ele><time>2026-04-25T13:57:01Z</time></trkpt><trkpt lat="45.43665130966785" lon="11.148337759987392"><ele>69.0</ele><time>2026-04-25T13:57:02Z</time></trkpt><trkpt lat="45.43646251606883" lon="11.148115608928475"><ele>68.0</ele><time>2026-04-25T13:57:03Z</time></trkpt><trkpt lat="45.43626548797686" lon="11.147910345762144"><ele>67.0</ele><time>2026-04-25T13:57:04Z</time></trkpt><trkpt lat="45.43605518986574" lon="11.147725943355896"><ele>67.0</ele><time>2026-04-25T13:57:05Z</time></trkpt><trkpt lat="45.43582823537523" lon="11.147571937633055"><ele>67.0</ele><time>2026-04-25T13:57:06Z</time></trkpt><trkpt lat="45.43558714667383" lon="11.147377580652039"><ele>65.0</ele><time>2026-04-25T13:57:07Z</time></trkpt><trkpt lat="45.43533344026328" lon="11.147179925924119"><ele>63.0</ele><time>2026-04-25T13:57:08Z</time></trkpt><trkpt lat="45.43510395333828" lon="11.147018544307874"><ele>63.0</ele><time>2026-04-25T13:57:09Z</time></trkpt><trkpt lat="45.43489587834774" lon="11.146851750185752"><ele>63.0</ele><time>2026-04-25T13:57:10Z</time></trkpt><trkpt lat="45.43468686943409" lon="11.146688457784146"><ele>62.0</ele><time>2026-04-25T13:57:11Z</time></trkpt><trkpt lat="45.43446712034153" lon="11.146539826701824"><ele>61.0</ele><time>2026-04-25T13:57:12Z</time></trkpt><trkpt lat="45.4342452148431" lon="11.146404995234702"><ele>61.0</ele><time>2026-04-25T13:57:13Z</time></trkpt><trkpt lat="45.434046271630066" lon="11.146269662563926"><ele>61.0</ele><time>2026-04-25T13:57:14Z</time></trkpt><trkpt lat="45.43385575272436" lon="11.146146338702133"><ele>61.0</ele><time>2026-04-25T13:57:15Z</time></trkpt><trkpt lat="45.43366666276849" lon="11.146045377072046"><ele>61.0</ele><time>2026-04-25T13:57:16Z</time></trkpt><trkpt lat="45.43348749476613" lon="11.145921066329473"><ele>61.0</ele><time>2026-04-25T13:57:17Z</time></trkpt><trkpt lat="45.43331366293206" lon="11.145795248942028"><ele>61.0</ele><time>2026-04-25T13:57:18Z</time></trkpt><trkpt lat="45.43313853104612" lon="11.145664523090613"><ele>60.33333333333333</ele><time>2026-04-25T13:57:19Z</time></trkpt><trkpt lat="45.43296282717061" lon="11.14552865515843"><ele>59.66666666666667</ele><time>2026-04-25T13:57:20Z</time></trkpt><trkpt lat="45.43278193061995" lon="11.145385971037484"><ele>59.0</ele><time>2026-04-25T13:57:21Z</time></trkpt><trkpt lat="45.43259936692585" lon="11.145238649053399"><ele>59.0</ele><time>2026-04-25T13:57:22Z</time></trkpt><trkpt lat="45.43241156774236" lon="11.145084627258969"><ele>59.0</ele><time>2026-04-25T13:57:23Z</time></trkpt><trkpt lat="45.43221958441429" lon="11.144924679304363"><ele>59.0</ele><time>2026-04-25T13:57:24Z</time></trkpt><trkpt lat="45.432024563485236" lon="11.144763410520058"><ele>58.0</ele><time>2026-04-25T13:57:25Z</time></trkpt><trkpt lat="45.43182863013226" lon="11.144598993330646"><ele>57.0</ele><time>2026-04-25T13:57:26Z</time></trkpt><trkpt lat="45.43163486351848" lon="11.144434963800999"><ele>57.0</ele><time>2026-04-25T13:57:27Z</time></trkpt><trkpt lat="45.43143492005575" lon="11.144264369104725"><ele>57.0</ele><time>2026-04-25T13:57:28Z</time></trkpt><trkpt lat="45.43122379669602" lon="11.144086784475448"><ele>56.0</ele><time>2026-04-25T13:57:29Z</time></trkpt><trkpt lat="45.430988901072226" lon="11.14388794743059"><ele>55.0</ele><time>2026-04-25T13:57:30Z</time></trkpt><trkpt lat="45.43075232397529" lon="11.143685836146636"><ele>55.0</ele><time>2026-04-25T13:57:31Z</time></trkpt><trkpt lat="45.430522171015944" lon="11.143488523493417"><ele>55.0</ele><time>2026-04-25T13:57:32Z</time></trkpt><trkpt lat="45.43029663405425" lon="11.143293555967126"><ele>53.5</ele><time>2026-04-25T13:57:33Z</time></trkpt><trkpt lat="45.43007430208268" lon="11.14310226947299"><ele>52.0</ele><time>2026-04-25T13:57:34Z</time></trkpt><trkpt lat="45.42985397366096" lon="11.142915695002028"><ele>52.0</ele><time>2026-04-25T13:57:35Z</time></trkpt><trkpt lat="45.42963435951621" lon="11.142730686514838"><ele>52.0</ele><time>2026-04-25T13:57:36Z</time></trkpt><trkpt lat="45.429417142997266" lon="11.142541327624878"><ele>51.0</ele><time>2026-04-25T13:57:37Z</time></trkpt><trkpt lat="45.42919559761657" lon="11.14235459424399"><ele>50.0</ele><time>2026-04-25T13:57:38Z</time></trkpt><trkpt lat="45.428972831048455" lon="11.142162815489813"><ele>50.5</ele><time>2026-04-25T13:57:39Z</time></trkpt><trkpt lat="45.428753935245005" lon="11.141967682384275"><ele>51.0</ele><time>2026-04-25T13:57:40Z</time></trkpt><trkpt lat="45.4285385030229" lon="11.141764574885974"><ele>51.5</ele><time>2026-04-25T13:57:41Z</time></trkpt><trkpt lat="45.428351180657074" lon="11.141520276153845"><ele>52.0</ele><time>2026-04-25T13:57:42Z</time></trkpt><trkpt lat="45.42814274705543" lon="11.141320990108397"><ele>51.5</ele><time>2026-04-25T13:57:43Z</time></trkpt><trkpt lat="45.42795362597132" lon="11.141132199252057"><ele>51.0</ele><time>2026-04-25T13:57:44Z</time></trkpt><trkpt lat="45.42774817434669" lon="11.140963342358726"><ele>51.0</ele><time>2026-04-25T13:57:45Z</time></trkpt><trkpt lat="45.427536828985495" lon="11.14079365756712"><ele>51.0</ele><time>2026-04-25T13:57:46Z</time></trkpt><trkpt lat="45.42736090630799" lon="11.140642627042059"><ele>51.0</ele><time>2026-04-25T13:57:47Z</time></trkpt><trkpt lat="45.4271954084021" lon="11.140496884839777"><ele>51.0</ele><time>2026-04-25T13:57:48Z</time></trkpt><trkpt lat="45.42704312420898" lon="11.140362506109197"><ele>51.0</ele><time>2026-04-25T13:57:49Z</time></trkpt><trkpt lat="45.426905532269785" lon="11.140234491132876"><ele>51.0</ele><time>2026-04-25T13:57:50Z</time></trkpt><trkpt lat="45.42678644128264" lon="11.14012101992381"><ele>51.0</ele><time>2026-04-25T13:57:51Z</time></trkpt><trkpt lat="45.42666762454763" lon="11.140011662712528"><ele>51.0</ele><time>2026-04-25T13:57:52Z</time></trkpt><trkpt lat="45.42655160987244" lon="11.139902907645391"><ele>51.0</ele><time>2026-04-25T13:57:53Z</time></trkpt><trkpt lat="45.42643207345346" lon="11.13978909752351"><ele>51.0</ele><time>2026-04-25T13:57:54Z</time></trkpt><trkpt lat="45.42631105322136" lon="11.13966226633239"><ele>50.5</ele><time>2026-04-25T13:57:55Z</time></trkpt><trkpt lat="45.426205524996234" lon="11.139548646956909"><ele>50.0</ele><time>2026-04-25T13:57:56Z</time></trkpt><trkpt lat="45.42610658390348" lon="11.139444574764386"><ele>49.5</ele><time>2026-04-25T13:57:57Z</time></trkpt><trkpt lat="45.4260140446853" lon="11.139354005485773"><ele>49.0</ele><time>2026-04-25T13:57:58Z</time></trkpt><trkpt lat="45.42591518004503" lon="11.139259111395"><ele>49.0</ele><time>2026-04-25T13:57:59Z</time></trkpt><trkpt lat="45.42581582113454" lon="11.13916602266353"><ele>49.0</ele><time>2026-04-25T13:58:00Z</time></trkpt><trkpt lat="45.42572797362057" lon="11.139078528135823"><ele>49.0</ele><time>2026-04-25T13:58:01Z</time></trkpt><trkpt lat="45.42564708886702" lon="11.139000402496105"><ele>49.0</ele><time>2026-04-25T13:58:02Z</time></trkpt><trkpt lat="45.42556802301927" lon="11.138919548402944"><ele>49.0</ele><time>2026-04-25T13:58:03Z</time></trkpt><trkpt lat="45.425504690163415" lon="11.138844397943336"><ele>48.800000000000004</ele><time>2026-04-25T13:58:04Z</time></trkpt><trkpt lat="45.425453491448835" lon="11.138768626874679"><ele>48.6</ele><time>2026-04-25T13:58:05Z</time></trkpt><trkpt lat="45.42538874734642" lon="11.13865676485437"><ele>48.4</ele><time>2026-04-25T13:58:07Z</time></trkpt><trkpt lat="45.42534719064395" lon="11.138570111734426"><ele>48.2</ele><time>2026-04-25T13:58:09Z</time></trkpt><trkpt lat="45.42529287454019" lon="11.138410496176046"><ele>48.0</ele><time>2026-04-25T13:58:11Z</time></trkpt><trkpt lat="45.42526781333018" lon="11.13829894922986"><ele>48.2</ele><time>2026-04-25T13:58:12Z</time></trkpt><trkpt lat="45.425251699793186" lon="11.138169823700984"><ele>48.4</ele><time>2026-04-25T13:58:13Z</time></trkpt><trkpt lat="45.42524174996501" lon="11.138043138490982"><ele>48.6</ele><time>2026-04-25T13:58:14Z</time></trkpt><trkpt lat="45.42523754218662" lon="11.137937664276924"><ele>48.800000000000004</ele><time>2026-04-25T13:58:15Z</time></trkpt><trkpt lat="45.4252350504984" lon="11.137838315251088"><ele>49.0</ele><time>2026-04-25T13:58:16Z</time></trkpt><trkpt lat="45.42525108363104" lon="11.137661600069126"><ele>48.99999999999999</ele><time>2026-04-25T13:58:18Z</time></trkpt><trkpt lat="45.42525938939901" lon="11.137551290807638"><ele>49.0</ele><time>2026-04-25T13:58:19Z</time></trkpt><trkpt lat="45.425243168687125" lon="11.1374356797961"><ele>49.0</ele><time>2026-04-25T13:58:20Z</time></trkpt><trkpt lat="45.42520470772731" lon="11.137338795442997"><ele>49.0</ele><time>2026-04-25T13:58:21Z</time></trkpt><trkpt lat="45.42514776156604" lon="11.137275484630665"><ele>48.99999999999999</ele><time>2026-04-25T13:58:22Z</time></trkpt><trkpt lat="45.42506766539647" lon="11.137208860152356"><ele>49.0</ele><time>2026-04-25T13:58:23Z</time></trkpt><trkpt lat="45.42498303271739" lon="11.137117183349837"><ele>49.33333333333333</ele><time>2026-04-25T13:58:24Z</time></trkpt><trkpt lat="45.42490486372454" lon="11.136998157807886"><ele>49.66666666666667</ele><time>2026-04-25T13:58:25Z</time></trkpt><trkpt lat="45.42482128069398" lon="11.136805019978665"><ele>50.0</ele><time>2026-04-25T13:58:26Z</time></trkpt><trkpt lat="45.42470592148968" lon="11.136546581825257"><ele>49.333333333333336</ele><time>2026-04-25T13:58:27Z</time></trkpt><trkpt lat="45.42456975306879" lon="11.136287585953657"><ele>48.66666666666667</ele><time>2026-04-25T13:58:28Z</time></trkpt><trkpt lat="45.42447303606309" lon="11.136048252849118"><ele>48.0</ele><time>2026-04-25T13:58:29Z</time></trkpt><trkpt lat="45.42437398728524" lon="11.13582067273667"><ele>49.66666666666667</ele><time>2026-04-25T13:58:30Z</time></trkpt><trkpt lat="45.424278480043085" lon="11.135602791455542"><ele>51.333333333333336</ele><time>2026-04-25T13:58:31Z</time></trkpt><trkpt lat="45.4241850921782" lon="11.135390047740797"><ele>53.0</ele><time>2026-04-25T13:58:32Z</time></trkpt><trkpt lat="45.42410026458428" lon="11.13518589177699"><ele>53.0</ele><time>2026-04-25T13:58:33Z</time></trkpt><trkpt lat="45.42403143188167" lon="11.134992998167773"><ele>53.0</ele><time>2026-04-25T13:58:34Z</time></trkpt><trkpt lat="45.423978529257454" lon="11.134788271627409"><ele>53.0</ele><time>2026-04-25T13:58:35Z</time></trkpt><trkpt lat="45.42393942076969" lon="11.13457041858232"><ele>54.0</ele><time>2026-04-25T13:58:36Z</time></trkpt><trkpt lat="45.42391382071409" lon="11.134344580280066"><ele>55.0</ele><time>2026-04-25T13:58:37Z</time></trkpt><trkpt lat="45.423901011055634" lon="11.134116663072783"><ele>56.0</ele><time>2026-04-25T13:58:38Z</time></trkpt><trkpt lat="45.423898157536975" lon="11.133888612322327"><ele>56.0</ele><time>2026-04-25T13:58:39Z</time></trkpt><trkpt lat="45.42390577394355" lon="11.133660487952548"><ele>56.0</ele><time>2026-04-25T13:58:40Z</time></trkpt><trkpt lat="45.423919003315625" lon="11.133433072364678"><ele>56.0</ele><time>2026-04-25T13:58:41Z</time></trkpt><trkpt lat="45.42393387242662" lon="11.133204894659317"><ele>56.0</ele><time>2026-04-25T13:58:42Z</time></trkpt><trkpt lat="45.42395267422004" lon="11.132973257606233"><ele>56.0</ele><time>2026-04-25T13:58:43Z</time></trkpt><trkpt lat="45.423969714871085" lon="11.132738412237755"><ele>56.0</ele><time>2026-04-25T13:58:44Z</time></trkpt><trkpt lat="45.42398399718199" lon="11.132500731983823"><ele>54.333333333333336</ele><time>2026-04-25T13:58:45Z</time></trkpt><trkpt lat="45.42399962304129" lon="11.132259379371533"><ele>52.66666666666667</ele><time>2026-04-25T13:58:46Z</time></trkpt><trkpt lat="45.42402159903726" lon="11.13201408031109"><ele>51.0</ele><time>2026-04-25T13:58:47Z</time></trkpt><trkpt lat="45.42404671650715" lon="11.131771926971119"><ele>50.33333333333333</ele><time>2026-04-25T13:58:48Z</time></trkpt><trkpt lat="45.42408746363218" lon="11.131504154195104"><ele>49.666666666666664</ele><time>2026-04-25T13:58:49Z</time></trkpt><trkpt lat="45.42418094617333" lon="11.131202504830865"><ele>49.0</ele><time>2026-04-25T13:58:50Z</time></trkpt><trkpt lat="45.4242971370754" lon="11.130830689686725"><ele>47.0</ele><time>2026-04-25T13:58:51Z</time></trkpt><trkpt lat="45.42445642309946" lon="11.13043448264286"><ele>45.0</ele><time>2026-04-25T13:58:52Z</time></trkpt><trkpt lat="45.424612509051066" lon="11.130024264155917"><ele>45.0</ele><time>2026-04-25T13:58:53Z</time></trkpt><trkpt lat="45.424762790583905" lon="11.129577011360007"><ele>45.0</ele><time>2026-04-25T13:58:54Z</time></trkpt><trkpt lat="45.42487677356378" lon="11.129183280784519"><ele>43.5</ele><time>2026-04-25T13:58:55Z</time></trkpt><trkpt lat="45.42499512276621" lon="11.128815995219798"><ele>42.0</ele><time>2026-04-25T13:58:56Z</time></trkpt><trkpt lat="45.42505559796315" lon="11.128397963143554"><ele>41.5</ele><time>2026-04-25T13:58:57Z</time></trkpt><trkpt lat="45.42508782169998" lon="11.12793180699307"><ele>41.0</ele><time>2026-04-25T13:58:58Z</time></trkpt><trkpt lat="45.42510357605978" lon="11.127477619397675"><ele>41.0</ele><time>2026-04-25T13:58:59Z</time></trkpt><trkpt lat="45.42510659101368" lon="11.12707770725664"><ele>41.0</ele><time>2026-04-25T13:59:00Z</time></trkpt><trkpt lat="45.425108592985126" lon="11.126702080881644"><ele>42.5</ele><time>2026-04-25T13:59:01Z</time></trkpt><trkpt lat="45.425110342544365" lon="11.126353516285212"><ele>44.0</ele><time>2026-04-25T13:59:02Z</time></trkpt><trkpt lat="45.42511203726383" lon="11.12601587747946"><ele>45.5</ele><time>2026-04-25T13:59:03Z</time></trkpt><trkpt lat="45.4251133161259" lon="11.12569114305051"><ele>47.0</ele><time>2026-04-25T13:59:04Z</time></trkpt><trkpt lat="45.42509328556435" lon="11.12535686571043"><ele>47.0</ele><time>2026-04-25T13:59:05Z</time></trkpt><trkpt lat="45.425065659737825" lon="11.125051539356772"><ele>47.0</ele><time>2026-04-25T13:59:06Z</time></trkpt><trkpt lat="45.42502645365481" lon="11.124774599781349"><ele>47.0</ele><time>2026-04-25T13:59:07Z</time></trkpt><trkpt lat="45.42498085731441" lon="11.124509021352583"><ele>49.0</ele><time>2026-04-25T13:59:08Z</time></trkpt><trkpt lat="45.42493621900761" lon="11.124255458131037"><ele>51.0</ele><time>2026-04-25T13:59:09Z</time></trkpt><trkpt lat="45.42489924435643" lon="11.124024031665513"><ele>53.0</ele><time>2026-04-25T13:59:10Z</time></trkpt><trkpt lat="45.42486789482813" lon="11.123826418227418"><ele>53.75</ele><time>2026-04-25T13:59:11Z</time></trkpt><trkpt lat="45.42484015695727" lon="11.123645253532262"><ele>54.5</ele><time>2026-04-25T13:59:12Z</time></trkpt><trkpt lat="45.424817893014726" lon="11.123478317227086"><ele>55.25</ele><time>2026-04-25T13:59:13Z</time></trkpt><trkpt lat="45.42479824870854" lon="11.123306874476777"><ele>56.0</ele><time>2026-04-25T13:59:14Z</time></trkpt><trkpt lat="45.42478685835186" lon="11.123114157905139"><ele>57.0</ele><time>2026-04-25T13:59:15Z</time></trkpt><trkpt lat="45.424774880112395" lon="11.122912937727339"><ele>58.0</ele><time>2026-04-25T13:59:16Z</time></trkpt><trkpt lat="45.42475916888777" lon="11.12273521040452"><ele>59.0</ele><time>2026-04-25T13:59:17Z</time></trkpt><trkpt lat="45.42474050898027" lon="11.122562360655062"><ele>60.0</ele><time>2026-04-25T13:59:18Z</time></trkpt><trkpt lat="45.424715626165735" lon="11.122370519978224"><ele>60.0</ele><time>2026-04-25T13:59:19Z</time></trkpt><trkpt lat="45.42469042180412" lon="11.122198985708538"><ele>60.0</ele><time>2026-04-25T13:59:20Z</time></trkpt><trkpt lat="45.42466227439556" lon="11.122035840476363"><ele>60.0</ele><time>2026-04-25T13:59:21Z</time></trkpt><trkpt lat="45.42462526383594" lon="11.12187621066848"><ele>60.0</ele><time>2026-04-25T13:59:22Z</time></trkpt><trkpt lat="45.424584437548766" lon="11.121718716736305"><ele>59.8</ele><time>2026-04-25T13:59:23Z</time></trkpt><trkpt lat="45.424540021969" lon="11.121570406495806"><ele>59.6</ele><time>2026-04-25T13:59:24Z</time></trkpt><trkpt lat="45.424495859024205" lon="11.121437544306774"><ele>59.400000000000006</ele><time>2026-04-25T13:59:25Z</time></trkpt><trkpt lat="45.42444592687624" lon="11.121312759807024"><ele>59.2</ele><time>2026-04-25T13:59:26Z</time></trkpt><trkpt lat="45.424391599303185" lon="11.121199971055072"><ele>59.0</ele><time>2026-04-25T13:59:27Z</time></trkpt><trkpt lat="45.42434520752838" lon="11.12110902884017"><ele>59.00000000000001</ele><time>2026-04-25T13:59:28Z</time></trkpt><trkpt lat="45.42430653568751" lon="11.121028748101772"><ele>59.0</ele><time>2026-04-25T13:59:29Z</time></trkpt><trkpt lat="45.424267519796274" lon="11.120950780748773"><ele>59.0</ele><time>2026-04-25T13:59:30Z</time></trkpt><trkpt lat="45.42422876028156" lon="11.120871886138582"><ele>59.0</ele><time>2026-04-25T13:59:31Z</time></trkpt><trkpt lat="45.42418575641156" lon="11.120793143085775"><ele>59.00000000000001</ele><time>2026-04-25T13:59:32Z</time></trkpt><trkpt lat="45.424110606078486" lon="11.120660579351187"><ele>59.0</ele><time>2026-04-25T13:59:34Z</time></trkpt><trkpt lat="45.424062791223975" lon="11.120592481797146"><ele>59.2</ele><time>2026-04-25T13:59:36Z</time></trkpt><trkpt lat="45.423991280098576" lon="11.120545746583614"><ele>59.400000000000006</ele><time>2026-04-25T13:59:38Z</time></trkpt><trkpt lat="45.423927442378385" lon="11.120514627385301"><ele>59.6</ele><time>2026-04-25T13:59:39Z</time></trkpt><trkpt lat="45.423862974593455" lon="11.120491131848457"><ele>59.8</ele><time>2026-04-25T13:59:40Z</time></trkpt><trkpt lat="45.42375712516208" lon="11.120441429817035"><ele>60.0</ele><time>2026-04-25T13:59:42Z</time></trkpt><trkpt lat="45.42367686146132" lon="11.12027325079289"><ele>57.75</ele><time>2026-04-25T13:59:44Z</time></trkpt><trkpt lat="45.42365543841219" lon="11.120141089278555"><ele>55.5</ele><time>2026-04-25T13:59:45Z</time></trkpt><trkpt lat="45.42366015383181" lon="11.119982300898481"><ele>53.25</ele><time>2026-04-25T13:59:46Z</time></trkpt><trkpt lat="45.423681752004164" lon="11.119783247910869"><ele>51.0</ele><time>2026-04-25T13:59:47Z</time></trkpt><trkpt lat="45.423713776817095" lon="11.119571615103087"><ele>49.666666666666664</ele><time>2026-04-25T13:59:48Z</time></trkpt><trkpt lat="45.423746334844814" lon="11.119367853511717"><ele>48.33333333333333</ele><time>2026-04-25T13:59:49Z</time></trkpt><trkpt lat="45.42378837498773" lon="11.11913434888898"><ele>47.0</ele><time>2026-04-25T13:59:50Z</time></trkpt><trkpt lat="45.423841809108104" lon="11.118900578026013"><ele>47.0</ele><time>2026-04-25T13:59:51Z</time></trkpt><trkpt lat="45.423898731000065" lon="11.118690119371019"><ele>47.0</ele><time>2026-04-25T13:59:52Z</time></trkpt><trkpt lat="45.423953860831034" lon="11.118490989727997"><ele>47.0</ele><time>2026-04-25T13:59:53Z</time></trkpt><trkpt lat="45.42400051408913" lon="11.118305357484633"><ele>47.0</ele><time>2026-04-25T13:59:54Z</time></trkpt><trkpt lat="45.42403128009986" lon="11.118134143680358"><ele>46.0</ele><time>2026-04-25T13:59:55Z</time></trkpt><trkpt lat="45.424050435685395" lon="11.117967936073672"><ele>45.0</ele><time>2026-04-25T13:59:56Z</time></trkpt><trkpt lat="45.424056652191055" lon="11.117807133350016"><ele>44.0</ele><time>2026-04-25T13:59:57Z</time></trkpt><trkpt lat="45.42405321295707" lon="11.117645204587673"><ele>43.0</ele><time>2026-04-25T13:59:58Z</time></trkpt><trkpt lat="45.42404541183147" lon="11.117462198020391"><ele>43.0</ele><time>2026-04-25T13:59:59Z</time></trkpt><trkpt lat="45.424038659714306" lon="11.11726376271515"><ele>43.0</ele><time>2026-04-25T14:00:00Z</time></trkpt><trkpt lat="45.42403025845574" lon="11.117037253929041"><ele>43.0</ele><time>2026-04-25T14:00:01Z</time></trkpt><trkpt lat="45.424022314054916" lon="11.1168052732309"><ele>43.0</ele><time>2026-04-25T14:00:02Z</time></trkpt><trkpt lat="45.424008289456786" lon="11.116595630068295"><ele>43.0</ele><time>2026-04-25T14:00:03Z</time></trkpt><trkpt lat="45.42399722924461" lon="11.11640560403363"><ele>43.0</ele><time>2026-04-25T14:00:04Z</time></trkpt><trkpt lat="45.42398350384864" lon="11.116233875938455"><ele>43.0</ele><time>2026-04-25T14:00:05Z</time></trkpt><trkpt lat="45.42398237645024" lon="11.116075273899005"><ele>43.16666666666667</ele><time>2026-04-25T14:00:06Z</time></trkpt><trkpt lat="45.42397561261047" lon="11.11592946901986"><ele>43.333333333333336</ele><time>2026-04-25T14:00:07Z</time></trkpt><trkpt lat="45.42396959486033" lon="11.115799747248664"><ele>43.5</ele><time>2026-04-25T14:00:08Z</time></trkpt><trkpt lat="45.42396372746873" lon="11.11567326667185"><ele>43.666666666666664</ele><time>2026-04-25T14:00:09Z</time></trkpt><trkpt lat="45.42395837919816" lon="11.11555797654918"><ele>43.83333333333333</ele><time>2026-04-25T14:00:10Z</time></trkpt><trkpt lat="45.42395415283947" lon="11.115466870932156"><ele>44.0</ele><time>2026-04-25T14:00:11Z</time></trkpt><trkpt lat="45.42395037748653" lon="11.115362522727374"><ele>44.0</ele><time>2026-04-25T14:00:13Z</time></trkpt><trkpt lat="45.42394902213045" lon="11.115231608663409"><ele>44.0</ele><time>2026-04-25T14:00:45Z</time></trkpt><trkpt lat="45.42393600280409" lon="11.11509470192334"><ele>44.0</ele><time>2026-04-25T14:00:47Z</time></trkpt><trkpt lat="45.42376112435991" lon="11.115085952927696"><ele>44.0</ele><time>2026-04-25T14:00:48Z</time></trkpt><trkpt lat="45.423679134525166" lon="11.115126095768364"><ele>44.0</ele><time>2026-04-25T14:00:49Z</time></trkpt><trkpt lat="45.42356196424859" lon="11.115188060970928"><ele>44.0</ele><time>2026-04-25T14:00:50Z</time></trkpt><trkpt lat="45.42344232363743" lon="11.11521343693272"><ele>44.0</ele><time>2026-04-25T14:00:51Z</time></trkpt><trkpt lat="45.423320714102616" lon="11.115267570436904"><ele>44.0</ele><time>2026-04-25T14:00:52Z</time></trkpt><trkpt lat="45.423190017352816" lon="11.115333846944885"><ele>44.0</ele><time>2026-04-25T14:00:53Z</time></trkpt><trkpt lat="45.423052110052836" lon="11.11540140170587"><ele>44.0</ele><time>2026-04-25T14:00:54Z</time></trkpt><trkpt lat="45.422913536597385" lon="11.11546246491733"><ele>44.0</ele><time>2026-04-25T14:00:55Z</time></trkpt><trkpt lat="45.42278259053012" lon="11.115516808049474"><ele>44.0</ele><time>2026-04-25T14:00:56Z</time></trkpt><trkpt lat="45.42265384023111" lon="11.11556980129901"><ele>44.0</ele><time>2026-04-25T14:00:57Z</time></trkpt><trkpt lat="45.4225326753622" lon="11.115619760391759"><ele>44.0</ele><time>2026-04-25T14:00:58Z</time></trkpt><trkpt lat="45.42241501233421" lon="11.115668752963973"><ele>44.0</ele><time>2026-04-25T14:00:59Z</time></trkpt><trkpt lat="45.422298832774366" lon="11.11571802310574"><ele>44.0</ele><time>2026-04-25T14:01:00Z</time></trkpt><trkpt lat="45.42216631750116" lon="11.115770971102188"><ele>44.33333333333333</ele><time>2026-04-25T14:01:01Z</time></trkpt><trkpt lat="45.422016490845486" lon="11.115821391861184"><ele>44.666666666666664</ele><time>2026-04-25T14:01:02Z</time></trkpt><trkpt lat="45.421843256568536" lon="11.11586690352017"><ele>45.0</ele><time>2026-04-25T14:01:03Z</time></trkpt><trkpt lat="45.421651581580406" lon="11.115909630992462"><ele>45.0</ele><time>2026-04-25T14:01:04Z</time></trkpt><trkpt lat="45.42148062083895" lon="11.115946479346034"><ele>45.0</ele><time>2026-04-25T14:01:05Z</time></trkpt><trkpt lat="45.42132640040233" lon="11.115978514524596"><ele>45.0</ele><time>2026-04-25T14:01:06Z</time></trkpt><trkpt lat="45.42119030584847" lon="11.116006717778587"><ele>45.0</ele><time>2026-04-25T14:01:07Z</time></trkpt><trkpt lat="45.42107145325976" lon="11.116031046490582"><ele>45.0</ele><time>2026-04-25T14:01:08Z</time></trkpt><trkpt lat="45.42096308257553" lon="11.116049470129655"><ele>45.0</ele><time>2026-04-25T14:01:09Z</time></trkpt><trkpt lat="45.42088486228729" lon="11.1160749993976"><ele>45.0</ele><time>2026-04-25T14:01:10Z</time></trkpt><trkpt lat="45.420766307320534" lon="11.116057635989295"><ele>45.0</ele><time>2026-04-25T14:01:12Z</time></trkpt><trkpt lat="45.420685592516094" lon="11.115990773680288"><ele>45.0</ele><time>2026-04-25T14:01:13Z</time></trkpt><trkpt lat="45.42059119993687" lon="11.115993146929641"><ele>45.0</ele><time>2026-04-25T14:01:14Z</time></trkpt><trkpt lat="45.4205237889793" lon="11.11610093649017"><ele>45.0</ele><time>2026-04-25T14:01:15Z</time></trkpt><trkpt lat="45.42047508305344" lon="11.116182417804849"><ele>45.0</ele><time>2026-04-25T14:01:16Z</time></trkpt><trkpt lat="45.42053213185896" lon="11.116355002548241"><ele>45.0</ele><time>2026-04-25T14:01:17Z</time></trkpt><trkpt lat="45.420600645440445" lon="11.116471208833865"><ele>45.333333333333336</ele><time>2026-04-25T14:01:18Z</time></trkpt><trkpt lat="45.42067393893747" lon="11.116621893812225"><ele>45.66666666666667</ele><time>2026-04-25T14:01:19Z</time></trkpt><trkpt lat="45.420724574936436" lon="11.116835278802723"><ele>46.0</ele><time>2026-04-25T14:01:20Z</time></trkpt><trkpt lat="45.42073912234715" lon="11.117072924575638"><ele>46.0</ele><time>2026-04-25T14:01:21Z</time></trkpt><trkpt lat="45.420733649275675" lon="11.117310811624177"><ele>46.0</ele><time>2026-04-25T14:01:22Z</time></trkpt><trkpt lat="45.42070316537151" lon="11.117536036738661"><ele>46.0</ele><time>2026-04-25T14:01:23Z</time></trkpt><trkpt lat="45.420674283125805" lon="11.117731086148067"><ele>45.599999999999994</ele><time>2026-04-25T14:01:24Z</time></trkpt><trkpt lat="45.42065757501634" lon="11.117903195564235"><ele>45.2</ele><time>2026-04-25T14:01:25Z</time></trkpt><trkpt lat="45.42062445420447" lon="11.118050487200804"><ele>44.8</ele><time>2026-04-25T14:01:26Z</time></trkpt><trkpt lat="45.420602895020984" lon="11.118169118186076"><ele>44.400000000000006</ele><time>2026-04-25T14:01:27Z</time></trkpt><trkpt lat="45.420644294585564" lon="11.118277496434729"><ele>44.0</ele><time>2026-04-25T14:01:29Z</time></trkpt><trkpt lat="45.42080165806864" lon="11.118258250935874"><ele>44.0</ele><time>2026-04-25T14:01:30Z</time></trkpt><trkpt lat="45.420868607517626" lon="11.11815500692832"><ele>44.0</ele><time>2026-04-25T14:01:32Z</time></trkpt><trkpt lat="45.420879143560356" lon="11.118042489804477"><ele>44.0</ele><time>2026-04-25T14:01:34Z</time></trkpt><trkpt lat="45.42088917633354" lon="11.117945648829059"><ele>44.0</ele><time>2026-04-25T14:02:02Z</time></trkpt><trkpt lat="45.420880031993036" lon="11.117851901669766"><ele>44.0</ele><time>2026-04-25T14:02:04Z</time></trkpt><trkpt lat="45.420892146861405" lon="11.117671828229197"><ele>44.0</ele><time>2026-04-25T14:02:07Z</time></trkpt><trkpt lat="45.420793653926914" lon="11.117656486576442"><ele>44.0</ele><time>2026-04-25T14:04:38Z</time></trkpt><trkpt lat="45.420802564654615" lon="11.117542587724605"><ele>44.0</ele><time>2026-04-25T14:04:42Z</time></trkpt><trkpt lat="45.42074142828897" lon="11.117467743631472"><ele>44.0</ele><time>2026-04-25T14:05:00Z</time></trkpt><trkpt lat="45.420749819162985" lon="11.117360492638069"><ele>44.0</ele><time>2026-04-25T14:05:01Z</time></trkpt><trkpt lat="45.42074397131272" lon="11.11723625498495"><ele>44.0</ele><time>2026-04-25T14:05:02Z</time></trkpt><trkpt lat="45.42075833357745" lon="11.117121145368221"><ele>44.0</ele><time>2026-04-25T14:05:03Z</time></trkpt><trkpt lat="45.42076650598555" lon="11.116991400025244"><ele>44.2</ele><time>2026-04-25T14:05:04Z</time></trkpt><trkpt lat="45.420762979165396" lon="11.116853022379736"><ele>44.400000000000006</ele><time>2026-04-25T14:05:05Z</time></trkpt><trkpt lat="45.42074850486781" lon="11.116705831972947"><ele>44.6</ele><time>2026-04-25T14:05:06Z</time></trkpt><trkpt lat="45.420746214673485" lon="11.116548655696096"><ele>44.8</ele><time>2026-04-25T14:05:07Z</time></trkpt><trkpt lat="45.42076741333556" lon="11.116386405789166"><ele>45.0</ele><time>2026-04-25T14:05:08Z</time></trkpt><trkpt lat="45.420808266005096" lon="11.116205778658022"><ele>45.0</ele><time>2026-04-25T14:05:09Z</time></trkpt><trkpt lat="45.42090155987168" lon="11.116165903192861"><ele>45.0</ele><time>2026-04-25T14:05:10Z</time></trkpt><trkpt lat="45.42082352933963" lon="11.115791648940203"><ele>45.0</ele><time>2026-04-25T14:05:11Z</time></trkpt><trkpt lat="45.42086420455585" lon="11.115556232782213"><ele>44.666666666666664</ele><time>2026-04-25T14:05:12Z</time></trkpt><trkpt lat="45.420898598728506" lon="11.115286571634455"><ele>44.33333333333333</ele><time>2026-04-25T14:05:13Z</time></trkpt><trkpt lat="45.4209226142681" lon="11.115009668937674"><ele>44.0</ele><time>2026-04-25T14:05:14Z</time></trkpt><trkpt lat="45.42094032088681" lon="11.1147294444248"><ele>44.0</ele><time>2026-04-25T14:05:15Z</time></trkpt><trkpt lat="45.42096514308762" lon="11.114459120878237"><ele>44.0</ele><time>2026-04-25T14:05:16Z</time></trkpt><trkpt lat="45.4209926813346" lon="11.114189340596244"><ele>44.0</ele><time>2026-04-25T14:05:17Z</time></trkpt><trkpt lat="45.42102463616709" lon="11.113926159593346"><ele>44.33333333333333</ele><time>2026-04-25T14:05:18Z</time></trkpt><trkpt lat="45.421048993156035" lon="11.113691724286545"><ele>44.666666666666664</ele><time>2026-04-25T14:05:19Z</time></trkpt><trkpt lat="45.421069613779856" lon="11.113477787410046"><ele>45.0</ele><time>2026-04-25T14:05:20Z</time></trkpt><trkpt lat="45.42108852079156" lon="11.113267839047657"><ele>44.75</ele><time>2026-04-25T14:05:21Z</time></trkpt><trkpt lat="45.42110584523635" lon="11.113065763747473"><ele>44.5</ele><time>2026-04-25T14:05:22Z</time></trkpt><trkpt lat="45.42111945463073" lon="11.1128718726685"><ele>44.25</ele><time>2026-04-25T14:05:23Z</time></trkpt><trkpt lat="45.421129581355565" lon="11.112698442420694"><ele>44.0</ele><time>2026-04-25T14:05:24Z</time></trkpt><trkpt lat="45.42113909166785" lon="11.11254630842657"><ele>44.0</ele><time>2026-04-25T14:05:25Z</time></trkpt><trkpt lat="45.42115112042822" lon="11.112420682221384"><ele>44.0</ele><time>2026-04-25T14:05:26Z</time></trkpt><trkpt lat="45.42116649764916" lon="11.112307202361702"><ele>44.0</ele><time>2026-04-25T14:05:27Z</time></trkpt><trkpt lat="45.421199708415756" lon="11.112208230215453"><ele>44.0</ele><time>2026-04-25T14:05:28Z</time></trkpt><trkpt lat="45.421236475121745" lon="11.112131147973589"><ele>44.0</ele><time>2026-04-25T14:05:29Z</time></trkpt><trkpt lat="45.42133245131207" lon="11.112024399270526"><ele>44.0</ele><time>2026-04-25T14:05:31Z</time></trkpt><trkpt lat="45.42140186353863" lon="11.111974254853083"><ele>44.0</ele><time>2026-04-25T14:05:32Z</time></trkpt><trkpt lat="45.42146337989706" lon="11.111924076425172"><ele>44.0</ele><time>2026-04-25T14:05:33Z</time></trkpt><trkpt lat="45.421507287139676" lon="11.111847394281266"><ele>44.0</ele><time>2026-04-25T14:05:34Z</time></trkpt><trkpt lat="45.42151891240703" lon="11.111754231765195"><ele>44.0</ele><time>2026-04-25T14:05:35Z</time></trkpt><trkpt lat="45.421553158337154" lon="11.111618225020589"><ele>44.0</ele><time>2026-04-25T14:05:37Z</time></trkpt><trkpt lat="45.421422088948084" lon="11.111517516129233"><ele>44.166666666666664</ele><time>2026-04-25T14:05:38Z</time></trkpt><trkpt lat="45.42135239452764" lon="11.111436795644222"><ele>44.33333333333333</ele><time>2026-04-25T14:05:39Z</time></trkpt><trkpt lat="45.421295610550864" lon="11.111342699556248"><ele>44.5</ele><time>2026-04-25T14:05:40Z</time></trkpt><trkpt lat="45.42126136316038" lon="11.111240547381094"><ele>44.666666666666664</ele><time>2026-04-25T14:05:41Z</time></trkpt><trkpt lat="45.42124590804534" lon="11.111114909655958"><ele>44.833333333333336</ele><time>2026-04-25T14:05:42Z</time></trkpt><trkpt lat="45.421240947067666" lon="11.110968248100528"><ele>45.0</ele><time>2026-04-25T14:05:43Z</time></trkpt><trkpt lat="45.42126960952848" lon="11.110766356848767"><ele>45.0</ele><time>2026-04-25T14:05:44Z</time></trkpt><trkpt lat="45.4212906156024" lon="11.110503499348132"><ele>45.0</ele><time>2026-04-25T14:05:45Z</time></trkpt><trkpt lat="45.42129770736676" lon="11.110216231620592"><ele>45.0</ele><time>2026-04-25T14:05:46Z</time></trkpt><trkpt lat="45.42132725890725" lon="11.10991252704466"><ele>44.666666666666664</ele><time>2026-04-25T14:05:47Z</time></trkpt><trkpt lat="45.421350607505616" lon="11.10960949108238"><ele>44.33333333333333</ele><time>2026-04-25T14:05:48Z</time></trkpt><trkpt lat="45.42137204305199" lon="11.109299235608688"><ele>44.0</ele><time>2026-04-25T14:05:49Z</time></trkpt><trkpt lat="45.421396736237256" lon="11.109019204355818"><ele>43.33333333333333</ele><time>2026-04-25T14:05:50Z</time></trkpt><trkpt lat="45.42141796985617" lon="11.10874725324616"><ele>42.666666666666664</ele><time>2026-04-25T14:05:51Z</time></trkpt><trkpt lat="45.42143437024202" lon="11.108494156499573"><ele>42.0</ele><time>2026-04-25T14:05:52Z</time></trkpt><trkpt lat="45.42145022591585" lon="11.108262496362196"><ele>41.75</ele><time>2026-04-25T14:05:53Z</time></trkpt><trkpt lat="45.4214725077807" lon="11.108058228726263"><ele>41.5</ele><time>2026-04-25T14:05:54Z</time></trkpt><trkpt lat="45.4215084959572" lon="11.107884387766472"><ele>41.25</ele><time>2026-04-25T14:05:55Z</time></trkpt><trkpt lat="45.42156903835425" lon="11.10774232732624"><ele>41.0</ele><time>2026-04-25T14:05:56Z</time></trkpt><trkpt lat="45.421637316182284" lon="11.107635888205268"><ele>41.0</ele><time>2026-04-25T14:05:57Z</time></trkpt><trkpt lat="45.42170917576719" lon="11.107551881806845"><ele>41.0</ele><time>2026-04-25T14:05:58Z</time></trkpt><trkpt lat="45.421782879386946" lon="11.107500372685742"><ele>41.0</ele><time>2026-04-25T14:05:59Z</time></trkpt><trkpt lat="45.42185378223993" lon="11.10742498133759"><ele>41.0</ele><time>2026-04-25T14:06:00Z</time></trkpt><trkpt lat="45.421901006582516" lon="11.107322541056954"><ele>41.0</ele><time>2026-04-25T14:06:01Z</time></trkpt><trkpt lat="45.42189969161422" lon="11.107084240800834"><ele>41.0</ele><time>2026-04-25T14:06:03Z</time></trkpt><trkpt lat="45.42185622440502" lon="11.106989414487545"><ele>41.0</ele><time>2026-04-25T14:06:04Z</time></trkpt><trkpt lat="45.42180643077377" lon="11.106910937503299"><ele>41.0</ele><time>2026-04-25T14:06:05Z</time></trkpt><trkpt lat="45.42171997325148" lon="11.106835534056275"><ele>41.0</ele><time>2026-04-25T14:06:06Z</time></trkpt><trkpt lat="45.42162367449666" lon="11.106722241841089"><ele>41.0</ele><time>2026-04-25T14:06:07Z</time></trkpt><trkpt lat="45.42164919919765" lon="11.106395214240333"><ele>41.0</ele><time>2026-04-25T14:06:08Z</time></trkpt><trkpt lat="45.421682233635" lon="11.106170295421558"><ele>41.0</ele><time>2026-04-25T14:06:09Z</time></trkpt><trkpt lat="45.42169804084999" lon="11.105963212309415"><ele>41.0</ele><time>2026-04-25T14:06:10Z</time></trkpt><trkpt lat="45.421712379505905" lon="11.105754236215663"><ele>41.599999999999994</ele><time>2026-04-25T14:06:11Z</time></trkpt><trkpt lat="45.42172119315972" lon="11.105571492808428"><ele>42.2</ele><time>2026-04-25T14:06:12Z</time></trkpt><trkpt lat="45.42172819954105" lon="11.105409977161784"><ele>42.8</ele><time>2026-04-25T14:06:13Z</time></trkpt><trkpt lat="45.42173786526093" lon="11.105261905584834"><ele>43.400000000000006</ele><time>2026-04-25T14:06:14Z</time></trkpt><trkpt lat="45.42174692612292" lon="11.105136876426705"><ele>44.0</ele><time>2026-04-25T14:06:15Z</time></trkpt><trkpt lat="45.42175707363437" lon="11.105028464731054"><ele>44.0</ele><time>2026-04-25T14:06:16Z</time></trkpt><trkpt lat="45.42177866558101" lon="11.104920619435328"><ele>44.0</ele><time>2026-04-25T14:06:18Z</time></trkpt><trkpt lat="45.42178454539302" lon="11.104825480830977"><ele>46.0</ele><time>2026-04-25T14:06:20Z</time></trkpt><trkpt lat="45.42179071600399" lon="11.10472547733366"><ele>46.0</ele><time>2026-04-25T14:06:22Z</time></trkpt></trkseg></trk></gpx>